<?xml version="1.0" encoding="UTF-8" standalone="no" ?>
<gpx xmlns="http://www.topografix.com/GPX/1/1" xmlns:xsi="http://www.w3.org/2001/XMLSchema-instance" xsi:schemaLocation="http://www.topografix.com/GPX/1/1 http://www.topografix.com/GPX/1/1/gpx.xsd" version="1.1" creator="VisuGPX - https://www.visugpx.com">
  <metadata>
    <name>12903270-Aneto - Perdiguiere SENS OK</name>
  </metadata>
  <trk>
    <name><![CDATA[12903270-Aneto - Perdiguiere]]></name>
    <extensions>
      <line xmlns="http://www.topografix.com/GPX/gpx_style/0/2">
        <color>0000FF</color>
        <width>4</width>
      </line>
    </extensions>
    <trkseg>
      <trkpt lat="42.72138" lon="0.65362">
        <ele>1378</ele>
        <time>2021-08-20T14:04:00Z</time>
      </trkpt>
      <trkpt lat="42.72122" lon="0.65397">
        <ele>1381</ele>
        <time>2021-08-20T14:03:20Z</time>
      </trkpt>
      <trkpt lat="42.72129" lon="0.65401">
        <ele>1381</ele>
        <time>2021-08-20T14:03:10Z</time>
      </trkpt>
      <trkpt lat="42.72132" lon="0.65403">
        <ele>1381</ele>
        <time>2021-08-20T14:03:05Z</time>
      </trkpt>
      <trkpt lat="42.72133" lon="0.65409">
        <ele>1381</ele>
        <time>2021-08-20T14:02:59Z</time>
      </trkpt>
      <trkpt lat="42.72131" lon="0.65415">
        <ele>1382</ele>
        <time>2021-08-20T14:02:53Z</time>
      </trkpt>
      <trkpt lat="42.7211" lon="0.65439">
        <ele>1384</ele>
        <time>2021-08-20T14:02:16Z</time>
      </trkpt>
      <trkpt lat="42.72103" lon="0.6545">
        <ele>1384</ele>
        <time>2021-08-20T14:02:02Z</time>
      </trkpt>
      <trkpt lat="42.7209" lon="0.65497">
        <ele>1386</ele>
        <time>2021-08-20T14:01:13Z</time>
      </trkpt>
      <trkpt lat="42.72081" lon="0.65524">
        <ele>1389</ele>
        <time>2021-08-20T14:00:44Z</time>
      </trkpt>
      <trkpt lat="42.72072" lon="0.65537">
        <ele>1391</ele>
        <time>2021-08-20T14:00:26Z</time>
      </trkpt>
      <trkpt lat="42.72051" lon="0.65567">
        <ele>1393</ele>
        <time>2021-08-20T13:59:45Z</time>
      </trkpt>
      <trkpt lat="42.72035" lon="0.6559">
        <ele>1394</ele>
        <time>2021-08-20T13:59:14Z</time>
      </trkpt>
      <trkpt lat="42.72018" lon="0.65607">
        <ele>1394</ele>
        <time>2021-08-20T13:58:46Z</time>
      </trkpt>
      <trkpt lat="42.71988" lon="0.65633">
        <ele>1400</ele>
        <time>2021-08-20T13:57:59Z</time>
      </trkpt>
      <trkpt lat="42.71975" lon="0.65649">
        <ele>1408</ele>
        <time>2021-08-20T13:57:35Z</time>
      </trkpt>
      <trkpt lat="42.71965" lon="0.65651">
        <ele>1412</ele>
        <time>2021-08-20T13:57:22Z</time>
      </trkpt>
      <trkpt lat="42.71961" lon="0.65647">
        <ele>1414</ele>
        <time>2021-08-20T13:57:15Z</time>
      </trkpt>
      <trkpt lat="42.71957" lon="0.6564">
        <ele>1415</ele>
        <time>2021-08-20T13:57:07Z</time>
      </trkpt>
      <trkpt lat="42.71956" lon="0.65632">
        <ele>1416</ele>
        <time>2021-08-20T13:56:59Z</time>
      </trkpt>
      <trkpt lat="42.71964" lon="0.65593">
        <ele>1411</ele>
        <time>2021-08-20T13:56:19Z</time>
      </trkpt>
      <trkpt lat="42.71972" lon="0.65502">
        <ele>1401</ele>
        <time>2021-08-20T13:54:49Z</time>
      </trkpt>
      <trkpt lat="42.71971" lon="0.65485">
        <ele>1401</ele>
        <time>2021-08-20T13:54:32Z</time>
      </trkpt>
      <trkpt lat="42.71968" lon="0.65475">
        <ele>1402</ele>
        <time>2021-08-20T13:54:22Z</time>
      </trkpt>
      <trkpt lat="42.71964" lon="0.65467">
        <ele>1403</ele>
        <time>2021-08-20T13:54:12Z</time>
      </trkpt>
      <trkpt lat="42.71931" lon="0.65454">
        <ele>1414</ele>
        <time>2021-08-20T13:53:26Z</time>
      </trkpt>
      <trkpt lat="42.7192" lon="0.65446">
        <ele>1416</ele>
        <time>2021-08-20T13:53:10Z</time>
      </trkpt>
      <trkpt lat="42.71914" lon="0.65437">
        <ele>1415</ele>
        <time>2021-08-20T13:52:58Z</time>
      </trkpt>
      <trkpt lat="42.71911" lon="0.65398">
        <ele>1411</ele>
        <time>2021-08-20T13:52:19Z</time>
      </trkpt>
      <trkpt lat="42.71905" lon="0.65388">
        <ele>1412</ele>
        <time>2021-08-20T13:52:07Z</time>
      </trkpt>
      <trkpt lat="42.71891" lon="0.65382">
        <ele>1414</ele>
        <time>2021-08-20T13:51:47Z</time>
      </trkpt>
      <trkpt lat="42.71874" lon="0.65382">
        <ele>1417</ele>
        <time>2021-08-20T13:51:24Z</time>
      </trkpt>
      <trkpt lat="42.71855" lon="0.6537">
        <ele>1419</ele>
        <time>2021-08-20T13:50:56Z</time>
      </trkpt>
      <trkpt lat="42.71839" lon="0.65348">
        <ele>1420</ele>
        <time>2021-08-20T13:50:26Z</time>
      </trkpt>
      <trkpt lat="42.7179" lon="0.65316">
        <ele>1427</ele>
        <time>2021-08-20T13:49:14Z</time>
      </trkpt>
      <trkpt lat="42.71775" lon="0.65282">
        <ele>1429</ele>
        <time>2021-08-20T13:48:35Z</time>
      </trkpt>
      <trkpt lat="42.71761" lon="0.65272">
        <ele>1430</ele>
        <time>2021-08-20T13:48:14Z</time>
      </trkpt>
      <trkpt lat="42.71722" lon="0.65253">
        <ele>1433</ele>
        <time>2021-08-20T13:47:18Z</time>
      </trkpt>
      <trkpt lat="42.71676" lon="0.65231">
        <ele>1438</ele>
        <time>2021-08-20T13:46:13Z</time>
      </trkpt>
      <trkpt lat="42.7165" lon="0.65228">
        <ele>1442</ele>
        <time>2021-08-20T13:45:38Z</time>
      </trkpt>
      <trkpt lat="42.71632" lon="0.65219">
        <ele>1445</ele>
        <time>2021-08-20T13:45:13Z</time>
      </trkpt>
      <trkpt lat="42.71592" lon="0.65186">
        <ele>1449</ele>
        <time>2021-08-20T13:44:10Z</time>
      </trkpt>
      <trkpt lat="42.71589" lon="0.65181">
        <ele>1449</ele>
        <time>2021-08-20T13:44:04Z</time>
      </trkpt>
      <trkpt lat="42.71587" lon="0.65164">
        <ele>1449</ele>
        <time>2021-08-20T13:43:47Z</time>
      </trkpt>
      <trkpt lat="42.71586" lon="0.65153">
        <ele>1452</ele>
        <time>2021-08-20T13:43:36Z</time>
      </trkpt>
      <trkpt lat="42.71586" lon="0.65148">
        <ele>1454</ele>
        <time>2021-08-20T13:43:31Z</time>
      </trkpt>
      <trkpt lat="42.71593" lon="0.65135">
        <ele>1458</ele>
        <time>2021-08-20T13:43:16Z</time>
      </trkpt>
      <trkpt lat="42.71594" lon="0.65128">
        <ele>1460</ele>
        <time>2021-08-20T13:43:09Z</time>
      </trkpt>
      <trkpt lat="42.71592" lon="0.65123">
        <ele>1462</ele>
        <time>2021-08-20T13:43:03Z</time>
      </trkpt>
      <trkpt lat="42.71585" lon="0.65119">
        <ele>1464</ele>
        <time>2021-08-20T13:42:53Z</time>
      </trkpt>
      <trkpt lat="42.71564" lon="0.65119">
        <ele>1466</ele>
        <time>2021-08-20T13:42:25Z</time>
      </trkpt>
      <trkpt lat="42.71544" lon="0.65116">
        <ele>1468</ele>
        <time>2021-08-20T13:41:58Z</time>
      </trkpt>
      <trkpt lat="42.71515" lon="0.65103">
        <ele>1472</ele>
        <time>2021-08-20T13:41:17Z</time>
      </trkpt>
      <trkpt lat="42.71446" lon="0.65049">
        <ele>1491</ele>
        <time>2021-08-20T13:39:31Z</time>
      </trkpt>
      <trkpt lat="42.71418" lon="0.65024">
        <ele>1499</ele>
        <time>2021-08-20T13:38:46Z</time>
      </trkpt>
      <trkpt lat="42.71415" lon="0.65021">
        <ele>1500</ele>
        <time>2021-08-20T13:38:41Z</time>
      </trkpt>
      <trkpt lat="42.71409" lon="0.65018">
        <ele>1502</ele>
        <time>2021-08-20T13:38:33Z</time>
      </trkpt>
      <trkpt lat="42.71401" lon="0.65007">
        <ele>1505</ele>
        <time>2021-08-20T13:38:18Z</time>
      </trkpt>
      <trkpt lat="42.71396" lon="0.64997">
        <ele>1508</ele>
        <time>2021-08-20T13:38:06Z</time>
      </trkpt>
      <trkpt lat="42.71395" lon="0.64988">
        <ele>1512</ele>
        <time>2021-08-20T13:37:57Z</time>
      </trkpt>
      <trkpt lat="42.71384" lon="0.64971">
        <ele>1521</ele>
        <time>2021-08-20T13:37:35Z</time>
      </trkpt>
      <trkpt lat="42.71369" lon="0.64963">
        <ele>1527</ele>
        <time>2021-08-20T13:37:13Z</time>
      </trkpt>
      <trkpt lat="42.71368" lon="0.64952">
        <ele>1531</ele>
        <time>2021-08-20T13:37:02Z</time>
      </trkpt>
      <trkpt lat="42.71357" lon="0.64944">
        <ele>1535</ele>
        <time>2021-08-20T13:36:46Z</time>
      </trkpt>
      <trkpt lat="42.71353" lon="0.64935">
        <ele>1539</ele>
        <time>2021-08-20T13:36:35Z</time>
      </trkpt>
      <trkpt lat="42.71345" lon="0.64928">
        <ele>1542</ele>
        <time>2021-08-20T13:36:23Z</time>
      </trkpt>
      <trkpt lat="42.71335" lon="0.64904">
        <ele>1554</ele>
        <time>2021-08-20T13:35:56Z</time>
      </trkpt>
      <trkpt lat="42.71324" lon="0.64899">
        <ele>1557</ele>
        <time>2021-08-20T13:35:40Z</time>
      </trkpt>
      <trkpt lat="42.71319" lon="0.64899">
        <ele>1557</ele>
        <time>2021-08-20T13:35:34Z</time>
      </trkpt>
      <trkpt lat="42.71301" lon="0.64894">
        <ele>1561</ele>
        <time>2021-08-20T13:35:09Z</time>
      </trkpt>
      <trkpt lat="42.71308" lon="0.64885">
        <ele>1565</ele>
        <time>2021-08-20T13:34:56Z</time>
      </trkpt>
      <trkpt lat="42.71307" lon="0.64882">
        <ele>1566</ele>
        <time>2021-08-20T13:34:53Z</time>
      </trkpt>
      <trkpt lat="42.71296" lon="0.64885">
        <ele>1566</ele>
        <time>2021-08-20T13:34:38Z</time>
      </trkpt>
      <trkpt lat="42.71289" lon="0.64884">
        <ele>1566</ele>
        <time>2021-08-20T13:34:29Z</time>
      </trkpt>
      <trkpt lat="42.71237" lon="0.64865">
        <ele>1581</ele>
        <time>2021-08-20T13:33:17Z</time>
      </trkpt>
      <trkpt lat="42.71218" lon="0.64869">
        <ele>1584</ele>
        <time>2021-08-20T13:32:51Z</time>
      </trkpt>
      <trkpt lat="42.71204" lon="0.64865">
        <ele>1590</ele>
        <time>2021-08-20T13:32:32Z</time>
      </trkpt>
      <trkpt lat="42.7119" lon="0.64849">
        <ele>1599</ele>
        <time>2021-08-20T13:32:08Z</time>
      </trkpt>
      <trkpt lat="42.71181" lon="0.64842">
        <ele>1603</ele>
        <time>2021-08-20T13:31:54Z</time>
      </trkpt>
      <trkpt lat="42.71167" lon="0.64841">
        <ele>1606</ele>
        <time>2021-08-20T13:31:35Z</time>
      </trkpt>
      <trkpt lat="42.7116" lon="0.64847">
        <ele>1606</ele>
        <time>2021-08-20T13:31:24Z</time>
      </trkpt>
      <trkpt lat="42.71151" lon="0.6485">
        <ele>1607</ele>
        <time>2021-08-20T13:31:12Z</time>
      </trkpt>
      <trkpt lat="42.71136" lon="0.64849">
        <ele>1612</ele>
        <time>2021-08-20T13:30:52Z</time>
      </trkpt>
      <trkpt lat="42.7113" lon="0.64843">
        <ele>1614</ele>
        <time>2021-08-20T13:30:42Z</time>
      </trkpt>
      <trkpt lat="42.71132" lon="0.64839">
        <ele>1614</ele>
        <time>2021-08-20T13:30:37Z</time>
      </trkpt>
      <trkpt lat="42.71138" lon="0.64837">
        <ele>1613</ele>
        <time>2021-08-20T13:30:29Z</time>
      </trkpt>
      <trkpt lat="42.71143" lon="0.64829">
        <ele>1614</ele>
        <time>2021-08-20T13:30:18Z</time>
      </trkpt>
      <trkpt lat="42.71142" lon="0.64827">
        <ele>1616</ele>
        <time>2021-08-20T13:30:16Z</time>
      </trkpt>
      <trkpt lat="42.71129" lon="0.64826">
        <ele>1618</ele>
        <time>2021-08-20T13:29:59Z</time>
      </trkpt>
      <trkpt lat="42.71119" lon="0.64818">
        <ele>1623</ele>
        <time>2021-08-20T13:29:43Z</time>
      </trkpt>
      <trkpt lat="42.71116" lon="0.64814">
        <ele>1626</ele>
        <time>2021-08-20T13:29:38Z</time>
      </trkpt>
      <trkpt lat="42.71124" lon="0.64811">
        <ele>1626</ele>
        <time>2021-08-20T13:29:26Z</time>
      </trkpt>
      <trkpt lat="42.71135" lon="0.64799">
        <ele>1630</ele>
        <time>2021-08-20T13:29:08Z</time>
      </trkpt>
      <trkpt lat="42.71135" lon="0.64797">
        <ele>1631</ele>
        <time>2021-08-20T13:29:06Z</time>
      </trkpt>
      <trkpt lat="42.71127" lon="0.64798">
        <ele>1632</ele>
        <time>2021-08-20T13:28:55Z</time>
      </trkpt>
      <trkpt lat="42.71116" lon="0.64794">
        <ele>1635</ele>
        <time>2021-08-20T13:28:40Z</time>
      </trkpt>
      <trkpt lat="42.71115" lon="0.64792">
        <ele>1636</ele>
        <time>2021-08-20T13:28:37Z</time>
      </trkpt>
      <trkpt lat="42.71121" lon="0.64789">
        <ele>1636</ele>
        <time>2021-08-20T13:28:29Z</time>
      </trkpt>
      <trkpt lat="42.71124" lon="0.64782">
        <ele>1639</ele>
        <time>2021-08-20T13:28:21Z</time>
      </trkpt>
      <trkpt lat="42.71122" lon="0.6478">
        <ele>1640</ele>
        <time>2021-08-20T13:28:18Z</time>
      </trkpt>
      <trkpt lat="42.71114" lon="0.64779">
        <ele>1641</ele>
        <time>2021-08-20T13:28:07Z</time>
      </trkpt>
      <trkpt lat="42.71104" lon="0.64774">
        <ele>1644</ele>
        <time>2021-08-20T13:27:53Z</time>
      </trkpt>
      <trkpt lat="42.71103" lon="0.6477">
        <ele>1646</ele>
        <time>2021-08-20T13:27:49Z</time>
      </trkpt>
      <trkpt lat="42.71105" lon="0.64767">
        <ele>1647</ele>
        <time>2021-08-20T13:27:45Z</time>
      </trkpt>
      <trkpt lat="42.7111" lon="0.64768">
        <ele>1646</ele>
        <time>2021-08-20T13:27:38Z</time>
      </trkpt>
      <trkpt lat="42.71114" lon="0.64765">
        <ele>1647</ele>
        <time>2021-08-20T13:27:32Z</time>
      </trkpt>
      <trkpt lat="42.71115" lon="0.64762">
        <ele>1649</ele>
        <time>2021-08-20T13:27:29Z</time>
      </trkpt>
      <trkpt lat="42.71106" lon="0.64762">
        <ele>1649</ele>
        <time>2021-08-20T13:27:16Z</time>
      </trkpt>
      <trkpt lat="42.71079" lon="0.64738">
        <ele>1660</ele>
        <time>2021-08-20T13:26:33Z</time>
      </trkpt>
      <trkpt lat="42.71058" lon="0.64735">
        <ele>1665</ele>
        <time>2021-08-20T13:26:05Z</time>
      </trkpt>
      <trkpt lat="42.71047" lon="0.64726">
        <ele>1671</ele>
        <time>2021-08-20T13:25:48Z</time>
      </trkpt>
      <trkpt lat="42.71037" lon="0.64721">
        <ele>1674</ele>
        <time>2021-08-20T13:25:34Z</time>
      </trkpt>
      <trkpt lat="42.71038" lon="0.64718">
        <ele>1675</ele>
        <time>2021-08-20T13:25:31Z</time>
      </trkpt>
      <trkpt lat="42.7106" lon="0.6472">
        <ele>1670</ele>
        <time>2021-08-20T13:25:01Z</time>
      </trkpt>
      <trkpt lat="42.71063" lon="0.64716">
        <ele>1671</ele>
        <time>2021-08-20T13:24:56Z</time>
      </trkpt>
      <trkpt lat="42.71062" lon="0.64714">
        <ele>1672</ele>
        <time>2021-08-20T13:24:53Z</time>
      </trkpt>
      <trkpt lat="42.71045" lon="0.64696">
        <ele>1681</ele>
        <time>2021-08-20T13:24:25Z</time>
      </trkpt>
      <trkpt lat="42.71026" lon="0.6469">
        <ele>1685</ele>
        <time>2021-08-20T13:23:59Z</time>
      </trkpt>
      <trkpt lat="42.71023" lon="0.64689">
        <ele>1686</ele>
        <time>2021-08-20T13:23:54Z</time>
      </trkpt>
      <trkpt lat="42.71023" lon="0.64685">
        <ele>1687</ele>
        <time>2021-08-20T13:23:50Z</time>
      </trkpt>
      <trkpt lat="42.71048" lon="0.64679">
        <ele>1686</ele>
        <time>2021-08-20T13:23:17Z</time>
      </trkpt>
      <trkpt lat="42.71052" lon="0.64677">
        <ele>1686</ele>
        <time>2021-08-20T13:23:11Z</time>
      </trkpt>
      <trkpt lat="42.71052" lon="0.64674">
        <ele>1687</ele>
        <time>2021-08-20T13:23:08Z</time>
      </trkpt>
      <trkpt lat="42.71033" lon="0.64666">
        <ele>1692</ele>
        <time>2021-08-20T13:22:41Z</time>
      </trkpt>
      <trkpt lat="42.71024" lon="0.64659">
        <ele>1699</ele>
        <time>2021-08-20T13:22:28Z</time>
      </trkpt>
      <trkpt lat="42.71014" lon="0.64658">
        <ele>1700</ele>
        <time>2021-08-20T13:22:14Z</time>
      </trkpt>
      <trkpt lat="42.71009" lon="0.64652">
        <ele>1705</ele>
        <time>2021-08-20T13:22:05Z</time>
      </trkpt>
      <trkpt lat="42.7101" lon="0.64649">
        <ele>1707</ele>
        <time>2021-08-20T13:22:02Z</time>
      </trkpt>
      <trkpt lat="42.71038" lon="0.64642">
        <ele>1712</ele>
        <time>2021-08-20T13:21:24Z</time>
      </trkpt>
      <trkpt lat="42.71038" lon="0.64638">
        <ele>1716</ele>
        <time>2021-08-20T13:21:20Z</time>
      </trkpt>
      <trkpt lat="42.70996" lon="0.64622">
        <ele>1727</ele>
        <time>2021-08-20T13:20:22Z</time>
      </trkpt>
      <trkpt lat="42.70992" lon="0.64622">
        <ele>1728</ele>
        <time>2021-08-20T13:20:17Z</time>
      </trkpt>
      <trkpt lat="42.70987" lon="0.64632">
        <ele>1723</ele>
        <time>2021-08-20T13:20:05Z</time>
      </trkpt>
      <trkpt lat="42.70977" lon="0.64634">
        <ele>1724</ele>
        <time>2021-08-20T13:19:51Z</time>
      </trkpt>
      <trkpt lat="42.70929" lon="0.6462">
        <ele>1742</ele>
        <time>2021-08-20T13:18:46Z</time>
      </trkpt>
      <trkpt lat="42.70927" lon="0.64617">
        <ele>1744</ele>
        <time>2021-08-20T13:18:42Z</time>
      </trkpt>
      <trkpt lat="42.70928" lon="0.64613">
        <ele>1745</ele>
        <time>2021-08-20T13:18:38Z</time>
      </trkpt>
      <trkpt lat="42.70955" lon="0.64604">
        <ele>1745</ele>
        <time>2021-08-20T13:18:01Z</time>
      </trkpt>
      <trkpt lat="42.70959" lon="0.64596">
        <ele>1748</ele>
        <time>2021-08-20T13:17:51Z</time>
      </trkpt>
      <trkpt lat="42.70954" lon="0.64593">
        <ele>1750</ele>
        <time>2021-08-20T13:17:44Z</time>
      </trkpt>
      <trkpt lat="42.70942" lon="0.64593">
        <ele>1751</ele>
        <time>2021-08-20T13:17:28Z</time>
      </trkpt>
      <trkpt lat="42.70931" lon="0.64586">
        <ele>1755</ele>
        <time>2021-08-20T13:17:12Z</time>
      </trkpt>
      <trkpt lat="42.70926" lon="0.64581">
        <ele>1757</ele>
        <time>2021-08-20T13:17:03Z</time>
      </trkpt>
      <trkpt lat="42.70882" lon="0.64579">
        <ele>1767</ele>
        <time>2021-08-20T13:16:05Z</time>
      </trkpt>
      <trkpt lat="42.70878" lon="0.64581">
        <ele>1767</ele>
        <time>2021-08-20T13:15:59Z</time>
      </trkpt>
      <trkpt lat="42.7087" lon="0.64588">
        <ele>1767</ele>
        <time>2021-08-20T13:15:46Z</time>
      </trkpt>
      <trkpt lat="42.70862" lon="0.64611">
        <ele>1765</ele>
        <time>2021-08-20T13:15:21Z</time>
      </trkpt>
      <trkpt lat="42.70856" lon="0.64616">
        <ele>1766</ele>
        <time>2021-08-20T13:15:12Z</time>
      </trkpt>
      <trkpt lat="42.70843" lon="0.64621">
        <ele>1769</ele>
        <time>2021-08-20T13:14:54Z</time>
      </trkpt>
      <trkpt lat="42.70806" lon="0.6461">
        <ele>1783</ele>
        <time>2021-08-20T13:14:03Z</time>
      </trkpt>
      <trkpt lat="42.7079" lon="0.64613">
        <ele>1788</ele>
        <time>2021-08-20T13:13:42Z</time>
      </trkpt>
      <trkpt lat="42.70752" lon="0.64631">
        <ele>1798</ele>
        <time>2021-08-20T13:12:48Z</time>
      </trkpt>
      <trkpt lat="42.70749" lon="0.64638">
        <ele>1798</ele>
        <time>2021-08-20T13:12:40Z</time>
      </trkpt>
      <trkpt lat="42.70755" lon="0.64654">
        <ele>1794</ele>
        <time>2021-08-20T13:12:22Z</time>
      </trkpt>
      <trkpt lat="42.7076" lon="0.64688">
        <ele>1793</ele>
        <time>2021-08-20T13:11:48Z</time>
      </trkpt>
      <trkpt lat="42.7076" lon="0.64705">
        <ele>1795</ele>
        <time>2021-08-20T13:11:32Z</time>
      </trkpt>
      <trkpt lat="42.7077" lon="0.64754">
        <ele>1796</ele>
        <time>2021-08-20T13:10:42Z</time>
      </trkpt>
      <trkpt lat="42.70768" lon="0.64754">
        <ele>1797</ele>
        <time>2021-08-20T13:10:39Z</time>
      </trkpt>
      <trkpt lat="42.70756" lon="0.64744">
        <ele>1802</ele>
        <time>2021-08-20T13:10:20Z</time>
      </trkpt>
      <trkpt lat="42.70745" lon="0.64727">
        <ele>1805</ele>
        <time>2021-08-20T13:09:58Z</time>
      </trkpt>
      <trkpt lat="42.70742" lon="0.64726">
        <ele>1807</ele>
        <time>2021-08-20T13:09:54Z</time>
      </trkpt>
      <trkpt lat="42.70742" lon="0.64761">
        <ele>1815</ele>
        <time>2021-08-20T13:09:20Z</time>
      </trkpt>
      <trkpt lat="42.70746" lon="0.64777">
        <ele>1818</ele>
        <time>2021-08-20T13:09:03Z</time>
      </trkpt>
      <trkpt lat="42.70746" lon="0.6478">
        <ele>1819</ele>
        <time>2021-08-20T13:09:00Z</time>
      </trkpt>
      <trkpt lat="42.7074" lon="0.64776">
        <ele>1821</ele>
        <time>2021-08-20T13:08:51Z</time>
      </trkpt>
      <trkpt lat="42.70724" lon="0.64768">
        <ele>1827</ele>
        <time>2021-08-20T13:08:29Z</time>
      </trkpt>
      <trkpt lat="42.70718" lon="0.64752">
        <ele>1825</ele>
        <time>2021-08-20T13:08:11Z</time>
      </trkpt>
      <trkpt lat="42.70717" lon="0.64752">
        <ele>1826</ele>
        <time>2021-08-20T13:08:10Z</time>
      </trkpt>
      <trkpt lat="42.70714" lon="0.64764">
        <ele>1831</ele>
        <time>2021-08-20T13:07:57Z</time>
      </trkpt>
      <trkpt lat="42.70712" lon="0.64785">
        <ele>1840</ele>
        <time>2021-08-20T13:07:37Z</time>
      </trkpt>
      <trkpt lat="42.70716" lon="0.64794">
        <ele>1840</ele>
        <time>2021-08-20T13:07:26Z</time>
      </trkpt>
      <trkpt lat="42.70719" lon="0.64797">
        <ele>1840</ele>
        <time>2021-08-20T13:07:21Z</time>
      </trkpt>
      <trkpt lat="42.7072" lon="0.64801">
        <ele>1841</ele>
        <time>2021-08-20T13:07:17Z</time>
      </trkpt>
      <trkpt lat="42.7071" lon="0.64799">
        <ele>1845</ele>
        <time>2021-08-20T13:07:04Z</time>
      </trkpt>
      <trkpt lat="42.70704" lon="0.64795">
        <ele>1847</ele>
        <time>2021-08-20T13:06:55Z</time>
      </trkpt>
      <trkpt lat="42.70701" lon="0.64791">
        <ele>1847</ele>
        <time>2021-08-20T13:06:49Z</time>
      </trkpt>
      <trkpt lat="42.70693" lon="0.6476">
        <ele>1842</ele>
        <time>2021-08-20T13:06:17Z</time>
      </trkpt>
      <trkpt lat="42.70689" lon="0.6476">
        <ele>1844</ele>
        <time>2021-08-20T13:06:12Z</time>
      </trkpt>
      <trkpt lat="42.70691" lon="0.64772">
        <ele>1847</ele>
        <time>2021-08-20T13:05:59Z</time>
      </trkpt>
      <trkpt lat="42.70681" lon="0.64809">
        <ele>1864</ele>
        <time>2021-08-20T13:05:21Z</time>
      </trkpt>
      <trkpt lat="42.70684" lon="0.64818">
        <ele>1865</ele>
        <time>2021-08-20T13:05:11Z</time>
      </trkpt>
      <trkpt lat="42.70692" lon="0.64827">
        <ele>1864</ele>
        <time>2021-08-20T13:04:57Z</time>
      </trkpt>
      <trkpt lat="42.70691" lon="0.6483">
        <ele>1865</ele>
        <time>2021-08-20T13:04:54Z</time>
      </trkpt>
      <trkpt lat="42.70683" lon="0.64826">
        <ele>1868</ele>
        <time>2021-08-20T13:04:43Z</time>
      </trkpt>
      <trkpt lat="42.7067" lon="0.64828">
        <ele>1875</ele>
        <time>2021-08-20T13:04:25Z</time>
      </trkpt>
      <trkpt lat="42.70665" lon="0.64827">
        <ele>1877</ele>
        <time>2021-08-20T13:04:18Z</time>
      </trkpt>
      <trkpt lat="42.70662" lon="0.64819">
        <ele>1877</ele>
        <time>2021-08-20T13:04:10Z</time>
      </trkpt>
      <trkpt lat="42.7066" lon="0.64799">
        <ele>1873</ele>
        <time>2021-08-20T13:03:50Z</time>
      </trkpt>
      <trkpt lat="42.70658" lon="0.64792">
        <ele>1872</ele>
        <time>2021-08-20T13:03:42Z</time>
      </trkpt>
      <trkpt lat="42.70652" lon="0.64782">
        <ele>1874</ele>
        <time>2021-08-20T13:03:30Z</time>
      </trkpt>
      <trkpt lat="42.70647" lon="0.6478">
        <ele>1877</ele>
        <time>2021-08-20T13:03:23Z</time>
      </trkpt>
      <trkpt lat="42.70642" lon="0.64783">
        <ele>1881</ele>
        <time>2021-08-20T13:03:16Z</time>
      </trkpt>
      <trkpt lat="42.70642" lon="0.64792">
        <ele>1884</ele>
        <time>2021-08-20T13:03:07Z</time>
      </trkpt>
      <trkpt lat="42.70639" lon="0.64793">
        <ele>1886</ele>
        <time>2021-08-20T13:03:03Z</time>
      </trkpt>
      <trkpt lat="42.70634" lon="0.64791">
        <ele>1889</ele>
        <time>2021-08-20T13:02:56Z</time>
      </trkpt>
      <trkpt lat="42.70626" lon="0.64781">
        <ele>1892</ele>
        <time>2021-08-20T13:02:41Z</time>
      </trkpt>
      <trkpt lat="42.7062" lon="0.64757">
        <ele>1888</ele>
        <time>2021-08-20T13:02:16Z</time>
      </trkpt>
      <trkpt lat="42.70614" lon="0.64745">
        <ele>1889</ele>
        <time>2021-08-20T13:02:02Z</time>
      </trkpt>
      <trkpt lat="42.70613" lon="0.64737">
        <ele>1889</ele>
        <time>2021-08-20T13:01:54Z</time>
      </trkpt>
      <trkpt lat="42.70616" lon="0.64722">
        <ele>1884</ele>
        <time>2021-08-20T13:01:39Z</time>
      </trkpt>
      <trkpt lat="42.70615" lon="0.64715">
        <ele>1884</ele>
        <time>2021-08-20T13:01:32Z</time>
      </trkpt>
      <trkpt lat="42.70613" lon="0.64713">
        <ele>1885</ele>
        <time>2021-08-20T13:01:29Z</time>
      </trkpt>
      <trkpt lat="42.7061" lon="0.64714">
        <ele>1888</ele>
        <time>2021-08-20T13:01:24Z</time>
      </trkpt>
      <trkpt lat="42.70607" lon="0.64723">
        <ele>1891</ele>
        <time>2021-08-20T13:01:15Z</time>
      </trkpt>
      <trkpt lat="42.70603" lon="0.64748">
        <ele>1897</ele>
        <time>2021-08-20T13:00:50Z</time>
      </trkpt>
      <trkpt lat="42.70601" lon="0.64748">
        <ele>1899</ele>
        <time>2021-08-20T13:00:47Z</time>
      </trkpt>
      <trkpt lat="42.70598" lon="0.64741">
        <ele>1900</ele>
        <time>2021-08-20T13:00:39Z</time>
      </trkpt>
      <trkpt lat="42.706" lon="0.64723">
        <ele>1896</ele>
        <time>2021-08-20T13:00:21Z</time>
      </trkpt>
      <trkpt lat="42.70599" lon="0.64721">
        <ele>1897</ele>
        <time>2021-08-20T13:00:19Z</time>
      </trkpt>
      <trkpt lat="42.7059" lon="0.64743">
        <ele>1906</ele>
        <time>2021-08-20T12:59:54Z</time>
      </trkpt>
      <trkpt lat="42.70587" lon="0.64756">
        <ele>1911</ele>
        <time>2021-08-20T12:59:41Z</time>
      </trkpt>
      <trkpt lat="42.70593" lon="0.64772">
        <ele>1912</ele>
        <time>2021-08-20T12:59:23Z</time>
      </trkpt>
      <trkpt lat="42.70594" lon="0.64777">
        <ele>1913</ele>
        <time>2021-08-20T12:59:18Z</time>
      </trkpt>
      <trkpt lat="42.70585" lon="0.6477">
        <ele>1917</ele>
        <time>2021-08-20T12:59:04Z</time>
      </trkpt>
      <trkpt lat="42.70583" lon="0.64769">
        <ele>1918</ele>
        <time>2021-08-20T12:59:01Z</time>
      </trkpt>
      <trkpt lat="42.70582" lon="0.64772">
        <ele>1920</ele>
        <time>2021-08-20T12:58:58Z</time>
      </trkpt>
      <trkpt lat="42.70585" lon="0.64775">
        <ele>1919</ele>
        <time>2021-08-20T12:58:53Z</time>
      </trkpt>
      <trkpt lat="42.70589" lon="0.64784">
        <ele>1919</ele>
        <time>2021-08-20T12:58:43Z</time>
      </trkpt>
      <trkpt lat="42.70588" lon="0.64787">
        <ele>1921</ele>
        <time>2021-08-20T12:58:40Z</time>
      </trkpt>
      <trkpt lat="42.70587" lon="0.64787">
        <ele>1922</ele>
        <time>2021-08-20T12:58:38Z</time>
      </trkpt>
      <trkpt lat="42.70583" lon="0.64784">
        <ele>1923</ele>
        <time>2021-08-20T12:58:32Z</time>
      </trkpt>
      <trkpt lat="42.70574" lon="0.64771">
        <ele>1925</ele>
        <time>2021-08-20T12:58:15Z</time>
      </trkpt>
      <trkpt lat="42.70573" lon="0.64772">
        <ele>1926</ele>
        <time>2021-08-20T12:58:13Z</time>
      </trkpt>
      <trkpt lat="42.70576" lon="0.64795">
        <ele>1932</ele>
        <time>2021-08-20T12:57:50Z</time>
      </trkpt>
      <trkpt lat="42.70575" lon="0.64796">
        <ele>1933</ele>
        <time>2021-08-20T12:57:48Z</time>
      </trkpt>
      <trkpt lat="42.70566" lon="0.64783">
        <ele>1934</ele>
        <time>2021-08-20T12:57:31Z</time>
      </trkpt>
      <trkpt lat="42.70554" lon="0.64773">
        <ele>1939</ele>
        <time>2021-08-20T12:57:12Z</time>
      </trkpt>
      <trkpt lat="42.70552" lon="0.64736">
        <ele>1933</ele>
        <time>2021-08-20T12:56:36Z</time>
      </trkpt>
      <trkpt lat="42.70549" lon="0.64721">
        <ele>1934</ele>
        <time>2021-08-20T12:56:21Z</time>
      </trkpt>
      <trkpt lat="42.70548" lon="0.6472">
        <ele>1935</ele>
        <time>2021-08-20T12:56:19Z</time>
      </trkpt>
      <trkpt lat="42.70546" lon="0.64723">
        <ele>1936</ele>
        <time>2021-08-20T12:56:15Z</time>
      </trkpt>
      <trkpt lat="42.70542" lon="0.64738">
        <ele>1940</ele>
        <time>2021-08-20T12:55:59Z</time>
      </trkpt>
      <trkpt lat="42.70527" lon="0.64771">
        <ele>1957</ele>
        <time>2021-08-20T12:55:21Z</time>
      </trkpt>
      <trkpt lat="42.70526" lon="0.64782">
        <ele>1961</ele>
        <time>2021-08-20T12:55:10Z</time>
      </trkpt>
      <trkpt lat="42.7054" lon="0.64813">
        <ele>1960</ele>
        <time>2021-08-20T12:54:35Z</time>
      </trkpt>
      <trkpt lat="42.70541" lon="0.6483">
        <ele>1964</ele>
        <time>2021-08-20T12:54:18Z</time>
      </trkpt>
      <trkpt lat="42.70539" lon="0.6483">
        <ele>1966</ele>
        <time>2021-08-20T12:54:15Z</time>
      </trkpt>
      <trkpt lat="42.70522" lon="0.64807">
        <ele>1970</ele>
        <time>2021-08-20T12:53:43Z</time>
      </trkpt>
      <trkpt lat="42.70504" lon="0.64794">
        <ele>1978</ele>
        <time>2021-08-20T12:53:16Z</time>
      </trkpt>
      <trkpt lat="42.70505" lon="0.64763">
        <ele>1970</ele>
        <time>2021-08-20T12:52:46Z</time>
      </trkpt>
      <trkpt lat="42.70497" lon="0.64728">
        <ele>1973</ele>
        <time>2021-08-20T12:52:10Z</time>
      </trkpt>
      <trkpt lat="42.70492" lon="0.64727">
        <ele>1976</ele>
        <time>2021-08-20T12:52:03Z</time>
      </trkpt>
      <trkpt lat="42.70491" lon="0.64736">
        <ele>1977</ele>
        <time>2021-08-20T12:51:54Z</time>
      </trkpt>
      <trkpt lat="42.70492" lon="0.64745">
        <ele>1976</ele>
        <time>2021-08-20T12:51:45Z</time>
      </trkpt>
      <trkpt lat="42.7049" lon="0.64764">
        <ele>1981</ele>
        <time>2021-08-20T12:51:26Z</time>
      </trkpt>
      <trkpt lat="42.70485" lon="0.64774">
        <ele>1986</ele>
        <time>2021-08-20T12:51:14Z</time>
      </trkpt>
      <trkpt lat="42.70482" lon="0.64745">
        <ele>1982</ele>
        <time>2021-08-20T12:50:46Z</time>
      </trkpt>
      <trkpt lat="42.7047" lon="0.64722">
        <ele>1990</ele>
        <time>2021-08-20T12:50:18Z</time>
      </trkpt>
      <trkpt lat="42.7047" lon="0.64758">
        <ele>1992</ele>
        <time>2021-08-20T12:49:43Z</time>
      </trkpt>
      <trkpt lat="42.70466" lon="0.6477">
        <ele>1998</ele>
        <time>2021-08-20T12:49:30Z</time>
      </trkpt>
      <trkpt lat="42.7046" lon="0.6478">
        <ele>2005</ele>
        <time>2021-08-20T12:49:17Z</time>
      </trkpt>
      <trkpt lat="42.70463" lon="0.64766">
        <ele>1999</ele>
        <time>2021-08-20T12:49:03Z</time>
      </trkpt>
      <trkpt lat="42.7045" lon="0.64733">
        <ele>2003</ele>
        <time>2021-08-20T12:48:26Z</time>
      </trkpt>
      <trkpt lat="42.70449" lon="0.64758">
        <ele>2006</ele>
        <time>2021-08-20T12:48:02Z</time>
      </trkpt>
      <trkpt lat="42.70444" lon="0.64784">
        <ele>2017</ele>
        <time>2021-08-20T12:47:35Z</time>
      </trkpt>
      <trkpt lat="42.70438" lon="0.64754">
        <ele>2012</ele>
        <time>2021-08-20T12:47:05Z</time>
      </trkpt>
      <trkpt lat="42.70428" lon="0.64741">
        <ele>2017</ele>
        <time>2021-08-20T12:46:46Z</time>
      </trkpt>
      <trkpt lat="42.70428" lon="0.64746">
        <ele>2017</ele>
        <time>2021-08-20T12:46:41Z</time>
      </trkpt>
      <trkpt lat="42.70433" lon="0.64757">
        <ele>2016</ele>
        <time>2021-08-20T12:46:29Z</time>
      </trkpt>
      <trkpt lat="42.70428" lon="0.64783">
        <ele>2028</ele>
        <time>2021-08-20T12:46:02Z</time>
      </trkpt>
      <trkpt lat="42.70423" lon="0.64764">
        <ele>2025</ele>
        <time>2021-08-20T12:45:43Z</time>
      </trkpt>
      <trkpt lat="42.70416" lon="0.64754">
        <ele>2026</ele>
        <time>2021-08-20T12:45:29Z</time>
      </trkpt>
      <trkpt lat="42.70419" lon="0.64772">
        <ele>2030</ele>
        <time>2021-08-20T12:45:11Z</time>
      </trkpt>
      <trkpt lat="42.70416" lon="0.64783">
        <ele>2036</ele>
        <time>2021-08-20T12:44:59Z</time>
      </trkpt>
      <trkpt lat="42.70406" lon="0.64765">
        <ele>2038</ele>
        <time>2021-08-20T12:44:37Z</time>
      </trkpt>
      <trkpt lat="42.70403" lon="0.64788">
        <ele>2048</ele>
        <time>2021-08-20T12:44:14Z</time>
      </trkpt>
      <trkpt lat="42.70379" lon="0.64744">
        <ele>2053</ele>
        <time>2021-08-20T12:43:21Z</time>
      </trkpt>
      <trkpt lat="42.70378" lon="0.64721">
        <ele>2054</ele>
        <time>2021-08-20T12:42:58Z</time>
      </trkpt>
      <trkpt lat="42.70379" lon="0.64702">
        <ele>2054</ele>
        <time>2021-08-20T12:42:39Z</time>
      </trkpt>
      <trkpt lat="42.70395" lon="0.64678">
        <ele>2043</ele>
        <time>2021-08-20T12:42:08Z</time>
      </trkpt>
      <trkpt lat="42.70396" lon="0.64668">
        <ele>2043</ele>
        <time>2021-08-20T12:41:58Z</time>
      </trkpt>
      <trkpt lat="42.70388" lon="0.6462">
        <ele>2050</ele>
        <time>2021-08-20T12:41:09Z</time>
      </trkpt>
      <trkpt lat="42.70381" lon="0.64599">
        <ele>2055</ele>
        <time>2021-08-20T12:40:47Z</time>
      </trkpt>
      <trkpt lat="42.70381" lon="0.64564">
        <ele>2057</ele>
        <time>2021-08-20T12:40:13Z</time>
      </trkpt>
      <trkpt lat="42.70383" lon="0.64543">
        <ele>2059</ele>
        <time>2021-08-20T12:39:52Z</time>
      </trkpt>
      <trkpt lat="42.70381" lon="0.64526">
        <ele>2062</ele>
        <time>2021-08-20T12:39:35Z</time>
      </trkpt>
      <trkpt lat="42.70374" lon="0.64541">
        <ele>2064</ele>
        <time>2021-08-20T12:39:17Z</time>
      </trkpt>
      <trkpt lat="42.70372" lon="0.64541">
        <ele>2066</ele>
        <time>2021-08-20T12:39:15Z</time>
      </trkpt>
      <trkpt lat="42.70374" lon="0.64524">
        <ele>2066</ele>
        <time>2021-08-20T12:38:58Z</time>
      </trkpt>
      <trkpt lat="42.70371" lon="0.64523">
        <ele>2068</ele>
        <time>2021-08-20T12:38:54Z</time>
      </trkpt>
      <trkpt lat="42.70358" lon="0.64538">
        <ele>2074</ele>
        <time>2021-08-20T12:38:31Z</time>
      </trkpt>
      <trkpt lat="42.70363" lon="0.64514">
        <ele>2074</ele>
        <time>2021-08-20T12:38:07Z</time>
      </trkpt>
      <trkpt lat="42.7036" lon="0.6451">
        <ele>2076</ele>
        <time>2021-08-20T12:38:01Z</time>
      </trkpt>
      <trkpt lat="42.70352" lon="0.64524">
        <ele>2079</ele>
        <time>2021-08-20T12:37:44Z</time>
      </trkpt>
      <trkpt lat="42.70344" lon="0.64531">
        <ele>2083</ele>
        <time>2021-08-20T12:37:31Z</time>
      </trkpt>
      <trkpt lat="42.70338" lon="0.6455">
        <ele>2086</ele>
        <time>2021-08-20T12:37:11Z</time>
      </trkpt>
      <trkpt lat="42.70336" lon="0.64568">
        <ele>2085</ele>
        <time>2021-08-20T12:36:53Z</time>
      </trkpt>
      <trkpt lat="42.70333" lon="0.64575">
        <ele>2087</ele>
        <time>2021-08-20T12:36:45Z</time>
      </trkpt>
      <trkpt lat="42.70326" lon="0.6456">
        <ele>2091</ele>
        <time>2021-08-20T12:36:27Z</time>
      </trkpt>
      <trkpt lat="42.70329" lon="0.64512">
        <ele>2094</ele>
        <time>2021-08-20T12:35:40Z</time>
      </trkpt>
      <trkpt lat="42.70327" lon="0.64507">
        <ele>2095</ele>
        <time>2021-08-20T12:35:35Z</time>
      </trkpt>
      <trkpt lat="42.70312" lon="0.64541">
        <ele>2101</ele>
        <time>2021-08-20T12:34:56Z</time>
      </trkpt>
      <trkpt lat="42.70309" lon="0.64541">
        <ele>2102</ele>
        <time>2021-08-20T12:34:52Z</time>
      </trkpt>
      <trkpt lat="42.70314" lon="0.64506">
        <ele>2103</ele>
        <time>2021-08-20T12:34:17Z</time>
      </trkpt>
      <trkpt lat="42.70301" lon="0.64532">
        <ele>2108</ele>
        <time>2021-08-20T12:33:46Z</time>
      </trkpt>
      <trkpt lat="42.70297" lon="0.64536">
        <ele>2110</ele>
        <time>2021-08-20T12:33:39Z</time>
      </trkpt>
      <trkpt lat="42.70302" lon="0.64505">
        <ele>2111</ele>
        <time>2021-08-20T12:33:08Z</time>
      </trkpt>
      <trkpt lat="42.70299" lon="0.645">
        <ele>2113</ele>
        <time>2021-08-20T12:33:02Z</time>
      </trkpt>
      <trkpt lat="42.70289" lon="0.64525">
        <ele>2116</ele>
        <time>2021-08-20T12:32:34Z</time>
      </trkpt>
      <trkpt lat="42.70291" lon="0.64498">
        <ele>2118</ele>
        <time>2021-08-20T12:32:07Z</time>
      </trkpt>
      <trkpt lat="42.70281" lon="0.64529">
        <ele>2120</ele>
        <time>2021-08-20T12:31:34Z</time>
      </trkpt>
      <trkpt lat="42.70267" lon="0.64556">
        <ele>2123</ele>
        <time>2021-08-20T12:31:02Z</time>
      </trkpt>
      <trkpt lat="42.7027" lon="0.6453">
        <ele>2126</ele>
        <time>2021-08-20T12:30:36Z</time>
      </trkpt>
      <trkpt lat="42.70261" lon="0.64543">
        <ele>2128</ele>
        <time>2021-08-20T12:30:18Z</time>
      </trkpt>
      <trkpt lat="42.70251" lon="0.64549">
        <ele>2132</ele>
        <time>2021-08-20T12:30:04Z</time>
      </trkpt>
      <trkpt lat="42.70242" lon="0.64539">
        <ele>2136</ele>
        <time>2021-08-20T12:29:48Z</time>
      </trkpt>
      <trkpt lat="42.70236" lon="0.64522">
        <ele>2140</ele>
        <time>2021-08-20T12:29:30Z</time>
      </trkpt>
      <trkpt lat="42.70219" lon="0.64506">
        <ele>2144</ele>
        <time>2021-08-20T12:29:02Z</time>
      </trkpt>
      <trkpt lat="42.70198" lon="0.64495">
        <ele>2148</ele>
        <time>2021-08-20T12:28:32Z</time>
      </trkpt>
      <trkpt lat="42.70189" lon="0.64476">
        <ele>2153</ele>
        <time>2021-08-20T12:28:10Z</time>
      </trkpt>
      <trkpt lat="42.70178" lon="0.64458">
        <ele>2159</ele>
        <time>2021-08-20T12:27:47Z</time>
      </trkpt>
      <trkpt lat="42.70163" lon="0.6444">
        <ele>2165</ele>
        <time>2021-08-20T12:27:20Z</time>
      </trkpt>
      <trkpt lat="42.70144" lon="0.64429">
        <ele>2172</ele>
        <time>2021-08-20T12:26:53Z</time>
      </trkpt>
      <trkpt lat="42.70086" lon="0.64448">
        <ele>2181</ele>
        <time>2021-08-20T12:25:33Z</time>
      </trkpt>
      <trkpt lat="42.70066" lon="0.64457">
        <ele>2182</ele>
        <time>2021-08-20T12:25:05Z</time>
      </trkpt>
      <trkpt lat="42.70056" lon="0.64454">
        <ele>2184</ele>
        <time>2021-08-20T12:24:51Z</time>
      </trkpt>
      <trkpt lat="42.70051" lon="0.6445">
        <ele>2186</ele>
        <time>2021-08-20T12:24:44Z</time>
      </trkpt>
      <trkpt lat="42.70047" lon="0.64443">
        <ele>2188</ele>
        <time>2021-08-20T12:24:35Z</time>
      </trkpt>
      <trkpt lat="42.70055" lon="0.64442">
        <ele>2187</ele>
        <time>2021-08-20T12:24:24Z</time>
      </trkpt>
      <trkpt lat="42.70065" lon="0.64434">
        <ele>2188</ele>
        <time>2021-08-20T12:24:09Z</time>
      </trkpt>
      <trkpt lat="42.70057" lon="0.64431">
        <ele>2190</ele>
        <time>2021-08-20T12:23:58Z</time>
      </trkpt>
      <trkpt lat="42.70052" lon="0.64424">
        <ele>2192</ele>
        <time>2021-08-20T12:23:48Z</time>
      </trkpt>
      <trkpt lat="42.70048" lon="0.64405">
        <ele>2198</ele>
        <time>2021-08-20T12:23:29Z</time>
      </trkpt>
      <trkpt lat="42.70062" lon="0.64412">
        <ele>2194</ele>
        <time>2021-08-20T12:23:09Z</time>
      </trkpt>
      <trkpt lat="42.70076" lon="0.64406">
        <ele>2196</ele>
        <time>2021-08-20T12:22:49Z</time>
      </trkpt>
      <trkpt lat="42.7008" lon="0.644">
        <ele>2198</ele>
        <time>2021-08-20T12:22:41Z</time>
      </trkpt>
      <trkpt lat="42.70078" lon="0.64398">
        <ele>2198</ele>
        <time>2021-08-20T12:22:38Z</time>
      </trkpt>
      <trkpt lat="42.70069" lon="0.64398">
        <ele>2199</ele>
        <time>2021-08-20T12:22:26Z</time>
      </trkpt>
      <trkpt lat="42.70062" lon="0.6439">
        <ele>2202</ele>
        <time>2021-08-20T12:22:14Z</time>
      </trkpt>
      <trkpt lat="42.70052" lon="0.64371">
        <ele>2209</ele>
        <time>2021-08-20T12:21:51Z</time>
      </trkpt>
      <trkpt lat="42.70059" lon="0.64375">
        <ele>2208</ele>
        <time>2021-08-20T12:21:41Z</time>
      </trkpt>
      <trkpt lat="42.70075" lon="0.64373">
        <ele>2208</ele>
        <time>2021-08-20T12:21:19Z</time>
      </trkpt>
      <trkpt lat="42.70079" lon="0.6437">
        <ele>2209</ele>
        <time>2021-08-20T12:21:13Z</time>
      </trkpt>
      <trkpt lat="42.70079" lon="0.64368">
        <ele>2210</ele>
        <time>2021-08-20T12:21:11Z</time>
      </trkpt>
      <trkpt lat="42.70066" lon="0.64363">
        <ele>2212</ele>
        <time>2021-08-20T12:20:53Z</time>
      </trkpt>
      <trkpt lat="42.70043" lon="0.64323">
        <ele>2225</ele>
        <time>2021-08-20T12:20:03Z</time>
      </trkpt>
      <trkpt lat="42.7002" lon="0.64298">
        <ele>2231</ele>
        <time>2021-08-20T12:19:24Z</time>
      </trkpt>
      <trkpt lat="42.70013" lon="0.64282">
        <ele>2235</ele>
        <time>2021-08-20T12:19:06Z</time>
      </trkpt>
      <trkpt lat="42.70001" lon="0.64271">
        <ele>2238</ele>
        <time>2021-08-20T12:18:47Z</time>
      </trkpt>
      <trkpt lat="42.69984" lon="0.64267">
        <ele>2241</ele>
        <time>2021-08-20T12:18:23Z</time>
      </trkpt>
      <trkpt lat="42.69978" lon="0.64256">
        <ele>2245</ele>
        <time>2021-08-20T12:18:10Z</time>
      </trkpt>
      <trkpt lat="42.69973" lon="0.64241">
        <ele>2247</ele>
        <time>2021-08-20T12:17:54Z</time>
      </trkpt>
      <trkpt lat="42.69965" lon="0.64236">
        <ele>2248</ele>
        <time>2021-08-20T12:17:42Z</time>
      </trkpt>
      <trkpt lat="42.69964" lon="0.64229">
        <ele>2248</ele>
        <time>2021-08-20T12:17:35Z</time>
      </trkpt>
      <trkpt lat="42.69959" lon="0.64226">
        <ele>2249</ele>
        <time>2021-08-20T12:17:28Z</time>
      </trkpt>
      <trkpt lat="42.69949" lon="0.64234">
        <ele>2250</ele>
        <time>2021-08-20T12:17:12Z</time>
      </trkpt>
      <trkpt lat="42.69942" lon="0.64236">
        <ele>2251</ele>
        <time>2021-08-20T12:17:03Z</time>
      </trkpt>
      <trkpt lat="42.69924" lon="0.64202">
        <ele>2253</ele>
        <time>2021-08-20T12:16:22Z</time>
      </trkpt>
      <trkpt lat="42.69919" lon="0.64197">
        <ele>2253</ele>
        <time>2021-08-20T12:16:13Z</time>
      </trkpt>
      <trkpt lat="42.69921" lon="0.64193">
        <ele>2253</ele>
        <time>2021-08-20T12:16:09Z</time>
      </trkpt>
      <trkpt lat="42.69928" lon="0.64187">
        <ele>2252</ele>
        <time>2021-08-20T12:15:58Z</time>
      </trkpt>
      <trkpt lat="42.69928" lon="0.64162">
        <ele>2252</ele>
        <time>2021-08-20T12:15:33Z</time>
      </trkpt>
      <trkpt lat="42.69931" lon="0.64152">
        <ele>2252</ele>
        <time>2021-08-20T12:15:23Z</time>
      </trkpt>
      <trkpt lat="42.6992" lon="0.64093">
        <ele>2251</ele>
        <time>2021-08-20T12:14:23Z</time>
      </trkpt>
      <trkpt lat="42.69931" lon="0.64152">
        <ele>2252</ele>
        <time>2021-08-20T12:13:23Z</time>
      </trkpt>
      <trkpt lat="42.69928" lon="0.64162">
        <ele>2252</ele>
        <time>2021-08-20T12:13:13Z</time>
      </trkpt>
      <trkpt lat="42.69928" lon="0.64187">
        <ele>2252</ele>
        <time>2021-08-20T12:12:48Z</time>
      </trkpt>
      <trkpt lat="42.69921" lon="0.64193">
        <ele>2253</ele>
        <time>2021-08-20T12:12:37Z</time>
      </trkpt>
      <trkpt lat="42.69919" lon="0.64197">
        <ele>2253</ele>
        <time>2021-08-20T12:12:32Z</time>
      </trkpt>
      <trkpt lat="42.69924" lon="0.64202">
        <ele>2253</ele>
        <time>2021-08-20T12:12:24Z</time>
      </trkpt>
      <trkpt lat="42.69942" lon="0.64236">
        <ele>2251</ele>
        <time>2021-08-20T12:11:43Z</time>
      </trkpt>
      <trkpt lat="42.69927" lon="0.64272">
        <ele>2247</ele>
        <time>2021-08-20T12:11:02Z</time>
      </trkpt>
      <trkpt lat="42.6992" lon="0.64261">
        <ele>2251</ele>
        <time>2021-08-20T12:10:48Z</time>
      </trkpt>
      <trkpt lat="42.69911" lon="0.64242">
        <ele>2255</ele>
        <time>2021-08-20T12:10:26Z</time>
      </trkpt>
      <trkpt lat="42.69908" lon="0.64231">
        <ele>2256</ele>
        <time>2021-08-20T12:10:14Z</time>
      </trkpt>
      <trkpt lat="42.69892" lon="0.64199">
        <ele>2259</ele>
        <time>2021-08-20T12:09:36Z</time>
      </trkpt>
      <trkpt lat="42.69883" lon="0.6419">
        <ele>2261</ele>
        <time>2021-08-20T12:09:22Z</time>
      </trkpt>
      <trkpt lat="42.69872" lon="0.6419">
        <ele>2263</ele>
        <time>2021-08-20T12:09:07Z</time>
      </trkpt>
      <trkpt lat="42.69861" lon="0.64167">
        <ele>2264</ele>
        <time>2021-08-20T12:08:40Z</time>
      </trkpt>
      <trkpt lat="42.69854" lon="0.64161">
        <ele>2264</ele>
        <time>2021-08-20T12:08:29Z</time>
      </trkpt>
      <trkpt lat="42.69834" lon="0.64152">
        <ele>2267</ele>
        <time>2021-08-20T12:08:01Z</time>
      </trkpt>
      <trkpt lat="42.69824" lon="0.64139">
        <ele>2266</ele>
        <time>2021-08-20T12:07:42Z</time>
      </trkpt>
      <trkpt lat="42.69812" lon="0.64131">
        <ele>2266</ele>
        <time>2021-08-20T12:07:24Z</time>
      </trkpt>
      <trkpt lat="42.69804" lon="0.64129">
        <ele>2267</ele>
        <time>2021-08-20T12:07:14Z</time>
      </trkpt>
      <trkpt lat="42.69782" lon="0.6413">
        <ele>2270</ele>
        <time>2021-08-20T12:06:44Z</time>
      </trkpt>
      <trkpt lat="42.69756" lon="0.64118">
        <ele>2269</ele>
        <time>2021-08-20T12:06:08Z</time>
      </trkpt>
      <trkpt lat="42.69746" lon="0.64115">
        <ele>2269</ele>
        <time>2021-08-20T12:05:54Z</time>
      </trkpt>
      <trkpt lat="42.69705" lon="0.64122">
        <ele>2275</ele>
        <time>2021-08-20T12:04:59Z</time>
      </trkpt>
      <trkpt lat="42.69699" lon="0.64126">
        <ele>2277</ele>
        <time>2021-08-20T12:04:50Z</time>
      </trkpt>
      <trkpt lat="42.69684" lon="0.64126">
        <ele>2278</ele>
        <time>2021-08-20T12:04:30Z</time>
      </trkpt>
      <trkpt lat="42.69682" lon="0.64128">
        <ele>2279</ele>
        <time>2021-08-20T12:04:27Z</time>
      </trkpt>
      <trkpt lat="42.69666" lon="0.64135">
        <ele>2284</ele>
        <time>2021-08-20T12:04:04Z</time>
      </trkpt>
      <trkpt lat="42.69653" lon="0.64136">
        <ele>2285</ele>
        <time>2021-08-20T12:03:47Z</time>
      </trkpt>
      <trkpt lat="42.69648" lon="0.64142">
        <ele>2287</ele>
        <time>2021-08-20T12:03:38Z</time>
      </trkpt>
      <trkpt lat="42.69628" lon="0.64145">
        <ele>2290</ele>
        <time>2021-08-20T12:03:11Z</time>
      </trkpt>
      <trkpt lat="42.69601" lon="0.64153">
        <ele>2295</ele>
        <time>2021-08-20T12:02:34Z</time>
      </trkpt>
      <trkpt lat="42.69593" lon="0.64162">
        <ele>2300</ele>
        <time>2021-08-20T12:02:20Z</time>
      </trkpt>
      <trkpt lat="42.69585" lon="0.64168">
        <ele>2303</ele>
        <time>2021-08-20T12:02:08Z</time>
      </trkpt>
      <trkpt lat="42.69574" lon="0.64168">
        <ele>2306</ele>
        <time>2021-08-20T12:01:53Z</time>
      </trkpt>
      <trkpt lat="42.69573" lon="0.6417">
        <ele>2307</ele>
        <time>2021-08-20T12:01:51Z</time>
      </trkpt>
      <trkpt lat="42.69552" lon="0.64166">
        <ele>2310</ele>
        <time>2021-08-20T12:01:23Z</time>
      </trkpt>
      <trkpt lat="42.69531" lon="0.64178">
        <ele>2320</ele>
        <time>2021-08-20T12:00:52Z</time>
      </trkpt>
      <trkpt lat="42.69511" lon="0.64182">
        <ele>2327</ele>
        <time>2021-08-20T12:00:25Z</time>
      </trkpt>
      <trkpt lat="42.69475" lon="0.64162">
        <ele>2332</ele>
        <time>2021-08-20T11:59:33Z</time>
      </trkpt>
      <trkpt lat="42.69463" lon="0.64163">
        <ele>2337</ele>
        <time>2021-08-20T11:59:17Z</time>
      </trkpt>
      <trkpt lat="42.69451" lon="0.64158">
        <ele>2341</ele>
        <time>2021-08-20T11:59:01Z</time>
      </trkpt>
      <trkpt lat="42.69443" lon="0.64152">
        <ele>2343</ele>
        <time>2021-08-20T11:58:48Z</time>
      </trkpt>
      <trkpt lat="42.69411" lon="0.64099">
        <ele>2351</ele>
        <time>2021-08-20T11:57:41Z</time>
      </trkpt>
      <trkpt lat="42.69403" lon="0.6408">
        <ele>2355</ele>
        <time>2021-08-20T11:57:20Z</time>
      </trkpt>
      <trkpt lat="42.69402" lon="0.6407">
        <ele>2353</ele>
        <time>2021-08-20T11:57:10Z</time>
      </trkpt>
      <trkpt lat="42.69399" lon="0.64064">
        <ele>2355</ele>
        <time>2021-08-20T11:57:03Z</time>
      </trkpt>
      <trkpt lat="42.69387" lon="0.64053">
        <ele>2364</ele>
        <time>2021-08-20T11:56:43Z</time>
      </trkpt>
      <trkpt lat="42.69387" lon="0.64081">
        <ele>2372</ele>
        <time>2021-08-20T11:56:16Z</time>
      </trkpt>
      <trkpt lat="42.69386" lon="0.64099">
        <ele>2378</ele>
        <time>2021-08-20T11:55:58Z</time>
      </trkpt>
      <trkpt lat="42.69382" lon="0.64095">
        <ele>2381</ele>
        <time>2021-08-20T11:55:52Z</time>
      </trkpt>
      <trkpt lat="42.69379" lon="0.64087">
        <ele>2383</ele>
        <time>2021-08-20T11:55:43Z</time>
      </trkpt>
      <trkpt lat="42.69379" lon="0.6408">
        <ele>2381</ele>
        <time>2021-08-20T11:55:36Z</time>
      </trkpt>
      <trkpt lat="42.69364" lon="0.6405">
        <ele>2387</ele>
        <time>2021-08-20T11:55:00Z</time>
      </trkpt>
      <trkpt lat="42.69359" lon="0.64034">
        <ele>2387</ele>
        <time>2021-08-20T11:54:43Z</time>
      </trkpt>
      <trkpt lat="42.69355" lon="0.64028">
        <ele>2389</ele>
        <time>2021-08-20T11:54:35Z</time>
      </trkpt>
      <trkpt lat="42.6934" lon="0.64019">
        <ele>2401</ele>
        <time>2021-08-20T11:54:13Z</time>
      </trkpt>
      <trkpt lat="42.69348" lon="0.64035">
        <ele>2399</ele>
        <time>2021-08-20T11:53:55Z</time>
      </trkpt>
      <trkpt lat="42.69349" lon="0.64058">
        <ele>2406</ele>
        <time>2021-08-20T11:53:32Z</time>
      </trkpt>
      <trkpt lat="42.69338" lon="0.64041">
        <ele>2411</ele>
        <time>2021-08-20T11:53:10Z</time>
      </trkpt>
      <trkpt lat="42.69332" lon="0.64035">
        <ele>2414</ele>
        <time>2021-08-20T11:53:00Z</time>
      </trkpt>
      <trkpt lat="42.69324" lon="0.64032">
        <ele>2416</ele>
        <time>2021-08-20T11:52:49Z</time>
      </trkpt>
      <trkpt lat="42.69322" lon="0.64033">
        <ele>2417</ele>
        <time>2021-08-20T11:52:46Z</time>
      </trkpt>
      <trkpt lat="42.69328" lon="0.64045">
        <ele>2419</ele>
        <time>2021-08-20T11:52:32Z</time>
      </trkpt>
      <trkpt lat="42.6933" lon="0.64059">
        <ele>2423</ele>
        <time>2021-08-20T11:52:18Z</time>
      </trkpt>
      <trkpt lat="42.69321" lon="0.64046">
        <ele>2422</ele>
        <time>2021-08-20T11:52:00Z</time>
      </trkpt>
      <trkpt lat="42.69311" lon="0.64044">
        <ele>2424</ele>
        <time>2021-08-20T11:51:47Z</time>
      </trkpt>
      <trkpt lat="42.69309" lon="0.64046">
        <ele>2426</ele>
        <time>2021-08-20T11:51:43Z</time>
      </trkpt>
      <trkpt lat="42.69317" lon="0.64063">
        <ele>2428</ele>
        <time>2021-08-20T11:51:23Z</time>
      </trkpt>
      <trkpt lat="42.69319" lon="0.64073">
        <ele>2430</ele>
        <time>2021-08-20T11:51:13Z</time>
      </trkpt>
      <trkpt lat="42.69318" lon="0.64075">
        <ele>2431</ele>
        <time>2021-08-20T11:51:11Z</time>
      </trkpt>
      <trkpt lat="42.69307" lon="0.64064">
        <ele>2431</ele>
        <time>2021-08-20T11:50:53Z</time>
      </trkpt>
      <trkpt lat="42.69306" lon="0.64068">
        <ele>2432</ele>
        <time>2021-08-20T11:50:49Z</time>
      </trkpt>
      <trkpt lat="42.69308" lon="0.64078">
        <ele>2434</ele>
        <time>2021-08-20T11:50:38Z</time>
      </trkpt>
      <trkpt lat="42.69307" lon="0.6408">
        <ele>2434</ele>
        <time>2021-08-20T11:50:36Z</time>
      </trkpt>
      <trkpt lat="42.69301" lon="0.64067">
        <ele>2433</ele>
        <time>2021-08-20T11:50:21Z</time>
      </trkpt>
      <trkpt lat="42.69299" lon="0.64067">
        <ele>2433</ele>
        <time>2021-08-20T11:50:18Z</time>
      </trkpt>
      <trkpt lat="42.69299" lon="0.64077">
        <ele>2435</ele>
        <time>2021-08-20T11:50:09Z</time>
      </trkpt>
      <trkpt lat="42.69304" lon="0.64085">
        <ele>2436</ele>
        <time>2021-08-20T11:49:58Z</time>
      </trkpt>
      <trkpt lat="42.69303" lon="0.64088">
        <ele>2437</ele>
        <time>2021-08-20T11:49:55Z</time>
      </trkpt>
      <trkpt lat="42.69294" lon="0.6408">
        <ele>2437</ele>
        <time>2021-08-20T11:49:41Z</time>
      </trkpt>
      <trkpt lat="42.69294" lon="0.64085">
        <ele>2437</ele>
        <time>2021-08-20T11:49:36Z</time>
      </trkpt>
      <trkpt lat="42.69296" lon="0.64093">
        <ele>2438</ele>
        <time>2021-08-20T11:49:27Z</time>
      </trkpt>
      <trkpt lat="42.69294" lon="0.64094">
        <ele>2439</ele>
        <time>2021-08-20T11:49:25Z</time>
      </trkpt>
      <trkpt lat="42.69291" lon="0.64091">
        <ele>2439</ele>
        <time>2021-08-20T11:49:20Z</time>
      </trkpt>
      <trkpt lat="42.6929" lon="0.64093">
        <ele>2439</ele>
        <time>2021-08-20T11:49:17Z</time>
      </trkpt>
      <trkpt lat="42.69292" lon="0.64097">
        <ele>2439</ele>
        <time>2021-08-20T11:49:13Z</time>
      </trkpt>
      <trkpt lat="42.69291" lon="0.641">
        <ele>2440</ele>
        <time>2021-08-20T11:49:09Z</time>
      </trkpt>
      <trkpt lat="42.69286" lon="0.64097">
        <ele>2440</ele>
        <time>2021-08-20T11:49:02Z</time>
      </trkpt>
      <trkpt lat="42.69276" lon="0.6411">
        <ele>2442</ele>
        <time>2021-08-20T11:48:44Z</time>
      </trkpt>
      <trkpt lat="42.69264" lon="0.64118">
        <ele>2443</ele>
        <time>2021-08-20T11:48:26Z</time>
      </trkpt>
      <trkpt lat="42.69256" lon="0.64116">
        <ele>2443</ele>
        <time>2021-08-20T11:48:15Z</time>
      </trkpt>
      <trkpt lat="42.69251" lon="0.64124">
        <ele>2443</ele>
        <time>2021-08-20T11:48:05Z</time>
      </trkpt>
      <trkpt lat="42.69239" lon="0.64117">
        <ele>2435</ele>
        <time>2021-08-20T11:47:47Z</time>
      </trkpt>
      <trkpt lat="42.69225" lon="0.64097">
        <ele>2427</ele>
        <time>2021-08-20T11:47:20Z</time>
      </trkpt>
      <trkpt lat="42.69224" lon="0.64082">
        <ele>2428</ele>
        <time>2021-08-20T11:47:05Z</time>
      </trkpt>
      <trkpt lat="42.69235" lon="0.64046">
        <ele>2436</ele>
        <time>2021-08-20T11:46:27Z</time>
      </trkpt>
      <trkpt lat="42.69235" lon="0.64034">
        <ele>2436</ele>
        <time>2021-08-20T11:46:15Z</time>
      </trkpt>
      <trkpt lat="42.69232" lon="0.64025">
        <ele>2435</ele>
        <time>2021-08-20T11:46:06Z</time>
      </trkpt>
      <trkpt lat="42.69236" lon="0.63967">
        <ele>2442</ele>
        <time>2021-08-20T11:45:08Z</time>
      </trkpt>
      <trkpt lat="42.69241" lon="0.63958">
        <ele>2446</ele>
        <time>2021-08-20T11:44:57Z</time>
      </trkpt>
      <trkpt lat="42.69245" lon="0.63944">
        <ele>2451</ele>
        <time>2021-08-20T11:44:43Z</time>
      </trkpt>
      <trkpt lat="42.69242" lon="0.63895">
        <ele>2456</ele>
        <time>2021-08-20T11:43:54Z</time>
      </trkpt>
      <trkpt lat="42.69246" lon="0.63881">
        <ele>2462</ele>
        <time>2021-08-20T11:43:40Z</time>
      </trkpt>
      <trkpt lat="42.69256" lon="0.63856">
        <ele>2466</ele>
        <time>2021-08-20T11:43:12Z</time>
      </trkpt>
      <trkpt lat="42.69251" lon="0.63837">
        <ele>2473</ele>
        <time>2021-08-20T11:42:52Z</time>
      </trkpt>
      <trkpt lat="42.69249" lon="0.6382">
        <ele>2475</ele>
        <time>2021-08-20T11:42:35Z</time>
      </trkpt>
      <trkpt lat="42.69253" lon="0.63767">
        <ele>2483</ele>
        <time>2021-08-20T11:41:43Z</time>
      </trkpt>
      <trkpt lat="42.6925" lon="0.63715">
        <ele>2494</ele>
        <time>2021-08-20T11:40:52Z</time>
      </trkpt>
      <trkpt lat="42.69246" lon="0.63679">
        <ele>2499</ele>
        <time>2021-08-20T11:40:16Z</time>
      </trkpt>
      <trkpt lat="42.69244" lon="0.63665">
        <ele>2500</ele>
        <time>2021-08-20T11:40:02Z</time>
      </trkpt>
      <trkpt lat="42.69229" lon="0.63622">
        <ele>2490</ele>
        <time>2021-08-20T11:39:15Z</time>
      </trkpt>
      <trkpt lat="42.69227" lon="0.63606">
        <ele>2490</ele>
        <time>2021-08-20T11:38:59Z</time>
      </trkpt>
      <trkpt lat="42.69233" lon="0.63601">
        <ele>2496</ele>
        <time>2021-08-20T11:38:50Z</time>
      </trkpt>
      <trkpt lat="42.69246" lon="0.63603">
        <ele>2509</ele>
        <time>2021-08-20T11:38:33Z</time>
      </trkpt>
      <trkpt lat="42.6925" lon="0.63598">
        <ele>2513</ele>
        <time>2021-08-20T11:38:25Z</time>
      </trkpt>
      <trkpt lat="42.6926" lon="0.63612">
        <ele>2517</ele>
        <time>2021-08-20T11:38:06Z</time>
      </trkpt>
      <trkpt lat="42.69263" lon="0.6361">
        <ele>2519</ele>
        <time>2021-08-20T11:38:02Z</time>
      </trkpt>
      <trkpt lat="42.69264" lon="0.63593">
        <ele>2523</ele>
        <time>2021-08-20T11:37:45Z</time>
      </trkpt>
      <trkpt lat="42.69267" lon="0.6359">
        <ele>2525</ele>
        <time>2021-08-20T11:37:40Z</time>
      </trkpt>
      <trkpt lat="42.6927" lon="0.63582">
        <ele>2528</ele>
        <time>2021-08-20T11:37:31Z</time>
      </trkpt>
      <trkpt lat="42.69274" lon="0.63553">
        <ele>2531</ele>
        <time>2021-08-20T11:37:02Z</time>
      </trkpt>
      <trkpt lat="42.69283" lon="0.63564">
        <ele>2538</ele>
        <time>2021-08-20T11:36:46Z</time>
      </trkpt>
      <trkpt lat="42.69289" lon="0.63538">
        <ele>2544</ele>
        <time>2021-08-20T11:36:19Z</time>
      </trkpt>
      <trkpt lat="42.69307" lon="0.63574">
        <ele>2554</ele>
        <time>2021-08-20T11:35:37Z</time>
      </trkpt>
      <trkpt lat="42.69314" lon="0.63583">
        <ele>2558</ele>
        <time>2021-08-20T11:35:24Z</time>
      </trkpt>
      <trkpt lat="42.69307" lon="0.63574">
        <ele>2554</ele>
        <time>2021-08-20T11:35:11Z</time>
      </trkpt>
      <trkpt lat="42.69289" lon="0.63538">
        <ele>2544</ele>
        <time>2021-08-20T11:34:28Z</time>
      </trkpt>
      <trkpt lat="42.69283" lon="0.63564">
        <ele>2538</ele>
        <time>2021-08-20T11:34:01Z</time>
      </trkpt>
      <trkpt lat="42.69274" lon="0.63553">
        <ele>2531</ele>
        <time>2021-08-20T11:33:45Z</time>
      </trkpt>
      <trkpt lat="42.6927" lon="0.63582">
        <ele>2528</ele>
        <time>2021-08-20T11:33:16Z</time>
      </trkpt>
      <trkpt lat="42.69267" lon="0.6359">
        <ele>2525</ele>
        <time>2021-08-20T11:33:08Z</time>
      </trkpt>
      <trkpt lat="42.69264" lon="0.63593">
        <ele>2523</ele>
        <time>2021-08-20T11:33:03Z</time>
      </trkpt>
      <trkpt lat="42.69263" lon="0.6361">
        <ele>2519</ele>
        <time>2021-08-20T11:32:46Z</time>
      </trkpt>
      <trkpt lat="42.6926" lon="0.63612">
        <ele>2517</ele>
        <time>2021-08-20T11:32:41Z</time>
      </trkpt>
      <trkpt lat="42.6925" lon="0.63598">
        <ele>2513</ele>
        <time>2021-08-20T11:32:22Z</time>
      </trkpt>
      <trkpt lat="42.69246" lon="0.63603">
        <ele>2509</ele>
        <time>2021-08-20T11:32:15Z</time>
      </trkpt>
      <trkpt lat="42.69233" lon="0.63601">
        <ele>2496</ele>
        <time>2021-08-20T11:31:58Z</time>
      </trkpt>
      <trkpt lat="42.69227" lon="0.63606">
        <ele>2490</ele>
        <time>2021-08-20T11:31:48Z</time>
      </trkpt>
      <trkpt lat="42.69229" lon="0.63622">
        <ele>2490</ele>
        <time>2021-08-20T11:31:32Z</time>
      </trkpt>
      <trkpt lat="42.69244" lon="0.63665">
        <ele>2500</ele>
        <time>2021-08-20T11:30:46Z</time>
      </trkpt>
      <trkpt lat="42.69246" lon="0.63679">
        <ele>2499</ele>
        <time>2021-08-20T11:30:32Z</time>
      </trkpt>
      <trkpt lat="42.6925" lon="0.63715">
        <ele>2494</ele>
        <time>2021-08-20T11:29:56Z</time>
      </trkpt>
      <trkpt lat="42.69253" lon="0.63767">
        <ele>2483</ele>
        <time>2021-08-20T11:29:05Z</time>
      </trkpt>
      <trkpt lat="42.69249" lon="0.6382">
        <ele>2475</ele>
        <time>2021-08-20T11:28:12Z</time>
      </trkpt>
      <trkpt lat="42.69251" lon="0.63837">
        <ele>2473</ele>
        <time>2021-08-20T11:27:56Z</time>
      </trkpt>
      <trkpt lat="42.69256" lon="0.63856">
        <ele>2466</ele>
        <time>2021-08-20T11:27:36Z</time>
      </trkpt>
      <trkpt lat="42.69246" lon="0.63881">
        <ele>2462</ele>
        <time>2021-08-20T11:27:08Z</time>
      </trkpt>
      <trkpt lat="42.69242" lon="0.63895">
        <ele>2456</ele>
        <time>2021-08-20T11:26:53Z</time>
      </trkpt>
      <trkpt lat="42.69245" lon="0.63944">
        <ele>2451</ele>
        <time>2021-08-20T11:26:05Z</time>
      </trkpt>
      <trkpt lat="42.69241" lon="0.63958">
        <ele>2446</ele>
        <time>2021-08-20T11:25:50Z</time>
      </trkpt>
      <trkpt lat="42.69236" lon="0.63967">
        <ele>2442</ele>
        <time>2021-08-20T11:25:39Z</time>
      </trkpt>
      <trkpt lat="42.69232" lon="0.64025">
        <ele>2435</ele>
        <time>2021-08-20T11:24:42Z</time>
      </trkpt>
      <trkpt lat="42.69235" lon="0.64034">
        <ele>2436</ele>
        <time>2021-08-20T11:24:32Z</time>
      </trkpt>
      <trkpt lat="42.69235" lon="0.64046">
        <ele>2436</ele>
        <time>2021-08-20T11:24:21Z</time>
      </trkpt>
      <trkpt lat="42.69224" lon="0.64082">
        <ele>2428</ele>
        <time>2021-08-20T11:23:42Z</time>
      </trkpt>
      <trkpt lat="42.69225" lon="0.64097">
        <ele>2427</ele>
        <time>2021-08-20T11:23:27Z</time>
      </trkpt>
      <trkpt lat="42.69217" lon="0.64113">
        <ele>2421</ele>
        <time>2021-08-20T11:23:09Z</time>
      </trkpt>
      <trkpt lat="42.69204" lon="0.64087">
        <ele>2414</ele>
        <time>2021-08-20T11:22:38Z</time>
      </trkpt>
      <trkpt lat="42.69201" lon="0.64096">
        <ele>2411</ele>
        <time>2021-08-20T11:22:28Z</time>
      </trkpt>
      <trkpt lat="42.69196" lon="0.64094">
        <ele>2408</ele>
        <time>2021-08-20T11:22:21Z</time>
      </trkpt>
      <trkpt lat="42.69195" lon="0.6408">
        <ele>2409</ele>
        <time>2021-08-20T11:22:07Z</time>
      </trkpt>
      <trkpt lat="42.69186" lon="0.64055">
        <ele>2405</ele>
        <time>2021-08-20T11:21:40Z</time>
      </trkpt>
      <trkpt lat="42.6918" lon="0.6402">
        <ele>2402</ele>
        <time>2021-08-20T11:21:05Z</time>
      </trkpt>
      <trkpt lat="42.69181" lon="0.63995">
        <ele>2405</ele>
        <time>2021-08-20T11:20:40Z</time>
      </trkpt>
      <trkpt lat="42.69155" lon="0.6393">
        <ele>2398</ele>
        <time>2021-08-20T11:19:28Z</time>
      </trkpt>
      <trkpt lat="42.69153" lon="0.64009">
        <ele>2391</ele>
        <time>2021-08-20T11:18:10Z</time>
      </trkpt>
      <trkpt lat="42.69135" lon="0.64044">
        <ele>2384</ele>
        <time>2021-08-20T11:17:28Z</time>
      </trkpt>
      <trkpt lat="42.69132" lon="0.64031">
        <ele>2384</ele>
        <time>2021-08-20T11:17:15Z</time>
      </trkpt>
      <trkpt lat="42.69132" lon="0.63995">
        <ele>2386</ele>
        <time>2021-08-20T11:16:39Z</time>
      </trkpt>
      <trkpt lat="42.69127" lon="0.63983">
        <ele>2384</ele>
        <time>2021-08-20T11:16:26Z</time>
      </trkpt>
      <trkpt lat="42.69118" lon="0.63967">
        <ele>2382</ele>
        <time>2021-08-20T11:16:06Z</time>
      </trkpt>
      <trkpt lat="42.69119" lon="0.63947">
        <ele>2382</ele>
        <time>2021-08-20T11:15:46Z</time>
      </trkpt>
      <trkpt lat="42.69109" lon="0.63898">
        <ele>2377</ele>
        <time>2021-08-20T11:14:57Z</time>
      </trkpt>
      <trkpt lat="42.69105" lon="0.63888">
        <ele>2374</ele>
        <time>2021-08-20T11:14:45Z</time>
      </trkpt>
      <trkpt lat="42.69086" lon="0.6386">
        <ele>2362</ele>
        <time>2021-08-20T11:14:08Z</time>
      </trkpt>
      <trkpt lat="42.69077" lon="0.63843">
        <ele>2358</ele>
        <time>2021-08-20T11:13:47Z</time>
      </trkpt>
      <trkpt lat="42.69078" lon="0.63819">
        <ele>2357</ele>
        <time>2021-08-20T11:13:24Z</time>
      </trkpt>
      <trkpt lat="42.69076" lon="0.63813">
        <ele>2356</ele>
        <time>2021-08-20T11:13:17Z</time>
      </trkpt>
      <trkpt lat="42.6906" lon="0.63801">
        <ele>2351</ele>
        <time>2021-08-20T11:12:53Z</time>
      </trkpt>
      <trkpt lat="42.69053" lon="0.63787">
        <ele>2348</ele>
        <time>2021-08-20T11:12:36Z</time>
      </trkpt>
      <trkpt lat="42.69031" lon="0.63762">
        <ele>2337</ele>
        <time>2021-08-20T11:11:58Z</time>
      </trkpt>
      <trkpt lat="42.69026" lon="0.63743">
        <ele>2333</ele>
        <time>2021-08-20T11:11:38Z</time>
      </trkpt>
      <trkpt lat="42.69026" lon="0.63726">
        <ele>2331</ele>
        <time>2021-08-20T11:11:22Z</time>
      </trkpt>
      <trkpt lat="42.69029" lon="0.6371">
        <ele>2331</ele>
        <time>2021-08-20T11:11:06Z</time>
      </trkpt>
      <trkpt lat="42.69022" lon="0.63704">
        <ele>2326</ele>
        <time>2021-08-20T11:10:55Z</time>
      </trkpt>
      <trkpt lat="42.69019" lon="0.63696">
        <ele>2324</ele>
        <time>2021-08-20T11:10:46Z</time>
      </trkpt>
      <trkpt lat="42.69022" lon="0.63694">
        <ele>2325</ele>
        <time>2021-08-20T11:10:41Z</time>
      </trkpt>
      <trkpt lat="42.69023" lon="0.63689">
        <ele>2325</ele>
        <time>2021-08-20T11:10:36Z</time>
      </trkpt>
      <trkpt lat="42.69017" lon="0.63682">
        <ele>2321</ele>
        <time>2021-08-20T11:10:26Z</time>
      </trkpt>
      <trkpt lat="42.69021" lon="0.6367">
        <ele>2322</ele>
        <time>2021-08-20T11:10:13Z</time>
      </trkpt>
      <trkpt lat="42.69014" lon="0.63667">
        <ele>2317</ele>
        <time>2021-08-20T11:10:03Z</time>
      </trkpt>
      <trkpt lat="42.69014" lon="0.63659">
        <ele>2316</ele>
        <time>2021-08-20T11:09:55Z</time>
      </trkpt>
      <trkpt lat="42.6901" lon="0.63639">
        <ele>2312</ele>
        <time>2021-08-20T11:09:35Z</time>
      </trkpt>
      <trkpt lat="42.68994" lon="0.63612">
        <ele>2302</ele>
        <time>2021-08-20T11:09:01Z</time>
      </trkpt>
      <trkpt lat="42.6898" lon="0.63578">
        <ele>2298</ele>
        <time>2021-08-20T11:08:22Z</time>
      </trkpt>
      <trkpt lat="42.68953" lon="0.6353">
        <ele>2288</ele>
        <time>2021-08-20T11:07:23Z</time>
      </trkpt>
      <trkpt lat="42.68928" lon="0.63474">
        <ele>2268</ele>
        <time>2021-08-20T11:06:19Z</time>
      </trkpt>
      <trkpt lat="42.68923" lon="0.63456">
        <ele>2262</ele>
        <time>2021-08-20T11:06:00Z</time>
      </trkpt>
      <trkpt lat="42.68915" lon="0.63437">
        <ele>2255</ele>
        <time>2021-08-20T11:05:39Z</time>
      </trkpt>
      <trkpt lat="42.68916" lon="0.63414">
        <ele>2249</ele>
        <time>2021-08-20T11:05:16Z</time>
      </trkpt>
      <trkpt lat="42.68914" lon="0.63412">
        <ele>2248</ele>
        <time>2021-08-20T11:05:13Z</time>
      </trkpt>
      <trkpt lat="42.6891" lon="0.63408">
        <ele>2246</ele>
        <time>2021-08-20T11:05:06Z</time>
      </trkpt>
      <trkpt lat="42.68903" lon="0.63427">
        <ele>2250</ele>
        <time>2021-08-20T11:04:45Z</time>
      </trkpt>
      <trkpt lat="42.68895" lon="0.63436">
        <ele>2251</ele>
        <time>2021-08-20T11:04:31Z</time>
      </trkpt>
      <trkpt lat="42.68891" lon="0.63437">
        <ele>2251</ele>
        <time>2021-08-20T11:04:26Z</time>
      </trkpt>
      <trkpt lat="42.68885" lon="0.63438">
        <ele>2250</ele>
        <time>2021-08-20T11:04:18Z</time>
      </trkpt>
      <trkpt lat="42.68871" lon="0.63434">
        <ele>2247</ele>
        <time>2021-08-20T11:03:59Z</time>
      </trkpt>
      <trkpt lat="42.68857" lon="0.63435">
        <ele>2245</ele>
        <time>2021-08-20T11:03:40Z</time>
      </trkpt>
      <trkpt lat="42.68844" lon="0.63429">
        <ele>2241</ele>
        <time>2021-08-20T11:03:22Z</time>
      </trkpt>
      <trkpt lat="42.68834" lon="0.6344">
        <ele>2242</ele>
        <time>2021-08-20T11:03:05Z</time>
      </trkpt>
      <trkpt lat="42.68824" lon="0.63443">
        <ele>2238</ele>
        <time>2021-08-20T11:02:51Z</time>
      </trkpt>
      <trkpt lat="42.68813" lon="0.63443">
        <ele>2232</ele>
        <time>2021-08-20T11:02:36Z</time>
      </trkpt>
      <trkpt lat="42.68802" lon="0.63449">
        <ele>2228</ele>
        <time>2021-08-20T11:02:20Z</time>
      </trkpt>
      <trkpt lat="42.6879" lon="0.63449">
        <ele>2221</ele>
        <time>2021-08-20T11:02:04Z</time>
      </trkpt>
      <trkpt lat="42.68785" lon="0.63445">
        <ele>2218</ele>
        <time>2021-08-20T11:01:57Z</time>
      </trkpt>
      <trkpt lat="42.68787" lon="0.63432">
        <ele>2217</ele>
        <time>2021-08-20T11:01:44Z</time>
      </trkpt>
      <trkpt lat="42.68785" lon="0.6343">
        <ele>2216</ele>
        <time>2021-08-20T11:01:40Z</time>
      </trkpt>
      <trkpt lat="42.68778" lon="0.63435">
        <ele>2213</ele>
        <time>2021-08-20T11:01:30Z</time>
      </trkpt>
      <trkpt lat="42.68781" lon="0.63426">
        <ele>2213</ele>
        <time>2021-08-20T11:01:20Z</time>
      </trkpt>
      <trkpt lat="42.6878" lon="0.63418">
        <ele>2211</ele>
        <time>2021-08-20T11:01:12Z</time>
      </trkpt>
      <trkpt lat="42.68771" lon="0.63428">
        <ele>2208</ele>
        <time>2021-08-20T11:00:57Z</time>
      </trkpt>
      <trkpt lat="42.68761" lon="0.63448">
        <ele>2206</ele>
        <time>2021-08-20T11:00:33Z</time>
      </trkpt>
      <trkpt lat="42.68754" lon="0.63467">
        <ele>2204</ele>
        <time>2021-08-20T11:00:12Z</time>
      </trkpt>
      <trkpt lat="42.68749" lon="0.63494">
        <ele>2203</ele>
        <time>2021-08-20T10:59:45Z</time>
      </trkpt>
      <trkpt lat="42.68743" lon="0.63505">
        <ele>2199</ele>
        <time>2021-08-20T10:59:31Z</time>
      </trkpt>
      <trkpt lat="42.68737" lon="0.63488">
        <ele>2194</ele>
        <time>2021-08-20T10:59:13Z</time>
      </trkpt>
      <trkpt lat="42.68735" lon="0.63466">
        <ele>2190</ele>
        <time>2021-08-20T10:58:51Z</time>
      </trkpt>
      <trkpt lat="42.68731" lon="0.63443">
        <ele>2185</ele>
        <time>2021-08-20T10:58:28Z</time>
      </trkpt>
      <trkpt lat="42.68731" lon="0.63431">
        <ele>2184</ele>
        <time>2021-08-20T10:58:16Z</time>
      </trkpt>
      <trkpt lat="42.68735" lon="0.63393">
        <ele>2175</ele>
        <time>2021-08-20T10:57:38Z</time>
      </trkpt>
      <trkpt lat="42.68732" lon="0.63395">
        <ele>2174</ele>
        <time>2021-08-20T10:57:34Z</time>
      </trkpt>
      <trkpt lat="42.6873" lon="0.6339">
        <ele>2170</ele>
        <time>2021-08-20T10:57:28Z</time>
      </trkpt>
      <trkpt lat="42.68737" lon="0.6336">
        <ele>2161</ele>
        <time>2021-08-20T10:56:57Z</time>
      </trkpt>
      <trkpt lat="42.68732" lon="0.6335">
        <ele>2153</ele>
        <time>2021-08-20T10:56:46Z</time>
      </trkpt>
      <trkpt lat="42.68733" lon="0.63343">
        <ele>2151</ele>
        <time>2021-08-20T10:56:39Z</time>
      </trkpt>
      <trkpt lat="42.68741" lon="0.63333">
        <ele>2151</ele>
        <time>2021-08-20T10:56:24Z</time>
      </trkpt>
      <trkpt lat="42.68748" lon="0.63329">
        <ele>2153</ele>
        <time>2021-08-20T10:56:14Z</time>
      </trkpt>
      <trkpt lat="42.68781" lon="0.63306">
        <ele>2160</ele>
        <time>2021-08-20T10:55:25Z</time>
      </trkpt>
      <trkpt lat="42.688" lon="0.63286">
        <ele>2161</ele>
        <time>2021-08-20T10:54:52Z</time>
      </trkpt>
      <trkpt lat="42.68818" lon="0.63228">
        <ele>2142</ele>
        <time>2021-08-20T10:53:51Z</time>
      </trkpt>
      <trkpt lat="42.68822" lon="0.63206">
        <ele>2134</ele>
        <time>2021-08-20T10:53:28Z</time>
      </trkpt>
      <trkpt lat="42.68825" lon="0.632">
        <ele>2133</ele>
        <time>2021-08-20T10:53:21Z</time>
      </trkpt>
      <trkpt lat="42.68825" lon="0.63185">
        <ele>2126</ele>
        <time>2021-08-20T10:53:07Z</time>
      </trkpt>
      <trkpt lat="42.68822" lon="0.63184">
        <ele>2123</ele>
        <time>2021-08-20T10:53:03Z</time>
      </trkpt>
      <trkpt lat="42.68807" lon="0.63192">
        <ele>2119</ele>
        <time>2021-08-20T10:52:41Z</time>
      </trkpt>
      <trkpt lat="42.68788" lon="0.63219">
        <ele>2119</ele>
        <time>2021-08-20T10:52:04Z</time>
      </trkpt>
      <trkpt lat="42.68787" lon="0.63212">
        <ele>2116</ele>
        <time>2021-08-20T10:51:57Z</time>
      </trkpt>
      <trkpt lat="42.68795" lon="0.63184">
        <ele>2108</ele>
        <time>2021-08-20T10:51:28Z</time>
      </trkpt>
      <trkpt lat="42.68806" lon="0.63158">
        <ele>2103</ele>
        <time>2021-08-20T10:50:58Z</time>
      </trkpt>
      <trkpt lat="42.68811" lon="0.63141">
        <ele>2098</ele>
        <time>2021-08-20T10:50:41Z</time>
      </trkpt>
      <trkpt lat="42.68802" lon="0.63147">
        <ele>2096</ele>
        <time>2021-08-20T10:50:27Z</time>
      </trkpt>
      <trkpt lat="42.68782" lon="0.63167">
        <ele>2093</ele>
        <time>2021-08-20T10:49:54Z</time>
      </trkpt>
      <trkpt lat="42.68786" lon="0.63153">
        <ele>2090</ele>
        <time>2021-08-20T10:49:39Z</time>
      </trkpt>
      <trkpt lat="42.68794" lon="0.63133">
        <ele>2086</ele>
        <time>2021-08-20T10:49:17Z</time>
      </trkpt>
      <trkpt lat="42.68791" lon="0.63121">
        <ele>2080</ele>
        <time>2021-08-20T10:49:05Z</time>
      </trkpt>
      <trkpt lat="42.68784" lon="0.63136">
        <ele>2082</ele>
        <time>2021-08-20T10:48:47Z</time>
      </trkpt>
      <trkpt lat="42.68779" lon="0.63142">
        <ele>2082</ele>
        <time>2021-08-20T10:48:38Z</time>
      </trkpt>
      <trkpt lat="42.68764" lon="0.63157">
        <ele>2080</ele>
        <time>2021-08-20T10:48:13Z</time>
      </trkpt>
      <trkpt lat="42.68759" lon="0.63159">
        <ele>2078</ele>
        <time>2021-08-20T10:48:06Z</time>
      </trkpt>
      <trkpt lat="42.68758" lon="0.63157">
        <ele>2077</ele>
        <time>2021-08-20T10:48:04Z</time>
      </trkpt>
      <trkpt lat="42.68769" lon="0.63128">
        <ele>2072</ele>
        <time>2021-08-20T10:47:32Z</time>
      </trkpt>
      <trkpt lat="42.68769" lon="0.63124">
        <ele>2070</ele>
        <time>2021-08-20T10:47:28Z</time>
      </trkpt>
      <trkpt lat="42.68754" lon="0.63134">
        <ele>2067</ele>
        <time>2021-08-20T10:47:06Z</time>
      </trkpt>
      <trkpt lat="42.68758" lon="0.63118">
        <ele>2063</ele>
        <time>2021-08-20T10:46:49Z</time>
      </trkpt>
      <trkpt lat="42.68749" lon="0.63128">
        <ele>2062</ele>
        <time>2021-08-20T10:46:34Z</time>
      </trkpt>
      <trkpt lat="42.68741" lon="0.6313">
        <ele>2059</ele>
        <time>2021-08-20T10:46:23Z</time>
      </trkpt>
      <trkpt lat="42.68745" lon="0.63118">
        <ele>2057</ele>
        <time>2021-08-20T10:46:10Z</time>
      </trkpt>
      <trkpt lat="42.68753" lon="0.631">
        <ele>2054</ele>
        <time>2021-08-20T10:45:49Z</time>
      </trkpt>
      <trkpt lat="42.6874" lon="0.63104">
        <ele>2049</ele>
        <time>2021-08-20T10:45:31Z</time>
      </trkpt>
      <trkpt lat="42.6874" lon="0.631">
        <ele>2048</ele>
        <time>2021-08-20T10:45:28Z</time>
      </trkpt>
      <trkpt lat="42.68748" lon="0.63072">
        <ele>2041</ele>
        <time>2021-08-20T10:44:58Z</time>
      </trkpt>
      <trkpt lat="42.68748" lon="0.63062">
        <ele>2037</ele>
        <time>2021-08-20T10:44:48Z</time>
      </trkpt>
      <trkpt lat="42.68758" lon="0.63035">
        <ele>2031</ele>
        <time>2021-08-20T10:44:19Z</time>
      </trkpt>
      <trkpt lat="42.68767" lon="0.63019">
        <ele>2029</ele>
        <time>2021-08-20T10:43:59Z</time>
      </trkpt>
      <trkpt lat="42.68779" lon="0.63005">
        <ele>2029</ele>
        <time>2021-08-20T10:43:38Z</time>
      </trkpt>
      <trkpt lat="42.68766" lon="0.63006">
        <ele>2023</ele>
        <time>2021-08-20T10:43:20Z</time>
      </trkpt>
      <trkpt lat="42.68756" lon="0.62997">
        <ele>2015</ele>
        <time>2021-08-20T10:43:04Z</time>
      </trkpt>
      <trkpt lat="42.68752" lon="0.63">
        <ele>2013</ele>
        <time>2021-08-20T10:42:58Z</time>
      </trkpt>
      <trkpt lat="42.68706" lon="0.63063">
        <ele>2019</ele>
        <time>2021-08-20T10:41:31Z</time>
      </trkpt>
      <trkpt lat="42.68697" lon="0.63066">
        <ele>2016</ele>
        <time>2021-08-20T10:41:19Z</time>
      </trkpt>
      <trkpt lat="42.68687" lon="0.63067">
        <ele>2012</ele>
        <time>2021-08-20T10:41:05Z</time>
      </trkpt>
      <trkpt lat="42.68686" lon="0.63058">
        <ele>2008</ele>
        <time>2021-08-20T10:40:57Z</time>
      </trkpt>
      <trkpt lat="42.68669" lon="0.63037">
        <ele>1995</ele>
        <time>2021-08-20T10:40:26Z</time>
      </trkpt>
      <trkpt lat="42.68673" lon="0.63031">
        <ele>1994</ele>
        <time>2021-08-20T10:40:18Z</time>
      </trkpt>
      <trkpt lat="42.68674" lon="0.63017">
        <ele>1991</ele>
        <time>2021-08-20T10:40:04Z</time>
      </trkpt>
      <trkpt lat="42.68676" lon="0.63013">
        <ele>1990</ele>
        <time>2021-08-20T10:39:59Z</time>
      </trkpt>
      <trkpt lat="42.68672" lon="0.6299">
        <ele>1983</ele>
        <time>2021-08-20T10:39:36Z</time>
      </trkpt>
      <trkpt lat="42.68668" lon="0.62983">
        <ele>1980</ele>
        <time>2021-08-20T10:39:28Z</time>
      </trkpt>
      <trkpt lat="42.68669" lon="0.62981">
        <ele>1980</ele>
        <time>2021-08-20T10:39:25Z</time>
      </trkpt>
      <trkpt lat="42.6868" lon="0.62985">
        <ele>1985</ele>
        <time>2021-08-20T10:39:10Z</time>
      </trkpt>
      <trkpt lat="42.68687" lon="0.62977">
        <ele>1986</ele>
        <time>2021-08-20T10:38:58Z</time>
      </trkpt>
      <trkpt lat="42.68685" lon="0.62971">
        <ele>1984</ele>
        <time>2021-08-20T10:38:51Z</time>
      </trkpt>
      <trkpt lat="42.68695" lon="0.62955">
        <ele>1984</ele>
        <time>2021-08-20T10:38:31Z</time>
      </trkpt>
      <trkpt lat="42.68705" lon="0.62922">
        <ele>1981</ele>
        <time>2021-08-20T10:37:56Z</time>
      </trkpt>
      <trkpt lat="42.68708" lon="0.62904">
        <ele>1978</ele>
        <time>2021-08-20T10:37:38Z</time>
      </trkpt>
      <trkpt lat="42.68714" lon="0.62875">
        <ele>1974</ele>
        <time>2021-08-20T10:37:08Z</time>
      </trkpt>
      <trkpt lat="42.68712" lon="0.62846">
        <ele>1966</ele>
        <time>2021-08-20T10:36:39Z</time>
      </trkpt>
      <trkpt lat="42.68708" lon="0.62848">
        <ele>1965</ele>
        <time>2021-08-20T10:36:34Z</time>
      </trkpt>
      <trkpt lat="42.68694" lon="0.62865">
        <ele>1963</ele>
        <time>2021-08-20T10:36:09Z</time>
      </trkpt>
      <trkpt lat="42.68692" lon="0.62866">
        <ele>1963</ele>
        <time>2021-08-20T10:36:06Z</time>
      </trkpt>
      <trkpt lat="42.6869" lon="0.62866">
        <ele>1962</ele>
        <time>2021-08-20T10:36:03Z</time>
      </trkpt>
      <trkpt lat="42.6869" lon="0.62863">
        <ele>1961</ele>
        <time>2021-08-20T10:36:00Z</time>
      </trkpt>
      <trkpt lat="42.68694" lon="0.62844">
        <ele>1958</ele>
        <time>2021-08-20T10:35:41Z</time>
      </trkpt>
      <trkpt lat="42.68695" lon="0.6284">
        <ele>1958</ele>
        <time>2021-08-20T10:35:37Z</time>
      </trkpt>
      <trkpt lat="42.68694" lon="0.62838">
        <ele>1957</ele>
        <time>2021-08-20T10:35:34Z</time>
      </trkpt>
      <trkpt lat="42.68689" lon="0.62839">
        <ele>1955</ele>
        <time>2021-08-20T10:35:28Z</time>
      </trkpt>
      <trkpt lat="42.68679" lon="0.62849">
        <ele>1953</ele>
        <time>2021-08-20T10:35:11Z</time>
      </trkpt>
      <trkpt lat="42.68672" lon="0.62848">
        <ele>1950</ele>
        <time>2021-08-20T10:35:02Z</time>
      </trkpt>
      <trkpt lat="42.68671" lon="0.62825">
        <ele>1944</ele>
        <time>2021-08-20T10:34:39Z</time>
      </trkpt>
      <trkpt lat="42.68665" lon="0.62811">
        <ele>1938</ele>
        <time>2021-08-20T10:34:23Z</time>
      </trkpt>
      <trkpt lat="42.68666" lon="0.62797">
        <ele>1934</ele>
        <time>2021-08-20T10:34:09Z</time>
      </trkpt>
      <trkpt lat="42.68662" lon="0.62791">
        <ele>1931</ele>
        <time>2021-08-20T10:34:01Z</time>
      </trkpt>
      <trkpt lat="42.6866" lon="0.62781">
        <ele>1928</ele>
        <time>2021-08-20T10:33:51Z</time>
      </trkpt>
      <trkpt lat="42.6864" lon="0.62741">
        <ele>1914</ele>
        <time>2021-08-20T10:33:04Z</time>
      </trkpt>
      <trkpt lat="42.68638" lon="0.62729">
        <ele>1912</ele>
        <time>2021-08-20T10:32:52Z</time>
      </trkpt>
      <trkpt lat="42.68639" lon="0.62715">
        <ele>1911</ele>
        <time>2021-08-20T10:32:38Z</time>
      </trkpt>
      <trkpt lat="42.68632" lon="0.62702">
        <ele>1907</ele>
        <time>2021-08-20T10:32:22Z</time>
      </trkpt>
      <trkpt lat="42.6862" lon="0.62656">
        <ele>1899</ele>
        <time>2021-08-20T10:31:34Z</time>
      </trkpt>
      <trkpt lat="42.68611" lon="0.62632">
        <ele>1893</ele>
        <time>2021-08-20T10:31:08Z</time>
      </trkpt>
      <trkpt lat="42.68608" lon="0.62619">
        <ele>1890</ele>
        <time>2021-08-20T10:30:54Z</time>
      </trkpt>
      <trkpt lat="42.68599" lon="0.62605">
        <ele>1887</ele>
        <time>2021-08-20T10:30:36Z</time>
      </trkpt>
      <trkpt lat="42.68593" lon="0.62589">
        <ele>1883</ele>
        <time>2021-08-20T10:30:19Z</time>
      </trkpt>
      <trkpt lat="42.6857" lon="0.62571">
        <ele>1878</ele>
        <time>2021-08-20T10:29:43Z</time>
      </trkpt>
      <trkpt lat="42.68576" lon="0.62543">
        <ele>1873</ele>
        <time>2021-08-20T10:29:15Z</time>
      </trkpt>
      <trkpt lat="42.6857" lon="0.6247">
        <ele>1863</ele>
        <time>2021-08-20T10:28:03Z</time>
      </trkpt>
      <trkpt lat="42.68578" lon="0.62441">
        <ele>1860</ele>
        <time>2021-08-20T10:27:32Z</time>
      </trkpt>
      <trkpt lat="42.68588" lon="0.62422">
        <ele>1858</ele>
        <time>2021-08-20T10:27:09Z</time>
      </trkpt>
      <trkpt lat="42.68595" lon="0.62395">
        <ele>1853</ele>
        <time>2021-08-20T10:26:41Z</time>
      </trkpt>
      <trkpt lat="42.686" lon="0.6236">
        <ele>1846</ele>
        <time>2021-08-20T10:26:06Z</time>
      </trkpt>
      <trkpt lat="42.686" lon="0.62334">
        <ele>1842</ele>
        <time>2021-08-20T10:25:41Z</time>
      </trkpt>
      <trkpt lat="42.68593" lon="0.62303">
        <ele>1838</ele>
        <time>2021-08-20T10:25:09Z</time>
      </trkpt>
      <trkpt lat="42.68594" lon="0.62291">
        <ele>1837</ele>
        <time>2021-08-20T10:24:57Z</time>
      </trkpt>
      <trkpt lat="42.68589" lon="0.62279">
        <ele>1835</ele>
        <time>2021-08-20T10:24:43Z</time>
      </trkpt>
      <trkpt lat="42.68589" lon="0.6226">
        <ele>1833</ele>
        <time>2021-08-20T10:24:25Z</time>
      </trkpt>
      <trkpt lat="42.68584" lon="0.62223">
        <ele>1827</ele>
        <time>2021-08-20T10:23:48Z</time>
      </trkpt>
      <trkpt lat="42.68575" lon="0.62192">
        <ele>1823</ele>
        <time>2021-08-20T10:23:15Z</time>
      </trkpt>
      <trkpt lat="42.68573" lon="0.62149">
        <ele>1818</ele>
        <time>2021-08-20T10:22:33Z</time>
      </trkpt>
      <trkpt lat="42.6857" lon="0.62132">
        <ele>1817</ele>
        <time>2021-08-20T10:22:16Z</time>
      </trkpt>
      <trkpt lat="42.6856" lon="0.62116">
        <ele>1818</ele>
        <time>2021-08-20T10:21:55Z</time>
      </trkpt>
      <trkpt lat="42.68558" lon="0.62098">
        <ele>1816</ele>
        <time>2021-08-20T10:21:37Z</time>
      </trkpt>
      <trkpt lat="42.68545" lon="0.62077">
        <ele>1817</ele>
        <time>2021-08-20T10:21:10Z</time>
      </trkpt>
      <trkpt lat="42.6853" lon="0.62016">
        <ele>1810</ele>
        <time>2021-08-20T10:20:07Z</time>
      </trkpt>
      <trkpt lat="42.68532" lon="0.61993">
        <ele>1805</ele>
        <time>2021-08-20T10:19:45Z</time>
      </trkpt>
      <trkpt lat="42.68525" lon="0.61978">
        <ele>1804</ele>
        <time>2021-08-20T10:19:27Z</time>
      </trkpt>
      <trkpt lat="42.68525" lon="0.6195">
        <ele>1800</ele>
        <time>2021-08-20T10:19:00Z</time>
      </trkpt>
      <trkpt lat="42.68527" lon="0.61929">
        <ele>1796</ele>
        <time>2021-08-20T10:18:39Z</time>
      </trkpt>
      <trkpt lat="42.6852" lon="0.61901">
        <ele>1791</ele>
        <time>2021-08-20T10:18:10Z</time>
      </trkpt>
      <trkpt lat="42.68523" lon="0.61882">
        <ele>1786</ele>
        <time>2021-08-20T10:17:51Z</time>
      </trkpt>
      <trkpt lat="42.68518" lon="0.61849">
        <ele>1779</ele>
        <time>2021-08-20T10:17:18Z</time>
      </trkpt>
      <trkpt lat="42.68514" lon="0.61827">
        <ele>1774</ele>
        <time>2021-08-20T10:16:56Z</time>
      </trkpt>
      <trkpt lat="42.68516" lon="0.61817">
        <ele>1773</ele>
        <time>2021-08-20T10:16:45Z</time>
      </trkpt>
      <trkpt lat="42.6853" lon="0.61788">
        <ele>1769</ele>
        <time>2021-08-20T10:16:11Z</time>
      </trkpt>
      <trkpt lat="42.68547" lon="0.61766">
        <ele>1766</ele>
        <time>2021-08-20T10:15:40Z</time>
      </trkpt>
      <trkpt lat="42.6855" lon="0.61736">
        <ele>1763</ele>
        <time>2021-08-20T10:15:10Z</time>
      </trkpt>
      <trkpt lat="42.68555" lon="0.61729">
        <ele>1763</ele>
        <time>2021-08-20T10:15:01Z</time>
      </trkpt>
      <trkpt lat="42.68563" lon="0.61725">
        <ele>1763</ele>
        <time>2021-08-20T10:14:49Z</time>
      </trkpt>
      <trkpt lat="42.68562" lon="0.61766">
        <ele>1766</ele>
        <time>2021-08-20T10:14:09Z</time>
      </trkpt>
      <trkpt lat="42.68571" lon="0.61757">
        <ele>1765</ele>
        <time>2021-08-20T10:13:54Z</time>
      </trkpt>
      <trkpt lat="42.6858" lon="0.6172">
        <ele>1762</ele>
        <time>2021-08-20T10:13:16Z</time>
      </trkpt>
      <trkpt lat="42.68586" lon="0.61652">
        <ele>1757</ele>
        <time>2021-08-20T10:12:09Z</time>
      </trkpt>
      <trkpt lat="42.68567" lon="0.61428">
        <ele>1748</ele>
        <time>2021-08-20T10:08:28Z</time>
      </trkpt>
      <trkpt lat="42.68558" lon="0.61364">
        <ele>1748</ele>
        <time>2021-08-20T10:07:24Z</time>
      </trkpt>
      <trkpt lat="42.68554" lon="0.61346">
        <ele>1747</ele>
        <time>2021-08-20T10:07:05Z</time>
      </trkpt>
      <trkpt lat="42.68553" lon="0.61246">
        <ele>1746</ele>
        <time>2021-08-20T10:05:27Z</time>
      </trkpt>
      <trkpt lat="42.6855" lon="0.61223">
        <ele>1746</ele>
        <time>2021-08-20T10:05:04Z</time>
      </trkpt>
      <trkpt lat="42.68545" lon="0.612">
        <ele>1746</ele>
        <time>2021-08-20T10:04:41Z</time>
      </trkpt>
      <trkpt lat="42.68543" lon="0.61177">
        <ele>1745</ele>
        <time>2021-08-20T10:04:18Z</time>
      </trkpt>
      <trkpt lat="42.68543" lon="0.611">
        <ele>1744</ele>
        <time>2021-08-20T10:03:02Z</time>
      </trkpt>
      <trkpt lat="42.6854" lon="0.61088">
        <ele>1744</ele>
        <time>2021-08-20T10:02:50Z</time>
      </trkpt>
      <trkpt lat="42.68508" lon="0.61026">
        <ele>1744</ele>
        <time>2021-08-20T10:01:36Z</time>
      </trkpt>
      <trkpt lat="42.68509" lon="0.61016">
        <ele>1744</ele>
        <time>2021-08-20T10:01:26Z</time>
      </trkpt>
      <trkpt lat="42.68488" lon="0.60902">
        <ele>1746</ele>
        <time>2021-08-20T09:59:31Z</time>
      </trkpt>
      <trkpt lat="42.68479" lon="0.60866">
        <ele>1746</ele>
        <time>2021-08-20T09:58:53Z</time>
      </trkpt>
      <trkpt lat="42.68475" lon="0.6083">
        <ele>1747</ele>
        <time>2021-08-20T09:58:18Z</time>
      </trkpt>
      <trkpt lat="42.68468" lon="0.60806">
        <ele>1746</ele>
        <time>2021-08-20T09:57:52Z</time>
      </trkpt>
      <trkpt lat="42.68458" lon="0.60789">
        <ele>1745</ele>
        <time>2021-08-20T09:57:31Z</time>
      </trkpt>
      <trkpt lat="42.68447" lon="0.60778">
        <ele>1744</ele>
        <time>2021-08-20T09:57:13Z</time>
      </trkpt>
      <trkpt lat="42.68431" lon="0.60774">
        <ele>1743</ele>
        <time>2021-08-20T09:56:51Z</time>
      </trkpt>
      <trkpt lat="42.6841" lon="0.60783">
        <ele>1743</ele>
        <time>2021-08-20T09:56:22Z</time>
      </trkpt>
      <trkpt lat="42.68408" lon="0.60775">
        <ele>1743</ele>
        <time>2021-08-20T09:56:13Z</time>
      </trkpt>
      <trkpt lat="42.68408" lon="0.60761">
        <ele>1742</ele>
        <time>2021-08-20T09:56:00Z</time>
      </trkpt>
      <trkpt lat="42.68403" lon="0.60738">
        <ele>1742</ele>
        <time>2021-08-20T09:55:36Z</time>
      </trkpt>
      <trkpt lat="42.68403" lon="0.60717">
        <ele>1742</ele>
        <time>2021-08-20T09:55:15Z</time>
      </trkpt>
      <trkpt lat="42.68387" lon="0.60667">
        <ele>1743</ele>
        <time>2021-08-20T09:54:22Z</time>
      </trkpt>
      <trkpt lat="42.68379" lon="0.60652">
        <ele>1744</ele>
        <time>2021-08-20T09:54:04Z</time>
      </trkpt>
      <trkpt lat="42.68367" lon="0.60634">
        <ele>1745</ele>
        <time>2021-08-20T09:53:40Z</time>
      </trkpt>
      <trkpt lat="42.6837" lon="0.60629">
        <ele>1746</ele>
        <time>2021-08-20T09:53:34Z</time>
      </trkpt>
      <trkpt lat="42.68372" lon="0.60617">
        <ele>1747</ele>
        <time>2021-08-20T09:53:21Z</time>
      </trkpt>
      <trkpt lat="42.68374" lon="0.60613">
        <ele>1747</ele>
        <time>2021-08-20T09:53:17Z</time>
      </trkpt>
      <trkpt lat="42.68381" lon="0.60563">
        <ele>1752</ele>
        <time>2021-08-20T09:52:27Z</time>
      </trkpt>
      <trkpt lat="42.68393" lon="0.60513">
        <ele>1763</ele>
        <time>2021-08-20T09:51:35Z</time>
      </trkpt>
      <trkpt lat="42.68392" lon="0.60459">
        <ele>1777</ele>
        <time>2021-08-20T09:50:42Z</time>
      </trkpt>
      <trkpt lat="42.68387" lon="0.60416">
        <ele>1788</ele>
        <time>2021-08-20T09:50:00Z</time>
      </trkpt>
      <trkpt lat="42.68366" lon="0.60394">
        <ele>1791</ele>
        <time>2021-08-20T09:49:24Z</time>
      </trkpt>
      <trkpt lat="42.68327" lon="0.6034">
        <ele>1807</ele>
        <time>2021-08-20T09:48:10Z</time>
      </trkpt>
      <trkpt lat="42.68312" lon="0.60322">
        <ele>1809</ele>
        <time>2021-08-20T09:47:43Z</time>
      </trkpt>
      <trkpt lat="42.68296" lon="0.60308">
        <ele>1808</ele>
        <time>2021-08-20T09:47:18Z</time>
      </trkpt>
      <trkpt lat="42.68235" lon="0.60267">
        <ele>1802</ele>
        <time>2021-08-20T09:45:47Z</time>
      </trkpt>
      <trkpt lat="42.68203" lon="0.60256">
        <ele>1802</ele>
        <time>2021-08-20T09:45:03Z</time>
      </trkpt>
      <trkpt lat="42.682" lon="0.60228">
        <ele>1810</ele>
        <time>2021-08-20T09:44:35Z</time>
      </trkpt>
      <trkpt lat="42.68197" lon="0.60114">
        <ele>1834</ele>
        <time>2021-08-20T09:42:43Z</time>
      </trkpt>
      <trkpt lat="42.68241" lon="0.60056">
        <ele>1843</ele>
        <time>2021-08-20T09:41:22Z</time>
      </trkpt>
      <trkpt lat="42.68244" lon="0.59988">
        <ele>1849</ele>
        <time>2021-08-20T09:40:15Z</time>
      </trkpt>
      <trkpt lat="42.68231" lon="0.59927">
        <ele>1853</ele>
        <time>2021-08-20T09:39:12Z</time>
      </trkpt>
      <trkpt lat="42.68234" lon="0.59788">
        <ele>1857</ele>
        <time>2021-08-20T09:36:56Z</time>
      </trkpt>
      <trkpt lat="42.68245" lon="0.59717">
        <ele>1862</ele>
        <time>2021-08-20T09:35:45Z</time>
      </trkpt>
      <trkpt lat="42.68268" lon="0.59662">
        <ele>1873</ele>
        <time>2021-08-20T09:34:43Z</time>
      </trkpt>
      <trkpt lat="42.6828" lon="0.5959">
        <ele>1878</ele>
        <time>2021-08-20T09:33:30Z</time>
      </trkpt>
      <trkpt lat="42.68284" lon="0.59402">
        <ele>1895</ele>
        <time>2021-08-20T09:30:26Z</time>
      </trkpt>
      <trkpt lat="42.68302" lon="0.59336">
        <ele>1906</ele>
        <time>2021-08-20T09:29:17Z</time>
      </trkpt>
      <trkpt lat="42.68323" lon="0.59225">
        <ele>1919</ele>
        <time>2021-08-20T09:27:24Z</time>
      </trkpt>
      <trkpt lat="42.68326" lon="0.59201">
        <ele>1920</ele>
        <time>2021-08-20T09:27:00Z</time>
      </trkpt>
      <trkpt lat="42.68335" lon="0.59151">
        <ele>1924</ele>
        <time>2021-08-20T09:26:10Z</time>
      </trkpt>
      <trkpt lat="42.68349" lon="0.59136">
        <ele>1933</ele>
        <time>2021-08-20T09:25:46Z</time>
      </trkpt>
      <trkpt lat="42.68352" lon="0.59108">
        <ele>1939</ele>
        <time>2021-08-20T09:25:18Z</time>
      </trkpt>
      <trkpt lat="42.6836" lon="0.5909">
        <ele>1945</ele>
        <time>2021-08-20T09:24:58Z</time>
      </trkpt>
      <trkpt lat="42.68361" lon="0.59072">
        <ele>1947</ele>
        <time>2021-08-20T09:24:40Z</time>
      </trkpt>
      <trkpt lat="42.68355" lon="0.5905">
        <ele>1946</ele>
        <time>2021-08-20T09:24:17Z</time>
      </trkpt>
      <trkpt lat="42.68369" lon="0.59007">
        <ele>1954</ele>
        <time>2021-08-20T09:23:31Z</time>
      </trkpt>
      <trkpt lat="42.68394" lon="0.5896">
        <ele>1965</ele>
        <time>2021-08-20T09:22:34Z</time>
      </trkpt>
      <trkpt lat="42.6841" lon="0.58911">
        <ele>1970</ele>
        <time>2021-08-20T09:21:41Z</time>
      </trkpt>
      <trkpt lat="42.68433" lon="0.58819">
        <ele>2007</ele>
        <time>2021-08-20T09:20:06Z</time>
      </trkpt>
      <trkpt lat="42.68425" lon="0.58774">
        <ele>2014</ele>
        <time>2021-08-20T09:19:21Z</time>
      </trkpt>
      <trkpt lat="42.68444" lon="0.58721">
        <ele>2035</ele>
        <time>2021-08-20T09:18:23Z</time>
      </trkpt>
      <trkpt lat="42.68453" lon="0.58669">
        <ele>2045</ele>
        <time>2021-08-20T09:17:30Z</time>
      </trkpt>
      <trkpt lat="42.68462" lon="0.58642">
        <ele>2050</ele>
        <time>2021-08-20T09:17:01Z</time>
      </trkpt>
      <trkpt lat="42.68472" lon="0.58617">
        <ele>2054</ele>
        <time>2021-08-20T09:16:33Z</time>
      </trkpt>
      <trkpt lat="42.68472" lon="0.58532">
        <ele>2058</ele>
        <time>2021-08-20T09:15:10Z</time>
      </trkpt>
      <trkpt lat="42.68469" lon="0.58474">
        <ele>2058</ele>
        <time>2021-08-20T09:14:13Z</time>
      </trkpt>
      <trkpt lat="42.68478" lon="0.5845">
        <ele>2056</ele>
        <time>2021-08-20T09:13:47Z</time>
      </trkpt>
      <trkpt lat="42.68492" lon="0.58424">
        <ele>2052</ele>
        <time>2021-08-20T09:13:15Z</time>
      </trkpt>
      <trkpt lat="42.68499" lon="0.58388">
        <ele>2051</ele>
        <time>2021-08-20T09:12:38Z</time>
      </trkpt>
      <trkpt lat="42.6851" lon="0.5836">
        <ele>2060</ele>
        <time>2021-08-20T09:12:07Z</time>
      </trkpt>
      <trkpt lat="42.68522" lon="0.58315">
        <ele>2071</ele>
        <time>2021-08-20T09:11:20Z</time>
      </trkpt>
      <trkpt lat="42.68535" lon="0.58291">
        <ele>2080</ele>
        <time>2021-08-20T09:10:51Z</time>
      </trkpt>
      <trkpt lat="42.68532" lon="0.58288">
        <ele>2078</ele>
        <time>2021-08-20T09:10:46Z</time>
      </trkpt>
      <trkpt lat="42.68528" lon="0.58281">
        <ele>2076</ele>
        <time>2021-08-20T09:10:37Z</time>
      </trkpt>
      <trkpt lat="42.68529" lon="0.58275">
        <ele>2076</ele>
        <time>2021-08-20T09:10:31Z</time>
      </trkpt>
      <trkpt lat="42.68524" lon="0.58257">
        <ele>2074</ele>
        <time>2021-08-20T09:10:12Z</time>
      </trkpt>
      <trkpt lat="42.68526" lon="0.58236">
        <ele>2074</ele>
        <time>2021-08-20T09:09:52Z</time>
      </trkpt>
      <trkpt lat="42.6852" lon="0.58219">
        <ele>2071</ele>
        <time>2021-08-20T09:09:33Z</time>
      </trkpt>
      <trkpt lat="42.68516" lon="0.58197">
        <ele>2068</ele>
        <time>2021-08-20T09:09:11Z</time>
      </trkpt>
      <trkpt lat="42.68522" lon="0.58097">
        <ele>2068</ele>
        <time>2021-08-20T09:07:33Z</time>
      </trkpt>
      <trkpt lat="42.68515" lon="0.58057">
        <ele>2072</ele>
        <time>2021-08-20T09:06:52Z</time>
      </trkpt>
      <trkpt lat="42.68514" lon="0.58029">
        <ele>2077</ele>
        <time>2021-08-20T09:06:25Z</time>
      </trkpt>
      <trkpt lat="42.68512" lon="0.58019">
        <ele>2079</ele>
        <time>2021-08-20T09:06:15Z</time>
      </trkpt>
      <trkpt lat="42.6849" lon="0.57985">
        <ele>2096</ele>
        <time>2021-08-20T09:05:30Z</time>
      </trkpt>
      <trkpt lat="42.68487" lon="0.57973">
        <ele>2101</ele>
        <time>2021-08-20T09:05:18Z</time>
      </trkpt>
      <trkpt lat="42.68486" lon="0.57958">
        <ele>2106</ele>
        <time>2021-08-20T09:05:03Z</time>
      </trkpt>
      <trkpt lat="42.68492" lon="0.57936">
        <ele>2107</ele>
        <time>2021-08-20T09:04:40Z</time>
      </trkpt>
      <trkpt lat="42.685" lon="0.57895">
        <ele>2110</ele>
        <time>2021-08-20T09:03:58Z</time>
      </trkpt>
      <trkpt lat="42.68501" lon="0.57886">
        <ele>2112</ele>
        <time>2021-08-20T09:03:49Z</time>
      </trkpt>
      <trkpt lat="42.68491" lon="0.57828">
        <ele>2124</ele>
        <time>2021-08-20T09:02:51Z</time>
      </trkpt>
      <trkpt lat="42.68491" lon="0.578">
        <ele>2128</ele>
        <time>2021-08-20T09:02:23Z</time>
      </trkpt>
      <trkpt lat="42.68497" lon="0.57761">
        <ele>2132</ele>
        <time>2021-08-20T09:01:44Z</time>
      </trkpt>
      <trkpt lat="42.68495" lon="0.57751">
        <ele>2135</ele>
        <time>2021-08-20T09:01:34Z</time>
      </trkpt>
      <trkpt lat="42.68498" lon="0.57726">
        <ele>2137</ele>
        <time>2021-08-20T09:01:09Z</time>
      </trkpt>
      <trkpt lat="42.68499" lon="0.57688">
        <ele>2142</ele>
        <time>2021-08-20T09:00:32Z</time>
      </trkpt>
      <trkpt lat="42.68504" lon="0.57676">
        <ele>2143</ele>
        <time>2021-08-20T09:00:19Z</time>
      </trkpt>
      <trkpt lat="42.68513" lon="0.57636">
        <ele>2154</ele>
        <time>2021-08-20T08:59:37Z</time>
      </trkpt>
      <trkpt lat="42.68514" lon="0.57625">
        <ele>2156</ele>
        <time>2021-08-20T08:59:27Z</time>
      </trkpt>
      <trkpt lat="42.68517" lon="0.5761">
        <ele>2160</ele>
        <time>2021-08-20T08:59:11Z</time>
      </trkpt>
      <trkpt lat="42.68514" lon="0.57583">
        <ele>2166</ele>
        <time>2021-08-20T08:58:45Z</time>
      </trkpt>
      <trkpt lat="42.68519" lon="0.5755">
        <ele>2174</ele>
        <time>2021-08-20T08:58:12Z</time>
      </trkpt>
      <trkpt lat="42.68507" lon="0.57491">
        <ele>2188</ele>
        <time>2021-08-20T08:57:11Z</time>
      </trkpt>
      <trkpt lat="42.6851" lon="0.57437">
        <ele>2202</ele>
        <time>2021-08-20T08:56:18Z</time>
      </trkpt>
      <trkpt lat="42.68513" lon="0.57411">
        <ele>2208</ele>
        <time>2021-08-20T08:55:53Z</time>
      </trkpt>
      <trkpt lat="42.68514" lon="0.57376">
        <ele>2213</ele>
        <time>2021-08-20T08:55:18Z</time>
      </trkpt>
      <trkpt lat="42.68515" lon="0.57366">
        <ele>2214</ele>
        <time>2021-08-20T08:55:08Z</time>
      </trkpt>
      <trkpt lat="42.6851" lon="0.57354">
        <ele>2216</ele>
        <time>2021-08-20T08:54:55Z</time>
      </trkpt>
      <trkpt lat="42.68503" lon="0.5731">
        <ele>2218</ele>
        <time>2021-08-20T08:54:11Z</time>
      </trkpt>
      <trkpt lat="42.68502" lon="0.57297">
        <ele>2218</ele>
        <time>2021-08-20T08:53:58Z</time>
      </trkpt>
      <trkpt lat="42.68504" lon="0.57288">
        <ele>2218</ele>
        <time>2021-08-20T08:53:49Z</time>
      </trkpt>
      <trkpt lat="42.6851" lon="0.57278">
        <ele>2219</ele>
        <time>2021-08-20T08:53:36Z</time>
      </trkpt>
      <trkpt lat="42.68513" lon="0.57272">
        <ele>2219</ele>
        <time>2021-08-20T08:53:29Z</time>
      </trkpt>
      <trkpt lat="42.68523" lon="0.5727">
        <ele>2220</ele>
        <time>2021-08-20T08:53:15Z</time>
      </trkpt>
      <trkpt lat="42.6853" lon="0.57273">
        <ele>2221</ele>
        <time>2021-08-20T08:53:05Z</time>
      </trkpt>
      <trkpt lat="42.68536" lon="0.57278">
        <ele>2221</ele>
        <time>2021-08-20T08:52:56Z</time>
      </trkpt>
      <trkpt lat="42.68543" lon="0.57266">
        <ele>2223</ele>
        <time>2021-08-20T08:52:41Z</time>
      </trkpt>
      <trkpt lat="42.6856" lon="0.57215">
        <ele>2225</ele>
        <time>2021-08-20T08:51:46Z</time>
      </trkpt>
      <trkpt lat="42.68561" lon="0.57206">
        <ele>2225</ele>
        <time>2021-08-20T08:51:37Z</time>
      </trkpt>
      <trkpt lat="42.68564" lon="0.57199">
        <ele>2225</ele>
        <time>2021-08-20T08:51:29Z</time>
      </trkpt>
      <trkpt lat="42.68564" lon="0.57191">
        <ele>2225</ele>
        <time>2021-08-20T08:51:21Z</time>
      </trkpt>
      <trkpt lat="42.68568" lon="0.57186">
        <ele>2225</ele>
        <time>2021-08-20T08:51:14Z</time>
      </trkpt>
      <trkpt lat="42.68577" lon="0.57165">
        <ele>2225</ele>
        <time>2021-08-20T08:50:50Z</time>
      </trkpt>
      <trkpt lat="42.6859" lon="0.57142">
        <ele>2225</ele>
        <time>2021-08-20T08:50:22Z</time>
      </trkpt>
      <trkpt lat="42.686" lon="0.57115">
        <ele>2224</ele>
        <time>2021-08-20T08:49:52Z</time>
      </trkpt>
      <trkpt lat="42.68606" lon="0.57104">
        <ele>2224</ele>
        <time>2021-08-20T08:49:39Z</time>
      </trkpt>
      <trkpt lat="42.68619" lon="0.57067">
        <ele>2226</ele>
        <time>2021-08-20T08:48:59Z</time>
      </trkpt>
      <trkpt lat="42.68629" lon="0.57032">
        <ele>2230</ele>
        <time>2021-08-20T08:48:22Z</time>
      </trkpt>
      <trkpt lat="42.6863" lon="0.57024">
        <ele>2231</ele>
        <time>2021-08-20T08:48:14Z</time>
      </trkpt>
      <trkpt lat="42.68631" lon="0.57007">
        <ele>2234</ele>
        <time>2021-08-20T08:47:57Z</time>
      </trkpt>
      <trkpt lat="42.68628" lon="0.56991">
        <ele>2236</ele>
        <time>2021-08-20T08:47:41Z</time>
      </trkpt>
      <trkpt lat="42.68626" lon="0.56984">
        <ele>2238</ele>
        <time>2021-08-20T08:47:33Z</time>
      </trkpt>
      <trkpt lat="42.68624" lon="0.56963">
        <ele>2241</ele>
        <time>2021-08-20T08:47:13Z</time>
      </trkpt>
      <trkpt lat="42.68624" lon="0.56954">
        <ele>2242</ele>
        <time>2021-08-20T08:47:04Z</time>
      </trkpt>
      <trkpt lat="42.6862" lon="0.56925">
        <ele>2247</ele>
        <time>2021-08-20T08:46:35Z</time>
      </trkpt>
      <trkpt lat="42.68619" lon="0.56907">
        <ele>2250</ele>
        <time>2021-08-20T08:46:17Z</time>
      </trkpt>
      <trkpt lat="42.68621" lon="0.569">
        <ele>2251</ele>
        <time>2021-08-20T08:46:10Z</time>
      </trkpt>
      <trkpt lat="42.68625" lon="0.56896">
        <ele>2252</ele>
        <time>2021-08-20T08:46:03Z</time>
      </trkpt>
      <trkpt lat="42.68637" lon="0.56892">
        <ele>2251</ele>
        <time>2021-08-20T08:45:47Z</time>
      </trkpt>
      <trkpt lat="42.6864" lon="0.56888">
        <ele>2252</ele>
        <time>2021-08-20T08:45:41Z</time>
      </trkpt>
      <trkpt lat="42.68646" lon="0.56861">
        <ele>2254</ele>
        <time>2021-08-20T08:45:13Z</time>
      </trkpt>
      <trkpt lat="42.68644" lon="0.56841">
        <ele>2257</ele>
        <time>2021-08-20T08:44:54Z</time>
      </trkpt>
      <trkpt lat="42.68635" lon="0.56803">
        <ele>2262</ele>
        <time>2021-08-20T08:44:14Z</time>
      </trkpt>
      <trkpt lat="42.68635" lon="0.56773">
        <ele>2265</ele>
        <time>2021-08-20T08:43:45Z</time>
      </trkpt>
      <trkpt lat="42.68638" lon="0.5676">
        <ele>2265</ele>
        <time>2021-08-20T08:43:32Z</time>
      </trkpt>
      <trkpt lat="42.68643" lon="0.56747">
        <ele>2265</ele>
        <time>2021-08-20T08:43:17Z</time>
      </trkpt>
      <trkpt lat="42.68651" lon="0.56683">
        <ele>2264</ele>
        <time>2021-08-20T08:42:14Z</time>
      </trkpt>
      <trkpt lat="42.68666" lon="0.56652">
        <ele>2258</ele>
        <time>2021-08-20T08:41:37Z</time>
      </trkpt>
      <trkpt lat="42.68665" lon="0.56602">
        <ele>2256</ele>
        <time>2021-08-20T08:40:48Z</time>
      </trkpt>
      <trkpt lat="42.68682" lon="0.56584">
        <ele>2250</ele>
        <time>2021-08-20T08:40:19Z</time>
      </trkpt>
      <trkpt lat="42.68691" lon="0.56582">
        <ele>2247</ele>
        <time>2021-08-20T08:40:07Z</time>
      </trkpt>
      <trkpt lat="42.68705" lon="0.56591">
        <ele>2244</ele>
        <time>2021-08-20T08:39:47Z</time>
      </trkpt>
      <trkpt lat="42.68716" lon="0.56567">
        <ele>2241</ele>
        <time>2021-08-20T08:39:19Z</time>
      </trkpt>
      <trkpt lat="42.68731" lon="0.56565">
        <ele>2237</ele>
        <time>2021-08-20T08:38:59Z</time>
      </trkpt>
      <trkpt lat="42.68736" lon="0.56559">
        <ele>2236</ele>
        <time>2021-08-20T08:38:50Z</time>
      </trkpt>
      <trkpt lat="42.68741" lon="0.5655">
        <ele>2236</ele>
        <time>2021-08-20T08:38:39Z</time>
      </trkpt>
      <trkpt lat="42.68772" lon="0.56548">
        <ele>2231</ele>
        <time>2021-08-20T08:37:57Z</time>
      </trkpt>
      <trkpt lat="42.6879" lon="0.56526">
        <ele>2231</ele>
        <time>2021-08-20T08:37:25Z</time>
      </trkpt>
      <trkpt lat="42.68801" lon="0.56517">
        <ele>2230</ele>
        <time>2021-08-20T08:37:08Z</time>
      </trkpt>
      <trkpt lat="42.68799" lon="0.56509">
        <ele>2231</ele>
        <time>2021-08-20T08:37:00Z</time>
      </trkpt>
      <trkpt lat="42.68794" lon="0.56502">
        <ele>2233</ele>
        <time>2021-08-20T08:36:50Z</time>
      </trkpt>
      <trkpt lat="42.68794" lon="0.56494">
        <ele>2233</ele>
        <time>2021-08-20T08:36:42Z</time>
      </trkpt>
      <trkpt lat="42.68797" lon="0.56484">
        <ele>2234</ele>
        <time>2021-08-20T08:36:32Z</time>
      </trkpt>
      <trkpt lat="42.688" lon="0.56463">
        <ele>2236</ele>
        <time>2021-08-20T08:36:11Z</time>
      </trkpt>
      <trkpt lat="42.68814" lon="0.5643">
        <ele>2238</ele>
        <time>2021-08-20T08:35:33Z</time>
      </trkpt>
      <trkpt lat="42.68824" lon="0.56415">
        <ele>2240</ele>
        <time>2021-08-20T08:35:13Z</time>
      </trkpt>
      <trkpt lat="42.68829" lon="0.5638">
        <ele>2245</ele>
        <time>2021-08-20T08:34:38Z</time>
      </trkpt>
      <trkpt lat="42.68835" lon="0.56367">
        <ele>2248</ele>
        <time>2021-08-20T08:34:23Z</time>
      </trkpt>
      <trkpt lat="42.68837" lon="0.56358">
        <ele>2250</ele>
        <time>2021-08-20T08:34:14Z</time>
      </trkpt>
      <trkpt lat="42.68843" lon="0.56348">
        <ele>2255</ele>
        <time>2021-08-20T08:34:01Z</time>
      </trkpt>
      <trkpt lat="42.68845" lon="0.56331">
        <ele>2259</ele>
        <time>2021-08-20T08:33:45Z</time>
      </trkpt>
      <trkpt lat="42.68844" lon="0.56318">
        <ele>2260</ele>
        <time>2021-08-20T08:33:32Z</time>
      </trkpt>
      <trkpt lat="42.6884" lon="0.56316">
        <ele>2259</ele>
        <time>2021-08-20T08:33:26Z</time>
      </trkpt>
      <trkpt lat="42.68839" lon="0.56313">
        <ele>2259</ele>
        <time>2021-08-20T08:33:23Z</time>
      </trkpt>
      <trkpt lat="42.68843" lon="0.56298">
        <ele>2263</ele>
        <time>2021-08-20T08:33:07Z</time>
      </trkpt>
      <trkpt lat="42.68852" lon="0.56284">
        <ele>2270</ele>
        <time>2021-08-20T08:32:49Z</time>
      </trkpt>
      <trkpt lat="42.68863" lon="0.56245">
        <ele>2281</ele>
        <time>2021-08-20T08:32:08Z</time>
      </trkpt>
      <trkpt lat="42.68868" lon="0.56212">
        <ele>2287</ele>
        <time>2021-08-20T08:31:35Z</time>
      </trkpt>
      <trkpt lat="42.68871" lon="0.56209">
        <ele>2289</ele>
        <time>2021-08-20T08:31:30Z</time>
      </trkpt>
      <trkpt lat="42.68874" lon="0.562">
        <ele>2290</ele>
        <time>2021-08-20T08:31:20Z</time>
      </trkpt>
      <trkpt lat="42.68874" lon="0.56188">
        <ele>2292</ele>
        <time>2021-08-20T08:31:08Z</time>
      </trkpt>
      <trkpt lat="42.68877" lon="0.56183">
        <ele>2293</ele>
        <time>2021-08-20T08:31:02Z</time>
      </trkpt>
      <trkpt lat="42.6888" lon="0.56184">
        <ele>2293</ele>
        <time>2021-08-20T08:30:58Z</time>
      </trkpt>
      <trkpt lat="42.68883" lon="0.56174">
        <ele>2294</ele>
        <time>2021-08-20T08:30:47Z</time>
      </trkpt>
      <trkpt lat="42.68885" lon="0.56174">
        <ele>2295</ele>
        <time>2021-08-20T08:30:45Z</time>
      </trkpt>
      <trkpt lat="42.68895" lon="0.56184">
        <ele>2296</ele>
        <time>2021-08-20T08:30:28Z</time>
      </trkpt>
      <trkpt lat="42.68911" lon="0.56147">
        <ele>2301</ele>
        <time>2021-08-20T08:29:46Z</time>
      </trkpt>
      <trkpt lat="42.6893" lon="0.56076">
        <ele>2319</ele>
        <time>2021-08-20T08:28:32Z</time>
      </trkpt>
      <trkpt lat="42.68944" lon="0.56">
        <ele>2336</ele>
        <time>2021-08-20T08:27:15Z</time>
      </trkpt>
      <trkpt lat="42.68959" lon="0.55953">
        <ele>2346</ele>
        <time>2021-08-20T08:26:25Z</time>
      </trkpt>
      <trkpt lat="42.68974" lon="0.55897">
        <ele>2353</ele>
        <time>2021-08-20T08:25:26Z</time>
      </trkpt>
      <trkpt lat="42.68992" lon="0.55772">
        <ele>2364</ele>
        <time>2021-08-20T08:23:21Z</time>
      </trkpt>
      <trkpt lat="42.69008" lon="0.55697">
        <ele>2373</ele>
        <time>2021-08-20T08:22:05Z</time>
      </trkpt>
      <trkpt lat="42.69011" lon="0.55672">
        <ele>2377</ele>
        <time>2021-08-20T08:21:40Z</time>
      </trkpt>
      <trkpt lat="42.69026" lon="0.55592">
        <ele>2386</ele>
        <time>2021-08-20T08:20:19Z</time>
      </trkpt>
      <trkpt lat="42.69027" lon="0.55555">
        <ele>2388</ele>
        <time>2021-08-20T08:19:43Z</time>
      </trkpt>
      <trkpt lat="42.69022" lon="0.55539">
        <ele>2389</ele>
        <time>2021-08-20T08:19:26Z</time>
      </trkpt>
      <trkpt lat="42.69013" lon="0.55514">
        <ele>2391</ele>
        <time>2021-08-20T08:18:58Z</time>
      </trkpt>
      <trkpt lat="42.69012" lon="0.55488">
        <ele>2394</ele>
        <time>2021-08-20T08:18:33Z</time>
      </trkpt>
      <trkpt lat="42.69009" lon="0.55476">
        <ele>2395</ele>
        <time>2021-08-20T08:18:20Z</time>
      </trkpt>
      <trkpt lat="42.69007" lon="0.55473">
        <ele>2395</ele>
        <time>2021-08-20T08:18:16Z</time>
      </trkpt>
      <trkpt lat="42.69002" lon="0.55474">
        <ele>2396</ele>
        <time>2021-08-20T08:18:10Z</time>
      </trkpt>
      <trkpt lat="42.68995" lon="0.55458">
        <ele>2400</ele>
        <time>2021-08-20T08:17:51Z</time>
      </trkpt>
      <trkpt lat="42.68988" lon="0.55396">
        <ele>2411</ele>
        <time>2021-08-20T08:16:50Z</time>
      </trkpt>
      <trkpt lat="42.68987" lon="0.55353">
        <ele>2418</ele>
        <time>2021-08-20T08:16:08Z</time>
      </trkpt>
      <trkpt lat="42.68985" lon="0.55346">
        <ele>2420</ele>
        <time>2021-08-20T08:16:00Z</time>
      </trkpt>
      <trkpt lat="42.6899" lon="0.55334">
        <ele>2420</ele>
        <time>2021-08-20T08:15:47Z</time>
      </trkpt>
      <trkpt lat="42.68988" lon="0.55324">
        <ele>2423</ele>
        <time>2021-08-20T08:15:37Z</time>
      </trkpt>
      <trkpt lat="42.68978" lon="0.553">
        <ele>2432</ele>
        <time>2021-08-20T08:15:10Z</time>
      </trkpt>
      <trkpt lat="42.68962" lon="0.55209">
        <ele>2456</ele>
        <time>2021-08-20T08:13:38Z</time>
      </trkpt>
      <trkpt lat="42.68966" lon="0.55182">
        <ele>2459</ele>
        <time>2021-08-20T08:13:11Z</time>
      </trkpt>
      <trkpt lat="42.68965" lon="0.55139">
        <ele>2463</ele>
        <time>2021-08-20T08:12:29Z</time>
      </trkpt>
      <trkpt lat="42.68966" lon="0.55123">
        <ele>2463</ele>
        <time>2021-08-20T08:12:13Z</time>
      </trkpt>
      <trkpt lat="42.68963" lon="0.55117">
        <ele>2464</ele>
        <time>2021-08-20T08:12:06Z</time>
      </trkpt>
      <trkpt lat="42.68946" lon="0.55103">
        <ele>2471</ele>
        <time>2021-08-20T08:11:39Z</time>
      </trkpt>
      <trkpt lat="42.68928" lon="0.55067">
        <ele>2477</ele>
        <time>2021-08-20T08:10:56Z</time>
      </trkpt>
      <trkpt lat="42.68908" lon="0.55073">
        <ele>2487</ele>
        <time>2021-08-20T08:10:29Z</time>
      </trkpt>
      <trkpt lat="42.68898" lon="0.55049">
        <ele>2495</ele>
        <time>2021-08-20T08:10:02Z</time>
      </trkpt>
      <trkpt lat="42.68902" lon="0.55012">
        <ele>2493</ele>
        <time>2021-08-20T08:09:25Z</time>
      </trkpt>
      <trkpt lat="42.68905" lon="0.55009">
        <ele>2491</ele>
        <time>2021-08-20T08:09:20Z</time>
      </trkpt>
      <trkpt lat="42.68906" lon="0.55002">
        <ele>2490</ele>
        <time>2021-08-20T08:09:13Z</time>
      </trkpt>
      <trkpt lat="42.68901" lon="0.54997">
        <ele>2494</ele>
        <time>2021-08-20T08:09:05Z</time>
      </trkpt>
      <trkpt lat="42.68897" lon="0.54986">
        <ele>2496</ele>
        <time>2021-08-20T08:08:53Z</time>
      </trkpt>
      <trkpt lat="42.6889" lon="0.54979">
        <ele>2501</ele>
        <time>2021-08-20T08:08:42Z</time>
      </trkpt>
      <trkpt lat="42.68887" lon="0.5497">
        <ele>2503</ele>
        <time>2021-08-20T08:08:32Z</time>
      </trkpt>
      <trkpt lat="42.68882" lon="0.54964">
        <ele>2507</ele>
        <time>2021-08-20T08:08:23Z</time>
      </trkpt>
      <trkpt lat="42.68868" lon="0.54962">
        <ele>2517</ele>
        <time>2021-08-20T08:08:04Z</time>
      </trkpt>
      <trkpt lat="42.68827" lon="0.54946">
        <ele>2547</ele>
        <time>2021-08-20T08:07:07Z</time>
      </trkpt>
      <trkpt lat="42.68787" lon="0.54929">
        <ele>2569</ele>
        <time>2021-08-20T08:06:11Z</time>
      </trkpt>
      <trkpt lat="42.68769" lon="0.54932">
        <ele>2578</ele>
        <time>2021-08-20T08:05:47Z</time>
      </trkpt>
      <trkpt lat="42.68755" lon="0.5494">
        <ele>2585</ele>
        <time>2021-08-20T08:05:27Z</time>
      </trkpt>
      <trkpt lat="42.68746" lon="0.5487">
        <ele>2594</ele>
        <time>2021-08-20T08:04:17Z</time>
      </trkpt>
      <trkpt lat="42.68747" lon="0.54844">
        <ele>2598</ele>
        <time>2021-08-20T08:03:52Z</time>
      </trkpt>
      <trkpt lat="42.68754" lon="0.54827">
        <ele>2600</ele>
        <time>2021-08-20T08:03:32Z</time>
      </trkpt>
      <trkpt lat="42.68757" lon="0.54804">
        <ele>2606</ele>
        <time>2021-08-20T08:03:10Z</time>
      </trkpt>
      <trkpt lat="42.68739" lon="0.54761">
        <ele>2621</ele>
        <time>2021-08-20T08:02:21Z</time>
      </trkpt>
      <trkpt lat="42.68724" lon="0.54731">
        <ele>2633</ele>
        <time>2021-08-20T08:01:45Z</time>
      </trkpt>
      <trkpt lat="42.68717" lon="0.54714">
        <ele>2639</ele>
        <time>2021-08-20T08:01:26Z</time>
      </trkpt>
      <trkpt lat="42.68723" lon="0.54688">
        <ele>2649</ele>
        <time>2021-08-20T08:01:00Z</time>
      </trkpt>
      <trkpt lat="42.6871" lon="0.54671">
        <ele>2656</ele>
        <time>2021-08-20T08:00:36Z</time>
      </trkpt>
      <trkpt lat="42.68701" lon="0.54656">
        <ele>2661</ele>
        <time>2021-08-20T08:00:17Z</time>
      </trkpt>
      <trkpt lat="42.68707" lon="0.54642">
        <ele>2666</ele>
        <time>2021-08-20T08:00:01Z</time>
      </trkpt>
      <trkpt lat="42.68721" lon="0.54624">
        <ele>2672</ele>
        <time>2021-08-20T07:59:35Z</time>
      </trkpt>
      <trkpt lat="42.68722" lon="0.54587">
        <ele>2684</ele>
        <time>2021-08-20T07:58:59Z</time>
      </trkpt>
      <trkpt lat="42.68733" lon="0.5456">
        <ele>2692</ele>
        <time>2021-08-20T07:58:28Z</time>
      </trkpt>
      <trkpt lat="42.68738" lon="0.54537">
        <ele>2698</ele>
        <time>2021-08-20T07:58:05Z</time>
      </trkpt>
      <trkpt lat="42.68743" lon="0.54527">
        <ele>2701</ele>
        <time>2021-08-20T07:57:53Z</time>
      </trkpt>
      <trkpt lat="42.68742" lon="0.54502">
        <ele>2707</ele>
        <time>2021-08-20T07:57:28Z</time>
      </trkpt>
      <trkpt lat="42.68749" lon="0.54466">
        <ele>2716</ele>
        <time>2021-08-20T07:56:52Z</time>
      </trkpt>
      <trkpt lat="42.68764" lon="0.54405">
        <ele>2735</ele>
        <time>2021-08-20T07:55:49Z</time>
      </trkpt>
      <trkpt lat="42.68771" lon="0.54393">
        <ele>2741</ele>
        <time>2021-08-20T07:55:34Z</time>
      </trkpt>
      <trkpt lat="42.68785" lon="0.54378">
        <ele>2749</ele>
        <time>2021-08-20T07:55:10Z</time>
      </trkpt>
      <trkpt lat="42.68788" lon="0.54357">
        <ele>2756</ele>
        <time>2021-08-20T07:54:49Z</time>
      </trkpt>
      <trkpt lat="42.68836" lon="0.54255">
        <ele>2778</ele>
        <time>2021-08-20T07:52:50Z</time>
      </trkpt>
      <trkpt lat="42.68892" lon="0.54189">
        <ele>2784</ele>
        <time>2021-08-20T07:51:11Z</time>
      </trkpt>
      <trkpt lat="42.68902" lon="0.54162">
        <ele>2790</ele>
        <time>2021-08-20T07:50:42Z</time>
      </trkpt>
      <trkpt lat="42.68919" lon="0.54141">
        <ele>2796</ele>
        <time>2021-08-20T07:50:11Z</time>
      </trkpt>
      <trkpt lat="42.68923" lon="0.54117">
        <ele>2802</ele>
        <time>2021-08-20T07:49:47Z</time>
      </trkpt>
      <trkpt lat="42.68965" lon="0.54076">
        <ele>2809</ele>
        <time>2021-08-20T07:48:38Z</time>
      </trkpt>
      <trkpt lat="42.68972" lon="0.54036">
        <ele>2818</ele>
        <time>2021-08-20T07:47:58Z</time>
      </trkpt>
      <trkpt lat="42.68988" lon="0.54008">
        <ele>2824</ele>
        <time>2021-08-20T07:47:23Z</time>
      </trkpt>
      <trkpt lat="42.69017" lon="0.53975">
        <ele>2827</ele>
        <time>2021-08-20T07:46:32Z</time>
      </trkpt>
      <trkpt lat="42.69017" lon="0.5396">
        <ele>2827</ele>
        <time>2021-08-20T07:46:18Z</time>
      </trkpt>
      <trkpt lat="42.69014" lon="0.53903">
        <ele>2827</ele>
        <time>2021-08-20T07:45:22Z</time>
      </trkpt>
      <trkpt lat="42.69018" lon="0.53889">
        <ele>2826</ele>
        <time>2021-08-20T07:45:07Z</time>
      </trkpt>
      <trkpt lat="42.69026" lon="0.53886">
        <ele>2826</ele>
        <time>2021-08-20T07:44:56Z</time>
      </trkpt>
      <trkpt lat="42.69034" lon="0.53875">
        <ele>2825</ele>
        <time>2021-08-20T07:44:41Z</time>
      </trkpt>
      <trkpt lat="42.69038" lon="0.53859">
        <ele>2824</ele>
        <time>2021-08-20T07:44:24Z</time>
      </trkpt>
      <trkpt lat="42.69028" lon="0.53842">
        <ele>2822</ele>
        <time>2021-08-20T07:44:03Z</time>
      </trkpt>
      <trkpt lat="42.69008" lon="0.53817">
        <ele>2817</ele>
        <time>2021-08-20T07:43:26Z</time>
      </trkpt>
      <trkpt lat="42.6899" lon="0.53791">
        <ele>2812</ele>
        <time>2021-08-20T07:42:51Z</time>
      </trkpt>
      <trkpt lat="42.68988" lon="0.53778">
        <ele>2809</ele>
        <time>2021-08-20T07:42:38Z</time>
      </trkpt>
      <trkpt lat="42.68992" lon="0.53762">
        <ele>2805</ele>
        <time>2021-08-20T07:42:22Z</time>
      </trkpt>
      <trkpt lat="42.68999" lon="0.53755">
        <ele>2803</ele>
        <time>2021-08-20T07:42:10Z</time>
      </trkpt>
      <trkpt lat="42.69001" lon="0.53742">
        <ele>2800</ele>
        <time>2021-08-20T07:41:57Z</time>
      </trkpt>
      <trkpt lat="42.68997" lon="0.5373">
        <ele>2797</ele>
        <time>2021-08-20T07:41:44Z</time>
      </trkpt>
      <trkpt lat="42.68997" lon="0.53696">
        <ele>2788</ele>
        <time>2021-08-20T07:41:11Z</time>
      </trkpt>
      <trkpt lat="42.68995" lon="0.5368">
        <ele>2784</ele>
        <time>2021-08-20T07:40:55Z</time>
      </trkpt>
      <trkpt lat="42.68991" lon="0.53667">
        <ele>2781</ele>
        <time>2021-08-20T07:40:41Z</time>
      </trkpt>
      <trkpt lat="42.68987" lon="0.53652">
        <ele>2776</ele>
        <time>2021-08-20T07:40:25Z</time>
      </trkpt>
      <trkpt lat="42.68977" lon="0.53632">
        <ele>2770</ele>
        <time>2021-08-20T07:40:02Z</time>
      </trkpt>
      <trkpt lat="42.68977" lon="0.53619">
        <ele>2766</ele>
        <time>2021-08-20T07:39:49Z</time>
      </trkpt>
      <trkpt lat="42.68966" lon="0.53611">
        <ele>2762</ele>
        <time>2021-08-20T07:39:32Z</time>
      </trkpt>
      <trkpt lat="42.68962" lon="0.53601">
        <ele>2758</ele>
        <time>2021-08-20T07:39:21Z</time>
      </trkpt>
      <trkpt lat="42.68972" lon="0.53596">
        <ele>2758</ele>
        <time>2021-08-20T07:39:07Z</time>
      </trkpt>
      <trkpt lat="42.68985" lon="0.53585">
        <ele>2757</ele>
        <time>2021-08-20T07:38:47Z</time>
      </trkpt>
      <trkpt lat="42.68989" lon="0.53578">
        <ele>2757</ele>
        <time>2021-08-20T07:38:38Z</time>
      </trkpt>
      <trkpt lat="42.68994" lon="0.53569">
        <ele>2757</ele>
        <time>2021-08-20T07:38:27Z</time>
      </trkpt>
      <trkpt lat="42.68994" lon="0.53551">
        <ele>2755</ele>
        <time>2021-08-20T07:38:09Z</time>
      </trkpt>
      <trkpt lat="42.68986" lon="0.53539">
        <ele>2753</ele>
        <time>2021-08-20T07:37:53Z</time>
      </trkpt>
      <trkpt lat="42.68979" lon="0.53521">
        <ele>2752</ele>
        <time>2021-08-20T07:37:33Z</time>
      </trkpt>
      <trkpt lat="42.68996" lon="0.5349">
        <ele>2751</ele>
        <time>2021-08-20T07:36:55Z</time>
      </trkpt>
      <trkpt lat="42.68998" lon="0.5347">
        <ele>2754</ele>
        <time>2021-08-20T07:36:35Z</time>
      </trkpt>
      <trkpt lat="42.68987" lon="0.53454">
        <ele>2757</ele>
        <time>2021-08-20T07:36:14Z</time>
      </trkpt>
      <trkpt lat="42.68991" lon="0.53433">
        <ele>2760</ele>
        <time>2021-08-20T07:35:53Z</time>
      </trkpt>
      <trkpt lat="42.68989" lon="0.53411">
        <ele>2764</ele>
        <time>2021-08-20T07:35:31Z</time>
      </trkpt>
      <trkpt lat="42.68971" lon="0.53386">
        <ele>2773</ele>
        <time>2021-08-20T07:34:57Z</time>
      </trkpt>
      <trkpt lat="42.69009" lon="0.53328">
        <ele>2776</ele>
        <time>2021-08-20T07:33:40Z</time>
      </trkpt>
      <trkpt lat="42.69038" lon="0.53277">
        <ele>2780</ele>
        <time>2021-08-20T07:32:37Z</time>
      </trkpt>
      <trkpt lat="42.69056" lon="0.53256">
        <ele>2777</ele>
        <time>2021-08-20T07:32:06Z</time>
      </trkpt>
      <trkpt lat="42.69093" lon="0.53235">
        <ele>2768</ele>
        <time>2021-08-20T07:31:12Z</time>
      </trkpt>
      <trkpt lat="42.69109" lon="0.53212">
        <ele>2771</ele>
        <time>2021-08-20T07:30:41Z</time>
      </trkpt>
      <trkpt lat="42.69148" lon="0.53188">
        <ele>2761</ele>
        <time>2021-08-20T07:29:44Z</time>
      </trkpt>
      <trkpt lat="42.69161" lon="0.5317">
        <ele>2758</ele>
        <time>2021-08-20T07:29:19Z</time>
      </trkpt>
      <trkpt lat="42.69193" lon="0.53101">
        <ele>2766</ele>
        <time>2021-08-20T07:27:59Z</time>
      </trkpt>
      <trkpt lat="42.69228" lon="0.53013">
        <ele>2770</ele>
        <time>2021-08-20T07:26:21Z</time>
      </trkpt>
      <trkpt lat="42.69254" lon="0.53007">
        <ele>2758</ele>
        <time>2021-08-20T07:25:46Z</time>
      </trkpt>
      <trkpt lat="42.69289" lon="0.5298">
        <ele>2757</ele>
        <time>2021-08-20T07:24:52Z</time>
      </trkpt>
      <trkpt lat="42.69321" lon="0.52962">
        <ele>2753</ele>
        <time>2021-08-20T07:24:06Z</time>
      </trkpt>
      <trkpt lat="42.69343" lon="0.52959">
        <ele>2750</ele>
        <time>2021-08-20T07:23:36Z</time>
      </trkpt>
      <trkpt lat="42.69381" lon="0.52971">
        <ele>2747</ele>
        <time>2021-08-20T07:22:44Z</time>
      </trkpt>
      <trkpt lat="42.69437" lon="0.52983">
        <ele>2746</ele>
        <time>2021-08-20T07:21:29Z</time>
      </trkpt>
      <trkpt lat="42.69471" lon="0.52964">
        <ele>2749</ele>
        <time>2021-08-20T07:20:40Z</time>
      </trkpt>
      <trkpt lat="42.69485" lon="0.52948">
        <ele>2749</ele>
        <time>2021-08-20T07:20:15Z</time>
      </trkpt>
      <trkpt lat="42.69519" lon="0.52942">
        <ele>2753</ele>
        <time>2021-08-20T07:19:29Z</time>
      </trkpt>
      <trkpt lat="42.69534" lon="0.52927">
        <ele>2755</ele>
        <time>2021-08-20T07:19:05Z</time>
      </trkpt>
      <trkpt lat="42.69548" lon="0.52949">
        <ele>2758</ele>
        <time>2021-08-20T07:18:36Z</time>
      </trkpt>
      <trkpt lat="42.69571" lon="0.52958">
        <ele>2761</ele>
        <time>2021-08-20T07:18:04Z</time>
      </trkpt>
      <trkpt lat="42.69594" lon="0.52934">
        <ele>2767</ele>
        <time>2021-08-20T07:17:25Z</time>
      </trkpt>
      <trkpt lat="42.69627" lon="0.52924">
        <ele>2779</ele>
        <time>2021-08-20T07:16:40Z</time>
      </trkpt>
      <trkpt lat="42.6967" lon="0.5293">
        <ele>2794</ele>
        <time>2021-08-20T07:15:43Z</time>
      </trkpt>
      <trkpt lat="42.69685" lon="0.52936">
        <ele>2800</ele>
        <time>2021-08-20T07:15:22Z</time>
      </trkpt>
      <trkpt lat="42.6971" lon="0.52927">
        <ele>2808</ele>
        <time>2021-08-20T07:14:47Z</time>
      </trkpt>
      <trkpt lat="42.69757" lon="0.52933">
        <ele>2824</ele>
        <time>2021-08-20T07:13:44Z</time>
      </trkpt>
      <trkpt lat="42.6979" lon="0.52917">
        <ele>2832</ele>
        <time>2021-08-20T07:12:58Z</time>
      </trkpt>
      <trkpt lat="42.69836" lon="0.52883">
        <ele>2849</ele>
        <time>2021-08-20T07:11:48Z</time>
      </trkpt>
      <trkpt lat="42.69839" lon="0.52848">
        <ele>2856</ele>
        <time>2021-08-20T07:11:13Z</time>
      </trkpt>
      <trkpt lat="42.69847" lon="0.52818">
        <ele>2863</ele>
        <time>2021-08-20T07:10:42Z</time>
      </trkpt>
      <trkpt lat="42.69868" lon="0.52795">
        <ele>2873</ele>
        <time>2021-08-20T07:10:06Z</time>
      </trkpt>
      <trkpt lat="42.699" lon="0.52777">
        <ele>2887</ele>
        <time>2021-08-20T07:09:20Z</time>
      </trkpt>
      <trkpt lat="42.69918" lon="0.5273">
        <ele>2914</ele>
        <time>2021-08-20T07:08:28Z</time>
      </trkpt>
      <trkpt lat="42.69922" lon="0.52701">
        <ele>2934</ele>
        <time>2021-08-20T07:07:59Z</time>
      </trkpt>
      <trkpt lat="42.69933" lon="0.52677">
        <ele>2953</ele>
        <time>2021-08-20T07:07:31Z</time>
      </trkpt>
      <trkpt lat="42.69951" lon="0.5267">
        <ele>2963</ele>
        <time>2021-08-20T07:07:06Z</time>
      </trkpt>
      <trkpt lat="42.69961" lon="0.52651">
        <ele>2976</ele>
        <time>2021-08-20T07:06:43Z</time>
      </trkpt>
      <trkpt lat="42.70007" lon="0.52631">
        <ele>3000</ele>
        <time>2021-08-20T07:05:39Z</time>
      </trkpt>
      <trkpt lat="42.70024" lon="0.52625">
        <ele>2999</ele>
        <time>2021-08-20T07:05:15Z</time>
      </trkpt>
      <trkpt lat="42.7003" lon="0.52607">
        <ele>3007</ele>
        <time>2021-08-20T07:04:56Z</time>
      </trkpt>
      <trkpt lat="42.70023" lon="0.5255">
        <ele>3025</ele>
        <time>2021-08-20T07:03:59Z</time>
      </trkpt>
      <trkpt lat="42.70011" lon="0.52527">
        <ele>3035</ele>
        <time>2021-08-20T07:03:31Z</time>
      </trkpt>
      <trkpt lat="42.70008" lon="0.52498">
        <ele>3042</ele>
        <time>2021-08-20T07:03:03Z</time>
      </trkpt>
      <trkpt lat="42.69996" lon="0.52462">
        <ele>3054</ele>
        <time>2021-08-20T07:02:24Z</time>
      </trkpt>
      <trkpt lat="42.69988" lon="0.52429">
        <ele>3059</ele>
        <time>2021-08-20T07:01:50Z</time>
      </trkpt>
      <trkpt lat="42.69966" lon="0.52403">
        <ele>3063</ele>
        <time>2021-08-20T07:01:11Z</time>
      </trkpt>
      <trkpt lat="42.69943" lon="0.52349">
        <ele>3074</ele>
        <time>2021-08-20T07:00:10Z</time>
      </trkpt>
      <trkpt lat="42.69904" lon="0.52306">
        <ele>3088</ele>
        <time>2021-08-20T06:59:03Z</time>
      </trkpt>
      <trkpt lat="42.69884" lon="0.52286">
        <ele>3085</ele>
        <time>2021-08-20T06:58:30Z</time>
      </trkpt>
      <trkpt lat="42.69871" lon="0.5225">
        <ele>3089</ele>
        <time>2021-08-20T06:57:50Z</time>
      </trkpt>
      <trkpt lat="42.6986" lon="0.52214">
        <ele>3087</ele>
        <time>2021-08-20T06:57:12Z</time>
      </trkpt>
      <trkpt lat="42.69817" lon="0.5217">
        <ele>3098</ele>
        <time>2021-08-20T06:56:00Z</time>
      </trkpt>
      <trkpt lat="42.69804" lon="0.52133">
        <ele>3093</ele>
        <time>2021-08-20T06:55:20Z</time>
      </trkpt>
      <trkpt lat="42.69791" lon="0.52117">
        <ele>3094</ele>
        <time>2021-08-20T06:54:57Z</time>
      </trkpt>
      <trkpt lat="42.69779" lon="0.52092">
        <ele>3098</ele>
        <time>2021-08-20T06:54:27Z</time>
      </trkpt>
      <trkpt lat="42.69758" lon="0.52088">
        <ele>3106</ele>
        <time>2021-08-20T06:53:59Z</time>
      </trkpt>
      <trkpt lat="42.69744" lon="0.52079">
        <ele>3108</ele>
        <time>2021-08-20T06:53:38Z</time>
      </trkpt>
      <trkpt lat="42.69733" lon="0.52067">
        <ele>3103</ele>
        <time>2021-08-20T06:53:20Z</time>
      </trkpt>
      <trkpt lat="42.69714" lon="0.52073">
        <ele>3099</ele>
        <time>2021-08-20T06:52:54Z</time>
      </trkpt>
      <trkpt lat="42.69692" lon="0.52083">
        <ele>3095</ele>
        <time>2021-08-20T06:52:23Z</time>
      </trkpt>
      <trkpt lat="42.69674" lon="0.52097">
        <ele>3086</ele>
        <time>2021-08-20T06:51:55Z</time>
      </trkpt>
      <trkpt lat="42.69655" lon="0.52081">
        <ele>3084</ele>
        <time>2021-08-20T06:51:25Z</time>
      </trkpt>
      <trkpt lat="42.69623" lon="0.52099">
        <ele>3072</ele>
        <time>2021-08-20T06:50:39Z</time>
      </trkpt>
      <trkpt lat="42.69582" lon="0.52097">
        <ele>3061</ele>
        <time>2021-08-20T06:49:44Z</time>
      </trkpt>
      <trkpt lat="42.6954" lon="0.52119">
        <ele>3051</ele>
        <time>2021-08-20T06:48:44Z</time>
      </trkpt>
      <trkpt lat="42.69529" lon="0.521">
        <ele>3055</ele>
        <time>2021-08-20T06:48:20Z</time>
      </trkpt>
      <trkpt lat="42.69517" lon="0.52092">
        <ele>3055</ele>
        <time>2021-08-20T06:48:03Z</time>
      </trkpt>
      <trkpt lat="42.6951" lon="0.52081">
        <ele>3056</ele>
        <time>2021-08-20T06:47:48Z</time>
      </trkpt>
      <trkpt lat="42.69495" lon="0.5209">
        <ele>3054</ele>
        <time>2021-08-20T06:47:26Z</time>
      </trkpt>
      <trkpt lat="42.6948" lon="0.52093">
        <ele>3051</ele>
        <time>2021-08-20T06:47:06Z</time>
      </trkpt>
      <trkpt lat="42.69472" lon="0.52091">
        <ele>3051</ele>
        <time>2021-08-20T06:46:55Z</time>
      </trkpt>
      <trkpt lat="42.69459" lon="0.52096">
        <ele>3048</ele>
        <time>2021-08-20T06:46:37Z</time>
      </trkpt>
      <trkpt lat="42.69447" lon="0.52089">
        <ele>3049</ele>
        <time>2021-08-20T06:46:20Z</time>
      </trkpt>
      <trkpt lat="42.69441" lon="0.52069">
        <ele>3051</ele>
        <time>2021-08-20T06:45:59Z</time>
      </trkpt>
      <trkpt lat="42.69427" lon="0.52056">
        <ele>3054</ele>
        <time>2021-08-20T06:45:36Z</time>
      </trkpt>
      <trkpt lat="42.69408" lon="0.52047">
        <ele>3057</ele>
        <time>2021-08-20T06:45:09Z</time>
      </trkpt>
      <trkpt lat="42.69402" lon="0.52027">
        <ele>3063</ele>
        <time>2021-08-20T06:44:48Z</time>
      </trkpt>
      <trkpt lat="42.69363" lon="0.51987">
        <ele>3078</ele>
        <time>2021-08-20T06:43:43Z</time>
      </trkpt>
      <trkpt lat="42.69354" lon="0.51974">
        <ele>3084</ele>
        <time>2021-08-20T06:43:25Z</time>
      </trkpt>
      <trkpt lat="42.69344" lon="0.51956">
        <ele>3094</ele>
        <time>2021-08-20T06:43:03Z</time>
      </trkpt>
      <trkpt lat="42.69334" lon="0.51948">
        <ele>3104</ele>
        <time>2021-08-20T06:42:48Z</time>
      </trkpt>
      <trkpt lat="42.69322" lon="0.51932">
        <ele>3116</ele>
        <time>2021-08-20T06:42:25Z</time>
      </trkpt>
      <trkpt lat="42.69282" lon="0.51911">
        <ele>3138</ele>
        <time>2021-08-20T06:41:28Z</time>
      </trkpt>
      <trkpt lat="42.69226" lon="0.51891">
        <ele>3164</ele>
        <time>2021-08-20T06:40:11Z</time>
      </trkpt>
      <trkpt lat="42.69206" lon="0.51888">
        <ele>3173</ele>
        <time>2021-08-20T06:39:44Z</time>
      </trkpt>
      <trkpt lat="42.692" lon="0.51894">
        <ele>3175</ele>
        <time>2021-08-20T06:39:34Z</time>
      </trkpt>
      <trkpt lat="42.69194" lon="0.51904">
        <ele>3177</ele>
        <time>2021-08-20T06:39:21Z</time>
      </trkpt>
      <trkpt lat="42.6917" lon="0.51928">
        <ele>3185</ele>
        <time>2021-08-20T06:38:42Z</time>
      </trkpt>
      <trkpt lat="42.69152" lon="0.51986">
        <ele>3164</ele>
        <time>2021-08-20T06:37:40Z</time>
      </trkpt>
      <trkpt lat="42.69124" lon="0.52085">
        <ele>3123</ele>
        <time>2021-08-20T06:35:56Z</time>
      </trkpt>
      <trkpt lat="42.69066" lon="0.52316">
        <ele>3142</ele>
        <time>2021-08-20T06:31:56Z</time>
      </trkpt>
      <trkpt lat="42.69058" lon="0.52387">
        <ele>3126</ele>
        <time>2021-08-20T06:30:46Z</time>
      </trkpt>
      <trkpt lat="42.69013" lon="0.52512">
        <ele>3119</ele>
        <time>2021-08-20T06:28:29Z</time>
      </trkpt>
      <trkpt lat="42.69004" lon="0.52558">
        <ele>3120</ele>
        <time>2021-08-20T06:27:43Z</time>
      </trkpt>
      <trkpt lat="42.69004" lon="0.52578">
        <ele>3118</ele>
        <time>2021-08-20T06:27:23Z</time>
      </trkpt>
      <trkpt lat="42.68982" lon="0.52615">
        <ele>3105</ele>
        <time>2021-08-20T06:26:36Z</time>
      </trkpt>
      <trkpt lat="42.68976" lon="0.52642">
        <ele>3094</ele>
        <time>2021-08-20T06:26:09Z</time>
      </trkpt>
      <trkpt lat="42.6896" lon="0.52686">
        <ele>3074</ele>
        <time>2021-08-20T06:25:21Z</time>
      </trkpt>
      <trkpt lat="42.68958" lon="0.52705">
        <ele>3066</ele>
        <time>2021-08-20T06:25:02Z</time>
      </trkpt>
      <trkpt lat="42.68922" lon="0.52785">
        <ele>3037</ele>
        <time>2021-08-20T06:23:30Z</time>
      </trkpt>
      <trkpt lat="42.68918" lon="0.52801">
        <ele>3034</ele>
        <time>2021-08-20T06:23:13Z</time>
      </trkpt>
      <trkpt lat="42.68915" lon="0.52813">
        <ele>3030</ele>
        <time>2021-08-20T06:23:01Z</time>
      </trkpt>
      <trkpt lat="42.6891" lon="0.5282">
        <ele>3025</ele>
        <time>2021-08-20T06:22:51Z</time>
      </trkpt>
      <trkpt lat="42.68892" lon="0.52856">
        <ele>3004</ele>
        <time>2021-08-20T06:22:09Z</time>
      </trkpt>
      <trkpt lat="42.68887" lon="0.52862">
        <ele>3000</ele>
        <time>2021-08-20T06:22:00Z</time>
      </trkpt>
      <trkpt lat="42.68881" lon="0.52873">
        <ele>2995</ele>
        <time>2021-08-20T06:21:46Z</time>
      </trkpt>
      <trkpt lat="42.68871" lon="0.52888">
        <ele>2989</ele>
        <time>2021-08-20T06:21:26Z</time>
      </trkpt>
      <trkpt lat="42.68867" lon="0.52894">
        <ele>2988</ele>
        <time>2021-08-20T06:21:18Z</time>
      </trkpt>
      <trkpt lat="42.68806" lon="0.52948">
        <ele>2949</ele>
        <time>2021-08-20T06:19:41Z</time>
      </trkpt>
      <trkpt lat="42.68797" lon="0.52965">
        <ele>2941</ele>
        <time>2021-08-20T06:19:21Z</time>
      </trkpt>
      <trkpt lat="42.68791" lon="0.52969">
        <ele>2936</ele>
        <time>2021-08-20T06:19:12Z</time>
      </trkpt>
      <trkpt lat="42.68781" lon="0.52983">
        <ele>2930</ele>
        <time>2021-08-20T06:18:53Z</time>
      </trkpt>
      <trkpt lat="42.68775" lon="0.52996">
        <ele>2928</ele>
        <time>2021-08-20T06:18:38Z</time>
      </trkpt>
      <trkpt lat="42.68771" lon="0.53014">
        <ele>2921</ele>
        <time>2021-08-20T06:18:19Z</time>
      </trkpt>
      <trkpt lat="42.68771" lon="0.53023">
        <ele>2918</ele>
        <time>2021-08-20T06:18:10Z</time>
      </trkpt>
      <trkpt lat="42.68773" lon="0.53032">
        <ele>2915</ele>
        <time>2021-08-20T06:18:01Z</time>
      </trkpt>
      <trkpt lat="42.68782" lon="0.53044">
        <ele>2913</ele>
        <time>2021-08-20T06:17:44Z</time>
      </trkpt>
      <trkpt lat="42.68783" lon="0.53051">
        <ele>2911</ele>
        <time>2021-08-20T06:17:37Z</time>
      </trkpt>
      <trkpt lat="42.68781" lon="0.53058">
        <ele>2907</ele>
        <time>2021-08-20T06:17:30Z</time>
      </trkpt>
      <trkpt lat="42.68764" lon="0.53069">
        <ele>2899</ele>
        <time>2021-08-20T06:17:05Z</time>
      </trkpt>
      <trkpt lat="42.68759" lon="0.53081">
        <ele>2894</ele>
        <time>2021-08-20T06:16:51Z</time>
      </trkpt>
      <trkpt lat="42.68756" lon="0.53096">
        <ele>2888</ele>
        <time>2021-08-20T06:16:36Z</time>
      </trkpt>
      <trkpt lat="42.68752" lon="0.53101">
        <ele>2886</ele>
        <time>2021-08-20T06:16:29Z</time>
      </trkpt>
      <trkpt lat="42.68727" lon="0.53111">
        <ele>2871</ele>
        <time>2021-08-20T06:15:54Z</time>
      </trkpt>
      <trkpt lat="42.68717" lon="0.53124">
        <ele>2863</ele>
        <time>2021-08-20T06:15:36Z</time>
      </trkpt>
      <trkpt lat="42.68712" lon="0.53136">
        <ele>2858</ele>
        <time>2021-08-20T06:15:22Z</time>
      </trkpt>
      <trkpt lat="42.68713" lon="0.53145">
        <ele>2856</ele>
        <time>2021-08-20T06:15:13Z</time>
      </trkpt>
      <trkpt lat="42.68718" lon="0.5316">
        <ele>2854</ele>
        <time>2021-08-20T06:14:57Z</time>
      </trkpt>
      <trkpt lat="42.68719" lon="0.53165">
        <ele>2853</ele>
        <time>2021-08-20T06:14:52Z</time>
      </trkpt>
      <trkpt lat="42.68708" lon="0.53178">
        <ele>2847</ele>
        <time>2021-08-20T06:14:32Z</time>
      </trkpt>
      <trkpt lat="42.68703" lon="0.53182">
        <ele>2844</ele>
        <time>2021-08-20T06:14:25Z</time>
      </trkpt>
      <trkpt lat="42.68696" lon="0.53185">
        <ele>2842</ele>
        <time>2021-08-20T06:14:15Z</time>
      </trkpt>
      <trkpt lat="42.68688" lon="0.53183">
        <ele>2840</ele>
        <time>2021-08-20T06:14:04Z</time>
      </trkpt>
      <trkpt lat="42.6867" lon="0.53186">
        <ele>2834</ele>
        <time>2021-08-20T06:13:40Z</time>
      </trkpt>
      <trkpt lat="42.68664" lon="0.53188">
        <ele>2831</ele>
        <time>2021-08-20T06:13:32Z</time>
      </trkpt>
      <trkpt lat="42.68657" lon="0.53189">
        <ele>2828</ele>
        <time>2021-08-20T06:13:22Z</time>
      </trkpt>
      <trkpt lat="42.68644" lon="0.53182">
        <ele>2824</ele>
        <time>2021-08-20T06:13:04Z</time>
      </trkpt>
      <trkpt lat="42.68628" lon="0.53166">
        <ele>2819</ele>
        <time>2021-08-20T06:12:37Z</time>
      </trkpt>
      <trkpt lat="42.68614" lon="0.53158">
        <ele>2813</ele>
        <time>2021-08-20T06:12:17Z</time>
      </trkpt>
      <trkpt lat="42.68599" lon="0.53146">
        <ele>2807</ele>
        <time>2021-08-20T06:11:54Z</time>
      </trkpt>
      <trkpt lat="42.68589" lon="0.53129">
        <ele>2804</ele>
        <time>2021-08-20T06:11:32Z</time>
      </trkpt>
      <trkpt lat="42.68578" lon="0.53127">
        <ele>2799</ele>
        <time>2021-08-20T06:11:17Z</time>
      </trkpt>
      <trkpt lat="42.68561" lon="0.53119">
        <ele>2792</ele>
        <time>2021-08-20T06:10:53Z</time>
      </trkpt>
      <trkpt lat="42.68547" lon="0.5312">
        <ele>2786</ele>
        <time>2021-08-20T06:10:35Z</time>
      </trkpt>
      <trkpt lat="42.68534" lon="0.53131">
        <ele>2780</ele>
        <time>2021-08-20T06:10:14Z</time>
      </trkpt>
      <trkpt lat="42.68532" lon="0.53139">
        <ele>2779</ele>
        <time>2021-08-20T06:10:06Z</time>
      </trkpt>
      <trkpt lat="42.68527" lon="0.53142">
        <ele>2776</ele>
        <time>2021-08-20T06:09:59Z</time>
      </trkpt>
      <trkpt lat="42.68516" lon="0.53142">
        <ele>2772</ele>
        <time>2021-08-20T06:09:44Z</time>
      </trkpt>
      <trkpt lat="42.68507" lon="0.53139">
        <ele>2768</ele>
        <time>2021-08-20T06:09:32Z</time>
      </trkpt>
      <trkpt lat="42.68502" lon="0.53139">
        <ele>2766</ele>
        <time>2021-08-20T06:09:25Z</time>
      </trkpt>
      <trkpt lat="42.68497" lon="0.53136">
        <ele>2764</ele>
        <time>2021-08-20T06:09:18Z</time>
      </trkpt>
      <trkpt lat="42.68492" lon="0.53135">
        <ele>2762</ele>
        <time>2021-08-20T06:09:11Z</time>
      </trkpt>
      <trkpt lat="42.68487" lon="0.53139">
        <ele>2759</ele>
        <time>2021-08-20T06:09:03Z</time>
      </trkpt>
      <trkpt lat="42.68483" lon="0.53148">
        <ele>2758</ele>
        <time>2021-08-20T06:08:53Z</time>
      </trkpt>
      <trkpt lat="42.6848" lon="0.53163">
        <ele>2756</ele>
        <time>2021-08-20T06:08:38Z</time>
      </trkpt>
      <trkpt lat="42.68466" lon="0.53178">
        <ele>2750</ele>
        <time>2021-08-20T06:08:14Z</time>
      </trkpt>
      <trkpt lat="42.68463" lon="0.53191">
        <ele>2747</ele>
        <time>2021-08-20T06:08:00Z</time>
      </trkpt>
      <trkpt lat="42.6846" lon="0.53196">
        <ele>2746</ele>
        <time>2021-08-20T06:07:54Z</time>
      </trkpt>
      <trkpt lat="42.68437" lon="0.53207">
        <ele>2737</ele>
        <time>2021-08-20T06:07:22Z</time>
      </trkpt>
      <trkpt lat="42.68432" lon="0.53213">
        <ele>2735</ele>
        <time>2021-08-20T06:07:13Z</time>
      </trkpt>
      <trkpt lat="42.68388" lon="0.53241">
        <ele>2718</ele>
        <time>2021-08-20T06:06:08Z</time>
      </trkpt>
      <trkpt lat="42.68381" lon="0.53242">
        <ele>2716</ele>
        <time>2021-08-20T06:05:58Z</time>
      </trkpt>
      <trkpt lat="42.68355" lon="0.53257">
        <ele>2705</ele>
        <time>2021-08-20T06:05:21Z</time>
      </trkpt>
      <trkpt lat="42.68351" lon="0.53265">
        <ele>2702</ele>
        <time>2021-08-20T06:05:11Z</time>
      </trkpt>
      <trkpt lat="42.68351" lon="0.53281">
        <ele>2697</ele>
        <time>2021-08-20T06:04:56Z</time>
      </trkpt>
      <trkpt lat="42.68355" lon="0.53287">
        <ele>2696</ele>
        <time>2021-08-20T06:04:48Z</time>
      </trkpt>
      <trkpt lat="42.68359" lon="0.53313">
        <ele>2689</ele>
        <time>2021-08-20T06:04:22Z</time>
      </trkpt>
      <trkpt lat="42.68351" lon="0.53336">
        <ele>2681</ele>
        <time>2021-08-20T06:03:57Z</time>
      </trkpt>
      <trkpt lat="42.6834" lon="0.53355">
        <ele>2670</ele>
        <time>2021-08-20T06:03:33Z</time>
      </trkpt>
      <trkpt lat="42.68332" lon="0.53363">
        <ele>2665</ele>
        <time>2021-08-20T06:03:20Z</time>
      </trkpt>
      <trkpt lat="42.68326" lon="0.53368">
        <ele>2663</ele>
        <time>2021-08-20T06:03:10Z</time>
      </trkpt>
      <trkpt lat="42.6832" lon="0.5337">
        <ele>2662</ele>
        <time>2021-08-20T06:03:02Z</time>
      </trkpt>
      <trkpt lat="42.68317" lon="0.53374">
        <ele>2660</ele>
        <time>2021-08-20T06:02:56Z</time>
      </trkpt>
      <trkpt lat="42.68311" lon="0.53386">
        <ele>2655</ele>
        <time>2021-08-20T06:02:42Z</time>
      </trkpt>
      <trkpt lat="42.68309" lon="0.53406">
        <ele>2645</ele>
        <time>2021-08-20T06:02:22Z</time>
      </trkpt>
      <trkpt lat="42.68292" lon="0.53438">
        <ele>2629</ele>
        <time>2021-08-20T06:01:44Z</time>
      </trkpt>
      <trkpt lat="42.68288" lon="0.53452">
        <ele>2622</ele>
        <time>2021-08-20T06:01:29Z</time>
      </trkpt>
      <trkpt lat="42.68279" lon="0.53472">
        <ele>2613</ele>
        <time>2021-08-20T06:01:06Z</time>
      </trkpt>
      <trkpt lat="42.68274" lon="0.53479">
        <ele>2611</ele>
        <time>2021-08-20T06:00:56Z</time>
      </trkpt>
      <trkpt lat="42.6827" lon="0.53488">
        <ele>2607</ele>
        <time>2021-08-20T06:00:46Z</time>
      </trkpt>
      <trkpt lat="42.68257" lon="0.53504">
        <ele>2603</ele>
        <time>2021-08-20T06:00:23Z</time>
      </trkpt>
      <trkpt lat="42.68245" lon="0.5354">
        <ele>2588</ele>
        <time>2021-08-20T05:59:44Z</time>
      </trkpt>
      <trkpt lat="42.68239" lon="0.53581">
        <ele>2570</ele>
        <time>2021-08-20T05:59:03Z</time>
      </trkpt>
      <trkpt lat="42.68236" lon="0.53588">
        <ele>2568</ele>
        <time>2021-08-20T05:58:55Z</time>
      </trkpt>
      <trkpt lat="42.68237" lon="0.536">
        <ele>2562</ele>
        <time>2021-08-20T05:58:43Z</time>
      </trkpt>
      <trkpt lat="42.68239" lon="0.53609">
        <ele>2556</ele>
        <time>2021-08-20T05:58:34Z</time>
      </trkpt>
      <trkpt lat="42.68246" lon="0.53622">
        <ele>2547</ele>
        <time>2021-08-20T05:58:18Z</time>
      </trkpt>
      <trkpt lat="42.68254" lon="0.53626">
        <ele>2542</ele>
        <time>2021-08-20T05:58:07Z</time>
      </trkpt>
      <trkpt lat="42.68253" lon="0.53638">
        <ele>2536</ele>
        <time>2021-08-20T05:57:55Z</time>
      </trkpt>
      <trkpt lat="42.68256" lon="0.53645">
        <ele>2532</ele>
        <time>2021-08-20T05:57:47Z</time>
      </trkpt>
      <trkpt lat="42.68258" lon="0.53672">
        <ele>2520</ele>
        <time>2021-08-20T05:57:20Z</time>
      </trkpt>
      <trkpt lat="42.68261" lon="0.53675">
        <ele>2518</ele>
        <time>2021-08-20T05:57:15Z</time>
      </trkpt>
      <trkpt lat="42.68258" lon="0.53682">
        <ele>2516</ele>
        <time>2021-08-20T05:57:07Z</time>
      </trkpt>
      <trkpt lat="42.68269" lon="0.53702">
        <ele>2508</ele>
        <time>2021-08-20T05:56:43Z</time>
      </trkpt>
      <trkpt lat="42.68272" lon="0.5372">
        <ele>2502</ele>
        <time>2021-08-20T05:56:25Z</time>
      </trkpt>
      <trkpt lat="42.68272" lon="0.53731">
        <ele>2499</ele>
        <time>2021-08-20T05:56:14Z</time>
      </trkpt>
      <trkpt lat="42.68277" lon="0.53743">
        <ele>2495</ele>
        <time>2021-08-20T05:56:00Z</time>
      </trkpt>
      <trkpt lat="42.6828" lon="0.53759">
        <ele>2493</ele>
        <time>2021-08-20T05:55:44Z</time>
      </trkpt>
      <trkpt lat="42.68276" lon="0.53768">
        <ele>2492</ele>
        <time>2021-08-20T05:55:34Z</time>
      </trkpt>
      <trkpt lat="42.68276" lon="0.53797">
        <ele>2492</ele>
        <time>2021-08-20T05:55:05Z</time>
      </trkpt>
      <trkpt lat="42.68264" lon="0.53802">
        <ele>2489</ele>
        <time>2021-08-20T05:54:49Z</time>
      </trkpt>
      <trkpt lat="42.68209" lon="0.53868">
        <ele>2485</ele>
        <time>2021-08-20T05:53:11Z</time>
      </trkpt>
      <trkpt lat="42.682" lon="0.53906">
        <ele>2484</ele>
        <time>2021-08-20T05:52:32Z</time>
      </trkpt>
      <trkpt lat="42.68201" lon="0.53936">
        <ele>2488</ele>
        <time>2021-08-20T05:52:02Z</time>
      </trkpt>
      <trkpt lat="42.68176" lon="0.53978">
        <ele>2488</ele>
        <time>2021-08-20T05:51:09Z</time>
      </trkpt>
      <trkpt lat="42.68109" lon="0.54061">
        <ele>2497</ele>
        <time>2021-08-20T05:49:08Z</time>
      </trkpt>
      <trkpt lat="42.68081" lon="0.54091">
        <ele>2497</ele>
        <time>2021-08-20T05:48:21Z</time>
      </trkpt>
      <trkpt lat="42.68056" lon="0.54093">
        <ele>2499</ele>
        <time>2021-08-20T05:47:47Z</time>
      </trkpt>
      <trkpt lat="42.68015" lon="0.54112">
        <ele>2498</ele>
        <time>2021-08-20T05:46:49Z</time>
      </trkpt>
      <trkpt lat="42.67994" lon="0.54135">
        <ele>2489</ele>
        <time>2021-08-20T05:46:13Z</time>
      </trkpt>
      <trkpt lat="42.6797" lon="0.54182">
        <ele>2473</ele>
        <time>2021-08-20T05:45:17Z</time>
      </trkpt>
      <trkpt lat="42.67947" lon="0.54255">
        <ele>2465</ele>
        <time>2021-08-20T05:43:59Z</time>
      </trkpt>
      <trkpt lat="42.679" lon="0.54371">
        <ele>2447</ele>
        <time>2021-08-20T05:41:49Z</time>
      </trkpt>
      <trkpt lat="42.67866" lon="0.54402">
        <ele>2433</ele>
        <time>2021-08-20T05:40:55Z</time>
      </trkpt>
      <trkpt lat="42.67855" lon="0.54436">
        <ele>2428</ele>
        <time>2021-08-20T05:40:18Z</time>
      </trkpt>
      <trkpt lat="42.67848" lon="0.54496">
        <ele>2418</ele>
        <time>2021-08-20T05:39:19Z</time>
      </trkpt>
      <trkpt lat="42.67833" lon="0.5455">
        <ele>2401</ele>
        <time>2021-08-20T05:38:22Z</time>
      </trkpt>
      <trkpt lat="42.67826" lon="0.54575">
        <ele>2393</ele>
        <time>2021-08-20T05:37:56Z</time>
      </trkpt>
      <trkpt lat="42.67815" lon="0.54605">
        <ele>2381</ele>
        <time>2021-08-20T05:37:23Z</time>
      </trkpt>
      <trkpt lat="42.67813" lon="0.54623">
        <ele>2377</ele>
        <time>2021-08-20T05:37:05Z</time>
      </trkpt>
      <trkpt lat="42.67817" lon="0.54638">
        <ele>2376</ele>
        <time>2021-08-20T05:36:50Z</time>
      </trkpt>
      <trkpt lat="42.67791" lon="0.54685">
        <ele>2355</ele>
        <time>2021-08-20T05:35:52Z</time>
      </trkpt>
      <trkpt lat="42.67773" lon="0.54729">
        <ele>2339</ele>
        <time>2021-08-20T05:35:02Z</time>
      </trkpt>
      <trkpt lat="42.6774" lon="0.54773">
        <ele>2319</ele>
        <time>2021-08-20T05:34:01Z</time>
      </trkpt>
      <trkpt lat="42.67723" lon="0.54785">
        <ele>2313</ele>
        <time>2021-08-20T05:33:35Z</time>
      </trkpt>
      <trkpt lat="42.67704" lon="0.54818">
        <ele>2304</ele>
        <time>2021-08-20T05:32:54Z</time>
      </trkpt>
      <trkpt lat="42.6768" lon="0.5485">
        <ele>2295</ele>
        <time>2021-08-20T05:32:09Z</time>
      </trkpt>
      <trkpt lat="42.67628" lon="0.54899">
        <ele>2279</ele>
        <time>2021-08-20T05:30:45Z</time>
      </trkpt>
      <trkpt lat="42.67619" lon="0.54919">
        <ele>2275</ele>
        <time>2021-08-20T05:30:22Z</time>
      </trkpt>
      <trkpt lat="42.67537" lon="0.5496">
        <ele>2240</ele>
        <time>2021-08-20T05:28:25Z</time>
      </trkpt>
      <trkpt lat="42.67481" lon="0.5497">
        <ele>2214</ele>
        <time>2021-08-20T05:27:10Z</time>
      </trkpt>
      <trkpt lat="42.6744" lon="0.5498">
        <ele>2197</ele>
        <time>2021-08-20T05:26:14Z</time>
      </trkpt>
      <trkpt lat="42.67414" lon="0.54994">
        <ele>2187</ele>
        <time>2021-08-20T05:25:37Z</time>
      </trkpt>
      <trkpt lat="42.67405" lon="0.55006">
        <ele>2184</ele>
        <time>2021-08-20T05:25:20Z</time>
      </trkpt>
      <trkpt lat="42.67405" lon="0.55019">
        <ele>2184</ele>
        <time>2021-08-20T05:25:07Z</time>
      </trkpt>
      <trkpt lat="42.67408" lon="0.55038">
        <ele>2184</ele>
        <time>2021-08-20T05:24:48Z</time>
      </trkpt>
      <trkpt lat="42.67398" lon="0.55053">
        <ele>2180</ele>
        <time>2021-08-20T05:24:28Z</time>
      </trkpt>
      <trkpt lat="42.67377" lon="0.55071">
        <ele>2169</ele>
        <time>2021-08-20T05:23:55Z</time>
      </trkpt>
      <trkpt lat="42.67368" lon="0.55098">
        <ele>2164</ele>
        <time>2021-08-20T05:23:26Z</time>
      </trkpt>
      <trkpt lat="42.67344" lon="0.55134">
        <ele>2151</ele>
        <time>2021-08-20T05:22:39Z</time>
      </trkpt>
      <trkpt lat="42.67315" lon="0.55201">
        <ele>2143</ele>
        <time>2021-08-20T05:21:22Z</time>
      </trkpt>
      <trkpt lat="42.6727" lon="0.5528">
        <ele>2125</ele>
        <time>2021-08-20T05:19:44Z</time>
      </trkpt>
      <trkpt lat="42.67165" lon="0.55486">
        <ele>2079</ele>
        <time>2021-08-20T05:15:38Z</time>
      </trkpt>
      <trkpt lat="42.67136" lon="0.55563">
        <ele>2069</ele>
        <time>2021-08-20T05:14:13Z</time>
      </trkpt>
      <trkpt lat="42.67079" lon="0.55613">
        <ele>2046</ele>
        <time>2021-08-20T05:12:43Z</time>
      </trkpt>
      <trkpt lat="42.67054" lon="0.55655">
        <ele>2039</ele>
        <time>2021-08-20T05:11:50Z</time>
      </trkpt>
      <trkpt lat="42.67014" lon="0.55771">
        <ele>2026</ele>
        <time>2021-08-20T05:09:44Z</time>
      </trkpt>
      <trkpt lat="42.67001" lon="0.55819">
        <ele>2023</ele>
        <time>2021-08-20T05:08:54Z</time>
      </trkpt>
      <trkpt lat="42.66982" lon="0.55866">
        <ele>2018</ele>
        <time>2021-08-20T05:08:01Z</time>
      </trkpt>
      <trkpt lat="42.66968" lon="0.55894">
        <ele>2014</ele>
        <time>2021-08-20T05:07:28Z</time>
      </trkpt>
      <trkpt lat="42.6693" lon="0.55991">
        <ele>2006</ele>
        <time>2021-08-20T05:05:40Z</time>
      </trkpt>
      <trkpt lat="42.6691" lon="0.56064">
        <ele>1999</ele>
        <time>2021-08-20T05:04:24Z</time>
      </trkpt>
      <trkpt lat="42.66908" lon="0.5608">
        <ele>1998</ele>
        <time>2021-08-20T05:04:08Z</time>
      </trkpt>
      <trkpt lat="42.6691" lon="0.56109">
        <ele>2001</ele>
        <time>2021-08-20T05:03:39Z</time>
      </trkpt>
      <trkpt lat="42.66908" lon="0.56125">
        <ele>2001</ele>
        <time>2021-08-20T05:03:23Z</time>
      </trkpt>
      <trkpt lat="42.66902" lon="0.5615">
        <ele>2000</ele>
        <time>2021-08-20T05:02:58Z</time>
      </trkpt>
      <trkpt lat="42.66891" lon="0.5617">
        <ele>1996</ele>
        <time>2021-08-20T05:02:33Z</time>
      </trkpt>
      <trkpt lat="42.66886" lon="0.56184">
        <ele>1994</ele>
        <time>2021-08-20T05:02:18Z</time>
      </trkpt>
      <trkpt lat="42.66888" lon="0.56205">
        <ele>1995</ele>
        <time>2021-08-20T05:01:57Z</time>
      </trkpt>
      <trkpt lat="42.66884" lon="0.56239">
        <ele>1993</ele>
        <time>2021-08-20T05:01:23Z</time>
      </trkpt>
      <trkpt lat="42.66877" lon="0.56271">
        <ele>1989</ele>
        <time>2021-08-20T05:00:50Z</time>
      </trkpt>
      <trkpt lat="42.66884" lon="0.56301">
        <ele>1989</ele>
        <time>2021-08-20T05:00:20Z</time>
      </trkpt>
      <trkpt lat="42.66885" lon="0.56311">
        <ele>1989</ele>
        <time>2021-08-20T05:00:10Z</time>
      </trkpt>
      <trkpt lat="42.66879" lon="0.56325">
        <ele>1986</ele>
        <time>2021-08-20T04:59:54Z</time>
      </trkpt>
      <trkpt lat="42.66872" lon="0.56326">
        <ele>1984</ele>
        <time>2021-08-20T04:59:44Z</time>
      </trkpt>
      <trkpt lat="42.66857" lon="0.56333">
        <ele>1980</ele>
        <time>2021-08-20T04:59:23Z</time>
      </trkpt>
      <trkpt lat="42.66856" lon="0.5634">
        <ele>1978</ele>
        <time>2021-08-20T04:59:16Z</time>
      </trkpt>
      <trkpt lat="42.66858" lon="0.56349">
        <ele>1978</ele>
        <time>2021-08-20T04:59:07Z</time>
      </trkpt>
      <trkpt lat="42.66866" lon="0.5636">
        <ele>1978</ele>
        <time>2021-08-20T04:58:52Z</time>
      </trkpt>
      <trkpt lat="42.66871" lon="0.56375">
        <ele>1976</ele>
        <time>2021-08-20T04:58:36Z</time>
      </trkpt>
      <trkpt lat="42.66871" lon="0.56385">
        <ele>1975</ele>
        <time>2021-08-20T04:58:26Z</time>
      </trkpt>
      <trkpt lat="42.66875" lon="0.564">
        <ele>1973</ele>
        <time>2021-08-20T04:58:10Z</time>
      </trkpt>
      <trkpt lat="42.66875" lon="0.56405">
        <ele>1972</ele>
        <time>2021-08-20T04:58:05Z</time>
      </trkpt>
      <trkpt lat="42.66866" lon="0.56418">
        <ele>1969</ele>
        <time>2021-08-20T04:57:48Z</time>
      </trkpt>
      <trkpt lat="42.66865" lon="0.56426">
        <ele>1968</ele>
        <time>2021-08-20T04:57:40Z</time>
      </trkpt>
      <trkpt lat="42.66868" lon="0.56428">
        <ele>1968</ele>
        <time>2021-08-20T04:57:35Z</time>
      </trkpt>
      <trkpt lat="42.66874" lon="0.56431">
        <ele>1968</ele>
        <time>2021-08-20T04:57:27Z</time>
      </trkpt>
      <trkpt lat="42.66876" lon="0.56435">
        <ele>1968</ele>
        <time>2021-08-20T04:57:22Z</time>
      </trkpt>
      <trkpt lat="42.66872" lon="0.56447">
        <ele>1966</ele>
        <time>2021-08-20T04:57:09Z</time>
      </trkpt>
      <trkpt lat="42.66873" lon="0.56454">
        <ele>1965</ele>
        <time>2021-08-20T04:57:02Z</time>
      </trkpt>
      <trkpt lat="42.66878" lon="0.56456">
        <ele>1965</ele>
        <time>2021-08-20T04:56:55Z</time>
      </trkpt>
      <trkpt lat="42.66885" lon="0.56447">
        <ele>1967</ele>
        <time>2021-08-20T04:56:42Z</time>
      </trkpt>
      <trkpt lat="42.6689" lon="0.56438">
        <ele>1969</ele>
        <time>2021-08-20T04:56:31Z</time>
      </trkpt>
      <trkpt lat="42.66893" lon="0.5644">
        <ele>1969</ele>
        <time>2021-08-20T04:56:27Z</time>
      </trkpt>
      <trkpt lat="42.66894" lon="0.56445">
        <ele>1968</ele>
        <time>2021-08-20T04:56:22Z</time>
      </trkpt>
      <trkpt lat="42.669" lon="0.56446">
        <ele>1969</ele>
        <time>2021-08-20T04:56:14Z</time>
      </trkpt>
      <trkpt lat="42.66906" lon="0.56452">
        <ele>1968</ele>
        <time>2021-08-20T04:56:04Z</time>
      </trkpt>
      <trkpt lat="42.66908" lon="0.56467">
        <ele>1966</ele>
        <time>2021-08-20T04:55:49Z</time>
      </trkpt>
      <trkpt lat="42.66914" lon="0.56477">
        <ele>1965</ele>
        <time>2021-08-20T04:55:36Z</time>
      </trkpt>
      <trkpt lat="42.66915" lon="0.56495">
        <ele>1963</ele>
        <time>2021-08-20T04:55:18Z</time>
      </trkpt>
      <trkpt lat="42.66919" lon="0.56513">
        <ele>1959</ele>
        <time>2021-08-20T04:55:00Z</time>
      </trkpt>
      <trkpt lat="42.66918" lon="0.56528">
        <ele>1953</ele>
        <time>2021-08-20T04:54:45Z</time>
      </trkpt>
      <trkpt lat="42.6692" lon="0.56546">
        <ele>1948</ele>
        <time>2021-08-20T04:54:27Z</time>
      </trkpt>
      <trkpt lat="42.66916" lon="0.56571">
        <ele>1938</ele>
        <time>2021-08-20T04:54:02Z</time>
      </trkpt>
      <trkpt lat="42.66918" lon="0.56581">
        <ele>1935</ele>
        <time>2021-08-20T04:53:52Z</time>
      </trkpt>
      <trkpt lat="42.66916" lon="0.5665">
        <ele>1920</ele>
        <time>2021-08-20T04:52:44Z</time>
      </trkpt>
      <trkpt lat="42.66913" lon="0.56678">
        <ele>1914</ele>
        <time>2021-08-20T04:52:17Z</time>
      </trkpt>
      <trkpt lat="42.66909" lon="0.56701">
        <ele>1908</ele>
        <time>2021-08-20T04:51:53Z</time>
      </trkpt>
      <trkpt lat="42.66908" lon="0.56722">
        <ele>1902</ele>
        <time>2021-08-20T04:51:33Z</time>
      </trkpt>
      <trkpt lat="42.6691" lon="0.56732">
        <ele>1900</ele>
        <time>2021-08-20T04:51:22Z</time>
      </trkpt>
      <trkpt lat="42.66918" lon="0.56744">
        <ele>1899</ele>
        <time>2021-08-20T04:51:07Z</time>
      </trkpt>
      <trkpt lat="42.6692" lon="0.56755">
        <ele>1897</ele>
        <time>2021-08-20T04:50:55Z</time>
      </trkpt>
      <trkpt lat="42.66922" lon="0.56799">
        <ele>1887</ele>
        <time>2021-08-20T04:50:12Z</time>
      </trkpt>
      <trkpt lat="42.6692" lon="0.56836">
        <ele>1877</ele>
        <time>2021-08-20T04:49:36Z</time>
      </trkpt>
      <trkpt lat="42.66917" lon="0.56853">
        <ele>1871</ele>
        <time>2021-08-20T04:49:19Z</time>
      </trkpt>
      <trkpt lat="42.66919" lon="0.56861">
        <ele>1870</ele>
        <time>2021-08-20T04:49:10Z</time>
      </trkpt>
      <trkpt lat="42.66924" lon="0.56868">
        <ele>1872</ele>
        <time>2021-08-20T04:49:01Z</time>
      </trkpt>
      <trkpt lat="42.66922" lon="0.56878">
        <ele>1868</ele>
        <time>2021-08-20T04:48:51Z</time>
      </trkpt>
      <trkpt lat="42.66926" lon="0.56899">
        <ele>1866</ele>
        <time>2021-08-20T04:48:29Z</time>
      </trkpt>
      <trkpt lat="42.66926" lon="0.56919">
        <ele>1862</ele>
        <time>2021-08-20T04:48:10Z</time>
      </trkpt>
      <trkpt lat="42.66921" lon="0.56929">
        <ele>1859</ele>
        <time>2021-08-20T04:47:58Z</time>
      </trkpt>
      <trkpt lat="42.66903" lon="0.56953">
        <ele>1849</ele>
        <time>2021-08-20T04:47:24Z</time>
      </trkpt>
      <trkpt lat="42.66887" lon="0.5694">
        <ele>1843</ele>
        <time>2021-08-20T04:46:59Z</time>
      </trkpt>
      <trkpt lat="42.66877" lon="0.56948">
        <ele>1838</ele>
        <time>2021-08-20T04:46:44Z</time>
      </trkpt>
      <trkpt lat="42.66866" lon="0.5695">
        <ele>1833</ele>
        <time>2021-08-20T04:46:29Z</time>
      </trkpt>
      <trkpt lat="42.6685" lon="0.56955">
        <ele>1825</ele>
        <time>2021-08-20T04:46:07Z</time>
      </trkpt>
      <trkpt lat="42.66831" lon="0.56972">
        <ele>1815</ele>
        <time>2021-08-20T04:45:37Z</time>
      </trkpt>
      <trkpt lat="42.66791" lon="0.56978">
        <ele>1811</ele>
        <time>2021-08-20T04:44:43Z</time>
      </trkpt>
      <trkpt lat="42.66783" lon="0.56992">
        <ele>1807</ele>
        <time>2021-08-20T04:44:26Z</time>
      </trkpt>
      <trkpt lat="42.66776" lon="0.56998">
        <ele>1806</ele>
        <time>2021-08-20T04:44:15Z</time>
      </trkpt>
      <trkpt lat="42.66772" lon="0.57007">
        <ele>1804</ele>
        <time>2021-08-20T04:44:04Z</time>
      </trkpt>
      <trkpt lat="42.66768" lon="0.57022">
        <ele>1801</ele>
        <time>2021-08-20T04:43:49Z</time>
      </trkpt>
      <trkpt lat="42.66768" lon="0.57032">
        <ele>1799</ele>
        <time>2021-08-20T04:43:39Z</time>
      </trkpt>
      <trkpt lat="42.66772" lon="0.57048">
        <ele>1798</ele>
        <time>2021-08-20T04:43:22Z</time>
      </trkpt>
      <trkpt lat="42.66776" lon="0.57054">
        <ele>1797</ele>
        <time>2021-08-20T04:43:14Z</time>
      </trkpt>
      <trkpt lat="42.66779" lon="0.57064">
        <ele>1797</ele>
        <time>2021-08-20T04:43:04Z</time>
      </trkpt>
      <trkpt lat="42.66781" lon="0.57092">
        <ele>1793</ele>
        <time>2021-08-20T04:42:36Z</time>
      </trkpt>
      <trkpt lat="42.66785" lon="0.57104">
        <ele>1791</ele>
        <time>2021-08-20T04:42:23Z</time>
      </trkpt>
      <trkpt lat="42.66781" lon="0.57111">
        <ele>1789</ele>
        <time>2021-08-20T04:42:15Z</time>
      </trkpt>
      <trkpt lat="42.6678" lon="0.57117">
        <ele>1788</ele>
        <time>2021-08-20T04:42:08Z</time>
      </trkpt>
      <trkpt lat="42.6678" lon="0.57153">
        <ele>1781</ele>
        <time>2021-08-20T04:41:33Z</time>
      </trkpt>
      <trkpt lat="42.66778" lon="0.57162">
        <ele>1779</ele>
        <time>2021-08-20T04:41:24Z</time>
      </trkpt>
      <trkpt lat="42.66778" lon="0.57167">
        <ele>1778</ele>
        <time>2021-08-20T04:41:19Z</time>
      </trkpt>
      <trkpt lat="42.66783" lon="0.57176">
        <ele>1778</ele>
        <time>2021-08-20T04:41:08Z</time>
      </trkpt>
      <trkpt lat="42.66783" lon="0.57181">
        <ele>1777</ele>
        <time>2021-08-20T04:41:03Z</time>
      </trkpt>
      <trkpt lat="42.66779" lon="0.57187">
        <ele>1775</ele>
        <time>2021-08-20T04:40:55Z</time>
      </trkpt>
      <trkpt lat="42.66777" lon="0.57195">
        <ele>1773</ele>
        <time>2021-08-20T04:40:47Z</time>
      </trkpt>
      <trkpt lat="42.66778" lon="0.57222">
        <ele>1769</ele>
        <time>2021-08-20T04:40:20Z</time>
      </trkpt>
      <trkpt lat="42.66774" lon="0.57302">
        <ele>1755</ele>
        <time>2021-08-20T04:39:02Z</time>
      </trkpt>
      <trkpt lat="42.66768" lon="0.57325">
        <ele>1749</ele>
        <time>2021-08-20T04:38:38Z</time>
      </trkpt>
      <trkpt lat="42.66768" lon="0.57343">
        <ele>1746</ele>
        <time>2021-08-20T04:38:20Z</time>
      </trkpt>
      <trkpt lat="42.6677" lon="0.57359">
        <ele>1744</ele>
        <time>2021-08-20T04:38:04Z</time>
      </trkpt>
      <trkpt lat="42.66779" lon="0.57395">
        <ele>1739</ele>
        <time>2021-08-20T04:37:27Z</time>
      </trkpt>
      <trkpt lat="42.66783" lon="0.57417">
        <ele>1736</ele>
        <time>2021-08-20T04:37:05Z</time>
      </trkpt>
      <trkpt lat="42.66779" lon="0.57424">
        <ele>1735</ele>
        <time>2021-08-20T04:36:56Z</time>
      </trkpt>
      <trkpt lat="42.66778" lon="0.57432">
        <ele>1734</ele>
        <time>2021-08-20T04:36:48Z</time>
      </trkpt>
      <trkpt lat="42.6678" lon="0.57441">
        <ele>1734</ele>
        <time>2021-08-20T04:36:39Z</time>
      </trkpt>
      <trkpt lat="42.66779" lon="0.57449">
        <ele>1733</ele>
        <time>2021-08-20T04:36:31Z</time>
      </trkpt>
      <trkpt lat="42.66774" lon="0.57462">
        <ele>1730</ele>
        <time>2021-08-20T04:36:16Z</time>
      </trkpt>
      <trkpt lat="42.66771" lon="0.57477">
        <ele>1728</ele>
        <time>2021-08-20T04:36:01Z</time>
      </trkpt>
      <trkpt lat="42.6677" lon="0.57498">
        <ele>1726</ele>
        <time>2021-08-20T04:35:40Z</time>
      </trkpt>
      <trkpt lat="42.66771" lon="0.57522">
        <ele>1724</ele>
        <time>2021-08-20T04:35:17Z</time>
      </trkpt>
      <trkpt lat="42.66765" lon="0.57543">
        <ele>1720</ele>
        <time>2021-08-20T04:34:55Z</time>
      </trkpt>
      <trkpt lat="42.66762" lon="0.57548">
        <ele>1718</ele>
        <time>2021-08-20T04:34:48Z</time>
      </trkpt>
      <trkpt lat="42.66754" lon="0.57549">
        <ele>1714</ele>
        <time>2021-08-20T04:34:38Z</time>
      </trkpt>
      <trkpt lat="42.66747" lon="0.57542">
        <ele>1713</ele>
        <time>2021-08-20T04:34:26Z</time>
      </trkpt>
      <trkpt lat="42.66746" lon="0.57544">
        <ele>1713</ele>
        <time>2021-08-20T04:34:24Z</time>
      </trkpt>
      <trkpt lat="42.66743" lon="0.57544">
        <ele>1713</ele>
        <time>2021-08-20T04:34:20Z</time>
      </trkpt>
      <trkpt lat="42.66738" lon="0.57538">
        <ele>1713</ele>
        <time>2021-08-20T04:34:11Z</time>
      </trkpt>
      <trkpt lat="42.66735" lon="0.57538">
        <ele>1713</ele>
        <time>2021-08-20T04:34:07Z</time>
      </trkpt>
      <trkpt lat="42.66729" lon="0.57546">
        <ele>1712</ele>
        <time>2021-08-20T04:33:56Z</time>
      </trkpt>
      <trkpt lat="42.66722" lon="0.57568">
        <ele>1709</ele>
        <time>2021-08-20T04:33:32Z</time>
      </trkpt>
      <trkpt lat="42.66731" lon="0.57588">
        <ele>1706</ele>
        <time>2021-08-20T04:33:09Z</time>
      </trkpt>
      <trkpt lat="42.6674" lon="0.576">
        <ele>1704</ele>
        <time>2021-08-20T04:32:52Z</time>
      </trkpt>
      <trkpt lat="42.66742" lon="0.57607">
        <ele>1703</ele>
        <time>2021-08-20T04:32:45Z</time>
      </trkpt>
      <trkpt lat="42.66741" lon="0.57613">
        <ele>1701</ele>
        <time>2021-08-20T04:32:39Z</time>
      </trkpt>
      <trkpt lat="42.66735" lon="0.57612">
        <ele>1700</ele>
        <time>2021-08-20T04:32:31Z</time>
      </trkpt>
      <trkpt lat="42.66735" lon="0.57616">
        <ele>1699</ele>
        <time>2021-08-20T04:32:27Z</time>
      </trkpt>
      <trkpt lat="42.66752" lon="0.57649">
        <ele>1695</ele>
        <time>2021-08-20T04:31:47Z</time>
      </trkpt>
      <trkpt lat="42.66751" lon="0.57654">
        <ele>1693</ele>
        <time>2021-08-20T04:31:42Z</time>
      </trkpt>
      <trkpt lat="42.66744" lon="0.57652">
        <ele>1692</ele>
        <time>2021-08-20T04:31:33Z</time>
      </trkpt>
      <trkpt lat="42.66743" lon="0.57656">
        <ele>1691</ele>
        <time>2021-08-20T04:31:28Z</time>
      </trkpt>
      <trkpt lat="42.66749" lon="0.57665">
        <ele>1690</ele>
        <time>2021-08-20T04:31:17Z</time>
      </trkpt>
      <trkpt lat="42.66758" lon="0.57689">
        <ele>1685</ele>
        <time>2021-08-20T04:30:50Z</time>
      </trkpt>
      <trkpt lat="42.66757" lon="0.57692">
        <ele>1683</ele>
        <time>2021-08-20T04:30:47Z</time>
      </trkpt>
      <trkpt lat="42.66738" lon="0.57691">
        <ele>1677</ele>
        <time>2021-08-20T04:30:22Z</time>
      </trkpt>
      <trkpt lat="42.66738" lon="0.57697">
        <ele>1675</ele>
        <time>2021-08-20T04:30:16Z</time>
      </trkpt>
      <trkpt lat="42.6675" lon="0.57715">
        <ele>1671</ele>
        <time>2021-08-20T04:29:52Z</time>
      </trkpt>
      <trkpt lat="42.66753" lon="0.57722">
        <ele>1670</ele>
        <time>2021-08-20T04:29:44Z</time>
      </trkpt>
      <trkpt lat="42.66754" lon="0.57727">
        <ele>1668</ele>
        <time>2021-08-20T04:29:39Z</time>
      </trkpt>
      <trkpt lat="42.6675" lon="0.57729">
        <ele>1665</ele>
        <time>2021-08-20T04:29:33Z</time>
      </trkpt>
      <trkpt lat="42.66745" lon="0.57728">
        <ele>1664</ele>
        <time>2021-08-20T04:29:26Z</time>
      </trkpt>
      <trkpt lat="42.66743" lon="0.5773">
        <ele>1663</ele>
        <time>2021-08-20T04:29:23Z</time>
      </trkpt>
      <trkpt lat="42.66743" lon="0.57735">
        <ele>1661</ele>
        <time>2021-08-20T04:29:18Z</time>
      </trkpt>
      <trkpt lat="42.66755" lon="0.57752">
        <ele>1659</ele>
        <time>2021-08-20T04:28:55Z</time>
      </trkpt>
      <trkpt lat="42.66759" lon="0.57759">
        <ele>1659</ele>
        <time>2021-08-20T04:28:46Z</time>
      </trkpt>
      <trkpt lat="42.66761" lon="0.57776">
        <ele>1654</ele>
        <time>2021-08-20T04:28:29Z</time>
      </trkpt>
      <trkpt lat="42.66769" lon="0.57797">
        <ele>1651</ele>
        <time>2021-08-20T04:28:06Z</time>
      </trkpt>
      <trkpt lat="42.66777" lon="0.57832">
        <ele>1643</ele>
        <time>2021-08-20T04:27:30Z</time>
      </trkpt>
      <trkpt lat="42.6678" lon="0.57837">
        <ele>1643</ele>
        <time>2021-08-20T04:27:24Z</time>
      </trkpt>
      <trkpt lat="42.66792" lon="0.57846">
        <ele>1645</ele>
        <time>2021-08-20T04:27:06Z</time>
      </trkpt>
      <trkpt lat="42.66796" lon="0.57851">
        <ele>1645</ele>
        <time>2021-08-20T04:26:58Z</time>
      </trkpt>
      <trkpt lat="42.66807" lon="0.57873">
        <ele>1640</ele>
        <time>2021-08-20T04:26:32Z</time>
      </trkpt>
      <trkpt lat="42.66812" lon="0.57889">
        <ele>1636</ele>
        <time>2021-08-20T04:26:15Z</time>
      </trkpt>
      <trkpt lat="42.6681" lon="0.57895">
        <ele>1632</ele>
        <time>2021-08-20T04:26:09Z</time>
      </trkpt>
      <trkpt lat="42.66791" lon="0.57878">
        <ele>1631</ele>
        <time>2021-08-20T04:25:38Z</time>
      </trkpt>
      <trkpt lat="42.66781" lon="0.5788">
        <ele>1626</ele>
        <time>2021-08-20T04:25:25Z</time>
      </trkpt>
      <trkpt lat="42.66713" lon="0.57826">
        <ele>1618</ele>
        <time>2021-08-20T04:23:40Z</time>
      </trkpt>
      <trkpt lat="42.66714" lon="0.57812">
        <ele>1623</ele>
        <time>2021-08-20T04:23:26Z</time>
      </trkpt>
      <trkpt lat="42.66701" lon="0.57805">
        <ele>1621</ele>
        <time>2021-08-20T04:23:07Z</time>
      </trkpt>
      <trkpt lat="42.66686" lon="0.57803">
        <ele>1616</ele>
        <time>2021-08-20T04:22:47Z</time>
      </trkpt>
      <trkpt lat="42.6664" lon="0.57804">
        <ele>1609</ele>
        <time>2021-08-20T04:21:46Z</time>
      </trkpt>
      <trkpt lat="42.6659" lon="0.57807">
        <ele>1608</ele>
        <time>2021-08-20T04:20:39Z</time>
      </trkpt>
      <trkpt lat="42.66531" lon="0.57809">
        <ele>1606</ele>
        <time>2021-08-20T04:19:20Z</time>
      </trkpt>
      <trkpt lat="42.6642" lon="0.57811">
        <ele>1596</ele>
        <time>2021-08-20T04:16:52Z</time>
      </trkpt>
      <trkpt lat="42.66427" lon="0.57815">
        <ele>1595</ele>
        <time>2021-08-20T04:16:42Z</time>
      </trkpt>
      <trkpt lat="42.66457" lon="0.57831">
        <ele>1590</ele>
        <time>2021-08-20T04:15:59Z</time>
      </trkpt>
      <trkpt lat="42.66559" lon="0.57871">
        <ele>1582</ele>
        <time>2021-08-20T04:13:37Z</time>
      </trkpt>
      <trkpt lat="42.66597" lon="0.57888">
        <ele>1576</ele>
        <time>2021-08-20T04:12:44Z</time>
      </trkpt>
      <trkpt lat="42.66642" lon="0.57894">
        <ele>1576</ele>
        <time>2021-08-20T04:11:44Z</time>
      </trkpt>
      <trkpt lat="42.66659" lon="0.57904">
        <ele>1573</ele>
        <time>2021-08-20T04:11:19Z</time>
      </trkpt>
      <trkpt lat="42.66678" lon="0.5792">
        <ele>1572</ele>
        <time>2021-08-20T04:10:49Z</time>
      </trkpt>
      <trkpt lat="42.66694" lon="0.57939">
        <ele>1575</ele>
        <time>2021-08-20T04:10:21Z</time>
      </trkpt>
      <trkpt lat="42.66715" lon="0.57971">
        <ele>1575</ele>
        <time>2021-08-20T04:09:39Z</time>
      </trkpt>
      <trkpt lat="42.66726" lon="0.57999">
        <ele>1573</ele>
        <time>2021-08-20T04:09:08Z</time>
      </trkpt>
      <trkpt lat="42.66753" lon="0.58104">
        <ele>1554</ele>
        <time>2021-08-20T04:07:18Z</time>
      </trkpt>
      <trkpt lat="42.66761" lon="0.58129">
        <ele>1554</ele>
        <time>2021-08-20T04:06:52Z</time>
      </trkpt>
      <trkpt lat="42.66765" lon="0.5815">
        <ele>1554</ele>
        <time>2021-08-20T04:06:30Z</time>
      </trkpt>
      <trkpt lat="42.66763" lon="0.58164">
        <ele>1552</ele>
        <time>2021-08-20T04:06:16Z</time>
      </trkpt>
      <trkpt lat="42.66765" lon="0.58187">
        <ele>1551</ele>
        <time>2021-08-20T04:05:54Z</time>
      </trkpt>
      <trkpt lat="42.6676" lon="0.5822">
        <ele>1550</ele>
        <time>2021-08-20T04:05:21Z</time>
      </trkpt>
      <trkpt lat="42.66752" lon="0.58239">
        <ele>1548</ele>
        <time>2021-08-20T04:04:59Z</time>
      </trkpt>
      <trkpt lat="42.6675" lon="0.58252">
        <ele>1547</ele>
        <time>2021-08-20T04:04:46Z</time>
      </trkpt>
      <trkpt lat="42.66752" lon="0.58262">
        <ele>1547</ele>
        <time>2021-08-20T04:04:36Z</time>
      </trkpt>
      <trkpt lat="42.6675" lon="0.58282">
        <ele>1546</ele>
        <time>2021-08-20T04:04:16Z</time>
      </trkpt>
      <trkpt lat="42.66747" lon="0.58301">
        <ele>1545</ele>
        <time>2021-08-20T04:03:57Z</time>
      </trkpt>
      <trkpt lat="42.66742" lon="0.58305">
        <ele>1544</ele>
        <time>2021-08-20T04:03:49Z</time>
      </trkpt>
      <trkpt lat="42.66734" lon="0.5831">
        <ele>1543</ele>
        <time>2021-08-20T04:03:38Z</time>
      </trkpt>
      <trkpt lat="42.66709" lon="0.58321">
        <ele>1541</ele>
        <time>2021-08-20T04:03:02Z</time>
      </trkpt>
      <trkpt lat="42.66691" lon="0.58325">
        <ele>1539</ele>
        <time>2021-08-20T04:02:38Z</time>
      </trkpt>
      <trkpt lat="42.66667" lon="0.58322">
        <ele>1537</ele>
        <time>2021-08-20T04:02:06Z</time>
      </trkpt>
      <trkpt lat="42.66577" lon="0.58299">
        <ele>1535</ele>
        <time>2021-08-20T04:00:04Z</time>
      </trkpt>
      <trkpt lat="42.66554" lon="0.58297">
        <ele>1536</ele>
        <time>2021-08-20T03:59:33Z</time>
      </trkpt>
      <trkpt lat="42.66529" lon="0.58302">
        <ele>1538</ele>
        <time>2021-08-20T03:58:59Z</time>
      </trkpt>
      <trkpt lat="42.66473" lon="0.58325">
        <ele>1544</ele>
        <time>2021-08-20T03:57:41Z</time>
      </trkpt>
      <trkpt lat="42.66413" lon="0.58342">
        <ele>1549</ele>
        <time>2021-08-20T03:56:19Z</time>
      </trkpt>
      <trkpt lat="42.66407" lon="0.58344">
        <ele>1550</ele>
        <time>2021-08-20T03:56:11Z</time>
      </trkpt>
      <trkpt lat="42.66406" lon="0.58341">
        <ele>1549</ele>
        <time>2021-08-20T03:56:08Z</time>
      </trkpt>
      <trkpt lat="42.6639" lon="0.58319">
        <ele>1545</ele>
        <time>2021-08-20T03:55:38Z</time>
      </trkpt>
      <trkpt lat="42.66383" lon="0.58311">
        <ele>1543</ele>
        <time>2021-08-20T03:55:25Z</time>
      </trkpt>
      <trkpt lat="42.66352" lon="0.58294">
        <ele>1540</ele>
        <time>2021-08-20T03:54:41Z</time>
      </trkpt>
      <trkpt lat="42.66343" lon="0.5829">
        <ele>1540</ele>
        <time>2021-08-20T03:54:28Z</time>
      </trkpt>
      <trkpt lat="42.66335" lon="0.58285">
        <ele>1539</ele>
        <time>2021-08-20T03:54:16Z</time>
      </trkpt>
      <trkpt lat="42.66325" lon="0.58271">
        <ele>1536</ele>
        <time>2021-08-20T03:53:57Z</time>
      </trkpt>
      <trkpt lat="42.66309" lon="0.58243">
        <ele>1531</ele>
        <time>2021-08-20T03:53:22Z</time>
      </trkpt>
      <trkpt lat="42.66305" lon="0.58242">
        <ele>1530</ele>
        <time>2021-08-20T03:53:17Z</time>
      </trkpt>
      <trkpt lat="42.66291" lon="0.58242">
        <ele>1530</ele>
        <time>2021-08-20T03:52:58Z</time>
      </trkpt>
      <trkpt lat="42.66281" lon="0.58248">
        <ele>1530</ele>
        <time>2021-08-20T03:52:44Z</time>
      </trkpt>
      <trkpt lat="42.6627" lon="0.58261">
        <ele>1534</ele>
        <time>2021-08-20T03:52:24Z</time>
      </trkpt>
      <trkpt lat="42.66267" lon="0.58263">
        <ele>1535</ele>
        <time>2021-08-20T03:52:20Z</time>
      </trkpt>
      <trkpt lat="42.66241" lon="0.58255">
        <ele>1533</ele>
        <time>2021-08-20T03:51:44Z</time>
      </trkpt>
      <trkpt lat="42.662" lon="0.5821">
        <ele>1532</ele>
        <time>2021-08-20T03:50:34Z</time>
      </trkpt>
      <trkpt lat="42.66171" lon="0.58195">
        <ele>1532</ele>
        <time>2021-08-20T03:49:53Z</time>
      </trkpt>
      <trkpt lat="42.66155" lon="0.58177">
        <ele>1533</ele>
        <time>2021-08-20T03:49:25Z</time>
      </trkpt>
      <trkpt lat="42.66143" lon="0.58166">
        <ele>1533</ele>
        <time>2021-08-20T03:49:06Z</time>
      </trkpt>
      <trkpt lat="42.66141" lon="0.58163">
        <ele>1533</ele>
        <time>2021-08-20T03:49:02Z</time>
      </trkpt>
      <trkpt lat="42.6614" lon="0.5816">
        <ele>1534</ele>
        <time>2021-08-20T03:48:58Z</time>
      </trkpt>
      <trkpt lat="42.66136" lon="0.58149">
        <ele>1535</ele>
        <time>2021-08-20T03:48:46Z</time>
      </trkpt>
      <trkpt lat="42.66132" lon="0.58126">
        <ele>1535</ele>
        <time>2021-08-20T03:48:23Z</time>
      </trkpt>
      <trkpt lat="42.66082" lon="0.58075">
        <ele>1541</ele>
        <time>2021-08-20T03:47:00Z</time>
      </trkpt>
      <trkpt lat="42.66021" lon="0.58068">
        <ele>1534</ele>
        <time>2021-08-20T03:45:38Z</time>
      </trkpt>
      <trkpt lat="42.65988" lon="0.58057">
        <ele>1531</ele>
        <time>2021-08-20T03:44:53Z</time>
      </trkpt>
      <trkpt lat="42.6597" lon="0.5804">
        <ele>1530</ele>
        <time>2021-08-20T03:44:23Z</time>
      </trkpt>
      <trkpt lat="42.65932" lon="0.58013">
        <ele>1519</ele>
        <time>2021-08-20T03:43:26Z</time>
      </trkpt>
      <trkpt lat="42.65931" lon="0.5793">
        <ele>1516</ele>
        <time>2021-08-20T03:42:05Z</time>
      </trkpt>
      <trkpt lat="42.65922" lon="0.57877">
        <ele>1516</ele>
        <time>2021-08-20T03:41:11Z</time>
      </trkpt>
      <trkpt lat="42.65913" lon="0.5786">
        <ele>1513</ele>
        <time>2021-08-20T03:40:51Z</time>
      </trkpt>
      <trkpt lat="42.65868" lon="0.57804">
        <ele>1511</ele>
        <time>2021-08-20T03:39:29Z</time>
      </trkpt>
      <trkpt lat="42.65846" lon="0.57791">
        <ele>1508</ele>
        <time>2021-08-20T03:38:57Z</time>
      </trkpt>
      <trkpt lat="42.65809" lon="0.5779">
        <ele>1498</ele>
        <time>2021-08-20T03:38:08Z</time>
      </trkpt>
      <trkpt lat="42.6576" lon="0.57752">
        <ele>1493</ele>
        <time>2021-08-20T03:36:53Z</time>
      </trkpt>
      <trkpt lat="42.65676" lon="0.57708">
        <ele>1490</ele>
        <time>2021-08-20T03:34:53Z</time>
      </trkpt>
      <trkpt lat="42.65662" lon="0.57708">
        <ele>1487</ele>
        <time>2021-08-20T03:34:34Z</time>
      </trkpt>
      <trkpt lat="42.65605" lon="0.57717">
        <ele>1478</ele>
        <time>2021-08-20T03:33:17Z</time>
      </trkpt>
      <trkpt lat="42.65589" lon="0.57725">
        <ele>1475</ele>
        <time>2021-08-20T03:32:55Z</time>
      </trkpt>
      <trkpt lat="42.65572" lon="0.57731">
        <ele>1475</ele>
        <time>2021-08-20T03:32:31Z</time>
      </trkpt>
      <trkpt lat="42.65566" lon="0.57731">
        <ele>1476</ele>
        <time>2021-08-20T03:32:23Z</time>
      </trkpt>
      <trkpt lat="42.65565" lon="0.57734">
        <ele>1476</ele>
        <time>2021-08-20T03:32:20Z</time>
      </trkpt>
      <trkpt lat="42.65554" lon="0.57768">
        <ele>1481</ele>
        <time>2021-08-20T03:31:43Z</time>
      </trkpt>
      <trkpt lat="42.65527" lon="0.57806">
        <ele>1494</ele>
        <time>2021-08-20T03:30:52Z</time>
      </trkpt>
      <trkpt lat="42.65526" lon="0.57826">
        <ele>1500</ele>
        <time>2021-08-20T03:30:32Z</time>
      </trkpt>
      <trkpt lat="42.65528" lon="0.57864">
        <ele>1511</ele>
        <time>2021-08-20T03:29:55Z</time>
      </trkpt>
      <trkpt lat="42.65528" lon="0.57998">
        <ele>1557</ele>
        <time>2021-08-20T03:27:43Z</time>
      </trkpt>
      <trkpt lat="42.65519" lon="0.58012">
        <ele>1563</ele>
        <time>2021-08-20T03:27:25Z</time>
      </trkpt>
      <trkpt lat="42.65492" lon="0.58036">
        <ele>1574</ele>
        <time>2021-08-20T03:26:42Z</time>
      </trkpt>
      <trkpt lat="42.65474" lon="0.58056">
        <ele>1584</ele>
        <time>2021-08-20T03:26:11Z</time>
      </trkpt>
      <trkpt lat="42.65464" lon="0.58085">
        <ele>1596</ele>
        <time>2021-08-20T03:25:39Z</time>
      </trkpt>
      <trkpt lat="42.65447" lon="0.58103">
        <ele>1606</ele>
        <time>2021-08-20T03:25:11Z</time>
      </trkpt>
      <trkpt lat="42.65423" lon="0.58121">
        <ele>1614</ele>
        <time>2021-08-20T03:24:34Z</time>
      </trkpt>
      <trkpt lat="42.65382" lon="0.58172">
        <ele>1643</ele>
        <time>2021-08-20T03:23:20Z</time>
      </trkpt>
      <trkpt lat="42.65368" lon="0.58201">
        <ele>1654</ele>
        <time>2021-08-20T03:22:46Z</time>
      </trkpt>
      <trkpt lat="42.65366" lon="0.58208">
        <ele>1655</ele>
        <time>2021-08-20T03:22:38Z</time>
      </trkpt>
      <trkpt lat="42.65364" lon="0.58242">
        <ele>1663</ele>
        <time>2021-08-20T03:22:05Z</time>
      </trkpt>
      <trkpt lat="42.65359" lon="0.58253">
        <ele>1666</ele>
        <time>2021-08-20T03:21:52Z</time>
      </trkpt>
      <trkpt lat="42.65341" lon="0.5828">
        <ele>1674</ele>
        <time>2021-08-20T03:21:16Z</time>
      </trkpt>
      <trkpt lat="42.65329" lon="0.58295">
        <ele>1680</ele>
        <time>2021-08-20T03:20:55Z</time>
      </trkpt>
      <trkpt lat="42.65319" lon="0.58312">
        <ele>1688</ele>
        <time>2021-08-20T03:20:33Z</time>
      </trkpt>
      <trkpt lat="42.65316" lon="0.5833">
        <ele>1693</ele>
        <time>2021-08-20T03:20:15Z</time>
      </trkpt>
      <trkpt lat="42.65318" lon="0.58381">
        <ele>1708</ele>
        <time>2021-08-20T03:19:25Z</time>
      </trkpt>
      <trkpt lat="42.65315" lon="0.58398">
        <ele>1714</ele>
        <time>2021-08-20T03:19:08Z</time>
      </trkpt>
      <trkpt lat="42.65295" lon="0.58461">
        <ele>1735</ele>
        <time>2021-08-20T03:18:01Z</time>
      </trkpt>
      <trkpt lat="42.6528" lon="0.58495">
        <ele>1742</ele>
        <time>2021-08-20T03:17:22Z</time>
      </trkpt>
      <trkpt lat="42.65275" lon="0.58522">
        <ele>1749</ele>
        <time>2021-08-20T03:16:54Z</time>
      </trkpt>
      <trkpt lat="42.6528" lon="0.58546">
        <ele>1758</ele>
        <time>2021-08-20T03:16:30Z</time>
      </trkpt>
      <trkpt lat="42.65273" lon="0.58578">
        <ele>1766</ele>
        <time>2021-08-20T03:15:57Z</time>
      </trkpt>
      <trkpt lat="42.65277" lon="0.58606">
        <ele>1779</ele>
        <time>2021-08-20T03:15:29Z</time>
      </trkpt>
      <trkpt lat="42.65274" lon="0.58645">
        <ele>1794</ele>
        <time>2021-08-20T03:14:51Z</time>
      </trkpt>
      <trkpt lat="42.65276" lon="0.58658">
        <ele>1801</ele>
        <time>2021-08-20T03:14:38Z</time>
      </trkpt>
      <trkpt lat="42.65282" lon="0.58663">
        <ele>1805</ele>
        <time>2021-08-20T03:14:28Z</time>
      </trkpt>
      <trkpt lat="42.65283" lon="0.58676">
        <ele>1810</ele>
        <time>2021-08-20T03:14:15Z</time>
      </trkpt>
      <trkpt lat="42.65286" lon="0.58692">
        <ele>1816</ele>
        <time>2021-08-20T03:13:59Z</time>
      </trkpt>
      <trkpt lat="42.65271" lon="0.58764">
        <ele>1831</ele>
        <time>2021-08-20T03:12:46Z</time>
      </trkpt>
      <trkpt lat="42.65269" lon="0.58778">
        <ele>1834</ele>
        <time>2021-08-20T03:12:32Z</time>
      </trkpt>
      <trkpt lat="42.65269" lon="0.58787">
        <ele>1836</ele>
        <time>2021-08-20T03:12:23Z</time>
      </trkpt>
      <trkpt lat="42.65276" lon="0.58801">
        <ele>1843</ele>
        <time>2021-08-20T03:12:06Z</time>
      </trkpt>
      <trkpt lat="42.65275" lon="0.58829">
        <ele>1851</ele>
        <time>2021-08-20T03:11:39Z</time>
      </trkpt>
      <trkpt lat="42.65238" lon="0.58899">
        <ele>1860</ele>
        <time>2021-08-20T03:10:14Z</time>
      </trkpt>
      <trkpt lat="42.65217" lon="0.58948">
        <ele>1875</ele>
        <time>2021-08-20T03:09:18Z</time>
      </trkpt>
      <trkpt lat="42.65214" lon="0.58977">
        <ele>1884</ele>
        <time>2021-08-20T03:08:50Z</time>
      </trkpt>
      <trkpt lat="42.65216" lon="0.59">
        <ele>1890</ele>
        <time>2021-08-20T03:08:27Z</time>
      </trkpt>
      <trkpt lat="42.65204" lon="0.59031">
        <ele>1904</ele>
        <time>2021-08-20T03:07:53Z</time>
      </trkpt>
      <trkpt lat="42.65211" lon="0.59061">
        <ele>1918</ele>
        <time>2021-08-20T03:07:22Z</time>
      </trkpt>
      <trkpt lat="42.6521" lon="0.59073">
        <ele>1924</ele>
        <time>2021-08-20T03:07:10Z</time>
      </trkpt>
      <trkpt lat="42.65187" lon="0.59103">
        <ele>1937</ele>
        <time>2021-08-20T03:06:27Z</time>
      </trkpt>
      <trkpt lat="42.65155" lon="0.5913">
        <ele>1950</ele>
        <time>2021-08-20T03:05:37Z</time>
      </trkpt>
      <trkpt lat="42.65132" lon="0.59139">
        <ele>1954</ele>
        <time>2021-08-20T03:05:05Z</time>
      </trkpt>
      <trkpt lat="42.65118" lon="0.5915">
        <ele>1958</ele>
        <time>2021-08-20T03:04:44Z</time>
      </trkpt>
      <trkpt lat="42.65099" lon="0.59157">
        <ele>1958</ele>
        <time>2021-08-20T03:04:17Z</time>
      </trkpt>
      <trkpt lat="42.65084" lon="0.59174">
        <ele>1962</ele>
        <time>2021-08-20T03:03:51Z</time>
      </trkpt>
      <trkpt lat="42.65062" lon="0.59204">
        <ele>1977</ele>
        <time>2021-08-20T03:03:10Z</time>
      </trkpt>
      <trkpt lat="42.65034" lon="0.59254">
        <ele>1990</ele>
        <time>2021-08-20T03:02:08Z</time>
      </trkpt>
      <trkpt lat="42.65023" lon="0.59263">
        <ele>1992</ele>
        <time>2021-08-20T03:01:51Z</time>
      </trkpt>
      <trkpt lat="42.65007" lon="0.59282">
        <ele>1995</ele>
        <time>2021-08-20T03:01:22Z</time>
      </trkpt>
      <trkpt lat="42.6499" lon="0.59293">
        <ele>1998</ele>
        <time>2021-08-20T03:00:57Z</time>
      </trkpt>
      <trkpt lat="42.6497" lon="0.59317">
        <ele>2004</ele>
        <time>2021-08-20T03:00:22Z</time>
      </trkpt>
      <trkpt lat="42.64951" lon="0.59335">
        <ele>2006</ele>
        <time>2021-08-20T02:59:51Z</time>
      </trkpt>
      <trkpt lat="42.64943" lon="0.59339">
        <ele>2007</ele>
        <time>2021-08-20T02:59:39Z</time>
      </trkpt>
      <trkpt lat="42.64934" lon="0.59346">
        <ele>2007</ele>
        <time>2021-08-20T02:59:26Z</time>
      </trkpt>
      <trkpt lat="42.64934" lon="0.59379">
        <ele>2010</ele>
        <time>2021-08-20T02:58:53Z</time>
      </trkpt>
      <trkpt lat="42.64921" lon="0.59443">
        <ele>2013</ele>
        <time>2021-08-20T02:57:48Z</time>
      </trkpt>
      <trkpt lat="42.64921" lon="0.59454">
        <ele>2013</ele>
        <time>2021-08-20T02:57:37Z</time>
      </trkpt>
      <trkpt lat="42.64918" lon="0.59481">
        <ele>2014</ele>
        <time>2021-08-20T02:57:10Z</time>
      </trkpt>
      <trkpt lat="42.6491" lon="0.59504">
        <ele>2016</ele>
        <time>2021-08-20T02:56:46Z</time>
      </trkpt>
      <trkpt lat="42.64894" lon="0.59532">
        <ele>2019</ele>
        <time>2021-08-20T02:56:11Z</time>
      </trkpt>
      <trkpt lat="42.64886" lon="0.59561">
        <ele>2020</ele>
        <time>2021-08-20T02:55:40Z</time>
      </trkpt>
      <trkpt lat="42.64879" lon="0.59579">
        <ele>2020</ele>
        <time>2021-08-20T02:55:20Z</time>
      </trkpt>
      <trkpt lat="42.64869" lon="0.59618">
        <ele>2022</ele>
        <time>2021-08-20T02:54:40Z</time>
      </trkpt>
      <trkpt lat="42.64869" lon="0.59662">
        <ele>2024</ele>
        <time>2021-08-20T02:53:57Z</time>
      </trkpt>
      <trkpt lat="42.64871" lon="0.59673">
        <ele>2026</ele>
        <time>2021-08-20T02:53:45Z</time>
      </trkpt>
      <trkpt lat="42.64865" lon="0.59687">
        <ele>2027</ele>
        <time>2021-08-20T02:53:30Z</time>
      </trkpt>
      <trkpt lat="42.64853" lon="0.59702">
        <ele>2026</ele>
        <time>2021-08-20T02:53:08Z</time>
      </trkpt>
      <trkpt lat="42.64839" lon="0.59715">
        <ele>2026</ele>
        <time>2021-08-20T02:52:45Z</time>
      </trkpt>
      <trkpt lat="42.64834" lon="0.59725">
        <ele>2026</ele>
        <time>2021-08-20T02:52:33Z</time>
      </trkpt>
      <trkpt lat="42.64828" lon="0.59752">
        <ele>2030</ele>
        <time>2021-08-20T02:52:06Z</time>
      </trkpt>
      <trkpt lat="42.64817" lon="0.59785">
        <ele>2036</ele>
        <time>2021-08-20T02:51:30Z</time>
      </trkpt>
      <trkpt lat="42.64812" lon="0.59827">
        <ele>2041</ele>
        <time>2021-08-20T02:50:48Z</time>
      </trkpt>
      <trkpt lat="42.64803" lon="0.59856">
        <ele>2044</ele>
        <time>2021-08-20T02:50:17Z</time>
      </trkpt>
      <trkpt lat="42.64791" lon="0.59868">
        <ele>2045</ele>
        <time>2021-08-20T02:49:58Z</time>
      </trkpt>
      <trkpt lat="42.64782" lon="0.59875">
        <ele>2045</ele>
        <time>2021-08-20T02:49:44Z</time>
      </trkpt>
      <trkpt lat="42.64779" lon="0.59881">
        <ele>2046</ele>
        <time>2021-08-20T02:49:37Z</time>
      </trkpt>
      <trkpt lat="42.64777" lon="0.5989">
        <ele>2046</ele>
        <time>2021-08-20T02:49:27Z</time>
      </trkpt>
      <trkpt lat="42.64777" lon="0.59899">
        <ele>2047</ele>
        <time>2021-08-20T02:49:19Z</time>
      </trkpt>
      <trkpt lat="42.64793" lon="0.59912">
        <ele>2049</ele>
        <time>2021-08-20T02:48:54Z</time>
      </trkpt>
      <trkpt lat="42.64807" lon="0.59934">
        <ele>2054</ele>
        <time>2021-08-20T02:48:25Z</time>
      </trkpt>
      <trkpt lat="42.64811" lon="0.59953">
        <ele>2058</ele>
        <time>2021-08-20T02:48:06Z</time>
      </trkpt>
      <trkpt lat="42.64805" lon="0.59968">
        <ele>2061</ele>
        <time>2021-08-20T02:47:49Z</time>
      </trkpt>
      <trkpt lat="42.64814" lon="0.5999">
        <ele>2066</ele>
        <time>2021-08-20T02:47:24Z</time>
      </trkpt>
      <trkpt lat="42.64816" lon="0.60024">
        <ele>2073</ele>
        <time>2021-08-20T02:46:51Z</time>
      </trkpt>
      <trkpt lat="42.64818" lon="0.60032">
        <ele>2075</ele>
        <time>2021-08-20T02:46:42Z</time>
      </trkpt>
      <trkpt lat="42.64826" lon="0.60055">
        <ele>2082</ele>
        <time>2021-08-20T02:46:17Z</time>
      </trkpt>
      <trkpt lat="42.64826" lon="0.6012">
        <ele>2097</ele>
        <time>2021-08-20T02:45:14Z</time>
      </trkpt>
      <trkpt lat="42.64828" lon="0.60147">
        <ele>2104</ele>
        <time>2021-08-20T02:44:47Z</time>
      </trkpt>
      <trkpt lat="42.64831" lon="0.60159">
        <ele>2107</ele>
        <time>2021-08-20T02:44:35Z</time>
      </trkpt>
      <trkpt lat="42.64827" lon="0.60172">
        <ele>2110</ele>
        <time>2021-08-20T02:44:21Z</time>
      </trkpt>
      <trkpt lat="42.64827" lon="0.60185">
        <ele>2113</ele>
        <time>2021-08-20T02:44:08Z</time>
      </trkpt>
      <trkpt lat="42.64835" lon="0.60209">
        <ele>2120</ele>
        <time>2021-08-20T02:43:42Z</time>
      </trkpt>
      <trkpt lat="42.64843" lon="0.6022">
        <ele>2126</ele>
        <time>2021-08-20T02:43:27Z</time>
      </trkpt>
      <trkpt lat="42.64846" lon="0.60229">
        <ele>2130</ele>
        <time>2021-08-20T02:43:17Z</time>
      </trkpt>
      <trkpt lat="42.64852" lon="0.60264">
        <ele>2143</ele>
        <time>2021-08-20T02:42:42Z</time>
      </trkpt>
      <trkpt lat="42.64851" lon="0.60297">
        <ele>2154</ele>
        <time>2021-08-20T02:42:10Z</time>
      </trkpt>
      <trkpt lat="42.64852" lon="0.60306">
        <ele>2158</ele>
        <time>2021-08-20T02:42:01Z</time>
      </trkpt>
      <trkpt lat="42.64859" lon="0.60338">
        <ele>2172</ele>
        <time>2021-08-20T02:41:28Z</time>
      </trkpt>
      <trkpt lat="42.64864" lon="0.60352">
        <ele>2178</ele>
        <time>2021-08-20T02:41:13Z</time>
      </trkpt>
      <trkpt lat="42.64879" lon="0.60386">
        <ele>2197</ele>
        <time>2021-08-20T02:40:34Z</time>
      </trkpt>
      <trkpt lat="42.64884" lon="0.60401">
        <ele>2204</ele>
        <time>2021-08-20T02:40:18Z</time>
      </trkpt>
      <trkpt lat="42.64902" lon="0.60426">
        <ele>2221</ele>
        <time>2021-08-20T02:39:43Z</time>
      </trkpt>
      <trkpt lat="42.6492" lon="0.60441">
        <ele>2236</ele>
        <time>2021-08-20T02:39:15Z</time>
      </trkpt>
      <trkpt lat="42.64929" lon="0.6044">
        <ele>2241</ele>
        <time>2021-08-20T02:39:03Z</time>
      </trkpt>
      <trkpt lat="42.64944" lon="0.60463">
        <ele>2258</ele>
        <time>2021-08-20T02:38:33Z</time>
      </trkpt>
      <trkpt lat="42.64958" lon="0.60473">
        <ele>2269</ele>
        <time>2021-08-20T02:38:12Z</time>
      </trkpt>
      <trkpt lat="42.64964" lon="0.60495">
        <ele>2280</ele>
        <time>2021-08-20T02:37:49Z</time>
      </trkpt>
      <trkpt lat="42.64963" lon="0.60519">
        <ele>2288</ele>
        <time>2021-08-20T02:37:25Z</time>
      </trkpt>
      <trkpt lat="42.64965" lon="0.60534">
        <ele>2293</ele>
        <time>2021-08-20T02:37:10Z</time>
      </trkpt>
      <trkpt lat="42.64964" lon="0.60544">
        <ele>2296</ele>
        <time>2021-08-20T02:37:00Z</time>
      </trkpt>
      <trkpt lat="42.64956" lon="0.60584">
        <ele>2305</ele>
        <time>2021-08-20T02:36:20Z</time>
      </trkpt>
      <trkpt lat="42.64939" lon="0.60609">
        <ele>2309</ele>
        <time>2021-08-20T02:35:46Z</time>
      </trkpt>
      <trkpt lat="42.64938" lon="0.60619">
        <ele>2312</ele>
        <time>2021-08-20T02:35:36Z</time>
      </trkpt>
      <trkpt lat="42.64939" lon="0.60666">
        <ele>2331</ele>
        <time>2021-08-20T02:34:50Z</time>
      </trkpt>
      <trkpt lat="42.6495" lon="0.60706">
        <ele>2347</ele>
        <time>2021-08-20T02:34:08Z</time>
      </trkpt>
      <trkpt lat="42.64953" lon="0.60727">
        <ele>2355</ele>
        <time>2021-08-20T02:33:47Z</time>
      </trkpt>
      <trkpt lat="42.64956" lon="0.60735">
        <ele>2359</ele>
        <time>2021-08-20T02:33:38Z</time>
      </trkpt>
      <trkpt lat="42.64953" lon="0.60766">
        <ele>2368</ele>
        <time>2021-08-20T02:33:08Z</time>
      </trkpt>
      <trkpt lat="42.64967" lon="0.60784">
        <ele>2378</ele>
        <time>2021-08-20T02:32:42Z</time>
      </trkpt>
      <trkpt lat="42.64969" lon="0.60788">
        <ele>2379</ele>
        <time>2021-08-20T02:32:37Z</time>
      </trkpt>
      <trkpt lat="42.64973" lon="0.60812">
        <ele>2388</ele>
        <time>2021-08-20T02:32:13Z</time>
      </trkpt>
      <trkpt lat="42.64978" lon="0.60827">
        <ele>2394</ele>
        <time>2021-08-20T02:31:57Z</time>
      </trkpt>
      <trkpt lat="42.64982" lon="0.6085">
        <ele>2401</ele>
        <time>2021-08-20T02:31:34Z</time>
      </trkpt>
      <trkpt lat="42.64977" lon="0.60871">
        <ele>2406</ele>
        <time>2021-08-20T02:31:12Z</time>
      </trkpt>
      <trkpt lat="42.64977" lon="0.60879">
        <ele>2408</ele>
        <time>2021-08-20T02:31:04Z</time>
      </trkpt>
      <trkpt lat="42.6498" lon="0.60894">
        <ele>2413</ele>
        <time>2021-08-20T02:30:49Z</time>
      </trkpt>
      <trkpt lat="42.64969" lon="0.60923">
        <ele>2419</ele>
        <time>2021-08-20T02:30:17Z</time>
      </trkpt>
      <trkpt lat="42.64963" lon="0.60946">
        <ele>2426</ele>
        <time>2021-08-20T02:29:53Z</time>
      </trkpt>
      <trkpt lat="42.64961" lon="0.60961">
        <ele>2430</ele>
        <time>2021-08-20T02:29:38Z</time>
      </trkpt>
      <trkpt lat="42.64962" lon="0.60971">
        <ele>2433</ele>
        <time>2021-08-20T02:29:28Z</time>
      </trkpt>
      <trkpt lat="42.64962" lon="0.60987">
        <ele>2438</ele>
        <time>2021-08-20T02:29:12Z</time>
      </trkpt>
      <trkpt lat="42.64967" lon="0.61004">
        <ele>2444</ele>
        <time>2021-08-20T02:28:54Z</time>
      </trkpt>
      <trkpt lat="42.64959" lon="0.61045">
        <ele>2455</ele>
        <time>2021-08-20T02:28:13Z</time>
      </trkpt>
      <trkpt lat="42.64944" lon="0.61073">
        <ele>2463</ele>
        <time>2021-08-20T02:27:39Z</time>
      </trkpt>
      <trkpt lat="42.64935" lon="0.61097">
        <ele>2469</ele>
        <time>2021-08-20T02:27:12Z</time>
      </trkpt>
      <trkpt lat="42.64932" lon="0.61101">
        <ele>2469</ele>
        <time>2021-08-20T02:27:07Z</time>
      </trkpt>
      <trkpt lat="42.64923" lon="0.61105">
        <ele>2470</ele>
        <time>2021-08-20T02:26:54Z</time>
      </trkpt>
      <trkpt lat="42.64895" lon="0.61114">
        <ele>2473</ele>
        <time>2021-08-20T02:26:16Z</time>
      </trkpt>
      <trkpt lat="42.64856" lon="0.61169">
        <ele>2490</ele>
        <time>2021-08-20T02:25:01Z</time>
      </trkpt>
      <trkpt lat="42.64846" lon="0.612">
        <ele>2499</ele>
        <time>2021-08-20T02:24:27Z</time>
      </trkpt>
      <trkpt lat="42.64836" lon="0.61217">
        <ele>2504</ele>
        <time>2021-08-20T02:24:06Z</time>
      </trkpt>
      <trkpt lat="42.64812" lon="0.61233">
        <ele>2512</ele>
        <time>2021-08-20T02:23:30Z</time>
      </trkpt>
      <trkpt lat="42.64787" lon="0.61273">
        <ele>2528</ele>
        <time>2021-08-20T02:22:39Z</time>
      </trkpt>
      <trkpt lat="42.64785" lon="0.6128">
        <ele>2530</ele>
        <time>2021-08-20T02:22:32Z</time>
      </trkpt>
      <trkpt lat="42.64785" lon="0.61311">
        <ele>2538</ele>
        <time>2021-08-20T02:22:01Z</time>
      </trkpt>
      <trkpt lat="42.64782" lon="0.61346">
        <ele>2549</ele>
        <time>2021-08-20T02:21:26Z</time>
      </trkpt>
      <trkpt lat="42.64781" lon="0.61363">
        <ele>2556</ele>
        <time>2021-08-20T02:21:10Z</time>
      </trkpt>
      <trkpt lat="42.64778" lon="0.6137">
        <ele>2559</ele>
        <time>2021-08-20T02:21:02Z</time>
      </trkpt>
      <trkpt lat="42.64772" lon="0.61378">
        <ele>2562</ele>
        <time>2021-08-20T02:20:51Z</time>
      </trkpt>
      <trkpt lat="42.64758" lon="0.61382">
        <ele>2564</ele>
        <time>2021-08-20T02:20:31Z</time>
      </trkpt>
      <trkpt lat="42.64746" lon="0.61383">
        <ele>2565</ele>
        <time>2021-08-20T02:20:15Z</time>
      </trkpt>
      <trkpt lat="42.64731" lon="0.61388">
        <ele>2567</ele>
        <time>2021-08-20T02:19:55Z</time>
      </trkpt>
      <trkpt lat="42.64713" lon="0.61387">
        <ele>2568</ele>
        <time>2021-08-20T02:19:31Z</time>
      </trkpt>
      <trkpt lat="42.64687" lon="0.61396">
        <ele>2572</ele>
        <time>2021-08-20T02:18:55Z</time>
      </trkpt>
      <trkpt lat="42.64669" lon="0.61398">
        <ele>2573</ele>
        <time>2021-08-20T02:18:31Z</time>
      </trkpt>
      <trkpt lat="42.64659" lon="0.61404">
        <ele>2576</ele>
        <time>2021-08-20T02:18:16Z</time>
      </trkpt>
      <trkpt lat="42.64649" lon="0.61403">
        <ele>2577</ele>
        <time>2021-08-20T02:18:03Z</time>
      </trkpt>
      <trkpt lat="42.64636" lon="0.61395">
        <ele>2577</ele>
        <time>2021-08-20T02:17:44Z</time>
      </trkpt>
      <trkpt lat="42.64606" lon="0.61401">
        <ele>2583</ele>
        <time>2021-08-20T02:17:03Z</time>
      </trkpt>
      <trkpt lat="42.64597" lon="0.61425">
        <ele>2589</ele>
        <time>2021-08-20T02:16:37Z</time>
      </trkpt>
      <trkpt lat="42.6459" lon="0.61432">
        <ele>2592</ele>
        <time>2021-08-20T02:16:25Z</time>
      </trkpt>
      <trkpt lat="42.64572" lon="0.61438">
        <ele>2597</ele>
        <time>2021-08-20T02:16:01Z</time>
      </trkpt>
      <trkpt lat="42.64564" lon="0.61437">
        <ele>2598</ele>
        <time>2021-08-20T02:15:50Z</time>
      </trkpt>
      <trkpt lat="42.64549" lon="0.6143">
        <ele>2600</ele>
        <time>2021-08-20T02:15:29Z</time>
      </trkpt>
      <trkpt lat="42.6453" lon="0.61429">
        <ele>2604</ele>
        <time>2021-08-20T02:15:03Z</time>
      </trkpt>
      <trkpt lat="42.64513" lon="0.61433">
        <ele>2609</ele>
        <time>2021-08-20T02:14:40Z</time>
      </trkpt>
      <trkpt lat="42.645" lon="0.61461">
        <ele>2619</ele>
        <time>2021-08-20T02:14:08Z</time>
      </trkpt>
      <trkpt lat="42.64485" lon="0.61473">
        <ele>2625</ele>
        <time>2021-08-20T02:13:45Z</time>
      </trkpt>
      <trkpt lat="42.64476" lon="0.61477">
        <ele>2627</ele>
        <time>2021-08-20T02:13:32Z</time>
      </trkpt>
      <trkpt lat="42.64446" lon="0.61473">
        <ele>2634</ele>
        <time>2021-08-20T02:12:52Z</time>
      </trkpt>
      <trkpt lat="42.64421" lon="0.6149">
        <ele>2640</ele>
        <time>2021-08-20T02:12:14Z</time>
      </trkpt>
      <trkpt lat="42.644" lon="0.61509">
        <ele>2644</ele>
        <time>2021-08-20T02:11:41Z</time>
      </trkpt>
      <trkpt lat="42.64387" lon="0.6153">
        <ele>2649</ele>
        <time>2021-08-20T02:11:14Z</time>
      </trkpt>
      <trkpt lat="42.64376" lon="0.61543">
        <ele>2652</ele>
        <time>2021-08-20T02:10:54Z</time>
      </trkpt>
      <trkpt lat="42.64369" lon="0.61548">
        <ele>2652</ele>
        <time>2021-08-20T02:10:44Z</time>
      </trkpt>
      <trkpt lat="42.6435" lon="0.61581">
        <ele>2656</ele>
        <time>2021-08-20T02:10:03Z</time>
      </trkpt>
      <trkpt lat="42.64324" lon="0.61621">
        <ele>2666</ele>
        <time>2021-08-20T02:09:10Z</time>
      </trkpt>
      <trkpt lat="42.64306" lon="0.61604">
        <ele>2655</ele>
        <time>2021-08-20T02:08:41Z</time>
      </trkpt>
      <trkpt lat="42.64281" lon="0.61592">
        <ele>2647</ele>
        <time>2021-08-20T02:08:06Z</time>
      </trkpt>
      <trkpt lat="42.64271" lon="0.61634">
        <ele>2653</ele>
        <time>2021-08-20T02:07:22Z</time>
      </trkpt>
      <trkpt lat="42.64234" lon="0.61691">
        <ele>2649</ele>
        <time>2021-08-20T02:06:08Z</time>
      </trkpt>
      <trkpt lat="42.64209" lon="0.61745">
        <ele>2649</ele>
        <time>2021-08-20T02:05:05Z</time>
      </trkpt>
      <trkpt lat="42.64193" lon="0.6181">
        <ele>2655</ele>
        <time>2021-08-20T02:03:58Z</time>
      </trkpt>
      <trkpt lat="42.64173" lon="0.61839">
        <ele>2650</ele>
        <time>2021-08-20T02:03:19Z</time>
      </trkpt>
      <trkpt lat="42.64147" lon="0.61864">
        <ele>2648</ele>
        <time>2021-08-20T02:02:36Z</time>
      </trkpt>
      <trkpt lat="42.64117" lon="0.61917">
        <ele>2648</ele>
        <time>2021-08-20T02:01:31Z</time>
      </trkpt>
      <trkpt lat="42.64086" lon="0.61948">
        <ele>2644</ele>
        <time>2021-08-20T02:00:39Z</time>
      </trkpt>
      <trkpt lat="42.64042" lon="0.61984">
        <ele>2642</ele>
        <time>2021-08-20T01:59:31Z</time>
      </trkpt>
      <trkpt lat="42.64008" lon="0.62034">
        <ele>2645</ele>
        <time>2021-08-20T01:58:24Z</time>
      </trkpt>
      <trkpt lat="42.63974" lon="0.62064">
        <ele>2647</ele>
        <time>2021-08-20T01:57:30Z</time>
      </trkpt>
      <trkpt lat="42.63931" lon="0.62117">
        <ele>2653</ele>
        <time>2021-08-20T01:56:12Z</time>
      </trkpt>
      <trkpt lat="42.63903" lon="0.62161">
        <ele>2653</ele>
        <time>2021-08-20T01:55:15Z</time>
      </trkpt>
      <trkpt lat="42.63895" lon="0.62194">
        <ele>2653</ele>
        <time>2021-08-20T01:54:41Z</time>
      </trkpt>
      <trkpt lat="42.63897" lon="0.62236">
        <ele>2656</ele>
        <time>2021-08-20T01:54:00Z</time>
      </trkpt>
      <trkpt lat="42.63904" lon="0.62275">
        <ele>2657</ele>
        <time>2021-08-20T01:53:20Z</time>
      </trkpt>
      <trkpt lat="42.6392" lon="0.6234">
        <ele>2656</ele>
        <time>2021-08-20T01:52:13Z</time>
      </trkpt>
      <trkpt lat="42.63924" lon="0.62413">
        <ele>2650</ele>
        <time>2021-08-20T01:51:01Z</time>
      </trkpt>
      <trkpt lat="42.63932" lon="0.62439">
        <ele>2650</ele>
        <time>2021-08-20T01:50:34Z</time>
      </trkpt>
      <trkpt lat="42.63945" lon="0.62487">
        <ele>2649</ele>
        <time>2021-08-20T01:49:43Z</time>
      </trkpt>
      <trkpt lat="42.63948" lon="0.62491">
        <ele>2649</ele>
        <time>2021-08-20T01:49:38Z</time>
      </trkpt>
      <trkpt lat="42.6397" lon="0.62519">
        <ele>2652</ele>
        <time>2021-08-20T01:48:58Z</time>
      </trkpt>
      <trkpt lat="42.63981" lon="0.62545">
        <ele>2653</ele>
        <time>2021-08-20T01:48:28Z</time>
      </trkpt>
      <trkpt lat="42.63992" lon="0.62623">
        <ele>2656</ele>
        <time>2021-08-20T01:47:10Z</time>
      </trkpt>
      <trkpt lat="42.63984" lon="0.62657">
        <ele>2654</ele>
        <time>2021-08-20T01:46:35Z</time>
      </trkpt>
      <trkpt lat="42.63971" lon="0.62735">
        <ele>2649</ele>
        <time>2021-08-20T01:45:17Z</time>
      </trkpt>
      <trkpt lat="42.63956" lon="0.6284">
        <ele>2651</ele>
        <time>2021-08-20T01:43:32Z</time>
      </trkpt>
      <trkpt lat="42.63919" lon="0.62899">
        <ele>2650</ele>
        <time>2021-08-20T01:42:16Z</time>
      </trkpt>
      <trkpt lat="42.6388" lon="0.62935">
        <ele>2650</ele>
        <time>2021-08-20T01:41:13Z</time>
      </trkpt>
      <trkpt lat="42.63859" lon="0.62984">
        <ele>2653</ele>
        <time>2021-08-20T01:40:17Z</time>
      </trkpt>
      <trkpt lat="42.6381" lon="0.63044">
        <ele>2656</ele>
        <time>2021-08-20T01:38:49Z</time>
      </trkpt>
      <trkpt lat="42.63791" lon="0.63063">
        <ele>2659</ele>
        <time>2021-08-20T01:38:17Z</time>
      </trkpt>
      <trkpt lat="42.63761" lon="0.63083">
        <ele>2662</ele>
        <time>2021-08-20T01:37:33Z</time>
      </trkpt>
      <trkpt lat="42.63736" lon="0.63086">
        <ele>2666</ele>
        <time>2021-08-20T01:36:59Z</time>
      </trkpt>
      <trkpt lat="42.63706" lon="0.63094">
        <ele>2676</ele>
        <time>2021-08-20T01:36:19Z</time>
      </trkpt>
      <trkpt lat="42.63683" lon="0.63104">
        <ele>2684</ele>
        <time>2021-08-20T01:35:46Z</time>
      </trkpt>
      <trkpt lat="42.63655" lon="0.63145">
        <ele>2704</ele>
        <time>2021-08-20T01:34:51Z</time>
      </trkpt>
      <trkpt lat="42.6362" lon="0.63136">
        <ele>2717</ele>
        <time>2021-08-20T01:34:04Z</time>
      </trkpt>
      <trkpt lat="42.63596" lon="0.63146">
        <ele>2731</ele>
        <time>2021-08-20T01:33:30Z</time>
      </trkpt>
      <trkpt lat="42.63573" lon="0.63192">
        <ele>2764</ele>
        <time>2021-08-20T01:32:36Z</time>
      </trkpt>
      <trkpt lat="42.63549" lon="0.63192">
        <ele>2781</ele>
        <time>2021-08-20T01:32:04Z</time>
      </trkpt>
      <trkpt lat="42.63514" lon="0.632">
        <ele>2808</ele>
        <time>2021-08-20T01:31:16Z</time>
      </trkpt>
      <trkpt lat="42.63488" lon="0.63179">
        <ele>2821</ele>
        <time>2021-08-20T01:30:36Z</time>
      </trkpt>
      <trkpt lat="42.63482" lon="0.63148">
        <ele>2816</ele>
        <time>2021-08-20T01:30:05Z</time>
      </trkpt>
      <trkpt lat="42.63448" lon="0.63125">
        <ele>2838</ele>
        <time>2021-08-20T01:29:14Z</time>
      </trkpt>
      <trkpt lat="42.63425" lon="0.63099">
        <ele>2849</ele>
        <time>2021-08-20T01:28:34Z</time>
      </trkpt>
      <trkpt lat="42.63375" lon="0.63061">
        <ele>2866</ele>
        <time>2021-08-20T01:27:18Z</time>
      </trkpt>
      <trkpt lat="42.63362" lon="0.63048">
        <ele>2869</ele>
        <time>2021-08-20T01:26:56Z</time>
      </trkpt>
      <trkpt lat="42.63323" lon="0.63023">
        <ele>2881</ele>
        <time>2021-08-20T01:25:58Z</time>
      </trkpt>
      <trkpt lat="42.63277" lon="0.63002">
        <ele>2890</ele>
        <time>2021-08-20T01:24:54Z</time>
      </trkpt>
      <trkpt lat="42.63251" lon="0.63003">
        <ele>2898</ele>
        <time>2021-08-20T01:24:19Z</time>
      </trkpt>
      <trkpt lat="42.63242" lon="0.63004">
        <ele>2898</ele>
        <time>2021-08-20T01:24:07Z</time>
      </trkpt>
      <trkpt lat="42.63227" lon="0.63026">
        <ele>2896</ele>
        <time>2021-08-20T01:23:38Z</time>
      </trkpt>
      <trkpt lat="42.63192" lon="0.63049">
        <ele>2886</ele>
        <time>2021-08-20T01:22:46Z</time>
      </trkpt>
      <trkpt lat="42.63143" lon="0.63089">
        <ele>2863</ele>
        <time>2021-08-20T01:21:29Z</time>
      </trkpt>
      <trkpt lat="42.63137" lon="0.63118">
        <ele>2858</ele>
        <time>2021-08-20T01:21:00Z</time>
      </trkpt>
      <trkpt lat="42.63125" lon="0.63138">
        <ele>2853</ele>
        <time>2021-08-20T01:20:34Z</time>
      </trkpt>
      <trkpt lat="42.63083" lon="0.63162">
        <ele>2834</ele>
        <time>2021-08-20T01:19:34Z</time>
      </trkpt>
      <trkpt lat="42.63056" lon="0.63196">
        <ele>2829</ele>
        <time>2021-08-20T01:18:45Z</time>
      </trkpt>
      <trkpt lat="42.63032" lon="0.63227">
        <ele>2822</ele>
        <time>2021-08-20T01:18:00Z</time>
      </trkpt>
      <trkpt lat="42.63009" lon="0.63252">
        <ele>2813</ele>
        <time>2021-08-20T01:17:21Z</time>
      </trkpt>
      <trkpt lat="42.62985" lon="0.63286">
        <ele>2803</ele>
        <time>2021-08-20T01:16:35Z</time>
      </trkpt>
      <trkpt lat="42.62959" lon="0.63313">
        <ele>2792</ele>
        <time>2021-08-20T01:15:51Z</time>
      </trkpt>
      <trkpt lat="42.62938" lon="0.63344">
        <ele>2782</ele>
        <time>2021-08-20T01:15:10Z</time>
      </trkpt>
      <trkpt lat="42.62903" lon="0.63385">
        <ele>2767</ele>
        <time>2021-08-20T01:14:08Z</time>
      </trkpt>
      <trkpt lat="42.6289" lon="0.63409">
        <ele>2761</ele>
        <time>2021-08-20T01:13:39Z</time>
      </trkpt>
      <trkpt lat="42.62881" lon="0.63439">
        <ele>2755</ele>
        <time>2021-08-20T01:13:07Z</time>
      </trkpt>
      <trkpt lat="42.62867" lon="0.63462">
        <ele>2749</ele>
        <time>2021-08-20T01:12:38Z</time>
      </trkpt>
      <trkpt lat="42.6281" lon="0.63476">
        <ele>2735</ele>
        <time>2021-08-20T01:11:20Z</time>
      </trkpt>
      <trkpt lat="42.6278" lon="0.63478">
        <ele>2729</ele>
        <time>2021-08-20T01:10:40Z</time>
      </trkpt>
      <trkpt lat="42.62752" lon="0.63503">
        <ele>2724</ele>
        <time>2021-08-20T01:09:56Z</time>
      </trkpt>
      <trkpt lat="42.6272" lon="0.6352">
        <ele>2717</ele>
        <time>2021-08-20T01:09:10Z</time>
      </trkpt>
      <trkpt lat="42.62698" lon="0.63525">
        <ele>2711</ele>
        <time>2021-08-20T01:08:40Z</time>
      </trkpt>
      <trkpt lat="42.62681" lon="0.63522">
        <ele>2707</ele>
        <time>2021-08-20T01:08:17Z</time>
      </trkpt>
      <trkpt lat="42.62665" lon="0.6354">
        <ele>2702</ele>
        <time>2021-08-20T01:07:49Z</time>
      </trkpt>
      <trkpt lat="42.62662" lon="0.63539">
        <ele>2701</ele>
        <time>2021-08-20T01:07:45Z</time>
      </trkpt>
      <trkpt lat="42.62683" lon="0.63545">
        <ele>2708</ele>
        <time>2021-08-20T01:07:17Z</time>
      </trkpt>
      <trkpt lat="42.62691" lon="0.63579">
        <ele>2711</ele>
        <time>2021-08-20T01:06:42Z</time>
      </trkpt>
      <trkpt lat="42.62688" lon="0.63595">
        <ele>2712</ele>
        <time>2021-08-20T01:06:25Z</time>
      </trkpt>
      <trkpt lat="42.62713" lon="0.63602">
        <ele>2721</ele>
        <time>2021-08-20T01:05:51Z</time>
      </trkpt>
      <trkpt lat="42.62689" lon="0.63644">
        <ele>2720</ele>
        <time>2021-08-20T01:04:59Z</time>
      </trkpt>
      <trkpt lat="42.62701" lon="0.63713">
        <ele>2731</ele>
        <time>2021-08-20T01:03:49Z</time>
      </trkpt>
      <trkpt lat="42.62717" lon="0.63778">
        <ele>2737</ele>
        <time>2021-08-20T01:02:42Z</time>
      </trkpt>
      <trkpt lat="42.62737" lon="0.63855">
        <ele>2743</ele>
        <time>2021-08-20T01:01:22Z</time>
      </trkpt>
      <trkpt lat="42.62762" lon="0.63896">
        <ele>2749</ele>
        <time>2021-08-20T01:00:30Z</time>
      </trkpt>
      <trkpt lat="42.62806" lon="0.63924">
        <ele>2750</ele>
        <time>2021-08-20T00:59:25Z</time>
      </trkpt>
      <trkpt lat="42.62837" lon="0.63922">
        <ele>2747</ele>
        <time>2021-08-20T00:58:43Z</time>
      </trkpt>
      <trkpt lat="42.62874" lon="0.63935">
        <ele>2748</ele>
        <time>2021-08-20T00:57:52Z</time>
      </trkpt>
      <trkpt lat="42.62892" lon="0.63965">
        <ele>2750</ele>
        <time>2021-08-20T00:57:14Z</time>
      </trkpt>
      <trkpt lat="42.62911" lon="0.63983">
        <ele>2749</ele>
        <time>2021-08-20T00:56:44Z</time>
      </trkpt>
      <trkpt lat="42.62915" lon="0.64016">
        <ele>2751</ele>
        <time>2021-08-20T00:56:11Z</time>
      </trkpt>
      <trkpt lat="42.62908" lon="0.64037">
        <ele>2755</ele>
        <time>2021-08-20T00:55:48Z</time>
      </trkpt>
      <trkpt lat="42.6292" lon="0.64081">
        <ele>2758</ele>
        <time>2021-08-20T00:55:02Z</time>
      </trkpt>
      <trkpt lat="42.62939" lon="0.64108">
        <ele>2766</ele>
        <time>2021-08-20T00:54:25Z</time>
      </trkpt>
      <trkpt lat="42.6294" lon="0.64135">
        <ele>2772</ele>
        <time>2021-08-20T00:53:59Z</time>
      </trkpt>
      <trkpt lat="42.62944" lon="0.64147">
        <ele>2775</ele>
        <time>2021-08-20T00:53:46Z</time>
      </trkpt>
      <trkpt lat="42.62986" lon="0.64159">
        <ele>2782</ele>
        <time>2021-08-20T00:52:49Z</time>
      </trkpt>
      <trkpt lat="42.63009" lon="0.64179">
        <ele>2789</ele>
        <time>2021-08-20T00:52:12Z</time>
      </trkpt>
      <trkpt lat="42.6302" lon="0.64217">
        <ele>2799</ele>
        <time>2021-08-20T00:51:32Z</time>
      </trkpt>
      <trkpt lat="42.63064" lon="0.64332">
        <ele>2834</ele>
        <time>2021-08-20T00:49:25Z</time>
      </trkpt>
      <trkpt lat="42.63084" lon="0.6439">
        <ele>2851</ele>
        <time>2021-08-20T00:48:22Z</time>
      </trkpt>
      <trkpt lat="42.63115" lon="0.64461">
        <ele>2879</ele>
        <time>2021-08-20T00:47:01Z</time>
      </trkpt>
      <trkpt lat="42.63134" lon="0.64533">
        <ele>2899</ele>
        <time>2021-08-20T00:45:46Z</time>
      </trkpt>
      <trkpt lat="42.63161" lon="0.64649">
        <ele>2923</ele>
        <time>2021-08-20T00:43:46Z</time>
      </trkpt>
      <trkpt lat="42.63167" lon="0.64683">
        <ele>2930</ele>
        <time>2021-08-20T00:43:12Z</time>
      </trkpt>
      <trkpt lat="42.63185" lon="0.64722">
        <ele>2946</ele>
        <time>2021-08-20T00:42:27Z</time>
      </trkpt>
      <trkpt lat="42.63206" lon="0.64762">
        <ele>2964</ele>
        <time>2021-08-20T00:41:39Z</time>
      </trkpt>
      <trkpt lat="42.63223" lon="0.64825">
        <ele>2994</ele>
        <time>2021-08-20T00:40:33Z</time>
      </trkpt>
      <trkpt lat="42.6326" lon="0.649">
        <ele>3023</ele>
        <time>2021-08-20T00:39:04Z</time>
      </trkpt>
      <trkpt lat="42.63257" lon="0.64912">
        <ele>3024</ele>
        <time>2021-08-20T00:38:52Z</time>
      </trkpt>
      <trkpt lat="42.6327" lon="0.64931">
        <ele>3029</ele>
        <time>2021-08-20T00:38:26Z</time>
      </trkpt>
      <trkpt lat="42.63287" lon="0.6496">
        <ele>3038</ele>
        <time>2021-08-20T00:37:50Z</time>
      </trkpt>
      <trkpt lat="42.63288" lon="0.64992">
        <ele>3042</ele>
        <time>2021-08-20T00:37:18Z</time>
      </trkpt>
      <trkpt lat="42.63295" lon="0.65027">
        <ele>3051</ele>
        <time>2021-08-20T00:36:43Z</time>
      </trkpt>
      <trkpt lat="42.63319" lon="0.65076">
        <ele>3069</ele>
        <time>2021-08-20T00:35:45Z</time>
      </trkpt>
      <trkpt lat="42.63341" lon="0.65165">
        <ele>3111</ele>
        <time>2021-08-20T00:34:13Z</time>
      </trkpt>
      <trkpt lat="42.63356" lon="0.65195">
        <ele>3128</ele>
        <time>2021-08-20T00:33:37Z</time>
      </trkpt>
      <trkpt lat="42.63371" lon="0.65246">
        <ele>3152</ele>
        <time>2021-08-20T00:32:43Z</time>
      </trkpt>
      <trkpt lat="42.6337" lon="0.65275">
        <ele>3162</ele>
        <time>2021-08-20T00:32:15Z</time>
      </trkpt>
      <trkpt lat="42.63388" lon="0.65278">
        <ele>3171</ele>
        <time>2021-08-20T00:31:50Z</time>
      </trkpt>
      <trkpt lat="42.63398" lon="0.65287">
        <ele>3178</ele>
        <time>2021-08-20T00:31:34Z</time>
      </trkpt>
      <trkpt lat="42.6342" lon="0.65329">
        <ele>3194</ele>
        <time>2021-08-20T00:30:44Z</time>
      </trkpt>
      <trkpt lat="42.6342" lon="0.65356">
        <ele>3205</ele>
        <time>2021-08-20T00:30:17Z</time>
      </trkpt>
      <trkpt lat="42.63431" lon="0.65413">
        <ele>3226</ele>
        <time>2021-08-20T00:29:19Z</time>
      </trkpt>
      <trkpt lat="42.63441" lon="0.6542">
        <ele>3223</ele>
        <time>2021-08-20T00:29:04Z</time>
      </trkpt>
      <trkpt lat="42.63438" lon="0.65435">
        <ele>3227</ele>
        <time>2021-08-20T00:28:49Z</time>
      </trkpt>
      <trkpt lat="42.63441" lon="0.65446">
        <ele>3227</ele>
        <time>2021-08-20T00:28:38Z</time>
      </trkpt>
      <trkpt lat="42.63441" lon="0.65459">
        <ele>3229</ele>
        <time>2021-08-20T00:28:25Z</time>
      </trkpt>
      <trkpt lat="42.63425" lon="0.65493">
        <ele>3244</ele>
        <time>2021-08-20T00:27:45Z</time>
      </trkpt>
      <trkpt lat="42.63402" lon="0.65498">
        <ele>3255</ele>
        <time>2021-08-20T00:27:14Z</time>
      </trkpt>
      <trkpt lat="42.63382" lon="0.65514">
        <ele>3261</ele>
        <time>2021-08-20T00:26:43Z</time>
      </trkpt>
      <trkpt lat="42.63368" lon="0.65513">
        <ele>3266</ele>
        <time>2021-08-20T00:26:24Z</time>
      </trkpt>
      <trkpt lat="42.63356" lon="0.65526">
        <ele>3270</ele>
        <time>2021-08-20T00:26:04Z</time>
      </trkpt>
      <trkpt lat="42.63342" lon="0.65536">
        <ele>3275</ele>
        <time>2021-08-20T00:25:43Z</time>
      </trkpt>
      <trkpt lat="42.63337" lon="0.65544">
        <ele>3277</ele>
        <time>2021-08-20T00:25:33Z</time>
      </trkpt>
      <trkpt lat="42.63314" lon="0.65539">
        <ele>3280</ele>
        <time>2021-08-20T00:25:02Z</time>
      </trkpt>
      <trkpt lat="42.63311" lon="0.6555">
        <ele>3282</ele>
        <time>2021-08-20T00:24:50Z</time>
      </trkpt>
      <trkpt lat="42.63313" lon="0.65565">
        <ele>3284</ele>
        <time>2021-08-20T00:24:35Z</time>
      </trkpt>
      <trkpt lat="42.6331" lon="0.65581">
        <ele>3287</ele>
        <time>2021-08-20T00:24:19Z</time>
      </trkpt>
      <trkpt lat="42.63294" lon="0.65582">
        <ele>3293</ele>
        <time>2021-08-20T00:23:57Z</time>
      </trkpt>
      <trkpt lat="42.63287" lon="0.65586">
        <ele>3296</ele>
        <time>2021-08-20T00:23:47Z</time>
      </trkpt>
      <trkpt lat="42.63278" lon="0.65601">
        <ele>3301</ele>
        <time>2021-08-20T00:23:28Z</time>
      </trkpt>
      <trkpt lat="42.63272" lon="0.65607">
        <ele>3304</ele>
        <time>2021-08-20T00:23:18Z</time>
      </trkpt>
      <trkpt lat="42.63243" lon="0.65628">
        <ele>3317</ele>
        <time>2021-08-20T00:22:35Z</time>
      </trkpt>
      <trkpt lat="42.63192" lon="0.65644">
        <ele>3328</ele>
        <time>2021-08-20T00:21:25Z</time>
      </trkpt>
      <trkpt lat="42.63184" lon="0.65639">
        <ele>3328</ele>
        <time>2021-08-20T00:21:13Z</time>
      </trkpt>
      <trkpt lat="42.63178" lon="0.65643">
        <ele>3330</ele>
        <time>2021-08-20T00:21:04Z</time>
      </trkpt>
      <trkpt lat="42.63166" lon="0.65647">
        <ele>3333</ele>
        <time>2021-08-20T00:20:48Z</time>
      </trkpt>
      <trkpt lat="42.63178" lon="0.65643">
        <ele>3330</ele>
        <time>2021-08-20T00:20:31Z</time>
      </trkpt>
      <trkpt lat="42.63184" lon="0.65639">
        <ele>3328</ele>
        <time>2021-08-20T00:20:22Z</time>
      </trkpt>
      <trkpt lat="42.63192" lon="0.65644">
        <ele>3328</ele>
        <time>2021-08-20T00:20:10Z</time>
      </trkpt>
      <trkpt lat="42.63243" lon="0.65628">
        <ele>3317</ele>
        <time>2021-08-20T00:19:01Z</time>
      </trkpt>
      <trkpt lat="42.63272" lon="0.65607">
        <ele>3304</ele>
        <time>2021-08-20T00:18:17Z</time>
      </trkpt>
      <trkpt lat="42.63278" lon="0.65601">
        <ele>3301</ele>
        <time>2021-08-20T00:18:07Z</time>
      </trkpt>
      <trkpt lat="42.63287" lon="0.65586">
        <ele>3296</ele>
        <time>2021-08-20T00:17:48Z</time>
      </trkpt>
      <trkpt lat="42.63294" lon="0.65582">
        <ele>3293</ele>
        <time>2021-08-20T00:17:38Z</time>
      </trkpt>
      <trkpt lat="42.6331" lon="0.65581">
        <ele>3287</ele>
        <time>2021-08-20T00:17:16Z</time>
      </trkpt>
      <trkpt lat="42.63313" lon="0.65565">
        <ele>3284</ele>
        <time>2021-08-20T00:17:00Z</time>
      </trkpt>
      <trkpt lat="42.63311" lon="0.6555">
        <ele>3282</ele>
        <time>2021-08-20T00:16:45Z</time>
      </trkpt>
      <trkpt lat="42.63314" lon="0.65539">
        <ele>3280</ele>
        <time>2021-08-20T00:16:34Z</time>
      </trkpt>
      <trkpt lat="42.63337" lon="0.65544">
        <ele>3277</ele>
        <time>2021-08-20T00:16:02Z</time>
      </trkpt>
      <trkpt lat="42.63342" lon="0.65536">
        <ele>3275</ele>
        <time>2021-08-20T00:15:52Z</time>
      </trkpt>
      <trkpt lat="42.63356" lon="0.65526">
        <ele>3270</ele>
        <time>2021-08-20T00:15:31Z</time>
      </trkpt>
      <trkpt lat="42.63368" lon="0.65513">
        <ele>3266</ele>
        <time>2021-08-20T00:15:11Z</time>
      </trkpt>
      <trkpt lat="42.63382" lon="0.65514">
        <ele>3261</ele>
        <time>2021-08-20T00:14:52Z</time>
      </trkpt>
      <trkpt lat="42.63402" lon="0.65498">
        <ele>3255</ele>
        <time>2021-08-20T00:14:21Z</time>
      </trkpt>
      <trkpt lat="42.63425" lon="0.65493">
        <ele>3244</ele>
        <time>2021-08-20T00:13:50Z</time>
      </trkpt>
      <trkpt lat="42.63441" lon="0.65459">
        <ele>3229</ele>
        <time>2021-08-20T00:13:10Z</time>
      </trkpt>
      <trkpt lat="42.63441" lon="0.65446">
        <ele>3227</ele>
        <time>2021-08-20T00:12:57Z</time>
      </trkpt>
      <trkpt lat="42.63438" lon="0.65435">
        <ele>3227</ele>
        <time>2021-08-20T00:12:46Z</time>
      </trkpt>
      <trkpt lat="42.63441" lon="0.6542">
        <ele>3223</ele>
        <time>2021-08-20T00:12:31Z</time>
      </trkpt>
      <trkpt lat="42.63445" lon="0.65401">
        <ele>3215</ele>
        <time>2021-08-20T00:12:11Z</time>
      </trkpt>
      <trkpt lat="42.63457" lon="0.65387">
        <ele>3205</ele>
        <time>2021-08-20T00:11:50Z</time>
      </trkpt>
      <trkpt lat="42.63458" lon="0.65375">
        <ele>3201</ele>
        <time>2021-08-20T00:11:38Z</time>
      </trkpt>
      <trkpt lat="42.63479" lon="0.65348">
        <ele>3190</ele>
        <time>2021-08-20T00:11:00Z</time>
      </trkpt>
      <trkpt lat="42.63484" lon="0.65331">
        <ele>3187</ele>
        <time>2021-08-20T00:10:42Z</time>
      </trkpt>
      <trkpt lat="42.63509" lon="0.65306">
        <ele>3189</ele>
        <time>2021-08-20T00:10:00Z</time>
      </trkpt>
      <trkpt lat="42.63523" lon="0.65292">
        <ele>3188</ele>
        <time>2021-08-20T00:09:37Z</time>
      </trkpt>
      <trkpt lat="42.63538" lon="0.65285">
        <ele>3186</ele>
        <time>2021-08-20T00:09:16Z</time>
      </trkpt>
      <trkpt lat="42.63555" lon="0.65286">
        <ele>3181</ele>
        <time>2021-08-20T00:08:53Z</time>
      </trkpt>
      <trkpt lat="42.63561" lon="0.6528">
        <ele>3181</ele>
        <time>2021-08-20T00:08:43Z</time>
      </trkpt>
      <trkpt lat="42.63604" lon="0.65248">
        <ele>3175</ele>
        <time>2021-08-20T00:07:38Z</time>
      </trkpt>
      <trkpt lat="42.63609" lon="0.6524">
        <ele>3176</ele>
        <time>2021-08-20T00:07:28Z</time>
      </trkpt>
      <trkpt lat="42.63657" lon="0.65216">
        <ele>3162</ele>
        <time>2021-08-20T00:06:19Z</time>
      </trkpt>
      <trkpt lat="42.63732" lon="0.65186">
        <ele>3149</ele>
        <time>2021-08-20T00:04:35Z</time>
      </trkpt>
      <trkpt lat="42.63793" lon="0.65148">
        <ele>3141</ele>
        <time>2021-08-20T00:03:05Z</time>
      </trkpt>
      <trkpt lat="42.63872" lon="0.6509">
        <ele>3134</ele>
        <time>2021-08-20T00:01:06Z</time>
      </trkpt>
      <trkpt lat="42.63928" lon="0.65038">
        <ele>3126</ele>
        <time>2021-08-19T23:59:35Z</time>
      </trkpt>
      <trkpt lat="42.6399" lon="0.64989">
        <ele>3114</ele>
        <time>2021-08-19T23:57:59Z</time>
      </trkpt>
      <trkpt lat="42.64039" lon="0.64937">
        <ele>3106</ele>
        <time>2021-08-19T23:56:36Z</time>
      </trkpt>
      <trkpt lat="42.64068" lon="0.64914">
        <ele>3099</ele>
        <time>2021-08-19T23:55:52Z</time>
      </trkpt>
      <trkpt lat="42.64107" lon="0.64861">
        <ele>3095</ele>
        <time>2021-08-19T23:54:38Z</time>
      </trkpt>
      <trkpt lat="42.64218" lon="0.64769">
        <ele>3075</ele>
        <time>2021-08-19T23:51:45Z</time>
      </trkpt>
      <trkpt lat="42.64292" lon="0.64687">
        <ele>3076</ele>
        <time>2021-08-19T23:49:37Z</time>
      </trkpt>
      <trkpt lat="42.64376" lon="0.64562">
        <ele>3070</ele>
        <time>2021-08-19T23:46:51Z</time>
      </trkpt>
      <trkpt lat="42.64451" lon="0.64553">
        <ele>3053</ele>
        <time>2021-08-19T23:45:11Z</time>
      </trkpt>
      <trkpt lat="42.64611" lon="0.64584">
        <ele>3018</ele>
        <time>2021-08-19T23:41:35Z</time>
      </trkpt>
      <trkpt lat="42.64698" lon="0.64593">
        <ele>3002</ele>
        <time>2021-08-19T23:39:38Z</time>
      </trkpt>
      <trkpt lat="42.64749" lon="0.64565">
        <ele>3001</ele>
        <time>2021-08-19T23:38:25Z</time>
      </trkpt>
      <trkpt lat="42.64764" lon="0.64553">
        <ele>2998</ele>
        <time>2021-08-19T23:38:02Z</time>
      </trkpt>
      <trkpt lat="42.64779" lon="0.64536">
        <ele>2996</ele>
        <time>2021-08-19T23:37:36Z</time>
      </trkpt>
      <trkpt lat="42.64804" lon="0.64536">
        <ele>2987</ele>
        <time>2021-08-19T23:37:02Z</time>
      </trkpt>
      <trkpt lat="42.64843" lon="0.6454">
        <ele>2977</ele>
        <time>2021-08-19T23:36:10Z</time>
      </trkpt>
      <trkpt lat="42.64861" lon="0.64546">
        <ele>2977</ele>
        <time>2021-08-19T23:35:45Z</time>
      </trkpt>
      <trkpt lat="42.64877" lon="0.64542">
        <ele>2981</ele>
        <time>2021-08-19T23:35:24Z</time>
      </trkpt>
      <trkpt lat="42.64898" lon="0.64545">
        <ele>2981</ele>
        <time>2021-08-19T23:34:56Z</time>
      </trkpt>
      <trkpt lat="42.64957" lon="0.64562">
        <ele>2977</ele>
        <time>2021-08-19T23:33:35Z</time>
      </trkpt>
      <trkpt lat="42.64977" lon="0.64571">
        <ele>2970</ele>
        <time>2021-08-19T23:33:07Z</time>
      </trkpt>
      <trkpt lat="42.65026" lon="0.64575">
        <ele>2972</ele>
        <time>2021-08-19T23:32:01Z</time>
      </trkpt>
      <trkpt lat="42.65042" lon="0.6459">
        <ele>2965</ele>
        <time>2021-08-19T23:31:36Z</time>
      </trkpt>
      <trkpt lat="42.65067" lon="0.64599">
        <ele>2965</ele>
        <time>2021-08-19T23:31:01Z</time>
      </trkpt>
      <trkpt lat="42.6514" lon="0.64609">
        <ele>2956</ele>
        <time>2021-08-19T23:29:23Z</time>
      </trkpt>
      <trkpt lat="42.65165" lon="0.64606">
        <ele>2956</ele>
        <time>2021-08-19T23:28:50Z</time>
      </trkpt>
      <trkpt lat="42.65207" lon="0.64597">
        <ele>2959</ele>
        <time>2021-08-19T23:27:53Z</time>
      </trkpt>
      <trkpt lat="42.65226" lon="0.64602">
        <ele>2951</ele>
        <time>2021-08-19T23:27:27Z</time>
      </trkpt>
      <trkpt lat="42.65245" lon="0.64615">
        <ele>2935</ele>
        <time>2021-08-19T23:26:59Z</time>
      </trkpt>
      <trkpt lat="42.65321" lon="0.64633">
        <ele>2901</ele>
        <time>2021-08-19T23:25:16Z</time>
      </trkpt>
      <trkpt lat="42.65376" lon="0.64637">
        <ele>2897</ele>
        <time>2021-08-19T23:24:02Z</time>
      </trkpt>
      <trkpt lat="42.65404" lon="0.64643">
        <ele>2896</ele>
        <time>2021-08-19T23:23:24Z</time>
      </trkpt>
      <trkpt lat="42.6543" lon="0.64657">
        <ele>2890</ele>
        <time>2021-08-19T23:22:47Z</time>
      </trkpt>
      <trkpt lat="42.65472" lon="0.64666">
        <ele>2882</ele>
        <time>2021-08-19T23:21:50Z</time>
      </trkpt>
      <trkpt lat="42.65523" lon="0.64617">
        <ele>2864</ele>
        <time>2021-08-19T23:20:27Z</time>
      </trkpt>
      <trkpt lat="42.65541" lon="0.64622">
        <ele>2855</ele>
        <time>2021-08-19T23:20:02Z</time>
      </trkpt>
      <trkpt lat="42.6557" lon="0.6465">
        <ele>2845</ele>
        <time>2021-08-19T23:19:15Z</time>
      </trkpt>
      <trkpt lat="42.65602" lon="0.64679">
        <ele>2831</ele>
        <time>2021-08-19T23:18:24Z</time>
      </trkpt>
      <trkpt lat="42.65624" lon="0.64706">
        <ele>2822</ele>
        <time>2021-08-19T23:17:44Z</time>
      </trkpt>
      <trkpt lat="42.6564" lon="0.64706">
        <ele>2812</ele>
        <time>2021-08-19T23:17:23Z</time>
      </trkpt>
      <trkpt lat="42.65665" lon="0.64735">
        <ele>2806</ele>
        <time>2021-08-19T23:16:39Z</time>
      </trkpt>
      <trkpt lat="42.65682" lon="0.64759">
        <ele>2801</ele>
        <time>2021-08-19T23:16:06Z</time>
      </trkpt>
      <trkpt lat="42.65699" lon="0.6477">
        <ele>2792</ele>
        <time>2021-08-19T23:15:41Z</time>
      </trkpt>
      <trkpt lat="42.65725" lon="0.64796">
        <ele>2783</ele>
        <time>2021-08-19T23:14:58Z</time>
      </trkpt>
      <trkpt lat="42.65735" lon="0.6481">
        <ele>2782</ele>
        <time>2021-08-19T23:14:39Z</time>
      </trkpt>
      <trkpt lat="42.65748" lon="0.64802">
        <ele>2772</ele>
        <time>2021-08-19T23:14:20Z</time>
      </trkpt>
      <trkpt lat="42.65779" lon="0.64799">
        <ele>2745</ele>
        <time>2021-08-19T23:13:38Z</time>
      </trkpt>
      <trkpt lat="42.65794" lon="0.64807">
        <ele>2736</ele>
        <time>2021-08-19T23:13:17Z</time>
      </trkpt>
      <trkpt lat="42.65805" lon="0.64844">
        <ele>2738</ele>
        <time>2021-08-19T23:12:38Z</time>
      </trkpt>
      <trkpt lat="42.65819" lon="0.64903">
        <ele>2732</ele>
        <time>2021-08-19T23:11:37Z</time>
      </trkpt>
      <trkpt lat="42.65826" lon="0.64927">
        <ele>2728</ele>
        <time>2021-08-19T23:11:12Z</time>
      </trkpt>
      <trkpt lat="42.65839" lon="0.64947">
        <ele>2719</ele>
        <time>2021-08-19T23:10:45Z</time>
      </trkpt>
      <trkpt lat="42.65849" lon="0.64956">
        <ele>2712</ele>
        <time>2021-08-19T23:10:29Z</time>
      </trkpt>
      <trkpt lat="42.65856" lon="0.64949">
        <ele>2708</ele>
        <time>2021-08-19T23:10:18Z</time>
      </trkpt>
      <trkpt lat="42.65859" lon="0.64952">
        <ele>2706</ele>
        <time>2021-08-19T23:10:13Z</time>
      </trkpt>
      <trkpt lat="42.65868" lon="0.64954">
        <ele>2700</ele>
        <time>2021-08-19T23:10:01Z</time>
      </trkpt>
      <trkpt lat="42.65874" lon="0.64966">
        <ele>2697</ele>
        <time>2021-08-19T23:09:46Z</time>
      </trkpt>
      <trkpt lat="42.65879" lon="0.64955">
        <ele>2693</ele>
        <time>2021-08-19T23:09:34Z</time>
      </trkpt>
      <trkpt lat="42.65893" lon="0.64947">
        <ele>2684</ele>
        <time>2021-08-19T23:09:13Z</time>
      </trkpt>
      <trkpt lat="42.65911" lon="0.64947">
        <ele>2672</ele>
        <time>2021-08-19T23:08:49Z</time>
      </trkpt>
      <trkpt lat="42.65925" lon="0.64967">
        <ele>2665</ele>
        <time>2021-08-19T23:08:22Z</time>
      </trkpt>
      <trkpt lat="42.65942" lon="0.64967">
        <ele>2654</ele>
        <time>2021-08-19T23:08:00Z</time>
      </trkpt>
      <trkpt lat="42.65952" lon="0.6497">
        <ele>2648</ele>
        <time>2021-08-19T23:07:46Z</time>
      </trkpt>
      <trkpt lat="42.65953" lon="0.64974">
        <ele>2648</ele>
        <time>2021-08-19T23:07:42Z</time>
      </trkpt>
      <trkpt lat="42.65969" lon="0.64976">
        <ele>2638</ele>
        <time>2021-08-19T23:07:20Z</time>
      </trkpt>
      <trkpt lat="42.65977" lon="0.64965">
        <ele>2631</ele>
        <time>2021-08-19T23:07:05Z</time>
      </trkpt>
      <trkpt lat="42.65975" lon="0.64954">
        <ele>2630</ele>
        <time>2021-08-19T23:06:54Z</time>
      </trkpt>
      <trkpt lat="42.65985" lon="0.64942">
        <ele>2620</ele>
        <time>2021-08-19T23:06:36Z</time>
      </trkpt>
      <trkpt lat="42.66" lon="0.64937">
        <ele>2609</ele>
        <time>2021-08-19T23:06:16Z</time>
      </trkpt>
      <trkpt lat="42.66014" lon="0.64936">
        <ele>2602</ele>
        <time>2021-08-19T23:05:57Z</time>
      </trkpt>
      <trkpt lat="42.66023" lon="0.64937">
        <ele>2599</ele>
        <time>2021-08-19T23:05:45Z</time>
      </trkpt>
      <trkpt lat="42.66027" lon="0.64935">
        <ele>2596</ele>
        <time>2021-08-19T23:05:39Z</time>
      </trkpt>
      <trkpt lat="42.66036" lon="0.64935">
        <ele>2592</ele>
        <time>2021-08-19T23:05:27Z</time>
      </trkpt>
      <trkpt lat="42.66035" lon="0.64928">
        <ele>2591</ele>
        <time>2021-08-19T23:05:20Z</time>
      </trkpt>
      <trkpt lat="42.66044" lon="0.64923">
        <ele>2586</ele>
        <time>2021-08-19T23:05:07Z</time>
      </trkpt>
      <trkpt lat="42.6605" lon="0.64921">
        <ele>2582</ele>
        <time>2021-08-19T23:04:59Z</time>
      </trkpt>
      <trkpt lat="42.66059" lon="0.64923">
        <ele>2579</ele>
        <time>2021-08-19T23:04:47Z</time>
      </trkpt>
      <trkpt lat="42.66058" lon="0.64909">
        <ele>2576</ele>
        <time>2021-08-19T23:04:33Z</time>
      </trkpt>
      <trkpt lat="42.66054" lon="0.64899">
        <ele>2576</ele>
        <time>2021-08-19T23:04:22Z</time>
      </trkpt>
      <trkpt lat="42.66056" lon="0.64883">
        <ele>2571</ele>
        <time>2021-08-19T23:04:06Z</time>
      </trkpt>
      <trkpt lat="42.66063" lon="0.64865">
        <ele>2564</ele>
        <time>2021-08-19T23:03:46Z</time>
      </trkpt>
      <trkpt lat="42.66068" lon="0.64862">
        <ele>2561</ele>
        <time>2021-08-19T23:03:39Z</time>
      </trkpt>
      <trkpt lat="42.66077" lon="0.64861">
        <ele>2557</ele>
        <time>2021-08-19T23:03:27Z</time>
      </trkpt>
      <trkpt lat="42.66088" lon="0.64865">
        <ele>2553</ele>
        <time>2021-08-19T23:03:11Z</time>
      </trkpt>
      <trkpt lat="42.66098" lon="0.64858">
        <ele>2547</ele>
        <time>2021-08-19T23:02:56Z</time>
      </trkpt>
      <trkpt lat="42.66127" lon="0.64858">
        <ele>2534</ele>
        <time>2021-08-19T23:02:18Z</time>
      </trkpt>
      <trkpt lat="42.66137" lon="0.64853">
        <ele>2528</ele>
        <time>2021-08-19T23:02:03Z</time>
      </trkpt>
      <trkpt lat="42.66142" lon="0.64842">
        <ele>2523</ele>
        <time>2021-08-19T23:01:51Z</time>
      </trkpt>
      <trkpt lat="42.66146" lon="0.64838">
        <ele>2520</ele>
        <time>2021-08-19T23:01:44Z</time>
      </trkpt>
      <trkpt lat="42.66149" lon="0.64841">
        <ele>2519</ele>
        <time>2021-08-19T23:01:39Z</time>
      </trkpt>
      <trkpt lat="42.66157" lon="0.64828">
        <ele>2513</ele>
        <time>2021-08-19T23:01:23Z</time>
      </trkpt>
      <trkpt lat="42.66166" lon="0.64817">
        <ele>2507</ele>
        <time>2021-08-19T23:01:06Z</time>
      </trkpt>
      <trkpt lat="42.6617" lon="0.64817">
        <ele>2505</ele>
        <time>2021-08-19T23:01:01Z</time>
      </trkpt>
      <trkpt lat="42.66177" lon="0.64821">
        <ele>2501</ele>
        <time>2021-08-19T23:00:51Z</time>
      </trkpt>
      <trkpt lat="42.66185" lon="0.64829">
        <ele>2498</ele>
        <time>2021-08-19T23:00:38Z</time>
      </trkpt>
      <trkpt lat="42.66193" lon="0.6483">
        <ele>2493</ele>
        <time>2021-08-19T23:00:27Z</time>
      </trkpt>
      <trkpt lat="42.66192" lon="0.64809">
        <ele>2491</ele>
        <time>2021-08-19T23:00:06Z</time>
      </trkpt>
      <trkpt lat="42.66202" lon="0.64788">
        <ele>2483</ele>
        <time>2021-08-19T22:59:42Z</time>
      </trkpt>
      <trkpt lat="42.66205" lon="0.64774">
        <ele>2480</ele>
        <time>2021-08-19T22:59:27Z</time>
      </trkpt>
      <trkpt lat="42.6621" lon="0.64764">
        <ele>2477</ele>
        <time>2021-08-19T22:59:16Z</time>
      </trkpt>
      <trkpt lat="42.66215" lon="0.64773">
        <ele>2475</ele>
        <time>2021-08-19T22:59:04Z</time>
      </trkpt>
      <trkpt lat="42.66226" lon="0.64749">
        <ele>2467</ele>
        <time>2021-08-19T22:58:37Z</time>
      </trkpt>
      <trkpt lat="42.6623" lon="0.64747">
        <ele>2465</ele>
        <time>2021-08-19T22:58:31Z</time>
      </trkpt>
      <trkpt lat="42.66239" lon="0.64749">
        <ele>2461</ele>
        <time>2021-08-19T22:58:19Z</time>
      </trkpt>
      <trkpt lat="42.66243" lon="0.64757">
        <ele>2459</ele>
        <time>2021-08-19T22:58:09Z</time>
      </trkpt>
      <trkpt lat="42.66258" lon="0.64772">
        <ele>2452</ele>
        <time>2021-08-19T22:57:45Z</time>
      </trkpt>
      <trkpt lat="42.66264" lon="0.6478">
        <ele>2449</ele>
        <time>2021-08-19T22:57:33Z</time>
      </trkpt>
      <trkpt lat="42.66269" lon="0.64784">
        <ele>2447</ele>
        <time>2021-08-19T22:57:26Z</time>
      </trkpt>
      <trkpt lat="42.66279" lon="0.64777">
        <ele>2441</ele>
        <time>2021-08-19T22:57:11Z</time>
      </trkpt>
      <trkpt lat="42.66286" lon="0.6478">
        <ele>2438</ele>
        <time>2021-08-19T22:57:01Z</time>
      </trkpt>
      <trkpt lat="42.66307" lon="0.64797">
        <ele>2427</ele>
        <time>2021-08-19T22:56:28Z</time>
      </trkpt>
      <trkpt lat="42.66313" lon="0.64796">
        <ele>2424</ele>
        <time>2021-08-19T22:56:20Z</time>
      </trkpt>
      <trkpt lat="42.66315" lon="0.64782">
        <ele>2423</ele>
        <time>2021-08-19T22:56:06Z</time>
      </trkpt>
      <trkpt lat="42.66322" lon="0.64771">
        <ele>2419</ele>
        <time>2021-08-19T22:55:52Z</time>
      </trkpt>
      <trkpt lat="42.66329" lon="0.64768">
        <ele>2415</ele>
        <time>2021-08-19T22:55:42Z</time>
      </trkpt>
      <trkpt lat="42.66342" lon="0.64772">
        <ele>2408</ele>
        <time>2021-08-19T22:55:24Z</time>
      </trkpt>
      <trkpt lat="42.66349" lon="0.64777">
        <ele>2404</ele>
        <time>2021-08-19T22:55:14Z</time>
      </trkpt>
      <trkpt lat="42.66352" lon="0.64783">
        <ele>2402</ele>
        <time>2021-08-19T22:55:07Z</time>
      </trkpt>
      <trkpt lat="42.66359" lon="0.64791">
        <ele>2398</ele>
        <time>2021-08-19T22:54:54Z</time>
      </trkpt>
      <trkpt lat="42.66365" lon="0.64791">
        <ele>2395</ele>
        <time>2021-08-19T22:54:46Z</time>
      </trkpt>
      <trkpt lat="42.6637" lon="0.64789">
        <ele>2392</ele>
        <time>2021-08-19T22:54:39Z</time>
      </trkpt>
      <trkpt lat="42.66375" lon="0.64781">
        <ele>2388</ele>
        <time>2021-08-19T22:54:29Z</time>
      </trkpt>
      <trkpt lat="42.66383" lon="0.64781">
        <ele>2383</ele>
        <time>2021-08-19T22:54:18Z</time>
      </trkpt>
      <trkpt lat="42.66405" lon="0.6477">
        <ele>2369</ele>
        <time>2021-08-19T22:53:47Z</time>
      </trkpt>
      <trkpt lat="42.66412" lon="0.6476">
        <ele>2365</ele>
        <time>2021-08-19T22:53:34Z</time>
      </trkpt>
      <trkpt lat="42.6642" lon="0.64755">
        <ele>2359</ele>
        <time>2021-08-19T22:53:22Z</time>
      </trkpt>
      <trkpt lat="42.6643" lon="0.64757">
        <ele>2353</ele>
        <time>2021-08-19T22:53:08Z</time>
      </trkpt>
      <trkpt lat="42.66439" lon="0.64755">
        <ele>2347</ele>
        <time>2021-08-19T22:52:56Z</time>
      </trkpt>
      <trkpt lat="42.66444" lon="0.64759">
        <ele>2345</ele>
        <time>2021-08-19T22:52:48Z</time>
      </trkpt>
      <trkpt lat="42.66446" lon="0.64766">
        <ele>2344</ele>
        <time>2021-08-19T22:52:41Z</time>
      </trkpt>
      <trkpt lat="42.66461" lon="0.64787">
        <ele>2337</ele>
        <time>2021-08-19T22:52:12Z</time>
      </trkpt>
      <trkpt lat="42.66475" lon="0.64781">
        <ele>2328</ele>
        <time>2021-08-19T22:51:53Z</time>
      </trkpt>
      <trkpt lat="42.6649" lon="0.64784">
        <ele>2319</ele>
        <time>2021-08-19T22:51:33Z</time>
      </trkpt>
      <trkpt lat="42.66496" lon="0.64779">
        <ele>2315</ele>
        <time>2021-08-19T22:51:23Z</time>
      </trkpt>
      <trkpt lat="42.66506" lon="0.64776">
        <ele>2309</ele>
        <time>2021-08-19T22:51:09Z</time>
      </trkpt>
      <trkpt lat="42.66531" lon="0.64793">
        <ele>2298</ele>
        <time>2021-08-19T22:50:32Z</time>
      </trkpt>
      <trkpt lat="42.66542" lon="0.6478">
        <ele>2291</ele>
        <time>2021-08-19T22:50:13Z</time>
      </trkpt>
      <trkpt lat="42.66547" lon="0.64776">
        <ele>2288</ele>
        <time>2021-08-19T22:50:05Z</time>
      </trkpt>
      <trkpt lat="42.66552" lon="0.64778">
        <ele>2286</ele>
        <time>2021-08-19T22:49:58Z</time>
      </trkpt>
      <trkpt lat="42.66556" lon="0.64783">
        <ele>2284</ele>
        <time>2021-08-19T22:49:51Z</time>
      </trkpt>
      <trkpt lat="42.66571" lon="0.64792">
        <ele>2278</ele>
        <time>2021-08-19T22:49:29Z</time>
      </trkpt>
      <trkpt lat="42.6659" lon="0.64792">
        <ele>2267</ele>
        <time>2021-08-19T22:49:04Z</time>
      </trkpt>
      <trkpt lat="42.66595" lon="0.64795">
        <ele>2265</ele>
        <time>2021-08-19T22:48:56Z</time>
      </trkpt>
      <trkpt lat="42.66599" lon="0.64801">
        <ele>2263</ele>
        <time>2021-08-19T22:48:48Z</time>
      </trkpt>
      <trkpt lat="42.66606" lon="0.64804">
        <ele>2259</ele>
        <time>2021-08-19T22:48:39Z</time>
      </trkpt>
      <trkpt lat="42.66618" lon="0.64814">
        <ele>2252</ele>
        <time>2021-08-19T22:48:20Z</time>
      </trkpt>
      <trkpt lat="42.66633" lon="0.64819">
        <ele>2243</ele>
        <time>2021-08-19T22:47:59Z</time>
      </trkpt>
      <trkpt lat="42.66648" lon="0.64842">
        <ele>2235</ele>
        <time>2021-08-19T22:47:29Z</time>
      </trkpt>
      <trkpt lat="42.66656" lon="0.64846">
        <ele>2230</ele>
        <time>2021-08-19T22:47:18Z</time>
      </trkpt>
      <trkpt lat="42.66673" lon="0.6486">
        <ele>2220</ele>
        <time>2021-08-19T22:46:51Z</time>
      </trkpt>
      <trkpt lat="42.66688" lon="0.64862">
        <ele>2213</ele>
        <time>2021-08-19T22:46:31Z</time>
      </trkpt>
      <trkpt lat="42.66729" lon="0.64906">
        <ele>2197</ele>
        <time>2021-08-19T22:45:21Z</time>
      </trkpt>
      <trkpt lat="42.66732" lon="0.64918">
        <ele>2197</ele>
        <time>2021-08-19T22:45:09Z</time>
      </trkpt>
      <trkpt lat="42.66738" lon="0.64927">
        <ele>2194</ele>
        <time>2021-08-19T22:44:57Z</time>
      </trkpt>
      <trkpt lat="42.66757" lon="0.64944">
        <ele>2186</ele>
        <time>2021-08-19T22:44:27Z</time>
      </trkpt>
      <trkpt lat="42.66762" lon="0.64952">
        <ele>2184</ele>
        <time>2021-08-19T22:44:16Z</time>
      </trkpt>
      <trkpt lat="42.66765" lon="0.64964">
        <ele>2182</ele>
        <time>2021-08-19T22:44:04Z</time>
      </trkpt>
      <trkpt lat="42.66769" lon="0.64991">
        <ele>2180</ele>
        <time>2021-08-19T22:43:37Z</time>
      </trkpt>
      <trkpt lat="42.66773" lon="0.64996">
        <ele>2179</ele>
        <time>2021-08-19T22:43:30Z</time>
      </trkpt>
      <trkpt lat="42.66778" lon="0.64995">
        <ele>2177</ele>
        <time>2021-08-19T22:43:23Z</time>
      </trkpt>
      <trkpt lat="42.66781" lon="0.6499">
        <ele>2176</ele>
        <time>2021-08-19T22:43:16Z</time>
      </trkpt>
      <trkpt lat="42.66783" lon="0.64984">
        <ele>2175</ele>
        <time>2021-08-19T22:43:10Z</time>
      </trkpt>
      <trkpt lat="42.66791" lon="0.64982">
        <ele>2172</ele>
        <time>2021-08-19T22:42:59Z</time>
      </trkpt>
      <trkpt lat="42.66797" lon="0.64983">
        <ele>2169</ele>
        <time>2021-08-19T22:42:51Z</time>
      </trkpt>
      <trkpt lat="42.66801" lon="0.6498">
        <ele>2168</ele>
        <time>2021-08-19T22:42:45Z</time>
      </trkpt>
      <trkpt lat="42.66806" lon="0.64981">
        <ele>2166</ele>
        <time>2021-08-19T22:42:38Z</time>
      </trkpt>
      <trkpt lat="42.66814" lon="0.64974">
        <ele>2162</ele>
        <time>2021-08-19T22:42:26Z</time>
      </trkpt>
      <trkpt lat="42.6682" lon="0.64972">
        <ele>2160</ele>
        <time>2021-08-19T22:42:17Z</time>
      </trkpt>
      <trkpt lat="42.6683" lon="0.64985">
        <ele>2156</ele>
        <time>2021-08-19T22:41:59Z</time>
      </trkpt>
      <trkpt lat="42.66835" lon="0.65003">
        <ele>2154</ele>
        <time>2021-08-19T22:41:40Z</time>
      </trkpt>
      <trkpt lat="42.6684" lon="0.65012">
        <ele>2154</ele>
        <time>2021-08-19T22:41:29Z</time>
      </trkpt>
      <trkpt lat="42.6685" lon="0.6502">
        <ele>2153</ele>
        <time>2021-08-19T22:41:13Z</time>
      </trkpt>
      <trkpt lat="42.6687" lon="0.65026">
        <ele>2150</ele>
        <time>2021-08-19T22:40:46Z</time>
      </trkpt>
      <trkpt lat="42.66882" lon="0.65036">
        <ele>2149</ele>
        <time>2021-08-19T22:40:27Z</time>
      </trkpt>
      <trkpt lat="42.66922" lon="0.65036">
        <ele>2141</ele>
        <time>2021-08-19T22:39:34Z</time>
      </trkpt>
      <trkpt lat="42.66926" lon="0.6504">
        <ele>2140</ele>
        <time>2021-08-19T22:39:27Z</time>
      </trkpt>
      <trkpt lat="42.66927" lon="0.65049">
        <ele>2140</ele>
        <time>2021-08-19T22:39:18Z</time>
      </trkpt>
      <trkpt lat="42.66946" lon="0.65062">
        <ele>2135</ele>
        <time>2021-08-19T22:38:50Z</time>
      </trkpt>
      <trkpt lat="42.66951" lon="0.65079">
        <ele>2133</ele>
        <time>2021-08-19T22:38:32Z</time>
      </trkpt>
      <trkpt lat="42.66963" lon="0.65098">
        <ele>2129</ele>
        <time>2021-08-19T22:38:07Z</time>
      </trkpt>
      <trkpt lat="42.66961" lon="0.65126">
        <ele>2130</ele>
        <time>2021-08-19T22:37:40Z</time>
      </trkpt>
      <trkpt lat="42.66953" lon="0.65142">
        <ele>2132</ele>
        <time>2021-08-19T22:37:21Z</time>
      </trkpt>
      <trkpt lat="42.66951" lon="0.65156">
        <ele>2133</ele>
        <time>2021-08-19T22:37:07Z</time>
      </trkpt>
      <trkpt lat="42.66964" lon="0.65188">
        <ele>2131</ele>
        <time>2021-08-19T22:36:31Z</time>
      </trkpt>
      <trkpt lat="42.66976" lon="0.65197">
        <ele>2127</ele>
        <time>2021-08-19T22:36:13Z</time>
      </trkpt>
      <trkpt lat="42.66988" lon="0.65225">
        <ele>2126</ele>
        <time>2021-08-19T22:35:41Z</time>
      </trkpt>
      <trkpt lat="42.67008" lon="0.65256">
        <ele>2122</ele>
        <time>2021-08-19T22:35:00Z</time>
      </trkpt>
      <trkpt lat="42.67043" lon="0.65276">
        <ele>2117</ele>
        <time>2021-08-19T22:34:10Z</time>
      </trkpt>
      <trkpt lat="42.67091" lon="0.65296">
        <ele>2107</ele>
        <time>2021-08-19T22:33:03Z</time>
      </trkpt>
      <trkpt lat="42.67116" lon="0.65296">
        <ele>2096</ele>
        <time>2021-08-19T22:32:29Z</time>
      </trkpt>
      <trkpt lat="42.67126" lon="0.65287">
        <ele>2088</ele>
        <time>2021-08-19T22:32:13Z</time>
      </trkpt>
      <trkpt lat="42.67131" lon="0.6528">
        <ele>2083</ele>
        <time>2021-08-19T22:32:04Z</time>
      </trkpt>
      <trkpt lat="42.67121" lon="0.6527">
        <ele>2083</ele>
        <time>2021-08-19T22:31:47Z</time>
      </trkpt>
      <trkpt lat="42.67112" lon="0.65254">
        <ele>2081</ele>
        <time>2021-08-19T22:31:28Z</time>
      </trkpt>
      <trkpt lat="42.67121" lon="0.65243">
        <ele>2074</ele>
        <time>2021-08-19T22:31:11Z</time>
      </trkpt>
      <trkpt lat="42.67157" lon="0.65241">
        <ele>2060</ele>
        <time>2021-08-19T22:30:23Z</time>
      </trkpt>
      <trkpt lat="42.67167" lon="0.65237">
        <ele>2056</ele>
        <time>2021-08-19T22:30:09Z</time>
      </trkpt>
      <trkpt lat="42.67168" lon="0.65227">
        <ele>2055</ele>
        <time>2021-08-19T22:29:59Z</time>
      </trkpt>
      <trkpt lat="42.67163" lon="0.65214">
        <ele>2055</ele>
        <time>2021-08-19T22:29:45Z</time>
      </trkpt>
      <trkpt lat="42.67163" lon="0.65207">
        <ele>2054</ele>
        <time>2021-08-19T22:29:38Z</time>
      </trkpt>
      <trkpt lat="42.67172" lon="0.65201">
        <ele>2050</ele>
        <time>2021-08-19T22:29:25Z</time>
      </trkpt>
      <trkpt lat="42.67201" lon="0.65229">
        <ele>2044</ele>
        <time>2021-08-19T22:28:37Z</time>
      </trkpt>
      <trkpt lat="42.67217" lon="0.6523">
        <ele>2039</ele>
        <time>2021-08-19T22:28:16Z</time>
      </trkpt>
      <trkpt lat="42.67238" lon="0.65253">
        <ele>2033</ele>
        <time>2021-08-19T22:27:40Z</time>
      </trkpt>
      <trkpt lat="42.67266" lon="0.65305">
        <ele>2024</ele>
        <time>2021-08-19T22:26:37Z</time>
      </trkpt>
      <trkpt lat="42.67265" lon="0.65315">
        <ele>2025</ele>
        <time>2021-08-19T22:26:27Z</time>
      </trkpt>
      <trkpt lat="42.67265" lon="0.65332">
        <ele>2026</ele>
        <time>2021-08-19T22:26:10Z</time>
      </trkpt>
      <trkpt lat="42.67278" lon="0.65367">
        <ele>2021</ele>
        <time>2021-08-19T22:25:32Z</time>
      </trkpt>
      <trkpt lat="42.67279" lon="0.65358">
        <ele>2019</ele>
        <time>2021-08-19T22:25:23Z</time>
      </trkpt>
      <trkpt lat="42.67281" lon="0.65358">
        <ele>2018</ele>
        <time>2021-08-19T22:25:20Z</time>
      </trkpt>
      <trkpt lat="42.67292" lon="0.65375">
        <ele>2012</ele>
        <time>2021-08-19T22:24:58Z</time>
      </trkpt>
      <trkpt lat="42.67297" lon="0.65393">
        <ele>2010</ele>
        <time>2021-08-19T22:24:39Z</time>
      </trkpt>
      <trkpt lat="42.67302" lon="0.65401">
        <ele>2007</ele>
        <time>2021-08-19T22:24:29Z</time>
      </trkpt>
      <trkpt lat="42.67304" lon="0.65395">
        <ele>2005</ele>
        <time>2021-08-19T22:24:22Z</time>
      </trkpt>
      <trkpt lat="42.67306" lon="0.65371">
        <ele>2002</ele>
        <time>2021-08-19T22:23:59Z</time>
      </trkpt>
      <trkpt lat="42.67311" lon="0.65358">
        <ele>1998</ele>
        <time>2021-08-19T22:23:44Z</time>
      </trkpt>
      <trkpt lat="42.67315" lon="0.6534">
        <ele>1994</ele>
        <time>2021-08-19T22:23:26Z</time>
      </trkpt>
      <trkpt lat="42.67325" lon="0.6532">
        <ele>1988</ele>
        <time>2021-08-19T22:23:02Z</time>
      </trkpt>
      <trkpt lat="42.67329" lon="0.65317">
        <ele>1985</ele>
        <time>2021-08-19T22:22:56Z</time>
      </trkpt>
      <trkpt lat="42.67333" lon="0.65326">
        <ele>1982</ele>
        <time>2021-08-19T22:22:46Z</time>
      </trkpt>
      <trkpt lat="42.6734" lon="0.65356">
        <ele>1981</ele>
        <time>2021-08-19T22:22:15Z</time>
      </trkpt>
      <trkpt lat="42.67349" lon="0.65364">
        <ele>1979</ele>
        <time>2021-08-19T22:22:00Z</time>
      </trkpt>
      <trkpt lat="42.67366" lon="0.6537">
        <ele>1974</ele>
        <time>2021-08-19T22:21:37Z</time>
      </trkpt>
      <trkpt lat="42.67373" lon="0.6536">
        <ele>1972</ele>
        <time>2021-08-19T22:21:23Z</time>
      </trkpt>
      <trkpt lat="42.67381" lon="0.65376">
        <ele>1969</ele>
        <time>2021-08-19T22:21:04Z</time>
      </trkpt>
      <trkpt lat="42.67405" lon="0.65329">
        <ele>1962</ele>
        <time>2021-08-19T22:20:08Z</time>
      </trkpt>
      <trkpt lat="42.67418" lon="0.65324">
        <ele>1959</ele>
        <time>2021-08-19T22:19:50Z</time>
      </trkpt>
      <trkpt lat="42.67432" lon="0.65325">
        <ele>1956</ele>
        <time>2021-08-19T22:19:31Z</time>
      </trkpt>
      <trkpt lat="42.67446" lon="0.65318">
        <ele>1954</ele>
        <time>2021-08-19T22:19:12Z</time>
      </trkpt>
      <trkpt lat="42.67462" lon="0.65303">
        <ele>1950</ele>
        <time>2021-08-19T22:18:46Z</time>
      </trkpt>
      <trkpt lat="42.67466" lon="0.65292">
        <ele>1949</ele>
        <time>2021-08-19T22:18:34Z</time>
      </trkpt>
      <trkpt lat="42.67502" lon="0.65271">
        <ele>1940</ele>
        <time>2021-08-19T22:17:41Z</time>
      </trkpt>
      <trkpt lat="42.67524" lon="0.65254">
        <ele>1933</ele>
        <time>2021-08-19T22:17:08Z</time>
      </trkpt>
      <trkpt lat="42.67529" lon="0.65246">
        <ele>1932</ele>
        <time>2021-08-19T22:16:57Z</time>
      </trkpt>
      <trkpt lat="42.67535" lon="0.65229">
        <ele>1930</ele>
        <time>2021-08-19T22:16:39Z</time>
      </trkpt>
      <trkpt lat="42.67538" lon="0.65212">
        <ele>1929</ele>
        <time>2021-08-19T22:16:22Z</time>
      </trkpt>
      <trkpt lat="42.6754" lon="0.65211">
        <ele>1928</ele>
        <time>2021-08-19T22:16:19Z</time>
      </trkpt>
      <trkpt lat="42.67546" lon="0.65215">
        <ele>1926</ele>
        <time>2021-08-19T22:16:10Z</time>
      </trkpt>
      <trkpt lat="42.67563" lon="0.6517">
        <ele>1920</ele>
        <time>2021-08-19T22:15:20Z</time>
      </trkpt>
      <trkpt lat="42.67575" lon="0.65148">
        <ele>1917</ele>
        <time>2021-08-19T22:14:53Z</time>
      </trkpt>
      <trkpt lat="42.67577" lon="0.65149">
        <ele>1916</ele>
        <time>2021-08-19T22:14:51Z</time>
      </trkpt>
      <trkpt lat="42.6758" lon="0.6516">
        <ele>1915</ele>
        <time>2021-08-19T22:14:39Z</time>
      </trkpt>
      <trkpt lat="42.67574" lon="0.65186">
        <ele>1917</ele>
        <time>2021-08-19T22:14:12Z</time>
      </trkpt>
      <trkpt lat="42.67575" lon="0.6519">
        <ele>1917</ele>
        <time>2021-08-19T22:14:08Z</time>
      </trkpt>
      <trkpt lat="42.67583" lon="0.65205">
        <ele>1915</ele>
        <time>2021-08-19T22:13:50Z</time>
      </trkpt>
      <trkpt lat="42.67598" lon="0.65217">
        <ele>1915</ele>
        <time>2021-08-19T22:13:27Z</time>
      </trkpt>
      <trkpt lat="42.67601" lon="0.65215">
        <ele>1915</ele>
        <time>2021-08-19T22:13:22Z</time>
      </trkpt>
      <trkpt lat="42.67614" lon="0.65198">
        <ele>1915</ele>
        <time>2021-08-19T22:12:58Z</time>
      </trkpt>
      <trkpt lat="42.67624" lon="0.65193">
        <ele>1915</ele>
        <time>2021-08-19T22:12:44Z</time>
      </trkpt>
      <trkpt lat="42.67637" lon="0.65178">
        <ele>1914</ele>
        <time>2021-08-19T22:12:21Z</time>
      </trkpt>
      <trkpt lat="42.67644" lon="0.65167">
        <ele>1913</ele>
        <time>2021-08-19T22:12:07Z</time>
      </trkpt>
      <trkpt lat="42.67663" lon="0.65143">
        <ele>1911</ele>
        <time>2021-08-19T22:11:32Z</time>
      </trkpt>
      <trkpt lat="42.6767" lon="0.65127">
        <ele>1910</ele>
        <time>2021-08-19T22:11:14Z</time>
      </trkpt>
      <trkpt lat="42.67672" lon="0.65127">
        <ele>1910</ele>
        <time>2021-08-19T22:11:11Z</time>
      </trkpt>
      <trkpt lat="42.67674" lon="0.6513">
        <ele>1910</ele>
        <time>2021-08-19T22:11:07Z</time>
      </trkpt>
      <trkpt lat="42.67678" lon="0.65128">
        <ele>1910</ele>
        <time>2021-08-19T22:11:02Z</time>
      </trkpt>
      <trkpt lat="42.6768" lon="0.65116">
        <ele>1909</ele>
        <time>2021-08-19T22:10:50Z</time>
      </trkpt>
      <trkpt lat="42.67683" lon="0.65114">
        <ele>1909</ele>
        <time>2021-08-19T22:10:45Z</time>
      </trkpt>
      <trkpt lat="42.67714" lon="0.65111">
        <ele>1909</ele>
        <time>2021-08-19T22:10:04Z</time>
      </trkpt>
      <trkpt lat="42.67733" lon="0.65094">
        <ele>1907</ele>
        <time>2021-08-19T22:09:33Z</time>
      </trkpt>
      <trkpt lat="42.67744" lon="0.65079">
        <ele>1906</ele>
        <time>2021-08-19T22:09:13Z</time>
      </trkpt>
      <trkpt lat="42.67772" lon="0.65055">
        <ele>1904</ele>
        <time>2021-08-19T22:08:28Z</time>
      </trkpt>
      <trkpt lat="42.67787" lon="0.65046">
        <ele>1903</ele>
        <time>2021-08-19T22:08:07Z</time>
      </trkpt>
      <trkpt lat="42.67812" lon="0.65036">
        <ele>1902</ele>
        <time>2021-08-19T22:07:32Z</time>
      </trkpt>
      <trkpt lat="42.67831" lon="0.65009">
        <ele>1900</ele>
        <time>2021-08-19T22:06:55Z</time>
      </trkpt>
      <trkpt lat="42.67874" lon="0.64989">
        <ele>1903</ele>
        <time>2021-08-19T22:05:54Z</time>
      </trkpt>
      <trkpt lat="42.67881" lon="0.64947">
        <ele>1900</ele>
        <time>2021-08-19T22:05:12Z</time>
      </trkpt>
      <trkpt lat="42.6788" lon="0.64914">
        <ele>1896</ele>
        <time>2021-08-19T22:04:40Z</time>
      </trkpt>
      <trkpt lat="42.67876" lon="0.64881">
        <ele>1889</ele>
        <time>2021-08-19T22:04:07Z</time>
      </trkpt>
      <trkpt lat="42.67885" lon="0.64865">
        <ele>1886</ele>
        <time>2021-08-19T22:03:47Z</time>
      </trkpt>
      <trkpt lat="42.67905" lon="0.64851">
        <ele>1885</ele>
        <time>2021-08-19T22:03:17Z</time>
      </trkpt>
      <trkpt lat="42.67936" lon="0.64861">
        <ele>1886</ele>
        <time>2021-08-19T22:02:35Z</time>
      </trkpt>
      <trkpt lat="42.67942" lon="0.64869">
        <ele>1887</ele>
        <time>2021-08-19T22:02:24Z</time>
      </trkpt>
      <trkpt lat="42.6795" lon="0.64873">
        <ele>1887</ele>
        <time>2021-08-19T22:02:12Z</time>
      </trkpt>
      <trkpt lat="42.67957" lon="0.6487">
        <ele>1886</ele>
        <time>2021-08-19T22:02:02Z</time>
      </trkpt>
      <trkpt lat="42.67964" lon="0.64856">
        <ele>1881</ele>
        <time>2021-08-19T22:01:46Z</time>
      </trkpt>
      <trkpt lat="42.6796" lon="0.64852">
        <ele>1881</ele>
        <time>2021-08-19T22:01:39Z</time>
      </trkpt>
      <trkpt lat="42.67953" lon="0.64854">
        <ele>1882</ele>
        <time>2021-08-19T22:01:30Z</time>
      </trkpt>
      <trkpt lat="42.6795" lon="0.64852">
        <ele>1882</ele>
        <time>2021-08-19T22:01:25Z</time>
      </trkpt>
      <trkpt lat="42.67953" lon="0.64846">
        <ele>1880</ele>
        <time>2021-08-19T22:01:18Z</time>
      </trkpt>
      <trkpt lat="42.67948" lon="0.6484">
        <ele>1879</ele>
        <time>2021-08-19T22:01:09Z</time>
      </trkpt>
      <trkpt lat="42.6795" lon="0.64833">
        <ele>1877</ele>
        <time>2021-08-19T22:01:02Z</time>
      </trkpt>
      <trkpt lat="42.67954" lon="0.6483">
        <ele>1876</ele>
        <time>2021-08-19T22:00:56Z</time>
      </trkpt>
      <trkpt lat="42.67955" lon="0.64826">
        <ele>1875</ele>
        <time>2021-08-19T22:00:51Z</time>
      </trkpt>
      <trkpt lat="42.67942" lon="0.64802">
        <ele>1871</ele>
        <time>2021-08-19T22:00:22Z</time>
      </trkpt>
      <trkpt lat="42.67953" lon="0.64784">
        <ele>1866</ele>
        <time>2021-08-19T21:59:59Z</time>
      </trkpt>
      <trkpt lat="42.67964" lon="0.6478">
        <ele>1865</ele>
        <time>2021-08-19T21:59:44Z</time>
      </trkpt>
      <trkpt lat="42.6797" lon="0.64775">
        <ele>1864</ele>
        <time>2021-08-19T21:59:35Z</time>
      </trkpt>
      <trkpt lat="42.67977" lon="0.64755">
        <ele>1861</ele>
        <time>2021-08-19T21:59:13Z</time>
      </trkpt>
      <trkpt lat="42.67978" lon="0.64714">
        <ele>1860</ele>
        <time>2021-08-19T21:58:33Z</time>
      </trkpt>
      <trkpt lat="42.67982" lon="0.647">
        <ele>1860</ele>
        <time>2021-08-19T21:58:18Z</time>
      </trkpt>
      <trkpt lat="42.67978" lon="0.6467">
        <ele>1859</ele>
        <time>2021-08-19T21:57:48Z</time>
      </trkpt>
      <trkpt lat="42.67981" lon="0.64615">
        <ele>1859</ele>
        <time>2021-08-19T21:56:54Z</time>
      </trkpt>
      <trkpt lat="42.67981" lon="0.64572">
        <ele>1859</ele>
        <time>2021-08-19T21:56:12Z</time>
      </trkpt>
      <trkpt lat="42.67983" lon="0.64562">
        <ele>1860</ele>
        <time>2021-08-19T21:56:02Z</time>
      </trkpt>
      <trkpt lat="42.68003" lon="0.64499">
        <ele>1863</ele>
        <time>2021-08-19T21:54:54Z</time>
      </trkpt>
      <trkpt lat="42.68014" lon="0.64481">
        <ele>1864</ele>
        <time>2021-08-19T21:54:31Z</time>
      </trkpt>
      <trkpt lat="42.68028" lon="0.64463">
        <ele>1864</ele>
        <time>2021-08-19T21:54:06Z</time>
      </trkpt>
      <trkpt lat="42.68047" lon="0.64431">
        <ele>1865</ele>
        <time>2021-08-19T21:53:25Z</time>
      </trkpt>
      <trkpt lat="42.68059" lon="0.64395">
        <ele>1864</ele>
        <time>2021-08-19T21:52:46Z</time>
      </trkpt>
      <trkpt lat="42.68081" lon="0.64356">
        <ele>1865</ele>
        <time>2021-08-19T21:51:58Z</time>
      </trkpt>
      <trkpt lat="42.68086" lon="0.64357">
        <ele>1866</ele>
        <time>2021-08-19T21:51:52Z</time>
      </trkpt>
      <trkpt lat="42.68115" lon="0.64208">
        <ele>1857</ele>
        <time>2021-08-19T21:49:20Z</time>
      </trkpt>
      <trkpt lat="42.68119" lon="0.64206">
        <ele>1858</ele>
        <time>2021-08-19T21:49:15Z</time>
      </trkpt>
      <trkpt lat="42.68148" lon="0.64098">
        <ele>1850</ele>
        <time>2021-08-19T21:47:22Z</time>
      </trkpt>
      <trkpt lat="42.68158" lon="0.64068">
        <ele>1849</ele>
        <time>2021-08-19T21:46:50Z</time>
      </trkpt>
      <trkpt lat="42.68168" lon="0.64052">
        <ele>1848</ele>
        <time>2021-08-19T21:46:29Z</time>
      </trkpt>
      <trkpt lat="42.68177" lon="0.64046">
        <ele>1848</ele>
        <time>2021-08-19T21:46:16Z</time>
      </trkpt>
      <trkpt lat="42.68185" lon="0.64045">
        <ele>1847</ele>
        <time>2021-08-19T21:46:05Z</time>
      </trkpt>
      <trkpt lat="42.68214" lon="0.64067">
        <ele>1849</ele>
        <time>2021-08-19T21:45:21Z</time>
      </trkpt>
      <trkpt lat="42.68236" lon="0.64089">
        <ele>1852</ele>
        <time>2021-08-19T21:44:44Z</time>
      </trkpt>
      <trkpt lat="42.68253" lon="0.64098">
        <ele>1857</ele>
        <time>2021-08-19T21:44:20Z</time>
      </trkpt>
      <trkpt lat="42.68275" lon="0.64104">
        <ele>1862</ele>
        <time>2021-08-19T21:43:50Z</time>
      </trkpt>
      <trkpt lat="42.68303" lon="0.64092">
        <ele>1863</ele>
        <time>2021-08-19T21:43:11Z</time>
      </trkpt>
      <trkpt lat="42.68309" lon="0.64084">
        <ele>1862</ele>
        <time>2021-08-19T21:42:59Z</time>
      </trkpt>
      <trkpt lat="42.68336" lon="0.64016">
        <ele>1859</ele>
        <time>2021-08-19T21:41:44Z</time>
      </trkpt>
      <trkpt lat="42.68342" lon="0.63995">
        <ele>1859</ele>
        <time>2021-08-19T21:41:21Z</time>
      </trkpt>
      <trkpt lat="42.68344" lon="0.63974">
        <ele>1859</ele>
        <time>2021-08-19T21:41:01Z</time>
      </trkpt>
      <trkpt lat="42.68345" lon="0.63939">
        <ele>1858</ele>
        <time>2021-08-19T21:40:26Z</time>
      </trkpt>
      <trkpt lat="42.68351" lon="0.63905">
        <ele>1859</ele>
        <time>2021-08-19T21:39:52Z</time>
      </trkpt>
      <trkpt lat="42.68352" lon="0.63915">
        <ele>1860</ele>
        <time>2021-08-19T21:39:42Z</time>
      </trkpt>
      <trkpt lat="42.68351" lon="0.63934">
        <ele>1860</ele>
        <time>2021-08-19T21:39:23Z</time>
      </trkpt>
      <trkpt lat="42.68354" lon="0.63941">
        <ele>1862</ele>
        <time>2021-08-19T21:39:16Z</time>
      </trkpt>
      <trkpt lat="42.68353" lon="0.6395">
        <ele>1862</ele>
        <time>2021-08-19T21:39:07Z</time>
      </trkpt>
      <trkpt lat="42.68355" lon="0.63958">
        <ele>1864</ele>
        <time>2021-08-19T21:38:58Z</time>
      </trkpt>
      <trkpt lat="42.68354" lon="0.63963">
        <ele>1864</ele>
        <time>2021-08-19T21:38:53Z</time>
      </trkpt>
      <trkpt lat="42.68355" lon="0.63969">
        <ele>1865</ele>
        <time>2021-08-19T21:38:47Z</time>
      </trkpt>
      <trkpt lat="42.68352" lon="0.63986">
        <ele>1864</ele>
        <time>2021-08-19T21:38:30Z</time>
      </trkpt>
      <trkpt lat="42.68355" lon="0.63996">
        <ele>1866</ele>
        <time>2021-08-19T21:38:19Z</time>
      </trkpt>
      <trkpt lat="42.68355" lon="0.64031">
        <ele>1870</ele>
        <time>2021-08-19T21:37:45Z</time>
      </trkpt>
      <trkpt lat="42.68358" lon="0.64045">
        <ele>1874</ele>
        <time>2021-08-19T21:37:31Z</time>
      </trkpt>
      <trkpt lat="42.68358" lon="0.64056">
        <ele>1875</ele>
        <time>2021-08-19T21:37:20Z</time>
      </trkpt>
      <trkpt lat="42.68364" lon="0.64114">
        <ele>1887</ele>
        <time>2021-08-19T21:36:23Z</time>
      </trkpt>
      <trkpt lat="42.68364" lon="0.64135">
        <ele>1891</ele>
        <time>2021-08-19T21:36:02Z</time>
      </trkpt>
      <trkpt lat="42.68362" lon="0.6415">
        <ele>1893</ele>
        <time>2021-08-19T21:35:47Z</time>
      </trkpt>
      <trkpt lat="42.68366" lon="0.6416">
        <ele>1896</ele>
        <time>2021-08-19T21:35:36Z</time>
      </trkpt>
      <trkpt lat="42.68368" lon="0.64183">
        <ele>1902</ele>
        <time>2021-08-19T21:35:13Z</time>
      </trkpt>
      <trkpt lat="42.68365" lon="0.64189">
        <ele>1902</ele>
        <time>2021-08-19T21:35:06Z</time>
      </trkpt>
      <trkpt lat="42.68369" lon="0.64196">
        <ele>1906</ele>
        <time>2021-08-19T21:34:57Z</time>
      </trkpt>
      <trkpt lat="42.6837" lon="0.64203">
        <ele>1908</ele>
        <time>2021-08-19T21:34:50Z</time>
      </trkpt>
      <trkpt lat="42.68365" lon="0.64223">
        <ele>1911</ele>
        <time>2021-08-19T21:34:30Z</time>
      </trkpt>
      <trkpt lat="42.68365" lon="0.64233">
        <ele>1913</ele>
        <time>2021-08-19T21:34:20Z</time>
      </trkpt>
      <trkpt lat="42.68363" lon="0.64241">
        <ele>1914</ele>
        <time>2021-08-19T21:34:11Z</time>
      </trkpt>
      <trkpt lat="42.68363" lon="0.6426">
        <ele>1920</ele>
        <time>2021-08-19T21:33:53Z</time>
      </trkpt>
      <trkpt lat="42.68365" lon="0.64264">
        <ele>1922</ele>
        <time>2021-08-19T21:33:48Z</time>
      </trkpt>
      <trkpt lat="42.68362" lon="0.64271">
        <ele>1923</ele>
        <time>2021-08-19T21:33:40Z</time>
      </trkpt>
      <trkpt lat="42.68358" lon="0.643">
        <ele>1930</ele>
        <time>2021-08-19T21:33:11Z</time>
      </trkpt>
      <trkpt lat="42.68347" lon="0.64327">
        <ele>1933</ele>
        <time>2021-08-19T21:32:41Z</time>
      </trkpt>
      <trkpt lat="42.68342" lon="0.64348">
        <ele>1936</ele>
        <time>2021-08-19T21:32:19Z</time>
      </trkpt>
      <trkpt lat="42.6834" lon="0.64352">
        <ele>1936</ele>
        <time>2021-08-19T21:32:14Z</time>
      </trkpt>
      <trkpt lat="42.68338" lon="0.6436">
        <ele>1937</ele>
        <time>2021-08-19T21:32:06Z</time>
      </trkpt>
      <trkpt lat="42.68338" lon="0.64365">
        <ele>1939</ele>
        <time>2021-08-19T21:32:01Z</time>
      </trkpt>
      <trkpt lat="42.68324" lon="0.64404">
        <ele>1943</ele>
        <time>2021-08-19T21:31:19Z</time>
      </trkpt>
      <trkpt lat="42.68307" lon="0.64463">
        <ele>1944</ele>
        <time>2021-08-19T21:30:17Z</time>
      </trkpt>
      <trkpt lat="42.68307" lon="0.64475">
        <ele>1945</ele>
        <time>2021-08-19T21:30:05Z</time>
      </trkpt>
      <trkpt lat="42.68291" lon="0.645">
        <ele>1941</ele>
        <time>2021-08-19T21:29:32Z</time>
      </trkpt>
      <trkpt lat="42.68298" lon="0.64545">
        <ele>1944</ele>
        <time>2021-08-19T21:28:47Z</time>
      </trkpt>
      <trkpt lat="42.68301" lon="0.64551">
        <ele>1945</ele>
        <time>2021-08-19T21:28:40Z</time>
      </trkpt>
      <trkpt lat="42.68305" lon="0.64569">
        <ele>1948</ele>
        <time>2021-08-19T21:28:22Z</time>
      </trkpt>
      <trkpt lat="42.68313" lon="0.64589">
        <ele>1952</ele>
        <time>2021-08-19T21:27:59Z</time>
      </trkpt>
      <trkpt lat="42.68321" lon="0.64619">
        <ele>1957</ele>
        <time>2021-08-19T21:27:28Z</time>
      </trkpt>
      <trkpt lat="42.68319" lon="0.64632">
        <ele>1956</ele>
        <time>2021-08-19T21:27:15Z</time>
      </trkpt>
      <trkpt lat="42.6832" lon="0.64641">
        <ele>1957</ele>
        <time>2021-08-19T21:27:06Z</time>
      </trkpt>
      <trkpt lat="42.68323" lon="0.64659">
        <ele>1959</ele>
        <time>2021-08-19T21:26:48Z</time>
      </trkpt>
      <trkpt lat="42.68329" lon="0.64681">
        <ele>1964</ele>
        <time>2021-08-19T21:26:25Z</time>
      </trkpt>
      <trkpt lat="42.68326" lon="0.6473">
        <ele>1969</ele>
        <time>2021-08-19T21:25:37Z</time>
      </trkpt>
      <trkpt lat="42.68324" lon="0.64741">
        <ele>1969</ele>
        <time>2021-08-19T21:25:26Z</time>
      </trkpt>
      <trkpt lat="42.68319" lon="0.64749">
        <ele>1968</ele>
        <time>2021-08-19T21:25:15Z</time>
      </trkpt>
      <trkpt lat="42.68315" lon="0.64761">
        <ele>1968</ele>
        <time>2021-08-19T21:25:02Z</time>
      </trkpt>
      <trkpt lat="42.68314" lon="0.64781">
        <ele>1972</ele>
        <time>2021-08-19T21:24:43Z</time>
      </trkpt>
      <trkpt lat="42.68308" lon="0.64808">
        <ele>1974</ele>
        <time>2021-08-19T21:24:15Z</time>
      </trkpt>
      <trkpt lat="42.68308" lon="0.64823">
        <ele>1977</ele>
        <time>2021-08-19T21:24:00Z</time>
      </trkpt>
      <trkpt lat="42.68303" lon="0.6484">
        <ele>1978</ele>
        <time>2021-08-19T21:23:42Z</time>
      </trkpt>
      <trkpt lat="42.68282" lon="0.64885">
        <ele>1976</ele>
        <time>2021-08-19T21:22:50Z</time>
      </trkpt>
      <trkpt lat="42.6828" lon="0.64895">
        <ele>1976</ele>
        <time>2021-08-19T21:22:40Z</time>
      </trkpt>
      <trkpt lat="42.68286" lon="0.64933">
        <ele>1984</ele>
        <time>2021-08-19T21:22:02Z</time>
      </trkpt>
      <trkpt lat="42.68293" lon="0.64946">
        <ele>1988</ele>
        <time>2021-08-19T21:21:46Z</time>
      </trkpt>
      <trkpt lat="42.68298" lon="0.64937">
        <ele>1989</ele>
        <time>2021-08-19T21:21:35Z</time>
      </trkpt>
      <trkpt lat="42.68305" lon="0.64912">
        <ele>1989</ele>
        <time>2021-08-19T21:21:09Z</time>
      </trkpt>
      <trkpt lat="42.68348" lon="0.64834">
        <ele>1999</ele>
        <time>2021-08-19T21:19:33Z</time>
      </trkpt>
      <trkpt lat="42.68353" lon="0.64836">
        <ele>2002</ele>
        <time>2021-08-19T21:19:26Z</time>
      </trkpt>
      <trkpt lat="42.68355" lon="0.64948">
        <ele>2019</ele>
        <time>2021-08-19T21:17:36Z</time>
      </trkpt>
      <trkpt lat="42.6836" lon="0.64949">
        <ele>2022</ele>
        <time>2021-08-19T21:17:29Z</time>
      </trkpt>
      <trkpt lat="42.68396" lon="0.64859">
        <ele>2031</ele>
        <time>2021-08-19T21:15:49Z</time>
      </trkpt>
      <trkpt lat="42.68405" lon="0.64842">
        <ele>2035</ele>
        <time>2021-08-19T21:15:28Z</time>
      </trkpt>
      <trkpt lat="42.68411" lon="0.64841">
        <ele>2038</ele>
        <time>2021-08-19T21:15:20Z</time>
      </trkpt>
      <trkpt lat="42.68411" lon="0.6485">
        <ele>2039</ele>
        <time>2021-08-19T21:15:11Z</time>
      </trkpt>
      <trkpt lat="42.68408" lon="0.6488">
        <ele>2041</ele>
        <time>2021-08-19T21:14:42Z</time>
      </trkpt>
      <trkpt lat="42.68415" lon="0.64975">
        <ele>2060</ele>
        <time>2021-08-19T21:13:08Z</time>
      </trkpt>
      <trkpt lat="42.68414" lon="0.64995">
        <ele>2063</ele>
        <time>2021-08-19T21:12:48Z</time>
      </trkpt>
      <trkpt lat="42.68412" lon="0.65007">
        <ele>2065</ele>
        <time>2021-08-19T21:12:36Z</time>
      </trkpt>
      <trkpt lat="42.68405" lon="0.65022">
        <ele>2065</ele>
        <time>2021-08-19T21:12:19Z</time>
      </trkpt>
      <trkpt lat="42.68416" lon="0.65028">
        <ele>2074</ele>
        <time>2021-08-19T21:12:03Z</time>
      </trkpt>
      <trkpt lat="42.68413" lon="0.65036">
        <ele>2074</ele>
        <time>2021-08-19T21:11:54Z</time>
      </trkpt>
      <trkpt lat="42.68409" lon="0.65039">
        <ele>2072</ele>
        <time>2021-08-19T21:11:48Z</time>
      </trkpt>
      <trkpt lat="42.68403" lon="0.65053">
        <ele>2073</ele>
        <time>2021-08-19T21:11:32Z</time>
      </trkpt>
      <trkpt lat="42.68406" lon="0.65056">
        <ele>2076</ele>
        <time>2021-08-19T21:11:27Z</time>
      </trkpt>
      <trkpt lat="42.68414" lon="0.65053">
        <ele>2080</ele>
        <time>2021-08-19T21:11:16Z</time>
      </trkpt>
      <trkpt lat="42.68415" lon="0.6506">
        <ele>2082</ele>
        <time>2021-08-19T21:11:09Z</time>
      </trkpt>
      <trkpt lat="42.6841" lon="0.65072">
        <ele>2083</ele>
        <time>2021-08-19T21:10:56Z</time>
      </trkpt>
      <trkpt lat="42.68412" lon="0.65076">
        <ele>2085</ele>
        <time>2021-08-19T21:10:51Z</time>
      </trkpt>
      <trkpt lat="42.68419" lon="0.65068">
        <ele>2087</ele>
        <time>2021-08-19T21:10:39Z</time>
      </trkpt>
      <trkpt lat="42.68424" lon="0.6507">
        <ele>2091</ele>
        <time>2021-08-19T21:10:32Z</time>
      </trkpt>
      <trkpt lat="42.68415" lon="0.65092">
        <ele>2090</ele>
        <time>2021-08-19T21:10:07Z</time>
      </trkpt>
      <trkpt lat="42.68417" lon="0.65118">
        <ele>2096</ele>
        <time>2021-08-19T21:09:41Z</time>
      </trkpt>
      <trkpt lat="42.68424" lon="0.65148">
        <ele>2105</ele>
        <time>2021-08-19T21:09:11Z</time>
      </trkpt>
      <trkpt lat="42.68424" lon="0.65164">
        <ele>2108</ele>
        <time>2021-08-19T21:08:55Z</time>
      </trkpt>
      <trkpt lat="42.68426" lon="0.6522">
        <ele>2116</ele>
        <time>2021-08-19T21:08:00Z</time>
      </trkpt>
      <trkpt lat="42.68444" lon="0.65191">
        <ele>2124</ele>
        <time>2021-08-19T21:07:23Z</time>
      </trkpt>
      <trkpt lat="42.68451" lon="0.65175">
        <ele>2128</ele>
        <time>2021-08-19T21:07:04Z</time>
      </trkpt>
      <trkpt lat="42.68456" lon="0.65146">
        <ele>2127</ele>
        <time>2021-08-19T21:06:35Z</time>
      </trkpt>
      <trkpt lat="42.68461" lon="0.65143">
        <ele>2130</ele>
        <time>2021-08-19T21:06:28Z</time>
      </trkpt>
      <trkpt lat="42.6847" lon="0.65163">
        <ele>2139</ele>
        <time>2021-08-19T21:06:05Z</time>
      </trkpt>
      <trkpt lat="42.68472" lon="0.65194">
        <ele>2144</ele>
        <time>2021-08-19T21:05:34Z</time>
      </trkpt>
      <trkpt lat="42.68474" lon="0.65216">
        <ele>2147</ele>
        <time>2021-08-19T21:05:13Z</time>
      </trkpt>
      <trkpt lat="42.68474" lon="0.65241">
        <ele>2149</ele>
        <time>2021-08-19T21:04:48Z</time>
      </trkpt>
      <trkpt lat="42.68478" lon="0.65239">
        <ele>2151</ele>
        <time>2021-08-19T21:04:42Z</time>
      </trkpt>
      <trkpt lat="42.68483" lon="0.65231">
        <ele>2154</ele>
        <time>2021-08-19T21:04:32Z</time>
      </trkpt>
      <trkpt lat="42.68501" lon="0.65189">
        <ele>2163</ele>
        <time>2021-08-19T21:03:44Z</time>
      </trkpt>
      <trkpt lat="42.68514" lon="0.6517">
        <ele>2170</ele>
        <time>2021-08-19T21:03:19Z</time>
      </trkpt>
      <trkpt lat="42.68516" lon="0.65181">
        <ele>2172</ele>
        <time>2021-08-19T21:03:08Z</time>
      </trkpt>
      <trkpt lat="42.68515" lon="0.65262">
        <ele>2178</ele>
        <time>2021-08-19T21:01:48Z</time>
      </trkpt>
      <trkpt lat="42.68535" lon="0.65226">
        <ele>2188</ele>
        <time>2021-08-19T21:01:04Z</time>
      </trkpt>
      <trkpt lat="42.68543" lon="0.65202">
        <ele>2191</ele>
        <time>2021-08-19T21:00:38Z</time>
      </trkpt>
      <trkpt lat="42.68567" lon="0.65167">
        <ele>2203</ele>
        <time>2021-08-19T20:59:51Z</time>
      </trkpt>
      <trkpt lat="42.6857" lon="0.65174">
        <ele>2205</ele>
        <time>2021-08-19T20:59:43Z</time>
      </trkpt>
      <trkpt lat="42.68568" lon="0.65213">
        <ele>2208</ele>
        <time>2021-08-19T20:59:05Z</time>
      </trkpt>
      <trkpt lat="42.68565" lon="0.65231">
        <ele>2208</ele>
        <time>2021-08-19T20:58:47Z</time>
      </trkpt>
      <trkpt lat="42.68565" lon="0.65251">
        <ele>2210</ele>
        <time>2021-08-19T20:58:27Z</time>
      </trkpt>
      <trkpt lat="42.68567" lon="0.65302">
        <ele>2217</ele>
        <time>2021-08-19T20:57:37Z</time>
      </trkpt>
      <trkpt lat="42.6857" lon="0.65325">
        <ele>2221</ele>
        <time>2021-08-19T20:57:14Z</time>
      </trkpt>
      <trkpt lat="42.68607" lon="0.65225">
        <ele>2231</ele>
        <time>2021-08-19T20:55:24Z</time>
      </trkpt>
      <trkpt lat="42.68611" lon="0.65206">
        <ele>2231</ele>
        <time>2021-08-19T20:55:05Z</time>
      </trkpt>
      <trkpt lat="42.68615" lon="0.65199">
        <ele>2233</ele>
        <time>2021-08-19T20:54:56Z</time>
      </trkpt>
      <trkpt lat="42.68626" lon="0.65151">
        <ele>2234</ele>
        <time>2021-08-19T20:54:07Z</time>
      </trkpt>
      <trkpt lat="42.68635" lon="0.65133">
        <ele>2238</ele>
        <time>2021-08-19T20:53:46Z</time>
      </trkpt>
      <trkpt lat="42.68645" lon="0.65097">
        <ele>2242</ele>
        <time>2021-08-19T20:53:08Z</time>
      </trkpt>
      <trkpt lat="42.68661" lon="0.65066">
        <ele>2250</ele>
        <time>2021-08-19T20:52:31Z</time>
      </trkpt>
      <trkpt lat="42.68668" lon="0.65025">
        <ele>2247</ele>
        <time>2021-08-19T20:51:49Z</time>
      </trkpt>
      <trkpt lat="42.68672" lon="0.64983">
        <ele>2242</ele>
        <time>2021-08-19T20:51:08Z</time>
      </trkpt>
      <trkpt lat="42.68723" lon="0.64913">
        <ele>2249</ele>
        <time>2021-08-19T20:49:31Z</time>
      </trkpt>
      <trkpt lat="42.68725" lon="0.64883">
        <ele>2246</ele>
        <time>2021-08-19T20:49:02Z</time>
      </trkpt>
      <trkpt lat="42.68731" lon="0.64856">
        <ele>2245</ele>
        <time>2021-08-19T20:48:34Z</time>
      </trkpt>
      <trkpt lat="42.68753" lon="0.64817">
        <ele>2248</ele>
        <time>2021-08-19T20:47:46Z</time>
      </trkpt>
      <trkpt lat="42.68766" lon="0.64782">
        <ele>2247</ele>
        <time>2021-08-19T20:47:07Z</time>
      </trkpt>
      <trkpt lat="42.68775" lon="0.64706">
        <ele>2246</ele>
        <time>2021-08-19T20:45:52Z</time>
      </trkpt>
      <trkpt lat="42.68784" lon="0.64676">
        <ele>2248</ele>
        <time>2021-08-19T20:45:20Z</time>
      </trkpt>
      <trkpt lat="42.6881" lon="0.64626">
        <ele>2254</ele>
        <time>2021-08-19T20:44:20Z</time>
      </trkpt>
      <trkpt lat="42.68819" lon="0.64603">
        <ele>2255</ele>
        <time>2021-08-19T20:43:54Z</time>
      </trkpt>
      <trkpt lat="42.68825" lon="0.64586">
        <ele>2256</ele>
        <time>2021-08-19T20:43:36Z</time>
      </trkpt>
      <trkpt lat="42.68823" lon="0.64536">
        <ele>2259</ele>
        <time>2021-08-19T20:42:47Z</time>
      </trkpt>
      <trkpt lat="42.68819" lon="0.64515">
        <ele>2259</ele>
        <time>2021-08-19T20:42:25Z</time>
      </trkpt>
      <trkpt lat="42.68815" lon="0.64501">
        <ele>2259</ele>
        <time>2021-08-19T20:42:11Z</time>
      </trkpt>
      <trkpt lat="42.68802" lon="0.64477">
        <ele>2259</ele>
        <time>2021-08-19T20:41:42Z</time>
      </trkpt>
      <trkpt lat="42.68815" lon="0.6447">
        <ele>2265</ele>
        <time>2021-08-19T20:41:23Z</time>
      </trkpt>
      <trkpt lat="42.68839" lon="0.64452">
        <ele>2276</ele>
        <time>2021-08-19T20:40:46Z</time>
      </trkpt>
      <trkpt lat="42.68848" lon="0.64443">
        <ele>2280</ele>
        <time>2021-08-19T20:40:31Z</time>
      </trkpt>
      <trkpt lat="42.6885" lon="0.64434">
        <ele>2283</ele>
        <time>2021-08-19T20:40:22Z</time>
      </trkpt>
      <trkpt lat="42.68855" lon="0.64429">
        <ele>2285</ele>
        <time>2021-08-19T20:40:14Z</time>
      </trkpt>
      <trkpt lat="42.68873" lon="0.64418">
        <ele>2290</ele>
        <time>2021-08-19T20:39:48Z</time>
      </trkpt>
      <trkpt lat="42.68873" lon="0.64414">
        <ele>2291</ele>
        <time>2021-08-19T20:39:44Z</time>
      </trkpt>
      <trkpt lat="42.68865" lon="0.64403">
        <ele>2292</ele>
        <time>2021-08-19T20:39:28Z</time>
      </trkpt>
      <trkpt lat="42.68867" lon="0.64397">
        <ele>2293</ele>
        <time>2021-08-19T20:39:22Z</time>
      </trkpt>
      <trkpt lat="42.68873" lon="0.64396">
        <ele>2295</ele>
        <time>2021-08-19T20:39:14Z</time>
      </trkpt>
      <trkpt lat="42.68886" lon="0.64386">
        <ele>2299</ele>
        <time>2021-08-19T20:38:54Z</time>
      </trkpt>
      <trkpt lat="42.689" lon="0.64384">
        <ele>2302</ele>
        <time>2021-08-19T20:38:35Z</time>
      </trkpt>
      <trkpt lat="42.68901" lon="0.64379">
        <ele>2303</ele>
        <time>2021-08-19T20:38:30Z</time>
      </trkpt>
      <trkpt lat="42.68896" lon="0.64366">
        <ele>2305</ele>
        <time>2021-08-19T20:38:16Z</time>
      </trkpt>
      <trkpt lat="42.68891" lon="0.64346">
        <ele>2308</ele>
        <time>2021-08-19T20:37:55Z</time>
      </trkpt>
      <trkpt lat="42.68889" lon="0.64343">
        <ele>2308</ele>
        <time>2021-08-19T20:37:51Z</time>
      </trkpt>
      <trkpt lat="42.68895" lon="0.64309">
        <ele>2315</ele>
        <time>2021-08-19T20:37:17Z</time>
      </trkpt>
      <trkpt lat="42.68903" lon="0.64306">
        <ele>2317</ele>
        <time>2021-08-19T20:37:06Z</time>
      </trkpt>
      <trkpt lat="42.68909" lon="0.64308">
        <ele>2318</ele>
        <time>2021-08-19T20:36:57Z</time>
      </trkpt>
      <trkpt lat="42.68928" lon="0.64317">
        <ele>2320</ele>
        <time>2021-08-19T20:36:31Z</time>
      </trkpt>
      <trkpt lat="42.68933" lon="0.64323">
        <ele>2320</ele>
        <time>2021-08-19T20:36:22Z</time>
      </trkpt>
      <trkpt lat="42.68943" lon="0.64305">
        <ele>2325</ele>
        <time>2021-08-19T20:36:00Z</time>
      </trkpt>
      <trkpt lat="42.68944" lon="0.64298">
        <ele>2327</ele>
        <time>2021-08-19T20:35:53Z</time>
      </trkpt>
      <trkpt lat="42.68956" lon="0.64291">
        <ele>2330</ele>
        <time>2021-08-19T20:35:35Z</time>
      </trkpt>
      <trkpt lat="42.68971" lon="0.64268">
        <ele>2335</ele>
        <time>2021-08-19T20:35:05Z</time>
      </trkpt>
      <trkpt lat="42.68983" lon="0.64261">
        <ele>2338</ele>
        <time>2021-08-19T20:34:48Z</time>
      </trkpt>
      <trkpt lat="42.6899" lon="0.64252">
        <ele>2340</ele>
        <time>2021-08-19T20:34:35Z</time>
      </trkpt>
      <trkpt lat="42.69007" lon="0.6422">
        <ele>2345</ele>
        <time>2021-08-19T20:33:56Z</time>
      </trkpt>
      <trkpt lat="42.69014" lon="0.64201">
        <ele>2348</ele>
        <time>2021-08-19T20:33:35Z</time>
      </trkpt>
      <trkpt lat="42.69016" lon="0.64189">
        <ele>2350</ele>
        <time>2021-08-19T20:33:23Z</time>
      </trkpt>
      <trkpt lat="42.69017" lon="0.64175">
        <ele>2352</ele>
        <time>2021-08-19T20:33:09Z</time>
      </trkpt>
      <trkpt lat="42.69014" lon="0.6416">
        <ele>2353</ele>
        <time>2021-08-19T20:32:54Z</time>
      </trkpt>
      <trkpt lat="42.69013" lon="0.64137">
        <ele>2355</ele>
        <time>2021-08-19T20:32:31Z</time>
      </trkpt>
      <trkpt lat="42.69018" lon="0.6412">
        <ele>2357</ele>
        <time>2021-08-19T20:32:13Z</time>
      </trkpt>
      <trkpt lat="42.69023" lon="0.64091">
        <ele>2361</ele>
        <time>2021-08-19T20:31:44Z</time>
      </trkpt>
      <trkpt lat="42.69036" lon="0.64064">
        <ele>2364</ele>
        <time>2021-08-19T20:31:13Z</time>
      </trkpt>
      <trkpt lat="42.69044" lon="0.64054">
        <ele>2365</ele>
        <time>2021-08-19T20:30:58Z</time>
      </trkpt>
      <trkpt lat="42.69053" lon="0.64051">
        <ele>2366</ele>
        <time>2021-08-19T20:30:46Z</time>
      </trkpt>
      <trkpt lat="42.69065" lon="0.64063">
        <ele>2367</ele>
        <time>2021-08-19T20:30:26Z</time>
      </trkpt>
      <trkpt lat="42.69076" lon="0.64053">
        <ele>2369</ele>
        <time>2021-08-19T20:30:08Z</time>
      </trkpt>
      <trkpt lat="42.69088" lon="0.64048">
        <ele>2372</ele>
        <time>2021-08-19T20:29:51Z</time>
      </trkpt>
      <trkpt lat="42.69135" lon="0.64044">
        <ele>2384</ele>
        <time>2021-08-19T20:28:49Z</time>
      </trkpt>
      <trkpt lat="42.69153" lon="0.64009">
        <ele>2391</ele>
        <time>2021-08-19T20:28:07Z</time>
      </trkpt>
      <trkpt lat="42.69155" lon="0.6393">
        <ele>2398</ele>
        <time>2021-08-19T20:26:49Z</time>
      </trkpt>
      <trkpt lat="42.69181" lon="0.63995">
        <ele>2405</ele>
        <time>2021-08-19T20:25:37Z</time>
      </trkpt>
      <trkpt lat="42.6918" lon="0.6402">
        <ele>2402</ele>
        <time>2021-08-19T20:25:12Z</time>
      </trkpt>
      <trkpt lat="42.69186" lon="0.64055">
        <ele>2405</ele>
        <time>2021-08-19T20:24:37Z</time>
      </trkpt>
      <trkpt lat="42.69195" lon="0.6408">
        <ele>2409</ele>
        <time>2021-08-19T20:24:09Z</time>
      </trkpt>
      <trkpt lat="42.69196" lon="0.64094">
        <ele>2408</ele>
        <time>2021-08-19T20:23:56Z</time>
      </trkpt>
      <trkpt lat="42.69201" lon="0.64096">
        <ele>2411</ele>
        <time>2021-08-19T20:23:49Z</time>
      </trkpt>
      <trkpt lat="42.69204" lon="0.64087">
        <ele>2414</ele>
        <time>2021-08-19T20:23:39Z</time>
      </trkpt>
      <trkpt lat="42.69217" lon="0.64113">
        <ele>2421</ele>
        <time>2021-08-19T20:23:08Z</time>
      </trkpt>
      <trkpt lat="42.69225" lon="0.64097">
        <ele>2427</ele>
        <time>2021-08-19T20:22:49Z</time>
      </trkpt>
      <trkpt lat="42.69239" lon="0.64117">
        <ele>2435</ele>
        <time>2021-08-19T20:22:22Z</time>
      </trkpt>
      <trkpt lat="42.69251" lon="0.64124">
        <ele>2443</ele>
        <time>2021-08-19T20:22:05Z</time>
      </trkpt>
      <trkpt lat="42.69256" lon="0.64116">
        <ele>2443</ele>
        <time>2021-08-19T20:21:54Z</time>
      </trkpt>
      <trkpt lat="42.69264" lon="0.64118">
        <ele>2443</ele>
        <time>2021-08-19T20:21:44Z</time>
      </trkpt>
      <trkpt lat="42.69276" lon="0.6411">
        <ele>2442</ele>
        <time>2021-08-19T20:21:26Z</time>
      </trkpt>
      <trkpt lat="42.69286" lon="0.64097">
        <ele>2440</ele>
        <time>2021-08-19T20:21:07Z</time>
      </trkpt>
      <trkpt lat="42.69291" lon="0.641">
        <ele>2440</ele>
        <time>2021-08-19T20:21:00Z</time>
      </trkpt>
      <trkpt lat="42.69292" lon="0.64097">
        <ele>2439</ele>
        <time>2021-08-19T20:20:57Z</time>
      </trkpt>
      <trkpt lat="42.6929" lon="0.64093">
        <ele>2439</ele>
        <time>2021-08-19T20:20:52Z</time>
      </trkpt>
      <trkpt lat="42.69291" lon="0.64091">
        <ele>2439</ele>
        <time>2021-08-19T20:20:50Z</time>
      </trkpt>
      <trkpt lat="42.69294" lon="0.64094">
        <ele>2439</ele>
        <time>2021-08-19T20:20:45Z</time>
      </trkpt>
      <trkpt lat="42.69296" lon="0.64093">
        <ele>2438</ele>
        <time>2021-08-19T20:20:42Z</time>
      </trkpt>
      <trkpt lat="42.69294" lon="0.64085">
        <ele>2437</ele>
        <time>2021-08-19T20:20:33Z</time>
      </trkpt>
      <trkpt lat="42.69294" lon="0.6408">
        <ele>2437</ele>
        <time>2021-08-19T20:20:29Z</time>
      </trkpt>
      <trkpt lat="42.69303" lon="0.64088">
        <ele>2437</ele>
        <time>2021-08-19T20:20:14Z</time>
      </trkpt>
      <trkpt lat="42.69304" lon="0.64085">
        <ele>2436</ele>
        <time>2021-08-19T20:20:11Z</time>
      </trkpt>
      <trkpt lat="42.69299" lon="0.64077">
        <ele>2435</ele>
        <time>2021-08-19T20:20:01Z</time>
      </trkpt>
      <trkpt lat="42.69299" lon="0.64067">
        <ele>2433</ele>
        <time>2021-08-19T20:19:51Z</time>
      </trkpt>
      <trkpt lat="42.69301" lon="0.64067">
        <ele>2433</ele>
        <time>2021-08-19T20:19:48Z</time>
      </trkpt>
      <trkpt lat="42.69307" lon="0.6408">
        <ele>2434</ele>
        <time>2021-08-19T20:19:33Z</time>
      </trkpt>
      <trkpt lat="42.69308" lon="0.64078">
        <ele>2434</ele>
        <time>2021-08-19T20:19:31Z</time>
      </trkpt>
      <trkpt lat="42.69306" lon="0.64068">
        <ele>2432</ele>
        <time>2021-08-19T20:19:21Z</time>
      </trkpt>
      <trkpt lat="42.69307" lon="0.64064">
        <ele>2431</ele>
        <time>2021-08-19T20:19:16Z</time>
      </trkpt>
      <trkpt lat="42.69318" lon="0.64075">
        <ele>2431</ele>
        <time>2021-08-19T20:18:58Z</time>
      </trkpt>
      <trkpt lat="42.69319" lon="0.64073">
        <ele>2430</ele>
        <time>2021-08-19T20:18:56Z</time>
      </trkpt>
      <trkpt lat="42.69317" lon="0.64063">
        <ele>2428</ele>
        <time>2021-08-19T20:18:46Z</time>
      </trkpt>
      <trkpt lat="42.69309" lon="0.64046">
        <ele>2426</ele>
        <time>2021-08-19T20:18:26Z</time>
      </trkpt>
      <trkpt lat="42.69311" lon="0.64044">
        <ele>2424</ele>
        <time>2021-08-19T20:18:23Z</time>
      </trkpt>
      <trkpt lat="42.69321" lon="0.64046">
        <ele>2422</ele>
        <time>2021-08-19T20:18:09Z</time>
      </trkpt>
      <trkpt lat="42.6933" lon="0.64059">
        <ele>2423</ele>
        <time>2021-08-19T20:17:52Z</time>
      </trkpt>
      <trkpt lat="42.69328" lon="0.64045">
        <ele>2419</ele>
        <time>2021-08-19T20:17:38Z</time>
      </trkpt>
      <trkpt lat="42.69322" lon="0.64033">
        <ele>2417</ele>
        <time>2021-08-19T20:17:23Z</time>
      </trkpt>
      <trkpt lat="42.69324" lon="0.64032">
        <ele>2416</ele>
        <time>2021-08-19T20:17:21Z</time>
      </trkpt>
      <trkpt lat="42.69332" lon="0.64035">
        <ele>2414</ele>
        <time>2021-08-19T20:17:09Z</time>
      </trkpt>
      <trkpt lat="42.69338" lon="0.64041">
        <ele>2411</ele>
        <time>2021-08-19T20:17:00Z</time>
      </trkpt>
      <trkpt lat="42.69349" lon="0.64058">
        <ele>2406</ele>
        <time>2021-08-19T20:16:37Z</time>
      </trkpt>
      <trkpt lat="42.69348" lon="0.64035">
        <ele>2399</ele>
        <time>2021-08-19T20:16:15Z</time>
      </trkpt>
      <trkpt lat="42.6934" lon="0.64019">
        <ele>2401</ele>
        <time>2021-08-19T20:15:56Z</time>
      </trkpt>
      <trkpt lat="42.69355" lon="0.64028">
        <ele>2389</ele>
        <time>2021-08-19T20:15:34Z</time>
      </trkpt>
      <trkpt lat="42.69359" lon="0.64034">
        <ele>2387</ele>
        <time>2021-08-19T20:15:26Z</time>
      </trkpt>
      <trkpt lat="42.69364" lon="0.6405">
        <ele>2387</ele>
        <time>2021-08-19T20:15:09Z</time>
      </trkpt>
      <trkpt lat="42.69379" lon="0.6408">
        <ele>2381</ele>
        <time>2021-08-19T20:14:33Z</time>
      </trkpt>
      <trkpt lat="42.69379" lon="0.64087">
        <ele>2383</ele>
        <time>2021-08-19T20:14:26Z</time>
      </trkpt>
      <trkpt lat="42.69382" lon="0.64095">
        <ele>2381</ele>
        <time>2021-08-19T20:14:18Z</time>
      </trkpt>
      <trkpt lat="42.69386" lon="0.64099">
        <ele>2378</ele>
        <time>2021-08-19T20:14:11Z</time>
      </trkpt>
      <trkpt lat="42.69387" lon="0.64081">
        <ele>2372</ele>
        <time>2021-08-19T20:13:53Z</time>
      </trkpt>
      <trkpt lat="42.69387" lon="0.64053">
        <ele>2364</ele>
        <time>2021-08-19T20:13:26Z</time>
      </trkpt>
      <trkpt lat="42.69399" lon="0.64064">
        <ele>2355</ele>
        <time>2021-08-19T20:13:07Z</time>
      </trkpt>
      <trkpt lat="42.69402" lon="0.6407">
        <ele>2353</ele>
        <time>2021-08-19T20:12:59Z</time>
      </trkpt>
      <trkpt lat="42.69403" lon="0.6408">
        <ele>2355</ele>
        <time>2021-08-19T20:12:49Z</time>
      </trkpt>
      <trkpt lat="42.69411" lon="0.64099">
        <ele>2351</ele>
        <time>2021-08-19T20:12:28Z</time>
      </trkpt>
      <trkpt lat="42.69443" lon="0.64152">
        <ele>2343</ele>
        <time>2021-08-19T20:11:21Z</time>
      </trkpt>
      <trkpt lat="42.69451" lon="0.64158">
        <ele>2341</ele>
        <time>2021-08-19T20:11:09Z</time>
      </trkpt>
      <trkpt lat="42.69463" lon="0.64163">
        <ele>2337</ele>
        <time>2021-08-19T20:10:52Z</time>
      </trkpt>
      <trkpt lat="42.69475" lon="0.64162">
        <ele>2332</ele>
        <time>2021-08-19T20:10:36Z</time>
      </trkpt>
      <trkpt lat="42.69511" lon="0.64182">
        <ele>2327</ele>
        <time>2021-08-19T20:09:44Z</time>
      </trkpt>
      <trkpt lat="42.69531" lon="0.64178">
        <ele>2320</ele>
        <time>2021-08-19T20:09:17Z</time>
      </trkpt>
      <trkpt lat="42.69552" lon="0.64166">
        <ele>2310</ele>
        <time>2021-08-19T20:08:46Z</time>
      </trkpt>
      <trkpt lat="42.69573" lon="0.6417">
        <ele>2307</ele>
        <time>2021-08-19T20:08:18Z</time>
      </trkpt>
      <trkpt lat="42.69574" lon="0.64168">
        <ele>2306</ele>
        <time>2021-08-19T20:08:16Z</time>
      </trkpt>
      <trkpt lat="42.69585" lon="0.64168">
        <ele>2303</ele>
        <time>2021-08-19T20:08:01Z</time>
      </trkpt>
      <trkpt lat="42.69593" lon="0.64162">
        <ele>2300</ele>
        <time>2021-08-19T20:07:49Z</time>
      </trkpt>
      <trkpt lat="42.69601" lon="0.64153">
        <ele>2295</ele>
        <time>2021-08-19T20:07:35Z</time>
      </trkpt>
      <trkpt lat="42.69628" lon="0.64145">
        <ele>2290</ele>
        <time>2021-08-19T20:06:58Z</time>
      </trkpt>
      <trkpt lat="42.69648" lon="0.64142">
        <ele>2287</ele>
        <time>2021-08-19T20:06:31Z</time>
      </trkpt>
      <trkpt lat="42.69653" lon="0.64136">
        <ele>2285</ele>
        <time>2021-08-19T20:06:22Z</time>
      </trkpt>
      <trkpt lat="42.69666" lon="0.64135">
        <ele>2284</ele>
        <time>2021-08-19T20:06:05Z</time>
      </trkpt>
      <trkpt lat="42.69682" lon="0.64128">
        <ele>2279</ele>
        <time>2021-08-19T20:05:43Z</time>
      </trkpt>
      <trkpt lat="42.69684" lon="0.64126">
        <ele>2278</ele>
        <time>2021-08-19T20:05:39Z</time>
      </trkpt>
      <trkpt lat="42.69699" lon="0.64126">
        <ele>2277</ele>
        <time>2021-08-19T20:05:19Z</time>
      </trkpt>
      <trkpt lat="42.69705" lon="0.64122">
        <ele>2275</ele>
        <time>2021-08-19T20:05:10Z</time>
      </trkpt>
      <trkpt lat="42.69746" lon="0.64115">
        <ele>2269</ele>
        <time>2021-08-19T20:04:15Z</time>
      </trkpt>
      <trkpt lat="42.69756" lon="0.64118">
        <ele>2269</ele>
        <time>2021-08-19T20:04:02Z</time>
      </trkpt>
      <trkpt lat="42.69782" lon="0.6413">
        <ele>2270</ele>
        <time>2021-08-19T20:03:25Z</time>
      </trkpt>
      <trkpt lat="42.69804" lon="0.64129">
        <ele>2267</ele>
        <time>2021-08-19T20:02:56Z</time>
      </trkpt>
      <trkpt lat="42.69812" lon="0.64131">
        <ele>2266</ele>
        <time>2021-08-19T20:02:45Z</time>
      </trkpt>
      <trkpt lat="42.69824" lon="0.64139">
        <ele>2266</ele>
        <time>2021-08-19T20:02:27Z</time>
      </trkpt>
      <trkpt lat="42.69834" lon="0.64152">
        <ele>2267</ele>
        <time>2021-08-19T20:02:08Z</time>
      </trkpt>
      <trkpt lat="42.69854" lon="0.64161">
        <ele>2264</ele>
        <time>2021-08-19T20:01:40Z</time>
      </trkpt>
      <trkpt lat="42.69861" lon="0.64167">
        <ele>2264</ele>
        <time>2021-08-19T20:01:29Z</time>
      </trkpt>
      <trkpt lat="42.69872" lon="0.6419">
        <ele>2263</ele>
        <time>2021-08-19T20:01:02Z</time>
      </trkpt>
      <trkpt lat="42.69883" lon="0.6419">
        <ele>2261</ele>
        <time>2021-08-19T20:00:48Z</time>
      </trkpt>
      <trkpt lat="42.69892" lon="0.64199">
        <ele>2259</ele>
        <time>2021-08-19T20:00:33Z</time>
      </trkpt>
      <trkpt lat="42.69908" lon="0.64231">
        <ele>2256</ele>
        <time>2021-08-19T19:59:55Z</time>
      </trkpt>
      <trkpt lat="42.69911" lon="0.64242">
        <ele>2255</ele>
        <time>2021-08-19T19:59:43Z</time>
      </trkpt>
      <trkpt lat="42.6992" lon="0.64261">
        <ele>2251</ele>
        <time>2021-08-19T19:59:21Z</time>
      </trkpt>
      <trkpt lat="42.69927" lon="0.64272">
        <ele>2247</ele>
        <time>2021-08-19T19:59:07Z</time>
      </trkpt>
      <trkpt lat="42.69942" lon="0.64236">
        <ele>2251</ele>
        <time>2021-08-19T19:58:26Z</time>
      </trkpt>
      <trkpt lat="42.69949" lon="0.64234">
        <ele>2250</ele>
        <time>2021-08-19T19:58:17Z</time>
      </trkpt>
      <trkpt lat="42.69959" lon="0.64226">
        <ele>2249</ele>
        <time>2021-08-19T19:58:01Z</time>
      </trkpt>
      <trkpt lat="42.69964" lon="0.64229">
        <ele>2248</ele>
        <time>2021-08-19T19:57:54Z</time>
      </trkpt>
      <trkpt lat="42.69965" lon="0.64236">
        <ele>2248</ele>
        <time>2021-08-19T19:57:47Z</time>
      </trkpt>
      <trkpt lat="42.69973" lon="0.64241">
        <ele>2247</ele>
        <time>2021-08-19T19:57:35Z</time>
      </trkpt>
      <trkpt lat="42.69978" lon="0.64256">
        <ele>2245</ele>
        <time>2021-08-19T19:57:19Z</time>
      </trkpt>
      <trkpt lat="42.69984" lon="0.64267">
        <ele>2241</ele>
        <time>2021-08-19T19:57:06Z</time>
      </trkpt>
      <trkpt lat="42.70001" lon="0.64271">
        <ele>2238</ele>
        <time>2021-08-19T19:56:43Z</time>
      </trkpt>
      <trkpt lat="42.70013" lon="0.64282">
        <ele>2235</ele>
        <time>2021-08-19T19:56:23Z</time>
      </trkpt>
      <trkpt lat="42.7002" lon="0.64298">
        <ele>2231</ele>
        <time>2021-08-19T19:56:05Z</time>
      </trkpt>
      <trkpt lat="42.70043" lon="0.64323">
        <ele>2225</ele>
        <time>2021-08-19T19:55:26Z</time>
      </trkpt>
      <trkpt lat="42.70066" lon="0.64363">
        <ele>2212</ele>
        <time>2021-08-19T19:54:36Z</time>
      </trkpt>
      <trkpt lat="42.70079" lon="0.64368">
        <ele>2210</ele>
        <time>2021-08-19T19:54:18Z</time>
      </trkpt>
      <trkpt lat="42.70079" lon="0.6437">
        <ele>2209</ele>
        <time>2021-08-19T19:54:16Z</time>
      </trkpt>
      <trkpt lat="42.70075" lon="0.64373">
        <ele>2208</ele>
        <time>2021-08-19T19:54:10Z</time>
      </trkpt>
      <trkpt lat="42.70059" lon="0.64375">
        <ele>2208</ele>
        <time>2021-08-19T19:53:48Z</time>
      </trkpt>
      <trkpt lat="42.70052" lon="0.64371">
        <ele>2209</ele>
        <time>2021-08-19T19:53:38Z</time>
      </trkpt>
      <trkpt lat="42.70062" lon="0.6439">
        <ele>2202</ele>
        <time>2021-08-19T19:53:15Z</time>
      </trkpt>
      <trkpt lat="42.70069" lon="0.64398">
        <ele>2199</ele>
        <time>2021-08-19T19:53:03Z</time>
      </trkpt>
      <trkpt lat="42.70078" lon="0.64398">
        <ele>2198</ele>
        <time>2021-08-19T19:52:51Z</time>
      </trkpt>
      <trkpt lat="42.7008" lon="0.644">
        <ele>2198</ele>
        <time>2021-08-19T19:52:48Z</time>
      </trkpt>
      <trkpt lat="42.70076" lon="0.64406">
        <ele>2196</ele>
        <time>2021-08-19T19:52:40Z</time>
      </trkpt>
      <trkpt lat="42.70062" lon="0.64412">
        <ele>2194</ele>
        <time>2021-08-19T19:52:20Z</time>
      </trkpt>
      <trkpt lat="42.70048" lon="0.64405">
        <ele>2198</ele>
        <time>2021-08-19T19:52:00Z</time>
      </trkpt>
      <trkpt lat="42.70052" lon="0.64424">
        <ele>2192</ele>
        <time>2021-08-19T19:51:41Z</time>
      </trkpt>
      <trkpt lat="42.70057" lon="0.64431">
        <ele>2190</ele>
        <time>2021-08-19T19:51:32Z</time>
      </trkpt>
      <trkpt lat="42.70065" lon="0.64434">
        <ele>2188</ele>
        <time>2021-08-19T19:51:20Z</time>
      </trkpt>
      <trkpt lat="42.70055" lon="0.64442">
        <ele>2187</ele>
        <time>2021-08-19T19:51:05Z</time>
      </trkpt>
      <trkpt lat="42.70047" lon="0.64443">
        <ele>2188</ele>
        <time>2021-08-19T19:50:54Z</time>
      </trkpt>
      <trkpt lat="42.70051" lon="0.6445">
        <ele>2186</ele>
        <time>2021-08-19T19:50:46Z</time>
      </trkpt>
      <trkpt lat="42.70056" lon="0.64454">
        <ele>2184</ele>
        <time>2021-08-19T19:50:38Z</time>
      </trkpt>
      <trkpt lat="42.70066" lon="0.64457">
        <ele>2182</ele>
        <time>2021-08-19T19:50:24Z</time>
      </trkpt>
      <trkpt lat="42.70086" lon="0.64448">
        <ele>2181</ele>
        <time>2021-08-19T19:49:56Z</time>
      </trkpt>
      <trkpt lat="42.70144" lon="0.64429">
        <ele>2172</ele>
        <time>2021-08-19T19:48:36Z</time>
      </trkpt>
      <trkpt lat="42.70163" lon="0.6444">
        <ele>2165</ele>
        <time>2021-08-19T19:48:09Z</time>
      </trkpt>
      <trkpt lat="42.70178" lon="0.64458">
        <ele>2159</ele>
        <time>2021-08-19T19:47:42Z</time>
      </trkpt>
      <trkpt lat="42.70189" lon="0.64476">
        <ele>2153</ele>
        <time>2021-08-19T19:47:19Z</time>
      </trkpt>
      <trkpt lat="42.70198" lon="0.64495">
        <ele>2148</ele>
        <time>2021-08-19T19:46:57Z</time>
      </trkpt>
      <trkpt lat="42.70219" lon="0.64506">
        <ele>2144</ele>
        <time>2021-08-19T19:46:27Z</time>
      </trkpt>
      <trkpt lat="42.70236" lon="0.64522">
        <ele>2140</ele>
        <time>2021-08-19T19:45:59Z</time>
      </trkpt>
      <trkpt lat="42.70242" lon="0.64539">
        <ele>2136</ele>
        <time>2021-08-19T19:45:41Z</time>
      </trkpt>
      <trkpt lat="42.70251" lon="0.64549">
        <ele>2132</ele>
        <time>2021-08-19T19:45:25Z</time>
      </trkpt>
      <trkpt lat="42.70261" lon="0.64543">
        <ele>2128</ele>
        <time>2021-08-19T19:45:11Z</time>
      </trkpt>
      <trkpt lat="42.7027" lon="0.6453">
        <ele>2126</ele>
        <time>2021-08-19T19:44:53Z</time>
      </trkpt>
      <trkpt lat="42.70267" lon="0.64556">
        <ele>2123</ele>
        <time>2021-08-19T19:44:28Z</time>
      </trkpt>
      <trkpt lat="42.70281" lon="0.64529">
        <ele>2120</ele>
        <time>2021-08-19T19:43:55Z</time>
      </trkpt>
      <trkpt lat="42.70291" lon="0.64498">
        <ele>2118</ele>
        <time>2021-08-19T19:43:22Z</time>
      </trkpt>
      <trkpt lat="42.70289" lon="0.64525">
        <ele>2116</ele>
        <time>2021-08-19T19:42:55Z</time>
      </trkpt>
      <trkpt lat="42.70299" lon="0.645">
        <ele>2113</ele>
        <time>2021-08-19T19:42:27Z</time>
      </trkpt>
      <trkpt lat="42.70302" lon="0.64505">
        <ele>2111</ele>
        <time>2021-08-19T19:42:21Z</time>
      </trkpt>
      <trkpt lat="42.70297" lon="0.64536">
        <ele>2110</ele>
        <time>2021-08-19T19:41:50Z</time>
      </trkpt>
      <trkpt lat="42.70301" lon="0.64532">
        <ele>2108</ele>
        <time>2021-08-19T19:41:43Z</time>
      </trkpt>
      <trkpt lat="42.70314" lon="0.64506">
        <ele>2103</ele>
        <time>2021-08-19T19:41:12Z</time>
      </trkpt>
      <trkpt lat="42.70309" lon="0.64541">
        <ele>2102</ele>
        <time>2021-08-19T19:40:38Z</time>
      </trkpt>
      <trkpt lat="42.70312" lon="0.64541">
        <ele>2101</ele>
        <time>2021-08-19T19:40:33Z</time>
      </trkpt>
      <trkpt lat="42.70327" lon="0.64507">
        <ele>2095</ele>
        <time>2021-08-19T19:39:55Z</time>
      </trkpt>
      <trkpt lat="42.70329" lon="0.64512">
        <ele>2094</ele>
        <time>2021-08-19T19:39:49Z</time>
      </trkpt>
      <trkpt lat="42.70326" lon="0.6456">
        <ele>2091</ele>
        <time>2021-08-19T19:39:02Z</time>
      </trkpt>
      <trkpt lat="42.70333" lon="0.64575">
        <ele>2087</ele>
        <time>2021-08-19T19:38:44Z</time>
      </trkpt>
      <trkpt lat="42.70336" lon="0.64568">
        <ele>2085</ele>
        <time>2021-08-19T19:38:36Z</time>
      </trkpt>
      <trkpt lat="42.70338" lon="0.6455">
        <ele>2086</ele>
        <time>2021-08-19T19:38:19Z</time>
      </trkpt>
      <trkpt lat="42.70344" lon="0.64531">
        <ele>2083</ele>
        <time>2021-08-19T19:37:58Z</time>
      </trkpt>
      <trkpt lat="42.70352" lon="0.64524">
        <ele>2079</ele>
        <time>2021-08-19T19:37:46Z</time>
      </trkpt>
      <trkpt lat="42.7036" lon="0.6451">
        <ele>2076</ele>
        <time>2021-08-19T19:37:28Z</time>
      </trkpt>
      <trkpt lat="42.70363" lon="0.64514">
        <ele>2074</ele>
        <time>2021-08-19T19:37:23Z</time>
      </trkpt>
      <trkpt lat="42.70358" lon="0.64538">
        <ele>2074</ele>
        <time>2021-08-19T19:36:58Z</time>
      </trkpt>
      <trkpt lat="42.70371" lon="0.64523">
        <ele>2068</ele>
        <time>2021-08-19T19:36:35Z</time>
      </trkpt>
      <trkpt lat="42.70374" lon="0.64524">
        <ele>2066</ele>
        <time>2021-08-19T19:36:31Z</time>
      </trkpt>
      <trkpt lat="42.70372" lon="0.64541">
        <ele>2066</ele>
        <time>2021-08-19T19:36:14Z</time>
      </trkpt>
      <trkpt lat="42.70374" lon="0.64541">
        <ele>2064</ele>
        <time>2021-08-19T19:36:12Z</time>
      </trkpt>
      <trkpt lat="42.70381" lon="0.64526">
        <ele>2062</ele>
        <time>2021-08-19T19:35:54Z</time>
      </trkpt>
      <trkpt lat="42.70383" lon="0.64543">
        <ele>2059</ele>
        <time>2021-08-19T19:35:37Z</time>
      </trkpt>
      <trkpt lat="42.70381" lon="0.64564">
        <ele>2057</ele>
        <time>2021-08-19T19:35:17Z</time>
      </trkpt>
      <trkpt lat="42.70381" lon="0.64599">
        <ele>2055</ele>
        <time>2021-08-19T19:34:42Z</time>
      </trkpt>
      <trkpt lat="42.70388" lon="0.6462">
        <ele>2050</ele>
        <time>2021-08-19T19:34:20Z</time>
      </trkpt>
      <trkpt lat="42.70396" lon="0.64668">
        <ele>2043</ele>
        <time>2021-08-19T19:33:31Z</time>
      </trkpt>
      <trkpt lat="42.70395" lon="0.64678">
        <ele>2043</ele>
        <time>2021-08-19T19:33:22Z</time>
      </trkpt>
      <trkpt lat="42.70379" lon="0.64702">
        <ele>2054</ele>
        <time>2021-08-19T19:32:50Z</time>
      </trkpt>
      <trkpt lat="42.70378" lon="0.64721">
        <ele>2054</ele>
        <time>2021-08-19T19:32:31Z</time>
      </trkpt>
      <trkpt lat="42.70379" lon="0.64744">
        <ele>2053</ele>
        <time>2021-08-19T19:32:08Z</time>
      </trkpt>
      <trkpt lat="42.70403" lon="0.64788">
        <ele>2048</ele>
        <time>2021-08-19T19:31:15Z</time>
      </trkpt>
      <trkpt lat="42.70406" lon="0.64765">
        <ele>2038</ele>
        <time>2021-08-19T19:30:52Z</time>
      </trkpt>
      <trkpt lat="42.70416" lon="0.64783">
        <ele>2036</ele>
        <time>2021-08-19T19:30:30Z</time>
      </trkpt>
      <trkpt lat="42.70419" lon="0.64772">
        <ele>2030</ele>
        <time>2021-08-19T19:30:18Z</time>
      </trkpt>
      <trkpt lat="42.70416" lon="0.64754">
        <ele>2026</ele>
        <time>2021-08-19T19:30:00Z</time>
      </trkpt>
      <trkpt lat="42.70423" lon="0.64764">
        <ele>2025</ele>
        <time>2021-08-19T19:29:47Z</time>
      </trkpt>
      <trkpt lat="42.70428" lon="0.64783">
        <ele>2028</ele>
        <time>2021-08-19T19:29:27Z</time>
      </trkpt>
      <trkpt lat="42.70433" lon="0.64757">
        <ele>2016</ele>
        <time>2021-08-19T19:29:00Z</time>
      </trkpt>
      <trkpt lat="42.70428" lon="0.64746">
        <ele>2017</ele>
        <time>2021-08-19T19:28:48Z</time>
      </trkpt>
      <trkpt lat="42.70428" lon="0.64741">
        <ele>2017</ele>
        <time>2021-08-19T19:28:43Z</time>
      </trkpt>
      <trkpt lat="42.70438" lon="0.64754">
        <ele>2012</ele>
        <time>2021-08-19T19:28:24Z</time>
      </trkpt>
      <trkpt lat="42.70444" lon="0.64784">
        <ele>2017</ele>
        <time>2021-08-19T19:27:54Z</time>
      </trkpt>
      <trkpt lat="42.70449" lon="0.64758">
        <ele>2006</ele>
        <time>2021-08-19T19:27:28Z</time>
      </trkpt>
      <trkpt lat="42.7045" lon="0.64733">
        <ele>2003</ele>
        <time>2021-08-19T19:27:03Z</time>
      </trkpt>
      <trkpt lat="42.70463" lon="0.64766">
        <ele>1999</ele>
        <time>2021-08-19T19:26:26Z</time>
      </trkpt>
      <trkpt lat="42.7046" lon="0.6478">
        <ele>2005</ele>
        <time>2021-08-19T19:26:12Z</time>
      </trkpt>
      <trkpt lat="42.70466" lon="0.6477">
        <ele>1998</ele>
        <time>2021-08-19T19:25:59Z</time>
      </trkpt>
      <trkpt lat="42.7047" lon="0.64758">
        <ele>1992</ele>
        <time>2021-08-19T19:25:46Z</time>
      </trkpt>
      <trkpt lat="42.7047" lon="0.64722">
        <ele>1990</ele>
        <time>2021-08-19T19:25:11Z</time>
      </trkpt>
      <trkpt lat="42.70482" lon="0.64745">
        <ele>1982</ele>
        <time>2021-08-19T19:24:43Z</time>
      </trkpt>
      <trkpt lat="42.70485" lon="0.64774">
        <ele>1986</ele>
        <time>2021-08-19T19:24:15Z</time>
      </trkpt>
      <trkpt lat="42.7049" lon="0.64764">
        <ele>1981</ele>
        <time>2021-08-19T19:24:03Z</time>
      </trkpt>
      <trkpt lat="42.70492" lon="0.64745">
        <ele>1976</ele>
        <time>2021-08-19T19:23:44Z</time>
      </trkpt>
      <trkpt lat="42.70491" lon="0.64736">
        <ele>1977</ele>
        <time>2021-08-19T19:23:35Z</time>
      </trkpt>
      <trkpt lat="42.70492" lon="0.64727">
        <ele>1976</ele>
        <time>2021-08-19T19:23:26Z</time>
      </trkpt>
      <trkpt lat="42.70497" lon="0.64728">
        <ele>1973</ele>
        <time>2021-08-19T19:23:19Z</time>
      </trkpt>
      <trkpt lat="42.70505" lon="0.64763">
        <ele>1970</ele>
        <time>2021-08-19T19:22:43Z</time>
      </trkpt>
      <trkpt lat="42.70504" lon="0.64794">
        <ele>1978</ele>
        <time>2021-08-19T19:22:13Z</time>
      </trkpt>
      <trkpt lat="42.70522" lon="0.64807">
        <ele>1970</ele>
        <time>2021-08-19T19:21:46Z</time>
      </trkpt>
      <trkpt lat="42.70539" lon="0.6483">
        <ele>1966</ele>
        <time>2021-08-19T19:21:14Z</time>
      </trkpt>
      <trkpt lat="42.70541" lon="0.6483">
        <ele>1964</ele>
        <time>2021-08-19T19:21:11Z</time>
      </trkpt>
      <trkpt lat="42.7054" lon="0.64813">
        <ele>1960</ele>
        <time>2021-08-19T19:20:54Z</time>
      </trkpt>
      <trkpt lat="42.70526" lon="0.64782">
        <ele>1961</ele>
        <time>2021-08-19T19:20:19Z</time>
      </trkpt>
      <trkpt lat="42.70527" lon="0.64771">
        <ele>1957</ele>
        <time>2021-08-19T19:20:08Z</time>
      </trkpt>
      <trkpt lat="42.70542" lon="0.64738">
        <ele>1940</ele>
        <time>2021-08-19T19:19:30Z</time>
      </trkpt>
      <trkpt lat="42.70546" lon="0.64723">
        <ele>1936</ele>
        <time>2021-08-19T19:19:14Z</time>
      </trkpt>
      <trkpt lat="42.70548" lon="0.6472">
        <ele>1935</ele>
        <time>2021-08-19T19:19:10Z</time>
      </trkpt>
      <trkpt lat="42.70549" lon="0.64721">
        <ele>1934</ele>
        <time>2021-08-19T19:19:09Z</time>
      </trkpt>
      <trkpt lat="42.70552" lon="0.64736">
        <ele>1933</ele>
        <time>2021-08-19T19:18:53Z</time>
      </trkpt>
      <trkpt lat="42.70554" lon="0.64773">
        <ele>1939</ele>
        <time>2021-08-19T19:18:17Z</time>
      </trkpt>
      <trkpt lat="42.70566" lon="0.64783">
        <ele>1934</ele>
        <time>2021-08-19T19:17:58Z</time>
      </trkpt>
      <trkpt lat="42.70575" lon="0.64796">
        <ele>1933</ele>
        <time>2021-08-19T19:17:41Z</time>
      </trkpt>
      <trkpt lat="42.70576" lon="0.64795">
        <ele>1932</ele>
        <time>2021-08-19T19:17:39Z</time>
      </trkpt>
      <trkpt lat="42.70573" lon="0.64772">
        <ele>1926</ele>
        <time>2021-08-19T19:17:16Z</time>
      </trkpt>
      <trkpt lat="42.70574" lon="0.64771">
        <ele>1925</ele>
        <time>2021-08-19T19:17:14Z</time>
      </trkpt>
      <trkpt lat="42.70583" lon="0.64784">
        <ele>1923</ele>
        <time>2021-08-19T19:16:57Z</time>
      </trkpt>
      <trkpt lat="42.70587" lon="0.64787">
        <ele>1922</ele>
        <time>2021-08-19T19:16:51Z</time>
      </trkpt>
      <trkpt lat="42.70588" lon="0.64787">
        <ele>1921</ele>
        <time>2021-08-19T19:16:49Z</time>
      </trkpt>
      <trkpt lat="42.70589" lon="0.64784">
        <ele>1919</ele>
        <time>2021-08-19T19:16:46Z</time>
      </trkpt>
      <trkpt lat="42.70585" lon="0.64775">
        <ele>1919</ele>
        <time>2021-08-19T19:16:36Z</time>
      </trkpt>
      <trkpt lat="42.70582" lon="0.64772">
        <ele>1920</ele>
        <time>2021-08-19T19:16:31Z</time>
      </trkpt>
      <trkpt lat="42.70583" lon="0.64769">
        <ele>1918</ele>
        <time>2021-08-19T19:16:28Z</time>
      </trkpt>
      <trkpt lat="42.70585" lon="0.6477">
        <ele>1917</ele>
        <time>2021-08-19T19:16:25Z</time>
      </trkpt>
      <trkpt lat="42.70594" lon="0.64777">
        <ele>1913</ele>
        <time>2021-08-19T19:16:11Z</time>
      </trkpt>
      <trkpt lat="42.70593" lon="0.64772">
        <ele>1912</ele>
        <time>2021-08-19T19:16:06Z</time>
      </trkpt>
      <trkpt lat="42.70587" lon="0.64756">
        <ele>1911</ele>
        <time>2021-08-19T19:15:48Z</time>
      </trkpt>
      <trkpt lat="42.7059" lon="0.64743">
        <ele>1906</ele>
        <time>2021-08-19T19:15:35Z</time>
      </trkpt>
      <trkpt lat="42.70599" lon="0.64721">
        <ele>1897</ele>
        <time>2021-08-19T19:15:10Z</time>
      </trkpt>
      <trkpt lat="42.706" lon="0.64723">
        <ele>1896</ele>
        <time>2021-08-19T19:15:08Z</time>
      </trkpt>
      <trkpt lat="42.70598" lon="0.64741">
        <ele>1900</ele>
        <time>2021-08-19T19:14:50Z</time>
      </trkpt>
      <trkpt lat="42.70601" lon="0.64748">
        <ele>1899</ele>
        <time>2021-08-19T19:14:42Z</time>
      </trkpt>
      <trkpt lat="42.70603" lon="0.64748">
        <ele>1897</ele>
        <time>2021-08-19T19:14:39Z</time>
      </trkpt>
      <trkpt lat="42.70607" lon="0.64723">
        <ele>1891</ele>
        <time>2021-08-19T19:14:14Z</time>
      </trkpt>
      <trkpt lat="42.7061" lon="0.64714">
        <ele>1888</ele>
        <time>2021-08-19T19:14:05Z</time>
      </trkpt>
      <trkpt lat="42.70613" lon="0.64713">
        <ele>1885</ele>
        <time>2021-08-19T19:14:01Z</time>
      </trkpt>
      <trkpt lat="42.70615" lon="0.64715">
        <ele>1884</ele>
        <time>2021-08-19T19:13:57Z</time>
      </trkpt>
      <trkpt lat="42.70616" lon="0.64722">
        <ele>1884</ele>
        <time>2021-08-19T19:13:50Z</time>
      </trkpt>
      <trkpt lat="42.70613" lon="0.64737">
        <ele>1889</ele>
        <time>2021-08-19T19:13:35Z</time>
      </trkpt>
      <trkpt lat="42.70614" lon="0.64745">
        <ele>1889</ele>
        <time>2021-08-19T19:13:27Z</time>
      </trkpt>
      <trkpt lat="42.7062" lon="0.64757">
        <ele>1888</ele>
        <time>2021-08-19T19:13:13Z</time>
      </trkpt>
      <trkpt lat="42.70626" lon="0.64781">
        <ele>1892</ele>
        <time>2021-08-19T19:12:48Z</time>
      </trkpt>
      <trkpt lat="42.70634" lon="0.64791">
        <ele>1889</ele>
        <time>2021-08-19T19:12:33Z</time>
      </trkpt>
      <trkpt lat="42.70639" lon="0.64793">
        <ele>1886</ele>
        <time>2021-08-19T19:12:27Z</time>
      </trkpt>
      <trkpt lat="42.70642" lon="0.64792">
        <ele>1884</ele>
        <time>2021-08-19T19:12:22Z</time>
      </trkpt>
      <trkpt lat="42.70642" lon="0.64783">
        <ele>1881</ele>
        <time>2021-08-19T19:12:14Z</time>
      </trkpt>
      <trkpt lat="42.70647" lon="0.6478">
        <ele>1877</ele>
        <time>2021-08-19T19:12:06Z</time>
      </trkpt>
      <trkpt lat="42.70652" lon="0.64782">
        <ele>1874</ele>
        <time>2021-08-19T19:11:59Z</time>
      </trkpt>
      <trkpt lat="42.70658" lon="0.64792">
        <ele>1872</ele>
        <time>2021-08-19T19:11:47Z</time>
      </trkpt>
      <trkpt lat="42.7066" lon="0.64799">
        <ele>1873</ele>
        <time>2021-08-19T19:11:39Z</time>
      </trkpt>
      <trkpt lat="42.70662" lon="0.64819">
        <ele>1877</ele>
        <time>2021-08-19T19:11:20Z</time>
      </trkpt>
      <trkpt lat="42.70665" lon="0.64827">
        <ele>1877</ele>
        <time>2021-08-19T19:11:11Z</time>
      </trkpt>
      <trkpt lat="42.7067" lon="0.64828">
        <ele>1875</ele>
        <time>2021-08-19T19:11:04Z</time>
      </trkpt>
      <trkpt lat="42.70683" lon="0.64826">
        <ele>1868</ele>
        <time>2021-08-19T19:10:47Z</time>
      </trkpt>
      <trkpt lat="42.70691" lon="0.6483">
        <ele>1865</ele>
        <time>2021-08-19T19:10:35Z</time>
      </trkpt>
      <trkpt lat="42.70692" lon="0.64827">
        <ele>1864</ele>
        <time>2021-08-19T19:10:32Z</time>
      </trkpt>
      <trkpt lat="42.70684" lon="0.64818">
        <ele>1865</ele>
        <time>2021-08-19T19:10:18Z</time>
      </trkpt>
      <trkpt lat="42.70681" lon="0.64809">
        <ele>1864</ele>
        <time>2021-08-19T19:10:08Z</time>
      </trkpt>
      <trkpt lat="42.70691" lon="0.64772">
        <ele>1847</ele>
        <time>2021-08-19T19:09:30Z</time>
      </trkpt>
      <trkpt lat="42.70689" lon="0.6476">
        <ele>1844</ele>
        <time>2021-08-19T19:09:18Z</time>
      </trkpt>
      <trkpt lat="42.70693" lon="0.6476">
        <ele>1842</ele>
        <time>2021-08-19T19:09:12Z</time>
      </trkpt>
      <trkpt lat="42.70701" lon="0.64791">
        <ele>1847</ele>
        <time>2021-08-19T19:08:40Z</time>
      </trkpt>
      <trkpt lat="42.70704" lon="0.64795">
        <ele>1847</ele>
        <time>2021-08-19T19:08:34Z</time>
      </trkpt>
      <trkpt lat="42.7071" lon="0.64799">
        <ele>1845</ele>
        <time>2021-08-19T19:08:26Z</time>
      </trkpt>
      <trkpt lat="42.7072" lon="0.64801">
        <ele>1841</ele>
        <time>2021-08-19T19:08:12Z</time>
      </trkpt>
      <trkpt lat="42.70719" lon="0.64797">
        <ele>1840</ele>
        <time>2021-08-19T19:08:08Z</time>
      </trkpt>
      <trkpt lat="42.70716" lon="0.64794">
        <ele>1840</ele>
        <time>2021-08-19T19:08:03Z</time>
      </trkpt>
      <trkpt lat="42.70712" lon="0.64785">
        <ele>1840</ele>
        <time>2021-08-19T19:07:53Z</time>
      </trkpt>
      <trkpt lat="42.70714" lon="0.64764">
        <ele>1831</ele>
        <time>2021-08-19T19:07:32Z</time>
      </trkpt>
      <trkpt lat="42.70717" lon="0.64752">
        <ele>1826</ele>
        <time>2021-08-19T19:07:19Z</time>
      </trkpt>
      <trkpt lat="42.70718" lon="0.64752">
        <ele>1825</ele>
        <time>2021-08-19T19:07:18Z</time>
      </trkpt>
      <trkpt lat="42.70724" lon="0.64768">
        <ele>1827</ele>
        <time>2021-08-19T19:07:01Z</time>
      </trkpt>
      <trkpt lat="42.7074" lon="0.64776">
        <ele>1821</ele>
        <time>2021-08-19T19:06:38Z</time>
      </trkpt>
      <trkpt lat="42.70746" lon="0.6478">
        <ele>1819</ele>
        <time>2021-08-19T19:06:29Z</time>
      </trkpt>
      <trkpt lat="42.70746" lon="0.64777">
        <ele>1818</ele>
        <time>2021-08-19T19:06:26Z</time>
      </trkpt>
      <trkpt lat="42.70742" lon="0.64761">
        <ele>1815</ele>
        <time>2021-08-19T19:06:09Z</time>
      </trkpt>
      <trkpt lat="42.70742" lon="0.64726">
        <ele>1807</ele>
        <time>2021-08-19T19:05:35Z</time>
      </trkpt>
      <trkpt lat="42.70745" lon="0.64727">
        <ele>1805</ele>
        <time>2021-08-19T19:05:31Z</time>
      </trkpt>
      <trkpt lat="42.70756" lon="0.64744">
        <ele>1802</ele>
        <time>2021-08-19T19:05:09Z</time>
      </trkpt>
      <trkpt lat="42.70768" lon="0.64754">
        <ele>1797</ele>
        <time>2021-08-19T19:04:50Z</time>
      </trkpt>
      <trkpt lat="42.7077" lon="0.64754">
        <ele>1796</ele>
        <time>2021-08-19T19:04:47Z</time>
      </trkpt>
      <trkpt lat="42.7076" lon="0.64705">
        <ele>1795</ele>
        <time>2021-08-19T19:03:57Z</time>
      </trkpt>
      <trkpt lat="42.7076" lon="0.64688">
        <ele>1793</ele>
        <time>2021-08-19T19:03:41Z</time>
      </trkpt>
      <trkpt lat="42.70755" lon="0.64654">
        <ele>1794</ele>
        <time>2021-08-19T19:03:07Z</time>
      </trkpt>
      <trkpt lat="42.70749" lon="0.64638">
        <ele>1798</ele>
        <time>2021-08-19T19:02:49Z</time>
      </trkpt>
      <trkpt lat="42.70752" lon="0.64631">
        <ele>1798</ele>
        <time>2021-08-19T19:02:41Z</time>
      </trkpt>
      <trkpt lat="42.7079" lon="0.64613">
        <ele>1788</ele>
        <time>2021-08-19T19:01:47Z</time>
      </trkpt>
      <trkpt lat="42.70806" lon="0.6461">
        <ele>1783</ele>
        <time>2021-08-19T19:01:26Z</time>
      </trkpt>
      <trkpt lat="42.70843" lon="0.64621">
        <ele>1769</ele>
        <time>2021-08-19T19:00:35Z</time>
      </trkpt>
      <trkpt lat="42.70856" lon="0.64616">
        <ele>1766</ele>
        <time>2021-08-19T19:00:17Z</time>
      </trkpt>
      <trkpt lat="42.70862" lon="0.64611">
        <ele>1765</ele>
        <time>2021-08-19T19:00:08Z</time>
      </trkpt>
      <trkpt lat="42.7087" lon="0.64588">
        <ele>1767</ele>
        <time>2021-08-19T18:59:43Z</time>
      </trkpt>
      <trkpt lat="42.70878" lon="0.64581">
        <ele>1767</ele>
        <time>2021-08-19T18:59:30Z</time>
      </trkpt>
      <trkpt lat="42.70882" lon="0.64579">
        <ele>1767</ele>
        <time>2021-08-19T18:59:25Z</time>
      </trkpt>
      <trkpt lat="42.70926" lon="0.64581">
        <ele>1757</ele>
        <time>2021-08-19T18:58:26Z</time>
      </trkpt>
      <trkpt lat="42.70931" lon="0.64586">
        <ele>1755</ele>
        <time>2021-08-19T18:58:18Z</time>
      </trkpt>
      <trkpt lat="42.70942" lon="0.64593">
        <ele>1751</ele>
        <time>2021-08-19T18:58:01Z</time>
      </trkpt>
      <trkpt lat="42.70954" lon="0.64593">
        <ele>1750</ele>
        <time>2021-08-19T18:57:45Z</time>
      </trkpt>
      <trkpt lat="42.70959" lon="0.64596">
        <ele>1748</ele>
        <time>2021-08-19T18:57:38Z</time>
      </trkpt>
      <trkpt lat="42.70955" lon="0.64604">
        <ele>1745</ele>
        <time>2021-08-19T18:57:29Z</time>
      </trkpt>
      <trkpt lat="42.70928" lon="0.64613">
        <ele>1745</ele>
        <time>2021-08-19T18:56:51Z</time>
      </trkpt>
      <trkpt lat="42.70927" lon="0.64617">
        <ele>1744</ele>
        <time>2021-08-19T18:56:47Z</time>
      </trkpt>
      <trkpt lat="42.70929" lon="0.6462">
        <ele>1742</ele>
        <time>2021-08-19T18:56:43Z</time>
      </trkpt>
      <trkpt lat="42.70977" lon="0.64634">
        <ele>1724</ele>
        <time>2021-08-19T18:55:38Z</time>
      </trkpt>
      <trkpt lat="42.70987" lon="0.64632">
        <ele>1723</ele>
        <time>2021-08-19T18:55:24Z</time>
      </trkpt>
      <trkpt lat="42.70992" lon="0.64622">
        <ele>1728</ele>
        <time>2021-08-19T18:55:13Z</time>
      </trkpt>
      <trkpt lat="42.70996" lon="0.64622">
        <ele>1727</ele>
        <time>2021-08-19T18:55:07Z</time>
      </trkpt>
      <trkpt lat="42.71038" lon="0.64638">
        <ele>1716</ele>
        <time>2021-08-19T18:54:09Z</time>
      </trkpt>
      <trkpt lat="42.71038" lon="0.64642">
        <ele>1712</ele>
        <time>2021-08-19T18:54:05Z</time>
      </trkpt>
      <trkpt lat="42.7101" lon="0.64649">
        <ele>1707</ele>
        <time>2021-08-19T18:53:27Z</time>
      </trkpt>
      <trkpt lat="42.71009" lon="0.64652">
        <ele>1705</ele>
        <time>2021-08-19T18:53:24Z</time>
      </trkpt>
      <trkpt lat="42.71014" lon="0.64658">
        <ele>1700</ele>
        <time>2021-08-19T18:53:15Z</time>
      </trkpt>
      <trkpt lat="42.71024" lon="0.64659">
        <ele>1699</ele>
        <time>2021-08-19T18:53:02Z</time>
      </trkpt>
      <trkpt lat="42.71033" lon="0.64666">
        <ele>1692</ele>
        <time>2021-08-19T18:52:48Z</time>
      </trkpt>
      <trkpt lat="42.71052" lon="0.64674">
        <ele>1687</ele>
        <time>2021-08-19T18:52:21Z</time>
      </trkpt>
      <trkpt lat="42.71052" lon="0.64677">
        <ele>1686</ele>
        <time>2021-08-19T18:52:18Z</time>
      </trkpt>
      <trkpt lat="42.71048" lon="0.64679">
        <ele>1686</ele>
        <time>2021-08-19T18:52:13Z</time>
      </trkpt>
      <trkpt lat="42.71023" lon="0.64685">
        <ele>1687</ele>
        <time>2021-08-19T18:51:39Z</time>
      </trkpt>
      <trkpt lat="42.71023" lon="0.64689">
        <ele>1686</ele>
        <time>2021-08-19T18:51:35Z</time>
      </trkpt>
      <trkpt lat="42.71026" lon="0.6469">
        <ele>1685</ele>
        <time>2021-08-19T18:51:31Z</time>
      </trkpt>
      <trkpt lat="42.71045" lon="0.64696">
        <ele>1681</ele>
        <time>2021-08-19T18:51:05Z</time>
      </trkpt>
      <trkpt lat="42.71062" lon="0.64714">
        <ele>1672</ele>
        <time>2021-08-19T18:50:36Z</time>
      </trkpt>
      <trkpt lat="42.71063" lon="0.64716">
        <ele>1671</ele>
        <time>2021-08-19T18:50:33Z</time>
      </trkpt>
      <trkpt lat="42.7106" lon="0.6472">
        <ele>1670</ele>
        <time>2021-08-19T18:50:28Z</time>
      </trkpt>
      <trkpt lat="42.71038" lon="0.64718">
        <ele>1675</ele>
        <time>2021-08-19T18:49:58Z</time>
      </trkpt>
      <trkpt lat="42.71037" lon="0.64721">
        <ele>1674</ele>
        <time>2021-08-19T18:49:55Z</time>
      </trkpt>
      <trkpt lat="42.71047" lon="0.64726">
        <ele>1671</ele>
        <time>2021-08-19T18:49:41Z</time>
      </trkpt>
      <trkpt lat="42.71058" lon="0.64735">
        <ele>1665</ele>
        <time>2021-08-19T18:49:24Z</time>
      </trkpt>
      <trkpt lat="42.71079" lon="0.64738">
        <ele>1660</ele>
        <time>2021-08-19T18:48:56Z</time>
      </trkpt>
      <trkpt lat="42.71106" lon="0.64762">
        <ele>1649</ele>
        <time>2021-08-19T18:48:13Z</time>
      </trkpt>
      <trkpt lat="42.71115" lon="0.64762">
        <ele>1649</ele>
        <time>2021-08-19T18:48:01Z</time>
      </trkpt>
      <trkpt lat="42.71114" lon="0.64765">
        <ele>1647</ele>
        <time>2021-08-19T18:47:57Z</time>
      </trkpt>
      <trkpt lat="42.7111" lon="0.64768">
        <ele>1646</ele>
        <time>2021-08-19T18:47:51Z</time>
      </trkpt>
      <trkpt lat="42.71105" lon="0.64767">
        <ele>1647</ele>
        <time>2021-08-19T18:47:45Z</time>
      </trkpt>
      <trkpt lat="42.71103" lon="0.6477">
        <ele>1646</ele>
        <time>2021-08-19T18:47:41Z</time>
      </trkpt>
      <trkpt lat="42.71104" lon="0.64774">
        <ele>1644</ele>
        <time>2021-08-19T18:47:36Z</time>
      </trkpt>
      <trkpt lat="42.71114" lon="0.64779">
        <ele>1641</ele>
        <time>2021-08-19T18:47:22Z</time>
      </trkpt>
      <trkpt lat="42.71122" lon="0.6478">
        <ele>1640</ele>
        <time>2021-08-19T18:47:12Z</time>
      </trkpt>
      <trkpt lat="42.71124" lon="0.64782">
        <ele>1639</ele>
        <time>2021-08-19T18:47:08Z</time>
      </trkpt>
      <trkpt lat="42.71121" lon="0.64789">
        <ele>1636</ele>
        <time>2021-08-19T18:47:00Z</time>
      </trkpt>
      <trkpt lat="42.71115" lon="0.64792">
        <ele>1636</ele>
        <time>2021-08-19T18:46:52Z</time>
      </trkpt>
      <trkpt lat="42.71116" lon="0.64794">
        <ele>1635</ele>
        <time>2021-08-19T18:46:49Z</time>
      </trkpt>
      <trkpt lat="42.71127" lon="0.64798">
        <ele>1632</ele>
        <time>2021-08-19T18:46:34Z</time>
      </trkpt>
      <trkpt lat="42.71135" lon="0.64797">
        <ele>1631</ele>
        <time>2021-08-19T18:46:23Z</time>
      </trkpt>
      <trkpt lat="42.71135" lon="0.64799">
        <ele>1630</ele>
        <time>2021-08-19T18:46:21Z</time>
      </trkpt>
      <trkpt lat="42.71124" lon="0.64811">
        <ele>1626</ele>
        <time>2021-08-19T18:46:03Z</time>
      </trkpt>
      <trkpt lat="42.71116" lon="0.64814">
        <ele>1626</ele>
        <time>2021-08-19T18:45:52Z</time>
      </trkpt>
      <trkpt lat="42.71119" lon="0.64818">
        <ele>1623</ele>
        <time>2021-08-19T18:45:46Z</time>
      </trkpt>
      <trkpt lat="42.71129" lon="0.64826">
        <ele>1618</ele>
        <time>2021-08-19T18:45:31Z</time>
      </trkpt>
      <trkpt lat="42.71142" lon="0.64827">
        <ele>1616</ele>
        <time>2021-08-19T18:45:13Z</time>
      </trkpt>
      <trkpt lat="42.71143" lon="0.64829">
        <ele>1614</ele>
        <time>2021-08-19T18:45:11Z</time>
      </trkpt>
      <trkpt lat="42.71138" lon="0.64837">
        <ele>1613</ele>
        <time>2021-08-19T18:45:00Z</time>
      </trkpt>
      <trkpt lat="42.71132" lon="0.64839">
        <ele>1614</ele>
        <time>2021-08-19T18:44:52Z</time>
      </trkpt>
      <trkpt lat="42.7113" lon="0.64843">
        <ele>1614</ele>
        <time>2021-08-19T18:44:47Z</time>
      </trkpt>
      <trkpt lat="42.71136" lon="0.64849">
        <ele>1612</ele>
        <time>2021-08-19T18:44:38Z</time>
      </trkpt>
      <trkpt lat="42.71151" lon="0.6485">
        <ele>1607</ele>
        <time>2021-08-19T18:44:18Z</time>
      </trkpt>
      <trkpt lat="42.7116" lon="0.64847">
        <ele>1606</ele>
        <time>2021-08-19T18:44:05Z</time>
      </trkpt>
      <trkpt lat="42.71167" lon="0.64841">
        <ele>1606</ele>
        <time>2021-08-19T18:43:54Z</time>
      </trkpt>
      <trkpt lat="42.71181" lon="0.64842">
        <ele>1603</ele>
        <time>2021-08-19T18:43:35Z</time>
      </trkpt>
      <trkpt lat="42.7119" lon="0.64849">
        <ele>1599</ele>
        <time>2021-08-19T18:43:22Z</time>
      </trkpt>
      <trkpt lat="42.71204" lon="0.64865">
        <ele>1590</ele>
        <time>2021-08-19T18:42:57Z</time>
      </trkpt>
      <trkpt lat="42.71218" lon="0.64869">
        <ele>1584</ele>
        <time>2021-08-19T18:42:38Z</time>
      </trkpt>
      <trkpt lat="42.71237" lon="0.64865">
        <ele>1581</ele>
        <time>2021-08-19T18:42:12Z</time>
      </trkpt>
      <trkpt lat="42.71289" lon="0.64884">
        <ele>1566</ele>
        <time>2021-08-19T18:41:01Z</time>
      </trkpt>
      <trkpt lat="42.71296" lon="0.64885">
        <ele>1566</ele>
        <time>2021-08-19T18:40:51Z</time>
      </trkpt>
      <trkpt lat="42.71307" lon="0.64882">
        <ele>1566</ele>
        <time>2021-08-19T18:40:36Z</time>
      </trkpt>
      <trkpt lat="42.71308" lon="0.64885">
        <ele>1565</ele>
        <time>2021-08-19T18:40:33Z</time>
      </trkpt>
      <trkpt lat="42.71301" lon="0.64894">
        <ele>1561</ele>
        <time>2021-08-19T18:40:20Z</time>
      </trkpt>
      <trkpt lat="42.71319" lon="0.64899">
        <ele>1557</ele>
        <time>2021-08-19T18:39:56Z</time>
      </trkpt>
      <trkpt lat="42.71324" lon="0.64899">
        <ele>1557</ele>
        <time>2021-08-19T18:39:49Z</time>
      </trkpt>
      <trkpt lat="42.71335" lon="0.64904">
        <ele>1554</ele>
        <time>2021-08-19T18:39:33Z</time>
      </trkpt>
      <trkpt lat="42.71345" lon="0.64928">
        <ele>1542</ele>
        <time>2021-08-19T18:39:06Z</time>
      </trkpt>
      <trkpt lat="42.71353" lon="0.64935">
        <ele>1539</ele>
        <time>2021-08-19T18:38:54Z</time>
      </trkpt>
      <trkpt lat="42.71357" lon="0.64944">
        <ele>1535</ele>
        <time>2021-08-19T18:38:43Z</time>
      </trkpt>
      <trkpt lat="42.71368" lon="0.64952">
        <ele>1531</ele>
        <time>2021-08-19T18:38:27Z</time>
      </trkpt>
      <trkpt lat="42.71369" lon="0.64963">
        <ele>1527</ele>
        <time>2021-08-19T18:38:16Z</time>
      </trkpt>
      <trkpt lat="42.71384" lon="0.64971">
        <ele>1521</ele>
        <time>2021-08-19T18:37:54Z</time>
      </trkpt>
      <trkpt lat="42.71395" lon="0.64988">
        <ele>1512</ele>
        <time>2021-08-19T18:37:32Z</time>
      </trkpt>
      <trkpt lat="42.71396" lon="0.64997">
        <ele>1508</ele>
        <time>2021-08-19T18:37:23Z</time>
      </trkpt>
      <trkpt lat="42.71401" lon="0.65007">
        <ele>1505</ele>
        <time>2021-08-19T18:37:11Z</time>
      </trkpt>
      <trkpt lat="42.71409" lon="0.65018">
        <ele>1502</ele>
        <time>2021-08-19T18:36:56Z</time>
      </trkpt>
      <trkpt lat="42.71415" lon="0.65021">
        <ele>1500</ele>
        <time>2021-08-19T18:36:48Z</time>
      </trkpt>
      <trkpt lat="42.71418" lon="0.65024">
        <ele>1499</ele>
        <time>2021-08-19T18:36:43Z</time>
      </trkpt>
      <trkpt lat="42.71446" lon="0.65049">
        <ele>1491</ele>
        <time>2021-08-19T18:35:58Z</time>
      </trkpt>
      <trkpt lat="42.71515" lon="0.65103">
        <ele>1472</ele>
        <time>2021-08-19T18:34:12Z</time>
      </trkpt>
      <trkpt lat="42.71544" lon="0.65116">
        <ele>1468</ele>
        <time>2021-08-19T18:33:31Z</time>
      </trkpt>
      <trkpt lat="42.71564" lon="0.65119">
        <ele>1466</ele>
        <time>2021-08-19T18:33:04Z</time>
      </trkpt>
      <trkpt lat="42.71585" lon="0.65119">
        <ele>1464</ele>
        <time>2021-08-19T18:32:36Z</time>
      </trkpt>
      <trkpt lat="42.71592" lon="0.65123">
        <ele>1462</ele>
        <time>2021-08-19T18:32:26Z</time>
      </trkpt>
      <trkpt lat="42.71594" lon="0.65128">
        <ele>1460</ele>
        <time>2021-08-19T18:32:20Z</time>
      </trkpt>
      <trkpt lat="42.71593" lon="0.65135">
        <ele>1458</ele>
        <time>2021-08-19T18:32:14Z</time>
      </trkpt>
      <trkpt lat="42.71586" lon="0.65148">
        <ele>1454</ele>
        <time>2021-08-19T18:31:58Z</time>
      </trkpt>
      <trkpt lat="42.71586" lon="0.65153">
        <ele>1452</ele>
        <time>2021-08-19T18:31:53Z</time>
      </trkpt>
      <trkpt lat="42.71587" lon="0.65164">
        <ele>1449</ele>
        <time>2021-08-19T18:31:42Z</time>
      </trkpt>
      <trkpt lat="42.71589" lon="0.65181">
        <ele>1449</ele>
        <time>2021-08-19T18:31:25Z</time>
      </trkpt>
      <trkpt lat="42.71592" lon="0.65186">
        <ele>1449</ele>
        <time>2021-08-19T18:31:19Z</time>
      </trkpt>
      <trkpt lat="42.71632" lon="0.65219">
        <ele>1445</ele>
        <time>2021-08-19T18:30:16Z</time>
      </trkpt>
      <trkpt lat="42.7165" lon="0.65228">
        <ele>1442</ele>
        <time>2021-08-19T18:29:51Z</time>
      </trkpt>
      <trkpt lat="42.71676" lon="0.65231">
        <ele>1438</ele>
        <time>2021-08-19T18:29:16Z</time>
      </trkpt>
      <trkpt lat="42.71722" lon="0.65253">
        <ele>1433</ele>
        <time>2021-08-19T18:28:11Z</time>
      </trkpt>
      <trkpt lat="42.71761" lon="0.65272">
        <ele>1430</ele>
        <time>2021-08-19T18:27:16Z</time>
      </trkpt>
      <trkpt lat="42.71775" lon="0.65282">
        <ele>1429</ele>
        <time>2021-08-19T18:26:54Z</time>
      </trkpt>
      <trkpt lat="42.7179" lon="0.65316">
        <ele>1427</ele>
        <time>2021-08-19T18:26:16Z</time>
      </trkpt>
      <trkpt lat="42.71839" lon="0.65348">
        <ele>1420</ele>
        <time>2021-08-19T18:25:03Z</time>
      </trkpt>
      <trkpt lat="42.71855" lon="0.6537">
        <ele>1419</ele>
        <time>2021-08-19T18:24:33Z</time>
      </trkpt>
      <trkpt lat="42.71874" lon="0.65382">
        <ele>1417</ele>
        <time>2021-08-19T18:24:05Z</time>
      </trkpt>
      <trkpt lat="42.71891" lon="0.65382">
        <ele>1414</ele>
        <time>2021-08-19T18:23:42Z</time>
      </trkpt>
      <trkpt lat="42.71905" lon="0.65388">
        <ele>1412</ele>
        <time>2021-08-19T18:23:22Z</time>
      </trkpt>
      <trkpt lat="42.71911" lon="0.65398">
        <ele>1411</ele>
        <time>2021-08-19T18:23:10Z</time>
      </trkpt>
      <trkpt lat="42.71914" lon="0.65437">
        <ele>1415</ele>
        <time>2021-08-19T18:22:31Z</time>
      </trkpt>
      <trkpt lat="42.7192" lon="0.65446">
        <ele>1416</ele>
        <time>2021-08-19T18:22:19Z</time>
      </trkpt>
      <trkpt lat="42.71931" lon="0.65454">
        <ele>1414</ele>
        <time>2021-08-19T18:22:03Z</time>
      </trkpt>
      <trkpt lat="42.71964" lon="0.65467">
        <ele>1403</ele>
        <time>2021-08-19T18:21:17Z</time>
      </trkpt>
      <trkpt lat="42.71968" lon="0.65475">
        <ele>1402</ele>
        <time>2021-08-19T18:21:07Z</time>
      </trkpt>
      <trkpt lat="42.71971" lon="0.65485">
        <ele>1401</ele>
        <time>2021-08-19T18:20:57Z</time>
      </trkpt>
      <trkpt lat="42.71972" lon="0.65502">
        <ele>1401</ele>
        <time>2021-08-19T18:20:40Z</time>
      </trkpt>
      <trkpt lat="42.71964" lon="0.65593">
        <ele>1411</ele>
        <time>2021-08-19T18:19:10Z</time>
      </trkpt>
      <trkpt lat="42.71956" lon="0.65632">
        <ele>1416</ele>
        <time>2021-08-19T18:18:31Z</time>
      </trkpt>
      <trkpt lat="42.71957" lon="0.6564">
        <ele>1415</ele>
        <time>2021-08-19T18:18:23Z</time>
      </trkpt>
      <trkpt lat="42.71961" lon="0.65647">
        <ele>1414</ele>
        <time>2021-08-19T18:18:14Z</time>
      </trkpt>
      <trkpt lat="42.71965" lon="0.65651">
        <ele>1412</ele>
        <time>2021-08-19T18:18:07Z</time>
      </trkpt>
      <trkpt lat="42.71975" lon="0.65649">
        <ele>1408</ele>
        <time>2021-08-19T18:17:54Z</time>
      </trkpt>
      <trkpt lat="42.71988" lon="0.65633">
        <ele>1400</ele>
        <time>2021-08-19T18:17:30Z</time>
      </trkpt>
      <trkpt lat="42.72018" lon="0.65607">
        <ele>1394</ele>
        <time>2021-08-19T18:16:43Z</time>
      </trkpt>
      <trkpt lat="42.72035" lon="0.6559">
        <ele>1394</ele>
        <time>2021-08-19T18:16:15Z</time>
      </trkpt>
      <trkpt lat="42.72051" lon="0.65567">
        <ele>1393</ele>
        <time>2021-08-19T18:15:44Z</time>
      </trkpt>
      <trkpt lat="42.72072" lon="0.65537">
        <ele>1391</ele>
        <time>2021-08-19T18:15:03Z</time>
      </trkpt>
      <trkpt lat="42.72081" lon="0.65524">
        <ele>1389</ele>
        <time>2021-08-19T18:14:46Z</time>
      </trkpt>
      <trkpt lat="42.7209" lon="0.65497">
        <ele>1386</ele>
        <time>2021-08-19T18:14:17Z</time>
      </trkpt>
      <trkpt lat="42.72103" lon="0.6545">
        <ele>1384</ele>
        <time>2021-08-19T18:13:27Z</time>
      </trkpt>
      <trkpt lat="42.7211" lon="0.65439">
        <ele>1384</ele>
        <time>2021-08-19T18:13:13Z</time>
      </trkpt>
      <trkpt lat="42.72131" lon="0.65415">
        <ele>1382</ele>
        <time>2021-08-19T18:12:36Z</time>
      </trkpt>
      <trkpt lat="42.72133" lon="0.65409">
        <ele>1381</ele>
        <time>2021-08-19T18:12:30Z</time>
      </trkpt>
      <trkpt lat="42.72132" lon="0.65403">
        <ele>1381</ele>
        <time>2021-08-19T18:12:24Z</time>
      </trkpt>
      <trkpt lat="42.72129" lon="0.65401">
        <ele>1381</ele>
        <time>2021-08-19T18:12:20Z</time>
      </trkpt>
      <trkpt lat="42.72122" lon="0.65397">
        <ele>1381</ele>
        <time>2021-08-19T18:12:09Z</time>
      </trkpt>
      <trkpt lat="42.72138" lon="0.65362">
        <ele>1378</ele>
        <time>2021-08-19T18:11:29Z</time>
      </trkpt>
      <trkpt lat="42.72138" lon="0.65362">
        <ele>1378</ele>
        <time>2021-08-19T18:11:29Z</time>
      </trkpt>
    </trkseg>
  </trk>
</gpx>